<?xml version="1.0" encoding="UTF-8" standalone="no" ?>
<gpx xmlns="http://www.topografix.com/GPX/1/1" xmlns:xsi="http://www.w3.org/2001/XMLSchema-instance" xsi:schemaLocation="http://www.topografix.com/GPX/1/1 http://www.topografix.com/GPX/1/1/gpx.xsd" version="1.1" creator="VisuGPX - https://www.visugpx.com">
  <metadata>
    <name>Treffen 2016 - jour 3</name>
    <desc><![CDATA[Quelques passages pénibles (circulation), de belles portions de virages et de beaux panoramas.]]></desc>
  </metadata>
  <trk>
    <name><![CDATA[TREFFEN-2016-3]]></name>
    <trkseg>
      <trkpt lat="43.64859" lon="3.93902">
        <ele>97.23</ele>
        <time>2016-06-13T08:25:05Z</time>
      </trkpt>
      <trkpt lat="43.64883" lon="3.93887">
        <ele>97.71</ele>
        <time>2016-06-13T08:27:10Z</time>
      </trkpt>
      <trkpt lat="43.6489" lon="3.93886">
        <ele>98.19</ele>
        <time>2016-06-13T08:27:12Z</time>
      </trkpt>
      <trkpt lat="43.649" lon="3.93895">
        <ele>98.19</ele>
        <time>2016-06-13T08:27:16Z</time>
      </trkpt>
      <trkpt lat="43.64921" lon="3.93982">
        <ele>94.35</ele>
        <time>2016-06-13T08:27:26Z</time>
      </trkpt>
      <trkpt lat="43.64937" lon="3.94038">
        <ele>91.46</ele>
        <time>2016-06-13T08:27:35Z</time>
      </trkpt>
      <trkpt lat="43.64935" lon="3.94041">
        <ele>92.42</ele>
        <time>2016-06-13T08:27:36Z</time>
      </trkpt>
      <trkpt lat="43.6488" lon="3.94079">
        <ele>91.94</ele>
        <time>2016-06-13T08:27:45Z</time>
      </trkpt>
      <trkpt lat="43.64863" lon="3.94088">
        <ele>92.9</ele>
        <time>2016-06-13T08:27:47Z</time>
      </trkpt>
      <trkpt lat="43.64811" lon="3.94106">
        <ele>91.46</ele>
        <time>2016-06-13T08:27:53Z</time>
      </trkpt>
      <trkpt lat="43.6478" lon="3.94108">
        <ele>91.46</ele>
        <time>2016-06-13T08:27:57Z</time>
      </trkpt>
      <trkpt lat="43.64752" lon="3.94125">
        <ele>91.46</ele>
        <time>2016-06-13T08:28:02Z</time>
      </trkpt>
      <trkpt lat="43.64676" lon="3.94217">
        <ele>88.58</ele>
        <time>2016-06-13T08:28:14Z</time>
      </trkpt>
      <trkpt lat="43.64654" lon="3.94244">
        <ele>87.14</ele>
        <time>2016-06-13T08:28:17Z</time>
      </trkpt>
      <trkpt lat="43.64629" lon="3.94273">
        <ele>82.81</ele>
        <time>2016-06-13T08:28:21Z</time>
      </trkpt>
      <trkpt lat="43.64604" lon="3.94299">
        <ele>81.85</ele>
        <time>2016-06-13T08:28:27Z</time>
      </trkpt>
      <trkpt lat="43.64586" lon="3.94297">
        <ele>81.37</ele>
        <time>2016-06-13T08:28:31Z</time>
      </trkpt>
      <trkpt lat="43.64574" lon="3.94286">
        <ele>82.33</ele>
        <time>2016-06-13T08:28:34Z</time>
      </trkpt>
      <trkpt lat="43.64532" lon="3.94195">
        <ele>79.93</ele>
        <time>2016-06-13T08:28:43Z</time>
      </trkpt>
      <trkpt lat="43.64508" lon="3.94137">
        <ele>76.56</ele>
        <time>2016-06-13T08:28:49Z</time>
      </trkpt>
      <trkpt lat="43.64495" lon="3.94103">
        <ele>75.12</ele>
        <time>2016-06-13T08:28:58Z</time>
      </trkpt>
      <trkpt lat="43.64488" lon="3.9409">
        <ele>76.08</ele>
        <time>2016-06-13T08:29:16Z</time>
      </trkpt>
      <trkpt lat="43.64472" lon="3.94095">
        <ele>75.6</ele>
        <time>2016-06-13T08:29:20Z</time>
      </trkpt>
      <trkpt lat="43.64424" lon="3.94142">
        <ele>74.16</ele>
        <time>2016-06-13T08:29:27Z</time>
      </trkpt>
      <trkpt lat="43.64393" lon="3.94176">
        <ele>75.6</ele>
        <time>2016-06-13T08:29:31Z</time>
      </trkpt>
      <trkpt lat="43.64297" lon="3.94249">
        <ele>74.16</ele>
        <time>2016-06-13T08:29:42Z</time>
      </trkpt>
      <trkpt lat="43.64274" lon="3.94263">
        <ele>73.2</ele>
        <time>2016-06-13T08:29:47Z</time>
      </trkpt>
      <trkpt lat="43.64268" lon="3.94265">
        <ele>73.68</ele>
        <time>2016-06-13T08:29:50Z</time>
      </trkpt>
      <trkpt lat="43.64261" lon="3.94296">
        <ele>73.68</ele>
        <time>2016-06-13T08:29:56Z</time>
      </trkpt>
      <trkpt lat="43.64261" lon="3.94307">
        <ele>72.72</ele>
        <time>2016-06-13T08:29:58Z</time>
      </trkpt>
      <trkpt lat="43.64264" lon="3.94331">
        <ele>73.68</ele>
        <time>2016-06-13T08:30:10Z</time>
      </trkpt>
      <trkpt lat="43.64264" lon="3.94331">
        <ele>73.68</ele>
        <time>2016-06-13T08:31:12Z</time>
      </trkpt>
      <trkpt lat="43.64264" lon="3.94331">
        <ele>75.6</ele>
        <time>2016-06-13T08:31:37Z</time>
      </trkpt>
      <trkpt lat="43.64264" lon="3.94331">
        <ele>73.68</ele>
        <time>2016-06-13T08:33:27Z</time>
      </trkpt>
      <trkpt lat="43.64264" lon="3.94331">
        <ele>73.68</ele>
        <time>2016-06-13T08:34:35Z</time>
      </trkpt>
      <trkpt lat="43.64264" lon="3.94331">
        <ele>73.2</ele>
        <time>2016-06-13T08:35:15Z</time>
      </trkpt>
      <trkpt lat="43.64264" lon="3.94331">
        <ele>73.68</ele>
        <time>2016-06-13T08:36:27Z</time>
      </trkpt>
      <trkpt lat="43.64264" lon="3.9433">
        <ele>75.12</ele>
        <time>2016-06-13T08:37:19Z</time>
      </trkpt>
      <trkpt lat="43.64267" lon="3.94348">
        <ele>76.08</ele>
        <time>2016-06-13T08:38:13Z</time>
      </trkpt>
      <trkpt lat="43.64268" lon="3.94354">
        <ele>74.16</ele>
        <time>2016-06-13T08:38:16Z</time>
      </trkpt>
      <trkpt lat="43.64268" lon="3.94353">
        <ele>74.64</ele>
        <time>2016-06-13T08:39:26Z</time>
      </trkpt>
      <trkpt lat="43.64269" lon="3.94358">
        <ele>74.16</ele>
        <time>2016-06-13T08:39:49Z</time>
      </trkpt>
      <trkpt lat="43.64283" lon="3.94348">
        <ele>74.64</ele>
        <time>2016-06-13T08:39:56Z</time>
      </trkpt>
      <trkpt lat="43.64281" lon="3.94339">
        <ele>74.64</ele>
        <time>2016-06-13T08:39:58Z</time>
      </trkpt>
      <trkpt lat="43.64274" lon="3.94304">
        <ele>74.64</ele>
        <time>2016-06-13T08:40:06Z</time>
      </trkpt>
      <trkpt lat="43.64258" lon="3.9427">
        <ele>74.16</ele>
        <time>2016-06-13T08:40:13Z</time>
      </trkpt>
      <trkpt lat="43.64251" lon="3.94279">
        <ele>74.64</ele>
        <time>2016-06-13T08:40:15Z</time>
      </trkpt>
      <trkpt lat="43.64234" lon="3.94293">
        <ele>74.16</ele>
        <time>2016-06-13T08:40:26Z</time>
      </trkpt>
      <trkpt lat="43.64225" lon="3.94299">
        <ele>74.64</ele>
        <time>2016-06-13T08:40:29Z</time>
      </trkpt>
      <trkpt lat="43.64186" lon="3.943">
        <ele>75.12</ele>
        <time>2016-06-13T08:40:37Z</time>
      </trkpt>
      <trkpt lat="43.64187" lon="3.94332">
        <ele>74.64</ele>
        <time>2016-06-13T08:40:42Z</time>
      </trkpt>
      <trkpt lat="43.64205" lon="3.94368">
        <ele>74.16</ele>
        <time>2016-06-13T08:40:47Z</time>
      </trkpt>
      <trkpt lat="43.64242" lon="3.94494">
        <ele>77.52</ele>
        <time>2016-06-13T08:41:00Z</time>
      </trkpt>
      <trkpt lat="43.64255" lon="3.94537">
        <ele>75.6</ele>
        <time>2016-06-13T08:41:03Z</time>
      </trkpt>
      <trkpt lat="43.64315" lon="3.94741">
        <ele>75.6</ele>
        <time>2016-06-13T08:41:15Z</time>
      </trkpt>
      <trkpt lat="43.64335" lon="3.94809">
        <ele>74.64</ele>
        <time>2016-06-13T08:41:19Z</time>
      </trkpt>
      <trkpt lat="43.64397" lon="3.95021">
        <ele>75.6</ele>
        <time>2016-06-13T08:41:32Z</time>
      </trkpt>
      <trkpt lat="43.64408" lon="3.95054">
        <ele>76.08</ele>
        <time>2016-06-13T08:41:34Z</time>
      </trkpt>
      <trkpt lat="43.64453" lon="3.95127">
        <ele>77.04</ele>
        <time>2016-06-13T08:41:39Z</time>
      </trkpt>
      <trkpt lat="43.64513" lon="3.95184">
        <ele>76.56</ele>
        <time>2016-06-13T08:41:44Z</time>
      </trkpt>
      <trkpt lat="43.6469" lon="3.95345">
        <ele>78.97</ele>
        <time>2016-06-13T08:41:59Z</time>
      </trkpt>
      <trkpt lat="43.64816" lon="3.95497">
        <ele>80.41</ele>
        <time>2016-06-13T08:42:11Z</time>
      </trkpt>
      <trkpt lat="43.64924" lon="3.95652">
        <ele>84.25</ele>
        <time>2016-06-13T08:42:22Z</time>
      </trkpt>
      <trkpt lat="43.65038" lon="3.95827">
        <ele>82.33</ele>
        <time>2016-06-13T08:42:35Z</time>
      </trkpt>
      <trkpt lat="43.65181" lon="3.96077">
        <ele>82.33</ele>
        <time>2016-06-13T08:42:53Z</time>
      </trkpt>
      <trkpt lat="43.65209" lon="3.96127">
        <ele>81.37</ele>
        <time>2016-06-13T08:42:58Z</time>
      </trkpt>
      <trkpt lat="43.65217" lon="3.96145">
        <ele>81.37</ele>
        <time>2016-06-13T08:43:01Z</time>
      </trkpt>
      <trkpt lat="43.6522" lon="3.96167">
        <ele>80.89</ele>
        <time>2016-06-13T08:43:04Z</time>
      </trkpt>
      <trkpt lat="43.65224" lon="3.96181">
        <ele>81.37</ele>
        <time>2016-06-13T08:43:06Z</time>
      </trkpt>
      <trkpt lat="43.65235" lon="3.96191">
        <ele>80.89</ele>
        <time>2016-06-13T08:43:08Z</time>
      </trkpt>
      <trkpt lat="43.65299" lon="3.96286">
        <ele>83.29</ele>
        <time>2016-06-13T08:43:18Z</time>
      </trkpt>
      <trkpt lat="43.65365" lon="3.9643">
        <ele>83.29</ele>
        <time>2016-06-13T08:43:29Z</time>
      </trkpt>
      <trkpt lat="43.65382" lon="3.96516">
        <ele>82.33</ele>
        <time>2016-06-13T08:43:35Z</time>
      </trkpt>
      <trkpt lat="43.65384" lon="3.9661">
        <ele>81.85</ele>
        <time>2016-06-13T08:43:43Z</time>
      </trkpt>
      <trkpt lat="43.65382" lon="3.96719">
        <ele>78</ele>
        <time>2016-06-13T08:43:52Z</time>
      </trkpt>
      <trkpt lat="43.65382" lon="3.96742">
        <ele>78</ele>
        <time>2016-06-13T08:44:00Z</time>
      </trkpt>
      <trkpt lat="43.65381" lon="3.96766">
        <ele>78.97</ele>
        <time>2016-06-13T08:44:20Z</time>
      </trkpt>
      <trkpt lat="43.65379" lon="3.96869">
        <ele>78.48</ele>
        <time>2016-06-13T08:44:30Z</time>
      </trkpt>
      <trkpt lat="43.65351" lon="3.97052">
        <ele>76.56</ele>
        <time>2016-06-13T08:44:43Z</time>
      </trkpt>
      <trkpt lat="43.65287" lon="3.97247">
        <ele>78</ele>
        <time>2016-06-13T08:44:54Z</time>
      </trkpt>
      <trkpt lat="43.65274" lon="3.97287">
        <ele>78.97</ele>
        <time>2016-06-13T08:44:56Z</time>
      </trkpt>
      <trkpt lat="43.65254" lon="3.97379">
        <ele>77.04</ele>
        <time>2016-06-13T08:45:01Z</time>
      </trkpt>
      <trkpt lat="43.65235" lon="3.97501">
        <ele>75.12</ele>
        <time>2016-06-13T08:45:10Z</time>
      </trkpt>
      <trkpt lat="43.65233" lon="3.97512">
        <ele>74.16</ele>
        <time>2016-06-13T08:45:11Z</time>
      </trkpt>
      <trkpt lat="43.65201" lon="3.97587">
        <ele>73.68</ele>
        <time>2016-06-13T08:45:18Z</time>
      </trkpt>
      <trkpt lat="43.65219" lon="3.97642">
        <ele>74.16</ele>
        <time>2016-06-13T08:45:23Z</time>
      </trkpt>
      <trkpt lat="43.65251" lon="3.97708">
        <ele>75.12</ele>
        <time>2016-06-13T08:45:29Z</time>
      </trkpt>
      <trkpt lat="43.65282" lon="3.97908">
        <ele>75.6</ele>
        <time>2016-06-13T08:45:40Z</time>
      </trkpt>
      <trkpt lat="43.6533" lon="3.98152">
        <ele>78</ele>
        <time>2016-06-13T08:45:52Z</time>
      </trkpt>
      <trkpt lat="43.65398" lon="3.98425">
        <ele>78</ele>
        <time>2016-06-13T08:46:04Z</time>
      </trkpt>
      <trkpt lat="43.65461" lon="3.98693">
        <ele>77.04</ele>
        <time>2016-06-13T08:46:15Z</time>
      </trkpt>
      <trkpt lat="43.65481" lon="3.98808">
        <ele>80.41</ele>
        <time>2016-06-13T08:46:20Z</time>
      </trkpt>
      <trkpt lat="43.65496" lon="3.98953">
        <ele>79.45</ele>
        <time>2016-06-13T08:46:28Z</time>
      </trkpt>
      <trkpt lat="43.65498" lon="3.98974">
        <ele>80.41</ele>
        <time>2016-06-13T08:46:30Z</time>
      </trkpt>
      <trkpt lat="43.65494" lon="3.98998">
        <ele>79.93</ele>
        <time>2016-06-13T08:46:34Z</time>
      </trkpt>
      <trkpt lat="43.65479" lon="3.99078">
        <ele>80.41</ele>
        <time>2016-06-13T08:46:41Z</time>
      </trkpt>
      <trkpt lat="43.6547" lon="3.99105">
        <ele>81.37</ele>
        <time>2016-06-13T08:46:43Z</time>
      </trkpt>
      <trkpt lat="43.65428" lon="3.99326">
        <ele>83.29</ele>
        <time>2016-06-13T08:46:56Z</time>
      </trkpt>
      <trkpt lat="43.65421" lon="3.99361">
        <ele>82.33</ele>
        <time>2016-06-13T08:46:58Z</time>
      </trkpt>
      <trkpt lat="43.65412" lon="3.99424">
        <ele>78.97</ele>
        <time>2016-06-13T08:47:02Z</time>
      </trkpt>
      <trkpt lat="43.65409" lon="3.99446">
        <ele>78.97</ele>
        <time>2016-06-13T08:47:04Z</time>
      </trkpt>
      <trkpt lat="43.65397" lon="3.99483">
        <ele>79.93</ele>
        <time>2016-06-13T08:47:08Z</time>
      </trkpt>
      <trkpt lat="43.65396" lon="3.99546">
        <ele>79.45</ele>
        <time>2016-06-13T08:47:14Z</time>
      </trkpt>
      <trkpt lat="43.65406" lon="3.99586">
        <ele>79.93</ele>
        <time>2016-06-13T08:47:17Z</time>
      </trkpt>
      <trkpt lat="43.6543" lon="3.99789">
        <ele>76.56</ele>
        <time>2016-06-13T08:47:29Z</time>
      </trkpt>
      <trkpt lat="43.65437" lon="3.99846">
        <ele>75.12</ele>
        <time>2016-06-13T08:47:32Z</time>
      </trkpt>
      <trkpt lat="43.65443" lon="3.999">
        <ele>73.68</ele>
        <time>2016-06-13T08:47:35Z</time>
      </trkpt>
      <trkpt lat="43.6545" lon="3.99958">
        <ele>70.31</ele>
        <time>2016-06-13T08:47:39Z</time>
      </trkpt>
      <trkpt lat="43.65447" lon="4.00001">
        <ele>66.95</ele>
        <time>2016-06-13T08:47:46Z</time>
      </trkpt>
      <trkpt lat="43.65442" lon="4.00008">
        <ele>69.83</ele>
        <time>2016-06-13T08:47:49Z</time>
      </trkpt>
      <trkpt lat="43.65434" lon="4.00015">
        <ele>70.31</ele>
        <time>2016-06-13T08:47:51Z</time>
      </trkpt>
      <trkpt lat="43.65429" lon="4.0002">
        <ele>68.39</ele>
        <time>2016-06-13T08:47:52Z</time>
      </trkpt>
      <trkpt lat="43.65409" lon="4.00096">
        <ele>67.43</ele>
        <time>2016-06-13T08:48:00Z</time>
      </trkpt>
      <trkpt lat="43.65443" lon="4.00137">
        <ele>69.35</ele>
        <time>2016-06-13T08:48:06Z</time>
      </trkpt>
      <trkpt lat="43.65452" lon="4.00139">
        <ele>68.87</ele>
        <time>2016-06-13T08:48:07Z</time>
      </trkpt>
      <trkpt lat="43.65477" lon="4.00139">
        <ele>69.35</ele>
        <time>2016-06-13T08:48:10Z</time>
      </trkpt>
      <trkpt lat="43.65511" lon="4.00167">
        <ele>68.87</ele>
        <time>2016-06-13T08:48:15Z</time>
      </trkpt>
      <trkpt lat="43.65552" lon="4.00309">
        <ele>69.35</ele>
        <time>2016-06-13T08:48:25Z</time>
      </trkpt>
      <trkpt lat="43.65596" lon="4.0047">
        <ele>68.87</ele>
        <time>2016-06-13T08:48:36Z</time>
      </trkpt>
      <trkpt lat="43.65601" lon="4.00487">
        <ele>67.43</ele>
        <time>2016-06-13T08:48:38Z</time>
      </trkpt>
      <trkpt lat="43.65614" lon="4.00531">
        <ele>67.43</ele>
        <time>2016-06-13T08:48:47Z</time>
      </trkpt>
      <trkpt lat="43.65638" lon="4.00621">
        <ele>66.47</ele>
        <time>2016-06-13T08:48:56Z</time>
      </trkpt>
      <trkpt lat="43.65662" lon="4.00705">
        <ele>66.47</ele>
        <time>2016-06-13T08:49:07Z</time>
      </trkpt>
      <trkpt lat="43.65679" lon="4.00769">
        <ele>66.47</ele>
        <time>2016-06-13T08:49:14Z</time>
      </trkpt>
      <trkpt lat="43.65717" lon="4.00912">
        <ele>65.99</ele>
        <time>2016-06-13T08:49:26Z</time>
      </trkpt>
      <trkpt lat="43.65755" lon="4.01046">
        <ele>66.47</ele>
        <time>2016-06-13T08:49:36Z</time>
      </trkpt>
      <trkpt lat="43.65796" lon="4.01201">
        <ele>66.47</ele>
        <time>2016-06-13T08:49:48Z</time>
      </trkpt>
      <trkpt lat="43.65844" lon="4.01368">
        <ele>65.99</ele>
        <time>2016-06-13T08:50:01Z</time>
      </trkpt>
      <trkpt lat="43.65858" lon="4.01436">
        <ele>67.43</ele>
        <time>2016-06-13T08:50:06Z</time>
      </trkpt>
      <trkpt lat="43.65889" lon="4.01586">
        <ele>65.51</ele>
        <time>2016-06-13T08:50:17Z</time>
      </trkpt>
      <trkpt lat="43.65895" lon="4.01605">
        <ele>64.55</ele>
        <time>2016-06-13T08:50:19Z</time>
      </trkpt>
      <trkpt lat="43.659" lon="4.01627">
        <ele>64.55</ele>
        <time>2016-06-13T08:50:27Z</time>
      </trkpt>
      <trkpt lat="43.659" lon="4.01627">
        <ele>64.07</ele>
        <time>2016-06-13T08:50:44Z</time>
      </trkpt>
      <trkpt lat="43.65923" lon="4.01696">
        <ele>66.95</ele>
        <time>2016-06-13T08:50:51Z</time>
      </trkpt>
      <trkpt lat="43.65969" lon="4.01879">
        <ele>67.43</ele>
        <time>2016-06-13T08:51:02Z</time>
      </trkpt>
      <trkpt lat="43.66003" lon="4.02093">
        <ele>67.91</ele>
        <time>2016-06-13T08:51:12Z</time>
      </trkpt>
      <trkpt lat="43.66036" lon="4.02315">
        <ele>70.79</ele>
        <time>2016-06-13T08:51:21Z</time>
      </trkpt>
      <trkpt lat="43.6604" lon="4.0234">
        <ele>70.79</ele>
        <time>2016-06-13T08:51:22Z</time>
      </trkpt>
      <trkpt lat="43.66075" lon="4.02574">
        <ele>71.27</ele>
        <time>2016-06-13T08:51:31Z</time>
      </trkpt>
      <trkpt lat="43.66099" lon="4.0273">
        <ele>68.87</ele>
        <time>2016-06-13T08:51:37Z</time>
      </trkpt>
      <trkpt lat="43.66107" lon="4.02782">
        <ele>70.79</ele>
        <time>2016-06-13T08:51:39Z</time>
      </trkpt>
      <trkpt lat="43.66128" lon="4.02859">
        <ele>72.72</ele>
        <time>2016-06-13T08:51:42Z</time>
      </trkpt>
      <trkpt lat="43.66209" lon="4.0308">
        <ele>69.35</ele>
        <time>2016-06-13T08:51:51Z</time>
      </trkpt>
      <trkpt lat="43.66336" lon="4.03429">
        <ele>70.31</ele>
        <time>2016-06-13T08:52:06Z</time>
      </trkpt>
      <trkpt lat="43.66353" lon="4.03474">
        <ele>72.24</ele>
        <time>2016-06-13T08:52:08Z</time>
      </trkpt>
      <trkpt lat="43.66401" lon="4.03607">
        <ele>68.87</ele>
        <time>2016-06-13T08:52:14Z</time>
      </trkpt>
      <trkpt lat="43.66465" lon="4.03777">
        <ele>66.47</ele>
        <time>2016-06-13T08:52:23Z</time>
      </trkpt>
      <trkpt lat="43.66507" lon="4.03872">
        <ele>63.58</ele>
        <time>2016-06-13T08:52:31Z</time>
      </trkpt>
      <trkpt lat="43.66518" lon="4.0391">
        <ele>63.58</ele>
        <time>2016-06-13T08:52:35Z</time>
      </trkpt>
      <trkpt lat="43.66558" lon="4.04034">
        <ele>68.39</ele>
        <time>2016-06-13T08:52:43Z</time>
      </trkpt>
      <trkpt lat="43.66641" lon="4.04262">
        <ele>68.87</ele>
        <time>2016-06-13T08:52:54Z</time>
      </trkpt>
      <trkpt lat="43.66667" lon="4.04331">
        <ele>70.31</ele>
        <time>2016-06-13T08:52:57Z</time>
      </trkpt>
      <trkpt lat="43.66762" lon="4.0457">
        <ele>70.31</ele>
        <time>2016-06-13T08:53:07Z</time>
      </trkpt>
      <trkpt lat="43.66988" lon="4.04944">
        <ele>71.76</ele>
        <time>2016-06-13T08:53:24Z</time>
      </trkpt>
      <trkpt lat="43.67099" lon="4.05084">
        <ele>73.2</ele>
        <time>2016-06-13T08:53:31Z</time>
      </trkpt>
      <trkpt lat="43.67151" lon="4.05137">
        <ele>77.04</ele>
        <time>2016-06-13T08:53:34Z</time>
      </trkpt>
      <trkpt lat="43.67358" lon="4.05389">
        <ele>77.04</ele>
        <time>2016-06-13T08:53:47Z</time>
      </trkpt>
      <trkpt lat="43.675" lon="4.05584">
        <ele>73.2</ele>
        <time>2016-06-13T08:53:57Z</time>
      </trkpt>
      <trkpt lat="43.67511" lon="4.05603">
        <ele>73.68</ele>
        <time>2016-06-13T08:53:58Z</time>
      </trkpt>
      <trkpt lat="43.67539" lon="4.05654">
        <ele>70.31</ele>
        <time>2016-06-13T08:54:01Z</time>
      </trkpt>
      <trkpt lat="43.67566" lon="4.05755">
        <ele>67.91</ele>
        <time>2016-06-13T08:54:07Z</time>
      </trkpt>
      <trkpt lat="43.67567" lon="4.05796">
        <ele>67.43</ele>
        <time>2016-06-13T08:54:09Z</time>
      </trkpt>
      <trkpt lat="43.67553" lon="4.05997">
        <ele>69.35</ele>
        <time>2016-06-13T08:54:17Z</time>
      </trkpt>
      <trkpt lat="43.67545" lon="4.06084">
        <ele>71.27</ele>
        <time>2016-06-13T08:54:20Z</time>
      </trkpt>
      <trkpt lat="43.67494" lon="4.06511">
        <ele>73.68</ele>
        <time>2016-06-13T08:54:34Z</time>
      </trkpt>
      <trkpt lat="43.67468" lon="4.06708">
        <ele>71.76</ele>
        <time>2016-06-13T08:54:41Z</time>
      </trkpt>
      <trkpt lat="43.67451" lon="4.06846">
        <ele>67.43</ele>
        <time>2016-06-13T08:54:46Z</time>
      </trkpt>
      <trkpt lat="43.67454" lon="4.07038">
        <ele>68.87</ele>
        <time>2016-06-13T08:54:53Z</time>
      </trkpt>
      <trkpt lat="43.67486" lon="4.07285">
        <ele>65.03</ele>
        <time>2016-06-13T08:55:02Z</time>
      </trkpt>
      <trkpt lat="43.67508" lon="4.07429">
        <ele>68.87</ele>
        <time>2016-06-13T08:55:07Z</time>
      </trkpt>
      <trkpt lat="43.67521" lon="4.07515">
        <ele>64.55</ele>
        <time>2016-06-13T08:55:10Z</time>
      </trkpt>
      <trkpt lat="43.67526" lon="4.07543">
        <ele>64.55</ele>
        <time>2016-06-13T08:55:11Z</time>
      </trkpt>
      <trkpt lat="43.67545" lon="4.07691">
        <ele>61.66</ele>
        <time>2016-06-13T08:55:17Z</time>
      </trkpt>
      <trkpt lat="43.6755" lon="4.07728">
        <ele>61.66</ele>
        <time>2016-06-13T08:55:19Z</time>
      </trkpt>
      <trkpt lat="43.6754" lon="4.07801">
        <ele>57.34</ele>
        <time>2016-06-13T08:55:24Z</time>
      </trkpt>
      <trkpt lat="43.67546" lon="4.07811">
        <ele>58.78</ele>
        <time>2016-06-13T08:55:25Z</time>
      </trkpt>
      <trkpt lat="43.67582" lon="4.07923">
        <ele>60.22</ele>
        <time>2016-06-13T08:55:32Z</time>
      </trkpt>
      <trkpt lat="43.67588" lon="4.07963">
        <ele>58.78</ele>
        <time>2016-06-13T08:55:34Z</time>
      </trkpt>
      <trkpt lat="43.67632" lon="4.08259">
        <ele>59.26</ele>
        <time>2016-06-13T08:55:48Z</time>
      </trkpt>
      <trkpt lat="43.67668" lon="4.08485">
        <ele>59.26</ele>
        <time>2016-06-13T08:55:59Z</time>
      </trkpt>
      <trkpt lat="43.67711" lon="4.08621">
        <ele>58.78</ele>
        <time>2016-06-13T08:56:08Z</time>
      </trkpt>
      <trkpt lat="43.67744" lon="4.08699">
        <ele>56.86</ele>
        <time>2016-06-13T08:56:18Z</time>
      </trkpt>
      <trkpt lat="43.67759" lon="4.08732">
        <ele>57.34</ele>
        <time>2016-06-13T08:56:27Z</time>
      </trkpt>
      <trkpt lat="43.67759" lon="4.08733">
        <ele>57.82</ele>
        <time>2016-06-13T08:56:43Z</time>
      </trkpt>
      <trkpt lat="43.6776" lon="4.08738">
        <ele>57.34</ele>
        <time>2016-06-13T08:57:40Z</time>
      </trkpt>
      <trkpt lat="43.67761" lon="4.08738">
        <ele>58.78</ele>
        <time>2016-06-13T08:58:22Z</time>
      </trkpt>
      <trkpt lat="43.67774" lon="4.08764">
        <ele>58.78</ele>
        <time>2016-06-13T08:59:19Z</time>
      </trkpt>
      <trkpt lat="43.6781" lon="4.08841">
        <ele>58.78</ele>
        <time>2016-06-13T08:59:31Z</time>
      </trkpt>
      <trkpt lat="43.67849" lon="4.08949">
        <ele>58.78</ele>
        <time>2016-06-13T08:59:44Z</time>
      </trkpt>
      <trkpt lat="43.67887" lon="4.09064">
        <ele>58.3</ele>
        <time>2016-06-13T08:59:59Z</time>
      </trkpt>
      <trkpt lat="43.67917" lon="4.09158">
        <ele>58.3</ele>
        <time>2016-06-13T09:00:09Z</time>
      </trkpt>
      <trkpt lat="43.67918" lon="4.09165">
        <ele>56.37</ele>
        <time>2016-06-13T09:00:10Z</time>
      </trkpt>
      <trkpt lat="43.67918" lon="4.09169">
        <ele>57.82</ele>
        <time>2016-06-13T09:00:11Z</time>
      </trkpt>
      <trkpt lat="43.67918" lon="4.09173">
        <ele>57.82</ele>
        <time>2016-06-13T09:00:12Z</time>
      </trkpt>
      <trkpt lat="43.67919" lon="4.09177">
        <ele>57.34</ele>
        <time>2016-06-13T09:00:13Z</time>
      </trkpt>
      <trkpt lat="43.6792" lon="4.0918">
        <ele>57.82</ele>
        <time>2016-06-13T09:00:14Z</time>
      </trkpt>
      <trkpt lat="43.67921" lon="4.09182">
        <ele>57.34</ele>
        <time>2016-06-13T09:00:26Z</time>
      </trkpt>
      <trkpt lat="43.67924" lon="4.09191">
        <ele>58.3</ele>
        <time>2016-06-13T09:01:16Z</time>
      </trkpt>
      <trkpt lat="43.67927" lon="4.09199">
        <ele>57.34</ele>
        <time>2016-06-13T09:01:17Z</time>
      </trkpt>
      <trkpt lat="43.67952" lon="4.09301">
        <ele>57.34</ele>
        <time>2016-06-13T09:01:26Z</time>
      </trkpt>
      <trkpt lat="43.67972" lon="4.09386">
        <ele>58.3</ele>
        <time>2016-06-13T09:01:34Z</time>
      </trkpt>
      <trkpt lat="43.68009" lon="4.09549">
        <ele>60.22</ele>
        <time>2016-06-13T09:01:43Z</time>
      </trkpt>
      <trkpt lat="43.68027" lon="4.09633">
        <ele>61.66</ele>
        <time>2016-06-13T09:01:47Z</time>
      </trkpt>
      <trkpt lat="43.68051" lon="4.09791">
        <ele>63.58</ele>
        <time>2016-06-13T09:01:54Z</time>
      </trkpt>
      <trkpt lat="43.68047" lon="4.09927">
        <ele>59.74</ele>
        <time>2016-06-13T09:02:00Z</time>
      </trkpt>
      <trkpt lat="43.68041" lon="4.09961">
        <ele>58.78</ele>
        <time>2016-06-13T09:02:02Z</time>
      </trkpt>
      <trkpt lat="43.68038" lon="4.09975">
        <ele>57.82</ele>
        <time>2016-06-13T09:02:03Z</time>
      </trkpt>
      <trkpt lat="43.68033" lon="4.09987">
        <ele>56.86</ele>
        <time>2016-06-13T09:02:04Z</time>
      </trkpt>
      <trkpt lat="43.68026" lon="4.09998">
        <ele>57.82</ele>
        <time>2016-06-13T09:02:05Z</time>
      </trkpt>
      <trkpt lat="43.68019" lon="4.10008">
        <ele>57.82</ele>
        <time>2016-06-13T09:02:06Z</time>
      </trkpt>
      <trkpt lat="43.68016" lon="4.10021">
        <ele>57.34</ele>
        <time>2016-06-13T09:02:07Z</time>
      </trkpt>
      <trkpt lat="43.68017" lon="4.10034">
        <ele>57.34</ele>
        <time>2016-06-13T09:02:08Z</time>
      </trkpt>
      <trkpt lat="43.6802" lon="4.10048">
        <ele>57.82</ele>
        <time>2016-06-13T09:02:09Z</time>
      </trkpt>
      <trkpt lat="43.68022" lon="4.10064">
        <ele>58.3</ele>
        <time>2016-06-13T09:02:10Z</time>
      </trkpt>
      <trkpt lat="43.68022" lon="4.10081">
        <ele>58.3</ele>
        <time>2016-06-13T09:02:11Z</time>
      </trkpt>
      <trkpt lat="43.68021" lon="4.10099">
        <ele>59.26</ele>
        <time>2016-06-13T09:02:12Z</time>
      </trkpt>
      <trkpt lat="43.68003" lon="4.10218">
        <ele>60.22</ele>
        <time>2016-06-13T09:02:18Z</time>
      </trkpt>
      <trkpt lat="43.67993" lon="4.10288">
        <ele>63.1</ele>
        <time>2016-06-13T09:02:21Z</time>
      </trkpt>
      <trkpt lat="43.6799" lon="4.10312">
        <ele>63.1</ele>
        <time>2016-06-13T09:02:22Z</time>
      </trkpt>
      <trkpt lat="43.67957" lon="4.10529">
        <ele>64.55</ele>
        <time>2016-06-13T09:02:30Z</time>
      </trkpt>
      <trkpt lat="43.67932" lon="4.10698">
        <ele>62.14</ele>
        <time>2016-06-13T09:02:36Z</time>
      </trkpt>
      <trkpt lat="43.67923" lon="4.10754">
        <ele>63.1</ele>
        <time>2016-06-13T09:02:38Z</time>
      </trkpt>
      <trkpt lat="43.6791" lon="4.1084">
        <ele>61.18</ele>
        <time>2016-06-13T09:02:41Z</time>
      </trkpt>
      <trkpt lat="43.67901" lon="4.10898">
        <ele>63.1</ele>
        <time>2016-06-13T09:02:43Z</time>
      </trkpt>
      <trkpt lat="43.67867" lon="4.1113">
        <ele>61.18</ele>
        <time>2016-06-13T09:02:51Z</time>
      </trkpt>
      <trkpt lat="43.67823" lon="4.11417">
        <ele>62.14</ele>
        <time>2016-06-13T09:03:01Z</time>
      </trkpt>
      <trkpt lat="43.67811" lon="4.11495">
        <ele>58.78</ele>
        <time>2016-06-13T09:03:04Z</time>
      </trkpt>
      <trkpt lat="43.67807" lon="4.11519">
        <ele>58.78</ele>
        <time>2016-06-13T09:03:05Z</time>
      </trkpt>
      <trkpt lat="43.67799" lon="4.11581">
        <ele>57.34</ele>
        <time>2016-06-13T09:03:08Z</time>
      </trkpt>
      <trkpt lat="43.67797" lon="4.11598">
        <ele>55.89</ele>
        <time>2016-06-13T09:03:09Z</time>
      </trkpt>
      <trkpt lat="43.67761" lon="4.11638">
        <ele>55.41</ele>
        <time>2016-06-13T09:03:14Z</time>
      </trkpt>
      <trkpt lat="43.67745" lon="4.11687">
        <ele>55.89</ele>
        <time>2016-06-13T09:03:18Z</time>
      </trkpt>
      <trkpt lat="43.6777" lon="4.11753">
        <ele>56.37</ele>
        <time>2016-06-13T09:03:23Z</time>
      </trkpt>
      <trkpt lat="43.67769" lon="4.11766">
        <ele>56.37</ele>
        <time>2016-06-13T09:03:24Z</time>
      </trkpt>
      <trkpt lat="43.67745" lon="4.11936">
        <ele>55.41</ele>
        <time>2016-06-13T09:03:35Z</time>
      </trkpt>
      <trkpt lat="43.67727" lon="4.12055">
        <ele>57.82</ele>
        <time>2016-06-13T09:03:42Z</time>
      </trkpt>
      <trkpt lat="43.67723" lon="4.12087">
        <ele>55.89</ele>
        <time>2016-06-13T09:03:44Z</time>
      </trkpt>
      <trkpt lat="43.67698" lon="4.12254">
        <ele>57.34</ele>
        <time>2016-06-13T09:03:55Z</time>
      </trkpt>
      <trkpt lat="43.67662" lon="4.12449">
        <ele>53.49</ele>
        <time>2016-06-13T09:04:09Z</time>
      </trkpt>
      <trkpt lat="43.67652" lon="4.12499">
        <ele>53.01</ele>
        <time>2016-06-13T09:04:18Z</time>
      </trkpt>
      <trkpt lat="43.6765" lon="4.12507">
        <ele>53.97</ele>
        <time>2016-06-13T09:04:29Z</time>
      </trkpt>
      <trkpt lat="43.67644" lon="4.1254">
        <ele>53.97</ele>
        <time>2016-06-13T09:04:42Z</time>
      </trkpt>
      <trkpt lat="43.67626" lon="4.12627">
        <ele>53.97</ele>
        <time>2016-06-13T09:04:53Z</time>
      </trkpt>
      <trkpt lat="43.67607" lon="4.12727">
        <ele>54.45</ele>
        <time>2016-06-13T09:05:06Z</time>
      </trkpt>
      <trkpt lat="43.67595" lon="4.12792">
        <ele>53.01</ele>
        <time>2016-06-13T09:05:20Z</time>
      </trkpt>
      <trkpt lat="43.67569" lon="4.12923">
        <ele>52.53</ele>
        <time>2016-06-13T09:05:34Z</time>
      </trkpt>
      <trkpt lat="43.67552" lon="4.13008">
        <ele>51.57</ele>
        <time>2016-06-13T09:05:42Z</time>
      </trkpt>
      <trkpt lat="43.67553" lon="4.13098">
        <ele>51.09</ele>
        <time>2016-06-13T09:05:51Z</time>
      </trkpt>
      <trkpt lat="43.67557" lon="4.13151">
        <ele>52.53</ele>
        <time>2016-06-13T09:05:57Z</time>
      </trkpt>
      <trkpt lat="43.67559" lon="4.13183">
        <ele>52.53</ele>
        <time>2016-06-13T09:06:03Z</time>
      </trkpt>
      <trkpt lat="43.67535" lon="4.132">
        <ele>53.01</ele>
        <time>2016-06-13T09:06:08Z</time>
      </trkpt>
      <trkpt lat="43.67484" lon="4.13208">
        <ele>50.13</ele>
        <time>2016-06-13T09:06:17Z</time>
      </trkpt>
      <trkpt lat="43.67407" lon="4.13209">
        <ele>53.01</ele>
        <time>2016-06-13T09:06:27Z</time>
      </trkpt>
      <trkpt lat="43.67381" lon="4.13212">
        <ele>54.45</ele>
        <time>2016-06-13T09:06:30Z</time>
      </trkpt>
      <trkpt lat="43.67295" lon="4.13233">
        <ele>51.57</ele>
        <time>2016-06-13T09:06:42Z</time>
      </trkpt>
      <trkpt lat="43.67246" lon="4.13252">
        <ele>53.01</ele>
        <time>2016-06-13T09:06:49Z</time>
      </trkpt>
      <trkpt lat="43.6723" lon="4.13279">
        <ele>51.09</ele>
        <time>2016-06-13T09:06:53Z</time>
      </trkpt>
      <trkpt lat="43.67219" lon="4.13389">
        <ele>53.49</ele>
        <time>2016-06-13T09:07:04Z</time>
      </trkpt>
      <trkpt lat="43.67214" lon="4.13423">
        <ele>50.61</ele>
        <time>2016-06-13T09:07:13Z</time>
      </trkpt>
      <trkpt lat="43.67212" lon="4.13447">
        <ele>52.05</ele>
        <time>2016-06-13T09:07:21Z</time>
      </trkpt>
      <trkpt lat="43.67213" lon="4.13459">
        <ele>52.53</ele>
        <time>2016-06-13T09:07:23Z</time>
      </trkpt>
      <trkpt lat="43.67223" lon="4.13545">
        <ele>53.49</ele>
        <time>2016-06-13T09:07:31Z</time>
      </trkpt>
      <trkpt lat="43.67224" lon="4.13557">
        <ele>53.01</ele>
        <time>2016-06-13T09:07:32Z</time>
      </trkpt>
      <trkpt lat="43.67221" lon="4.13611">
        <ele>51.09</ele>
        <time>2016-06-13T09:07:37Z</time>
      </trkpt>
      <trkpt lat="43.67219" lon="4.13632">
        <ele>51.09</ele>
        <time>2016-06-13T09:07:44Z</time>
      </trkpt>
      <trkpt lat="43.67216" lon="4.13662">
        <ele>50.61</ele>
        <time>2016-06-13T09:08:29Z</time>
      </trkpt>
      <trkpt lat="43.67221" lon="4.13788">
        <ele>51.57</ele>
        <time>2016-06-13T09:08:39Z</time>
      </trkpt>
      <trkpt lat="43.67238" lon="4.14006">
        <ele>52.53</ele>
        <time>2016-06-13T09:08:53Z</time>
      </trkpt>
      <trkpt lat="43.67265" lon="4.14219">
        <ele>53.01</ele>
        <time>2016-06-13T09:09:06Z</time>
      </trkpt>
      <trkpt lat="43.67306" lon="4.14385">
        <ele>52.53</ele>
        <time>2016-06-13T09:09:18Z</time>
      </trkpt>
      <trkpt lat="43.67337" lon="4.14449">
        <ele>53.49</ele>
        <time>2016-06-13T09:09:24Z</time>
      </trkpt>
      <trkpt lat="43.67385" lon="4.14508">
        <ele>52.53</ele>
        <time>2016-06-13T09:09:31Z</time>
      </trkpt>
      <trkpt lat="43.67391" lon="4.14515">
        <ele>53.01</ele>
        <time>2016-06-13T09:09:32Z</time>
      </trkpt>
      <trkpt lat="43.67405" lon="4.14553">
        <ele>53.97</ele>
        <time>2016-06-13T09:09:36Z</time>
      </trkpt>
      <trkpt lat="43.67396" lon="4.14592">
        <ele>52.53</ele>
        <time>2016-06-13T09:09:39Z</time>
      </trkpt>
      <trkpt lat="43.6733" lon="4.14695">
        <ele>54.45</ele>
        <time>2016-06-13T09:09:49Z</time>
      </trkpt>
      <trkpt lat="43.67296" lon="4.14726">
        <ele>52.05</ele>
        <time>2016-06-13T09:09:57Z</time>
      </trkpt>
      <trkpt lat="43.67287" lon="4.14731">
        <ele>53.49</ele>
        <time>2016-06-13T09:10:03Z</time>
      </trkpt>
      <trkpt lat="43.67272" lon="4.14735">
        <ele>53.97</ele>
        <time>2016-06-13T09:10:06Z</time>
      </trkpt>
      <trkpt lat="43.67254" lon="4.14769">
        <ele>54.45</ele>
        <time>2016-06-13T09:10:13Z</time>
      </trkpt>
      <trkpt lat="43.67274" lon="4.14786">
        <ele>55.41</ele>
        <time>2016-06-13T09:10:17Z</time>
      </trkpt>
      <trkpt lat="43.67358" lon="4.1484">
        <ele>56.37</ele>
        <time>2016-06-13T09:10:27Z</time>
      </trkpt>
      <trkpt lat="43.67468" lon="4.14916">
        <ele>60.22</ele>
        <time>2016-06-13T09:10:36Z</time>
      </trkpt>
      <trkpt lat="43.6758" lon="4.1498">
        <ele>64.55</ele>
        <time>2016-06-13T09:10:43Z</time>
      </trkpt>
      <trkpt lat="43.67689" lon="4.1504">
        <ele>67.91</ele>
        <time>2016-06-13T09:10:49Z</time>
      </trkpt>
      <trkpt lat="43.67878" lon="4.15108">
        <ele>66.95</ele>
        <time>2016-06-13T09:10:59Z</time>
      </trkpt>
      <trkpt lat="43.67913" lon="4.1511">
        <ele>64.55</ele>
        <time>2016-06-13T09:11:01Z</time>
      </trkpt>
      <trkpt lat="43.67974" lon="4.15104">
        <ele>61.18</ele>
        <time>2016-06-13T09:11:05Z</time>
      </trkpt>
      <trkpt lat="43.68061" lon="4.1508">
        <ele>58.3</ele>
        <time>2016-06-13T09:11:12Z</time>
      </trkpt>
      <trkpt lat="43.68073" lon="4.15077">
        <ele>58.3</ele>
        <time>2016-06-13T09:11:13Z</time>
      </trkpt>
      <trkpt lat="43.68139" lon="4.15057">
        <ele>57.34</ele>
        <time>2016-06-13T09:11:19Z</time>
      </trkpt>
      <trkpt lat="43.68256" lon="4.1505">
        <ele>56.37</ele>
        <time>2016-06-13T09:11:30Z</time>
      </trkpt>
      <trkpt lat="43.68273" lon="4.15054">
        <ele>55.41</ele>
        <time>2016-06-13T09:11:32Z</time>
      </trkpt>
      <trkpt lat="43.68291" lon="4.15065">
        <ele>55.41</ele>
        <time>2016-06-13T09:11:37Z</time>
      </trkpt>
      <trkpt lat="43.68295" lon="4.1507">
        <ele>55.89</ele>
        <time>2016-06-13T09:11:39Z</time>
      </trkpt>
      <trkpt lat="43.68315" lon="4.15109">
        <ele>56.37</ele>
        <time>2016-06-13T09:11:45Z</time>
      </trkpt>
      <trkpt lat="43.6833" lon="4.15116">
        <ele>57.34</ele>
        <time>2016-06-13T09:11:48Z</time>
      </trkpt>
      <trkpt lat="43.6836" lon="4.15111">
        <ele>56.86</ele>
        <time>2016-06-13T09:11:52Z</time>
      </trkpt>
      <trkpt lat="43.68396" lon="4.15124">
        <ele>56.37</ele>
        <time>2016-06-13T09:11:56Z</time>
      </trkpt>
      <trkpt lat="43.68505" lon="4.15257">
        <ele>59.26</ele>
        <time>2016-06-13T09:12:08Z</time>
      </trkpt>
      <trkpt lat="43.68553" lon="4.15332">
        <ele>58.3</ele>
        <time>2016-06-13T09:12:14Z</time>
      </trkpt>
      <trkpt lat="43.6858" lon="4.15406">
        <ele>57.34</ele>
        <time>2016-06-13T09:12:20Z</time>
      </trkpt>
      <trkpt lat="43.68574" lon="4.15452">
        <ele>57.34</ele>
        <time>2016-06-13T09:12:24Z</time>
      </trkpt>
      <trkpt lat="43.68581" lon="4.15518">
        <ele>56.86</ele>
        <time>2016-06-13T09:12:30Z</time>
      </trkpt>
      <trkpt lat="43.68622" lon="4.15531">
        <ele>57.82</ele>
        <time>2016-06-13T09:12:35Z</time>
      </trkpt>
      <trkpt lat="43.68652" lon="4.15537">
        <ele>58.3</ele>
        <time>2016-06-13T09:12:38Z</time>
      </trkpt>
      <trkpt lat="43.68696" lon="4.1556">
        <ele>58.78</ele>
        <time>2016-06-13T09:12:42Z</time>
      </trkpt>
      <trkpt lat="43.68732" lon="4.15582">
        <ele>59.74</ele>
        <time>2016-06-13T09:12:45Z</time>
      </trkpt>
      <trkpt lat="43.68754" lon="4.15608">
        <ele>59.26</ele>
        <time>2016-06-13T09:12:47Z</time>
      </trkpt>
      <trkpt lat="43.68808" lon="4.15687">
        <ele>60.7</ele>
        <time>2016-06-13T09:12:52Z</time>
      </trkpt>
      <trkpt lat="43.68933" lon="4.15875">
        <ele>63.58</ele>
        <time>2016-06-13T09:13:03Z</time>
      </trkpt>
      <trkpt lat="43.69098" lon="4.16121">
        <ele>64.07</ele>
        <time>2016-06-13T09:13:17Z</time>
      </trkpt>
      <trkpt lat="43.69217" lon="4.16294">
        <ele>62.14</ele>
        <time>2016-06-13T09:13:28Z</time>
      </trkpt>
      <trkpt lat="43.69238" lon="4.1632">
        <ele>62.14</ele>
        <time>2016-06-13T09:13:30Z</time>
      </trkpt>
      <trkpt lat="43.69305" lon="4.16461">
        <ele>65.03</ele>
        <time>2016-06-13T09:13:39Z</time>
      </trkpt>
      <trkpt lat="43.69409" lon="4.16712">
        <ele>65.99</ele>
        <time>2016-06-13T09:13:52Z</time>
      </trkpt>
      <trkpt lat="43.69513" lon="4.16929">
        <ele>66.47</ele>
        <time>2016-06-13T09:14:03Z</time>
      </trkpt>
      <trkpt lat="43.69539" lon="4.16977">
        <ele>69.83</ele>
        <time>2016-06-13T09:14:05Z</time>
      </trkpt>
      <trkpt lat="43.6964" lon="4.17189">
        <ele>67.43</ele>
        <time>2016-06-13T09:14:13Z</time>
      </trkpt>
      <trkpt lat="43.6972" lon="4.1736">
        <ele>65.51</ele>
        <time>2016-06-13T09:14:20Z</time>
      </trkpt>
      <trkpt lat="43.6988" lon="4.17703">
        <ele>65.99</ele>
        <time>2016-06-13T09:14:35Z</time>
      </trkpt>
      <trkpt lat="43.69932" lon="4.17814">
        <ele>64.55</ele>
        <time>2016-06-13T09:14:40Z</time>
      </trkpt>
      <trkpt lat="43.69981" lon="4.17921">
        <ele>63.58</ele>
        <time>2016-06-13T09:14:45Z</time>
      </trkpt>
      <trkpt lat="43.7015" lon="4.18282">
        <ele>64.07</ele>
        <time>2016-06-13T09:15:02Z</time>
      </trkpt>
      <trkpt lat="43.7016" lon="4.18302">
        <ele>64.07</ele>
        <time>2016-06-13T09:15:03Z</time>
      </trkpt>
      <trkpt lat="43.70197" lon="4.18381">
        <ele>63.1</ele>
        <time>2016-06-13T09:15:07Z</time>
      </trkpt>
      <trkpt lat="43.70294" lon="4.1859">
        <ele>65.99</ele>
        <time>2016-06-13T09:15:18Z</time>
      </trkpt>
      <trkpt lat="43.70338" lon="4.18685">
        <ele>62.62</ele>
        <time>2016-06-13T09:15:23Z</time>
      </trkpt>
      <trkpt lat="43.70429" lon="4.18882">
        <ele>64.07</ele>
        <time>2016-06-13T09:15:34Z</time>
      </trkpt>
      <trkpt lat="43.70506" lon="4.19065">
        <ele>64.07</ele>
        <time>2016-06-13T09:15:43Z</time>
      </trkpt>
      <trkpt lat="43.70544" lon="4.19127">
        <ele>61.66</ele>
        <time>2016-06-13T09:15:48Z</time>
      </trkpt>
      <trkpt lat="43.70552" lon="4.19147">
        <ele>60.7</ele>
        <time>2016-06-13T09:15:50Z</time>
      </trkpt>
      <trkpt lat="43.70553" lon="4.19175">
        <ele>61.18</ele>
        <time>2016-06-13T09:15:52Z</time>
      </trkpt>
      <trkpt lat="43.70583" lon="4.19234">
        <ele>63.1</ele>
        <time>2016-06-13T09:15:57Z</time>
      </trkpt>
      <trkpt lat="43.70622" lon="4.19212">
        <ele>62.62</ele>
        <time>2016-06-13T09:16:01Z</time>
      </trkpt>
      <trkpt lat="43.70624" lon="4.19156">
        <ele>61.18</ele>
        <time>2016-06-13T09:16:06Z</time>
      </trkpt>
      <trkpt lat="43.70583" lon="4.19127">
        <ele>61.66</ele>
        <time>2016-06-13T09:16:12Z</time>
      </trkpt>
      <trkpt lat="43.7054" lon="4.19093">
        <ele>62.14</ele>
        <time>2016-06-13T09:16:18Z</time>
      </trkpt>
      <trkpt lat="43.70461" lon="4.18931">
        <ele>61.66</ele>
        <time>2016-06-13T09:16:29Z</time>
      </trkpt>
      <trkpt lat="43.70381" lon="4.18774">
        <ele>63.58</ele>
        <time>2016-06-13T09:16:38Z</time>
      </trkpt>
      <trkpt lat="43.70372" lon="4.18754">
        <ele>63.58</ele>
        <time>2016-06-13T09:16:39Z</time>
      </trkpt>
      <trkpt lat="43.70344" lon="4.18693">
        <ele>62.14</ele>
        <time>2016-06-13T09:16:42Z</time>
      </trkpt>
      <trkpt lat="43.70199" lon="4.18383">
        <ele>61.18</ele>
        <time>2016-06-13T09:16:58Z</time>
      </trkpt>
      <trkpt lat="43.70043" lon="4.1805">
        <ele>61.66</ele>
        <time>2016-06-13T09:17:16Z</time>
      </trkpt>
      <trkpt lat="43.69859" lon="4.17656">
        <ele>62.62</ele>
        <time>2016-06-13T09:17:36Z</time>
      </trkpt>
      <trkpt lat="43.69804" lon="4.17538">
        <ele>61.66</ele>
        <time>2016-06-13T09:17:42Z</time>
      </trkpt>
      <trkpt lat="43.69728" lon="4.17374">
        <ele>61.18</ele>
        <time>2016-06-13T09:17:50Z</time>
      </trkpt>
      <trkpt lat="43.69551" lon="4.16996">
        <ele>60.7</ele>
        <time>2016-06-13T09:18:09Z</time>
      </trkpt>
      <trkpt lat="43.69467" lon="4.16824">
        <ele>61.66</ele>
        <time>2016-06-13T09:18:19Z</time>
      </trkpt>
      <trkpt lat="43.69431" lon="4.1682">
        <ele>61.66</ele>
        <time>2016-06-13T09:18:24Z</time>
      </trkpt>
      <trkpt lat="43.69397" lon="4.16855">
        <ele>60.22</ele>
        <time>2016-06-13T09:18:29Z</time>
      </trkpt>
      <trkpt lat="43.69307" lon="4.16897">
        <ele>59.26</ele>
        <time>2016-06-13T09:18:43Z</time>
      </trkpt>
      <trkpt lat="43.69241" lon="4.16928">
        <ele>58.3</ele>
        <time>2016-06-13T09:18:59Z</time>
      </trkpt>
      <trkpt lat="43.69167" lon="4.16965">
        <ele>59.74</ele>
        <time>2016-06-13T09:19:11Z</time>
      </trkpt>
      <trkpt lat="43.69119" lon="4.17005">
        <ele>61.18</ele>
        <time>2016-06-13T09:19:16Z</time>
      </trkpt>
      <trkpt lat="43.69082" lon="4.17066">
        <ele>62.62</ele>
        <time>2016-06-13T09:19:20Z</time>
      </trkpt>
      <trkpt lat="43.6904" lon="4.17171">
        <ele>65.03</ele>
        <time>2016-06-13T09:19:25Z</time>
      </trkpt>
      <trkpt lat="43.68928" lon="4.17448">
        <ele>66.47</ele>
        <time>2016-06-13T09:19:36Z</time>
      </trkpt>
      <trkpt lat="43.68899" lon="4.17525">
        <ele>64.55</ele>
        <time>2016-06-13T09:19:39Z</time>
      </trkpt>
      <trkpt lat="43.68891" lon="4.17549">
        <ele>65.03</ele>
        <time>2016-06-13T09:19:40Z</time>
      </trkpt>
      <trkpt lat="43.68879" lon="4.1771">
        <ele>65.03</ele>
        <time>2016-06-13T09:19:46Z</time>
      </trkpt>
      <trkpt lat="43.68893" lon="4.17763">
        <ele>63.58</ele>
        <time>2016-06-13T09:19:48Z</time>
      </trkpt>
      <trkpt lat="43.68924" lon="4.17856">
        <ele>61.66</ele>
        <time>2016-06-13T09:19:52Z</time>
      </trkpt>
      <trkpt lat="43.68929" lon="4.17979">
        <ele>60.7</ele>
        <time>2016-06-13T09:19:57Z</time>
      </trkpt>
      <trkpt lat="43.68908" lon="4.18086">
        <ele>63.1</ele>
        <time>2016-06-13T09:20:01Z</time>
      </trkpt>
      <trkpt lat="43.68886" lon="4.18168">
        <ele>64.07</ele>
        <time>2016-06-13T09:20:04Z</time>
      </trkpt>
      <trkpt lat="43.68844" lon="4.18284">
        <ele>62.14</ele>
        <time>2016-06-13T09:20:09Z</time>
      </trkpt>
      <trkpt lat="43.68845" lon="4.18395">
        <ele>62.14</ele>
        <time>2016-06-13T09:20:14Z</time>
      </trkpt>
      <trkpt lat="43.6889" lon="4.18508">
        <ele>64.07</ele>
        <time>2016-06-13T09:20:19Z</time>
      </trkpt>
      <trkpt lat="43.68892" lon="4.18536">
        <ele>63.58</ele>
        <time>2016-06-13T09:20:20Z</time>
      </trkpt>
      <trkpt lat="43.68891" lon="4.18567">
        <ele>64.55</ele>
        <time>2016-06-13T09:20:21Z</time>
      </trkpt>
      <trkpt lat="43.68883" lon="4.18832">
        <ele>62.62</ele>
        <time>2016-06-13T09:20:30Z</time>
      </trkpt>
      <trkpt lat="43.68907" lon="4.18972">
        <ele>64.55</ele>
        <time>2016-06-13T09:20:35Z</time>
      </trkpt>
      <trkpt lat="43.68941" lon="4.19186">
        <ele>63.58</ele>
        <time>2016-06-13T09:20:43Z</time>
      </trkpt>
      <trkpt lat="43.68939" lon="4.19296">
        <ele>62.62</ele>
        <time>2016-06-13T09:20:47Z</time>
      </trkpt>
      <trkpt lat="43.68914" lon="4.19435">
        <ele>63.58</ele>
        <time>2016-06-13T09:20:52Z</time>
      </trkpt>
      <trkpt lat="43.68832" lon="4.19608">
        <ele>63.1</ele>
        <time>2016-06-13T09:20:59Z</time>
      </trkpt>
      <trkpt lat="43.68782" lon="4.19738">
        <ele>61.66</ele>
        <time>2016-06-13T09:21:04Z</time>
      </trkpt>
      <trkpt lat="43.6867" lon="4.20004">
        <ele>59.26</ele>
        <time>2016-06-13T09:21:15Z</time>
      </trkpt>
      <trkpt lat="43.6858" lon="4.20146">
        <ele>59.26</ele>
        <time>2016-06-13T09:21:22Z</time>
      </trkpt>
      <trkpt lat="43.68561" lon="4.20192">
        <ele>60.22</ele>
        <time>2016-06-13T09:21:24Z</time>
      </trkpt>
      <trkpt lat="43.68557" lon="4.20263">
        <ele>58.78</ele>
        <time>2016-06-13T09:21:27Z</time>
      </trkpt>
      <trkpt lat="43.68578" lon="4.20443">
        <ele>56.37</ele>
        <time>2016-06-13T09:21:37Z</time>
      </trkpt>
      <trkpt lat="43.68596" lon="4.20601">
        <ele>54.93</ele>
        <time>2016-06-13T09:21:49Z</time>
      </trkpt>
      <trkpt lat="43.68609" lon="4.20721">
        <ele>54.45</ele>
        <time>2016-06-13T09:22:02Z</time>
      </trkpt>
      <trkpt lat="43.68606" lon="4.20747">
        <ele>55.41</ele>
        <time>2016-06-13T09:22:06Z</time>
      </trkpt>
      <trkpt lat="43.68614" lon="4.20775">
        <ele>54.45</ele>
        <time>2016-06-13T09:22:10Z</time>
      </trkpt>
      <trkpt lat="43.68655" lon="4.20876">
        <ele>55.89</ele>
        <time>2016-06-13T09:22:21Z</time>
      </trkpt>
      <trkpt lat="43.68672" lon="4.20949">
        <ele>55.89</ele>
        <time>2016-06-13T09:22:29Z</time>
      </trkpt>
      <trkpt lat="43.68685" lon="4.21024">
        <ele>54.45</ele>
        <time>2016-06-13T09:22:41Z</time>
      </trkpt>
      <trkpt lat="43.68691" lon="4.21043">
        <ele>55.41</ele>
        <time>2016-06-13T09:22:51Z</time>
      </trkpt>
      <trkpt lat="43.687" lon="4.21075">
        <ele>54.93</ele>
        <time>2016-06-13T09:22:55Z</time>
      </trkpt>
      <trkpt lat="43.68732" lon="4.21114">
        <ele>56.86</ele>
        <time>2016-06-13T09:23:00Z</time>
      </trkpt>
      <trkpt lat="43.68804" lon="4.21163">
        <ele>58.78</ele>
        <time>2016-06-13T09:23:07Z</time>
      </trkpt>
      <trkpt lat="43.68848" lon="4.21259">
        <ele>58.78</ele>
        <time>2016-06-13T09:23:13Z</time>
      </trkpt>
      <trkpt lat="43.68843" lon="4.21282">
        <ele>57.82</ele>
        <time>2016-06-13T09:23:14Z</time>
      </trkpt>
      <trkpt lat="43.68814" lon="4.21354">
        <ele>59.74</ele>
        <time>2016-06-13T09:23:17Z</time>
      </trkpt>
      <trkpt lat="43.68785" lon="4.21448">
        <ele>57.34</ele>
        <time>2016-06-13T09:23:23Z</time>
      </trkpt>
      <trkpt lat="43.68759" lon="4.21521">
        <ele>57.34</ele>
        <time>2016-06-13T09:23:29Z</time>
      </trkpt>
      <trkpt lat="43.68772" lon="4.21549">
        <ele>59.74</ele>
        <time>2016-06-13T09:23:31Z</time>
      </trkpt>
      <trkpt lat="43.6879" lon="4.21615">
        <ele>60.22</ele>
        <time>2016-06-13T09:23:35Z</time>
      </trkpt>
      <trkpt lat="43.68777" lon="4.21784">
        <ele>58.3</ele>
        <time>2016-06-13T09:23:45Z</time>
      </trkpt>
      <trkpt lat="43.68774" lon="4.21821">
        <ele>59.26</ele>
        <time>2016-06-13T09:23:47Z</time>
      </trkpt>
      <trkpt lat="43.68768" lon="4.21934">
        <ele>62.62</ele>
        <time>2016-06-13T09:23:52Z</time>
      </trkpt>
      <trkpt lat="43.68767" lon="4.21961">
        <ele>62.62</ele>
        <time>2016-06-13T09:23:53Z</time>
      </trkpt>
      <trkpt lat="43.68736" lon="4.22244">
        <ele>63.58</ele>
        <time>2016-06-13T09:24:03Z</time>
      </trkpt>
      <trkpt lat="43.68714" lon="4.22448">
        <ele>64.55</ele>
        <time>2016-06-13T09:24:10Z</time>
      </trkpt>
      <trkpt lat="43.68723" lon="4.22561">
        <ele>63.58</ele>
        <time>2016-06-13T09:24:14Z</time>
      </trkpt>
      <trkpt lat="43.68723" lon="4.22668">
        <ele>59.26</ele>
        <time>2016-06-13T09:24:18Z</time>
      </trkpt>
      <trkpt lat="43.68715" lon="4.22898">
        <ele>59.74</ele>
        <time>2016-06-13T09:24:28Z</time>
      </trkpt>
      <trkpt lat="43.68702" lon="4.23119">
        <ele>57.34</ele>
        <time>2016-06-13T09:24:39Z</time>
      </trkpt>
      <trkpt lat="43.68702" lon="4.23147">
        <ele>56.37</ele>
        <time>2016-06-13T09:24:41Z</time>
      </trkpt>
      <trkpt lat="43.68703" lon="4.23169">
        <ele>56.86</ele>
        <time>2016-06-13T09:24:43Z</time>
      </trkpt>
      <trkpt lat="43.68691" lon="4.23202">
        <ele>55.41</ele>
        <time>2016-06-13T09:24:47Z</time>
      </trkpt>
      <trkpt lat="43.68691" lon="4.23258">
        <ele>56.37</ele>
        <time>2016-06-13T09:24:53Z</time>
      </trkpt>
      <trkpt lat="43.68709" lon="4.23307">
        <ele>56.86</ele>
        <time>2016-06-13T09:24:58Z</time>
      </trkpt>
      <trkpt lat="43.6873" lon="4.23519">
        <ele>58.78</ele>
        <time>2016-06-13T09:25:10Z</time>
      </trkpt>
      <trkpt lat="43.6877" lon="4.23705">
        <ele>61.66</ele>
        <time>2016-06-13T09:25:19Z</time>
      </trkpt>
      <trkpt lat="43.68803" lon="4.23796">
        <ele>58.3</ele>
        <time>2016-06-13T09:25:24Z</time>
      </trkpt>
      <trkpt lat="43.6881" lon="4.23811">
        <ele>58.78</ele>
        <time>2016-06-13T09:25:25Z</time>
      </trkpt>
      <trkpt lat="43.6886" lon="4.23947">
        <ele>61.66</ele>
        <time>2016-06-13T09:25:32Z</time>
      </trkpt>
      <trkpt lat="43.68868" lon="4.23969">
        <ele>61.66</ele>
        <time>2016-06-13T09:25:33Z</time>
      </trkpt>
      <trkpt lat="43.68894" lon="4.24067">
        <ele>60.22</ele>
        <time>2016-06-13T09:25:37Z</time>
      </trkpt>
      <trkpt lat="43.68886" lon="4.24232">
        <ele>61.66</ele>
        <time>2016-06-13T09:25:43Z</time>
      </trkpt>
      <trkpt lat="43.68837" lon="4.24429">
        <ele>59.26</ele>
        <time>2016-06-13T09:25:51Z</time>
      </trkpt>
      <trkpt lat="43.68799" lon="4.24575">
        <ele>61.18</ele>
        <time>2016-06-13T09:25:57Z</time>
      </trkpt>
      <trkpt lat="43.68749" lon="4.24703">
        <ele>59.74</ele>
        <time>2016-06-13T09:26:03Z</time>
      </trkpt>
      <trkpt lat="43.68735" lon="4.24769">
        <ele>58.78</ele>
        <time>2016-06-13T09:26:06Z</time>
      </trkpt>
      <trkpt lat="43.68734" lon="4.24841">
        <ele>62.14</ele>
        <time>2016-06-13T09:26:09Z</time>
      </trkpt>
      <trkpt lat="43.68748" lon="4.24912">
        <ele>60.7</ele>
        <time>2016-06-13T09:26:12Z</time>
      </trkpt>
      <trkpt lat="43.68799" lon="4.25068">
        <ele>56.86</ele>
        <time>2016-06-13T09:26:21Z</time>
      </trkpt>
      <trkpt lat="43.68801" lon="4.25078">
        <ele>55.89</ele>
        <time>2016-06-13T09:26:22Z</time>
      </trkpt>
      <trkpt lat="43.68812" lon="4.2514">
        <ele>56.37</ele>
        <time>2016-06-13T09:26:28Z</time>
      </trkpt>
      <trkpt lat="43.68854" lon="4.25241">
        <ele>62.14</ele>
        <time>2016-06-13T09:26:35Z</time>
      </trkpt>
      <trkpt lat="43.6886" lon="4.25261">
        <ele>60.7</ele>
        <time>2016-06-13T09:26:36Z</time>
      </trkpt>
      <trkpt lat="43.68941" lon="4.25545">
        <ele>63.58</ele>
        <time>2016-06-13T09:26:49Z</time>
      </trkpt>
      <trkpt lat="43.68989" lon="4.2575">
        <ele>62.62</ele>
        <time>2016-06-13T09:26:58Z</time>
      </trkpt>
      <trkpt lat="43.69007" lon="4.25944">
        <ele>63.58</ele>
        <time>2016-06-13T09:27:06Z</time>
      </trkpt>
      <trkpt lat="43.69021" lon="4.26239">
        <ele>64.55</ele>
        <time>2016-06-13T09:27:18Z</time>
      </trkpt>
      <trkpt lat="43.69039" lon="4.26492">
        <ele>63.58</ele>
        <time>2016-06-13T09:27:29Z</time>
      </trkpt>
      <trkpt lat="43.6907" lon="4.26738">
        <ele>64.55</ele>
        <time>2016-06-13T09:27:41Z</time>
      </trkpt>
      <trkpt lat="43.6908" lon="4.26822">
        <ele>65.03</ele>
        <time>2016-06-13T09:27:48Z</time>
      </trkpt>
      <trkpt lat="43.69097" lon="4.26971">
        <ele>67.43</ele>
        <time>2016-06-13T09:27:59Z</time>
      </trkpt>
      <trkpt lat="43.69106" lon="4.27129">
        <ele>69.35</ele>
        <time>2016-06-13T09:28:10Z</time>
      </trkpt>
      <trkpt lat="43.691" lon="4.27195">
        <ele>69.35</ele>
        <time>2016-06-13T09:28:17Z</time>
      </trkpt>
      <trkpt lat="43.691" lon="4.27202">
        <ele>69.35</ele>
        <time>2016-06-13T09:28:25Z</time>
      </trkpt>
      <trkpt lat="43.691" lon="4.27202">
        <ele>68.87</ele>
        <time>2016-06-13T09:28:44Z</time>
      </trkpt>
      <trkpt lat="43.69099" lon="4.27227">
        <ele>70.79</ele>
        <time>2016-06-13T09:28:47Z</time>
      </trkpt>
      <trkpt lat="43.69099" lon="4.27249">
        <ele>70.79</ele>
        <time>2016-06-13T09:28:49Z</time>
      </trkpt>
      <trkpt lat="43.69091" lon="4.27283">
        <ele>72.24</ele>
        <time>2016-06-13T09:28:52Z</time>
      </trkpt>
      <trkpt lat="43.69066" lon="4.27344">
        <ele>72.24</ele>
        <time>2016-06-13T09:28:57Z</time>
      </trkpt>
      <trkpt lat="43.69029" lon="4.27377">
        <ele>74.16</ele>
        <time>2016-06-13T09:29:02Z</time>
      </trkpt>
      <trkpt lat="43.69009" lon="4.27377">
        <ele>75.6</ele>
        <time>2016-06-13T09:29:04Z</time>
      </trkpt>
      <trkpt lat="43.68961" lon="4.27414">
        <ele>76.56</ele>
        <time>2016-06-13T09:29:10Z</time>
      </trkpt>
      <trkpt lat="43.68953" lon="4.27432">
        <ele>77.52</ele>
        <time>2016-06-13T09:29:12Z</time>
      </trkpt>
      <trkpt lat="43.68923" lon="4.27466">
        <ele>78.48</ele>
        <time>2016-06-13T09:29:17Z</time>
      </trkpt>
      <trkpt lat="43.68902" lon="4.27515">
        <ele>79.93</ele>
        <time>2016-06-13T09:29:24Z</time>
      </trkpt>
      <trkpt lat="43.68888" lon="4.27526">
        <ele>81.37</ele>
        <time>2016-06-13T09:29:26Z</time>
      </trkpt>
      <trkpt lat="43.68845" lon="4.27526">
        <ele>84.73</ele>
        <time>2016-06-13T09:29:31Z</time>
      </trkpt>
      <trkpt lat="43.68798" lon="4.27501">
        <ele>86.66</ele>
        <time>2016-06-13T09:29:35Z</time>
      </trkpt>
      <trkpt lat="43.68769" lon="4.27486">
        <ele>89.06</ele>
        <time>2016-06-13T09:29:37Z</time>
      </trkpt>
      <trkpt lat="43.68596" lon="4.27401">
        <ele>90.98</ele>
        <time>2016-06-13T09:29:48Z</time>
      </trkpt>
      <trkpt lat="43.68474" lon="4.27376">
        <ele>92.42</ele>
        <time>2016-06-13T09:29:54Z</time>
      </trkpt>
      <trkpt lat="43.68358" lon="4.27406">
        <ele>90.98</ele>
        <time>2016-06-13T09:30:00Z</time>
      </trkpt>
      <trkpt lat="43.68331" lon="4.27467">
        <ele>92.9</ele>
        <time>2016-06-13T09:30:03Z</time>
      </trkpt>
      <trkpt lat="43.68274" lon="4.27605">
        <ele>99.63</ele>
        <time>2016-06-13T09:30:09Z</time>
      </trkpt>
      <trkpt lat="43.68257" lon="4.27618">
        <ele>99.15</ele>
        <time>2016-06-13T09:30:10Z</time>
      </trkpt>
      <trkpt lat="43.68217" lon="4.2763">
        <ele>101.56</ele>
        <time>2016-06-13T09:30:12Z</time>
      </trkpt>
      <trkpt lat="43.68176" lon="4.2762">
        <ele>103.96</ele>
        <time>2016-06-13T09:30:14Z</time>
      </trkpt>
      <trkpt lat="43.68094" lon="4.27642">
        <ele>106.84</ele>
        <time>2016-06-13T09:30:19Z</time>
      </trkpt>
      <trkpt lat="43.68076" lon="4.27689">
        <ele>111.17</ele>
        <time>2016-06-13T09:30:21Z</time>
      </trkpt>
      <trkpt lat="43.68062" lon="4.27737">
        <ele>112.61</ele>
        <time>2016-06-13T09:30:23Z</time>
      </trkpt>
      <trkpt lat="43.68012" lon="4.27798">
        <ele>111.65</ele>
        <time>2016-06-13T09:30:27Z</time>
      </trkpt>
      <trkpt lat="43.67804" lon="4.27889">
        <ele>113.09</ele>
        <time>2016-06-13T09:30:37Z</time>
      </trkpt>
      <trkpt lat="43.67758" lon="4.2791">
        <ele>115.01</ele>
        <time>2016-06-13T09:30:39Z</time>
      </trkpt>
      <trkpt lat="43.674" lon="4.28071">
        <ele>111.17</ele>
        <time>2016-06-13T09:30:54Z</time>
      </trkpt>
      <trkpt lat="43.67304" lon="4.28114">
        <ele>109.25</ele>
        <time>2016-06-13T09:30:58Z</time>
      </trkpt>
      <trkpt lat="43.67075" lon="4.28214">
        <ele>106.84</ele>
        <time>2016-06-13T09:31:08Z</time>
      </trkpt>
      <trkpt lat="43.67007" lon="4.28239">
        <ele>103</ele>
        <time>2016-06-13T09:31:11Z</time>
      </trkpt>
      <trkpt lat="43.66984" lon="4.28245">
        <ele>103</ele>
        <time>2016-06-13T09:31:12Z</time>
      </trkpt>
      <trkpt lat="43.66913" lon="4.28252">
        <ele>99.63</ele>
        <time>2016-06-13T09:31:15Z</time>
      </trkpt>
      <trkpt lat="43.66889" lon="4.28253">
        <ele>97.23</ele>
        <time>2016-06-13T09:31:16Z</time>
      </trkpt>
      <trkpt lat="43.66843" lon="4.28264">
        <ele>95.79</ele>
        <time>2016-06-13T09:31:18Z</time>
      </trkpt>
      <trkpt lat="43.66775" lon="4.283">
        <ele>92.42</ele>
        <time>2016-06-13T09:31:21Z</time>
      </trkpt>
      <trkpt lat="43.66728" lon="4.28324">
        <ele>89.06</ele>
        <time>2016-06-13T09:31:23Z</time>
      </trkpt>
      <trkpt lat="43.6666" lon="4.28358">
        <ele>84.25</ele>
        <time>2016-06-13T09:31:26Z</time>
      </trkpt>
      <trkpt lat="43.66638" lon="4.28368">
        <ele>85.21</ele>
        <time>2016-06-13T09:31:27Z</time>
      </trkpt>
      <trkpt lat="43.6649" lon="4.28422">
        <ele>89.54</ele>
        <time>2016-06-13T09:31:34Z</time>
      </trkpt>
      <trkpt lat="43.66448" lon="4.28437">
        <ele>92.9</ele>
        <time>2016-06-13T09:31:36Z</time>
      </trkpt>
      <trkpt lat="43.66428" lon="4.28444">
        <ele>91.94</ele>
        <time>2016-06-13T09:31:37Z</time>
      </trkpt>
      <trkpt lat="43.66353" lon="4.28472">
        <ele>96.75</ele>
        <time>2016-06-13T09:31:41Z</time>
      </trkpt>
      <trkpt lat="43.66336" lon="4.28478">
        <ele>96.75</ele>
        <time>2016-06-13T09:31:42Z</time>
      </trkpt>
      <trkpt lat="43.6626" lon="4.28501">
        <ele>99.15</ele>
        <time>2016-06-13T09:31:46Z</time>
      </trkpt>
      <trkpt lat="43.66149" lon="4.2854">
        <ele>94.83</ele>
        <time>2016-06-13T09:31:52Z</time>
      </trkpt>
      <trkpt lat="43.66131" lon="4.28546">
        <ele>95.79</ele>
        <time>2016-06-13T09:31:53Z</time>
      </trkpt>
      <trkpt lat="43.66114" lon="4.28551">
        <ele>93.87</ele>
        <time>2016-06-13T09:31:54Z</time>
      </trkpt>
      <trkpt lat="43.65983" lon="4.28525">
        <ele>93.39</ele>
        <time>2016-06-13T09:32:01Z</time>
      </trkpt>
      <trkpt lat="43.65907" lon="4.28502">
        <ele>90.98</ele>
        <time>2016-06-13T09:32:05Z</time>
      </trkpt>
      <trkpt lat="43.6582" lon="4.28477">
        <ele>89.54</ele>
        <time>2016-06-13T09:32:10Z</time>
      </trkpt>
      <trkpt lat="43.65754" lon="4.28496">
        <ele>86.18</ele>
        <time>2016-06-13T09:32:14Z</time>
      </trkpt>
      <trkpt lat="43.65712" lon="4.28546">
        <ele>85.21</ele>
        <time>2016-06-13T09:32:17Z</time>
      </trkpt>
      <trkpt lat="43.65671" lon="4.28628">
        <ele>88.58</ele>
        <time>2016-06-13T09:32:20Z</time>
      </trkpt>
      <trkpt lat="43.65598" lon="4.28775">
        <ele>84.73</ele>
        <time>2016-06-13T09:32:25Z</time>
      </trkpt>
      <trkpt lat="43.65572" lon="4.28829">
        <ele>83.29</ele>
        <time>2016-06-13T09:32:27Z</time>
      </trkpt>
      <trkpt lat="43.65556" lon="4.28887">
        <ele>84.25</ele>
        <time>2016-06-13T09:32:29Z</time>
      </trkpt>
      <trkpt lat="43.65553" lon="4.28951">
        <ele>86.18</ele>
        <time>2016-06-13T09:32:31Z</time>
      </trkpt>
      <trkpt lat="43.65497" lon="4.29226">
        <ele>88.1</ele>
        <time>2016-06-13T09:32:40Z</time>
      </trkpt>
      <trkpt lat="43.65457" lon="4.29338">
        <ele>85.21</ele>
        <time>2016-06-13T09:32:44Z</time>
      </trkpt>
      <trkpt lat="43.65402" lon="4.29541">
        <ele>83.77</ele>
        <time>2016-06-13T09:32:51Z</time>
      </trkpt>
      <trkpt lat="43.65352" lon="4.29821">
        <ele>80.41</ele>
        <time>2016-06-13T09:33:00Z</time>
      </trkpt>
      <trkpt lat="43.65311" lon="4.30041">
        <ele>78.97</ele>
        <time>2016-06-13T09:33:07Z</time>
      </trkpt>
      <trkpt lat="43.65265" lon="4.30326">
        <ele>78</ele>
        <time>2016-06-13T09:33:16Z</time>
      </trkpt>
      <trkpt lat="43.65243" lon="4.30514">
        <ele>74.64</ele>
        <time>2016-06-13T09:33:22Z</time>
      </trkpt>
      <trkpt lat="43.65232" lon="4.30611">
        <ele>70.31</ele>
        <time>2016-06-13T09:33:25Z</time>
      </trkpt>
      <trkpt lat="43.65228" lon="4.30644">
        <ele>70.31</ele>
        <time>2016-06-13T09:33:26Z</time>
      </trkpt>
      <trkpt lat="43.65201" lon="4.30864">
        <ele>69.35</ele>
        <time>2016-06-13T09:33:33Z</time>
      </trkpt>
      <trkpt lat="43.65182" lon="4.3095">
        <ele>73.68</ele>
        <time>2016-06-13T09:33:36Z</time>
      </trkpt>
      <trkpt lat="43.65162" lon="4.31038">
        <ele>77.04</ele>
        <time>2016-06-13T09:33:39Z</time>
      </trkpt>
      <trkpt lat="43.65155" lon="4.3107">
        <ele>77.04</ele>
        <time>2016-06-13T09:33:40Z</time>
      </trkpt>
      <trkpt lat="43.65131" lon="4.31168">
        <ele>75.6</ele>
        <time>2016-06-13T09:33:43Z</time>
      </trkpt>
      <trkpt lat="43.65083" lon="4.31364">
        <ele>71.27</ele>
        <time>2016-06-13T09:33:49Z</time>
      </trkpt>
      <trkpt lat="43.65019" lon="4.31576">
        <ele>68.39</ele>
        <time>2016-06-13T09:33:56Z</time>
      </trkpt>
      <trkpt lat="43.64911" lon="4.31888">
        <ele>66.95</ele>
        <time>2016-06-13T09:34:07Z</time>
      </trkpt>
      <trkpt lat="43.64895" lon="4.32081">
        <ele>66.95</ele>
        <time>2016-06-13T09:34:13Z</time>
      </trkpt>
      <trkpt lat="43.64869" lon="4.32381">
        <ele>64.07</ele>
        <time>2016-06-13T09:34:22Z</time>
      </trkpt>
      <trkpt lat="43.64863" lon="4.32413">
        <ele>63.58</ele>
        <time>2016-06-13T09:34:23Z</time>
      </trkpt>
      <trkpt lat="43.64865" lon="4.32541">
        <ele>64.07</ele>
        <time>2016-06-13T09:34:27Z</time>
      </trkpt>
      <trkpt lat="43.64879" lon="4.32604">
        <ele>65.51</ele>
        <time>2016-06-13T09:34:29Z</time>
      </trkpt>
      <trkpt lat="43.64896" lon="4.32666">
        <ele>69.35</ele>
        <time>2016-06-13T09:34:31Z</time>
      </trkpt>
      <trkpt lat="43.64907" lon="4.32695">
        <ele>68.87</ele>
        <time>2016-06-13T09:34:32Z</time>
      </trkpt>
      <trkpt lat="43.65068" lon="4.33164">
        <ele>70.79</ele>
        <time>2016-06-13T09:34:48Z</time>
      </trkpt>
      <trkpt lat="43.65077" lon="4.33194">
        <ele>70.79</ele>
        <time>2016-06-13T09:34:49Z</time>
      </trkpt>
      <trkpt lat="43.65127" lon="4.33343">
        <ele>72.72</ele>
        <time>2016-06-13T09:34:54Z</time>
      </trkpt>
      <trkpt lat="43.65187" lon="4.33521">
        <ele>77.04</ele>
        <time>2016-06-13T09:35:00Z</time>
      </trkpt>
      <trkpt lat="43.65197" lon="4.3355">
        <ele>75.6</ele>
        <time>2016-06-13T09:35:01Z</time>
      </trkpt>
      <trkpt lat="43.65275" lon="4.33783">
        <ele>72.24</ele>
        <time>2016-06-13T09:35:09Z</time>
      </trkpt>
      <trkpt lat="43.65345" lon="4.33991">
        <ele>67.91</ele>
        <time>2016-06-13T09:35:16Z</time>
      </trkpt>
      <trkpt lat="43.65355" lon="4.3402">
        <ele>68.39</ele>
        <time>2016-06-13T09:35:17Z</time>
      </trkpt>
      <trkpt lat="43.65415" lon="4.34193">
        <ele>68.87</ele>
        <time>2016-06-13T09:35:23Z</time>
      </trkpt>
      <trkpt lat="43.655" lon="4.34439">
        <ele>68.39</ele>
        <time>2016-06-13T09:35:32Z</time>
      </trkpt>
      <trkpt lat="43.65558" lon="4.34604">
        <ele>68.87</ele>
        <time>2016-06-13T09:35:38Z</time>
      </trkpt>
      <trkpt lat="43.65651" lon="4.34871">
        <ele>65.51</ele>
        <time>2016-06-13T09:35:47Z</time>
      </trkpt>
      <trkpt lat="43.65704" lon="4.35024">
        <ele>68.87</ele>
        <time>2016-06-13T09:35:52Z</time>
      </trkpt>
      <trkpt lat="43.65736" lon="4.35115">
        <ele>66.95</ele>
        <time>2016-06-13T09:35:55Z</time>
      </trkpt>
      <trkpt lat="43.65778" lon="4.35236">
        <ele>65.51</ele>
        <time>2016-06-13T09:35:59Z</time>
      </trkpt>
      <trkpt lat="43.65799" lon="4.35297">
        <ele>66.95</ele>
        <time>2016-06-13T09:36:01Z</time>
      </trkpt>
      <trkpt lat="43.65872" lon="4.35502">
        <ele>62.62</ele>
        <time>2016-06-13T09:36:08Z</time>
      </trkpt>
      <trkpt lat="43.65883" lon="4.35531">
        <ele>62.62</ele>
        <time>2016-06-13T09:36:09Z</time>
      </trkpt>
      <trkpt lat="43.66022" lon="4.35918">
        <ele>61.66</ele>
        <time>2016-06-13T09:36:22Z</time>
      </trkpt>
      <trkpt lat="43.66118" lon="4.36185">
        <ele>61.18</ele>
        <time>2016-06-13T09:36:31Z</time>
      </trkpt>
      <trkpt lat="43.66236" lon="4.36378">
        <ele>61.66</ele>
        <time>2016-06-13T09:36:39Z</time>
      </trkpt>
      <trkpt lat="43.6633" lon="4.36516">
        <ele>64.55</ele>
        <time>2016-06-13T09:36:45Z</time>
      </trkpt>
      <trkpt lat="43.66436" lon="4.36683">
        <ele>61.18</ele>
        <time>2016-06-13T09:36:52Z</time>
      </trkpt>
      <trkpt lat="43.66525" lon="4.36824">
        <ele>64.55</ele>
        <time>2016-06-13T09:36:58Z</time>
      </trkpt>
      <trkpt lat="43.66539" lon="4.36846">
        <ele>64.07</ele>
        <time>2016-06-13T09:36:59Z</time>
      </trkpt>
      <trkpt lat="43.6658" lon="4.3691">
        <ele>60.7</ele>
        <time>2016-06-13T09:37:02Z</time>
      </trkpt>
      <trkpt lat="43.66649" lon="4.37018">
        <ele>60.22</ele>
        <time>2016-06-13T09:37:08Z</time>
      </trkpt>
      <trkpt lat="43.66666" lon="4.37051">
        <ele>59.26</ele>
        <time>2016-06-13T09:37:10Z</time>
      </trkpt>
      <trkpt lat="43.66676" lon="4.3709">
        <ele>58.78</ele>
        <time>2016-06-13T09:37:12Z</time>
      </trkpt>
      <trkpt lat="43.6668" lon="4.37314">
        <ele>61.18</ele>
        <time>2016-06-13T09:37:20Z</time>
      </trkpt>
      <trkpt lat="43.66683" lon="4.37541">
        <ele>65.03</ele>
        <time>2016-06-13T09:37:27Z</time>
      </trkpt>
      <trkpt lat="43.66686" lon="4.37737">
        <ele>61.66</ele>
        <time>2016-06-13T09:37:33Z</time>
      </trkpt>
      <trkpt lat="43.66687" lon="4.37801">
        <ele>62.14</ele>
        <time>2016-06-13T09:37:35Z</time>
      </trkpt>
      <trkpt lat="43.66704" lon="4.3789">
        <ele>63.58</ele>
        <time>2016-06-13T09:37:38Z</time>
      </trkpt>
      <trkpt lat="43.66716" lon="4.37917">
        <ele>65.03</ele>
        <time>2016-06-13T09:37:39Z</time>
      </trkpt>
      <trkpt lat="43.66772" lon="4.3802">
        <ele>67.43</ele>
        <time>2016-06-13T09:37:43Z</time>
      </trkpt>
      <trkpt lat="43.66813" lon="4.38095">
        <ele>64.07</ele>
        <time>2016-06-13T09:37:46Z</time>
      </trkpt>
      <trkpt lat="43.66882" lon="4.38219">
        <ele>64.07</ele>
        <time>2016-06-13T09:37:51Z</time>
      </trkpt>
      <trkpt lat="43.6696" lon="4.38306">
        <ele>59.26</ele>
        <time>2016-06-13T09:37:56Z</time>
      </trkpt>
      <trkpt lat="43.66987" lon="4.38344">
        <ele>58.3</ele>
        <time>2016-06-13T09:37:58Z</time>
      </trkpt>
      <trkpt lat="43.6701" lon="4.38417">
        <ele>54.93</ele>
        <time>2016-06-13T09:38:02Z</time>
      </trkpt>
      <trkpt lat="43.66976" lon="4.38459">
        <ele>57.82</ele>
        <time>2016-06-13T09:38:05Z</time>
      </trkpt>
      <trkpt lat="43.66961" lon="4.38472">
        <ele>57.82</ele>
        <time>2016-06-13T09:38:06Z</time>
      </trkpt>
      <trkpt lat="43.66888" lon="4.38551">
        <ele>58.3</ele>
        <time>2016-06-13T09:38:11Z</time>
      </trkpt>
      <trkpt lat="43.66863" lon="4.3866">
        <ele>57.34</ele>
        <time>2016-06-13T09:38:16Z</time>
      </trkpt>
      <trkpt lat="43.6687" lon="4.38906">
        <ele>60.7</ele>
        <time>2016-06-13T09:38:26Z</time>
      </trkpt>
      <trkpt lat="43.6688" lon="4.38979">
        <ele>63.58</ele>
        <time>2016-06-13T09:38:29Z</time>
      </trkpt>
      <trkpt lat="43.66928" lon="4.3909">
        <ele>64.55</ele>
        <time>2016-06-13T09:38:34Z</time>
      </trkpt>
      <trkpt lat="43.67045" lon="4.39307">
        <ele>64.07</ele>
        <time>2016-06-13T09:38:45Z</time>
      </trkpt>
      <trkpt lat="43.67065" lon="4.3938">
        <ele>67.43</ele>
        <time>2016-06-13T09:38:48Z</time>
      </trkpt>
      <trkpt lat="43.67122" lon="4.39626">
        <ele>66.95</ele>
        <time>2016-06-13T09:38:58Z</time>
      </trkpt>
      <trkpt lat="43.67115" lon="4.39815">
        <ele>66.47</ele>
        <time>2016-06-13T09:39:06Z</time>
      </trkpt>
      <trkpt lat="43.67122" lon="4.40093">
        <ele>68.39</ele>
        <time>2016-06-13T09:39:17Z</time>
      </trkpt>
      <trkpt lat="43.67134" lon="4.40209">
        <ele>67.91</ele>
        <time>2016-06-13T09:39:22Z</time>
      </trkpt>
      <trkpt lat="43.6712" lon="4.40408">
        <ele>69.35</ele>
        <time>2016-06-13T09:39:30Z</time>
      </trkpt>
      <trkpt lat="43.67119" lon="4.40671">
        <ele>67.91</ele>
        <time>2016-06-13T09:39:40Z</time>
      </trkpt>
      <trkpt lat="43.67116" lon="4.40782">
        <ele>68.87</ele>
        <time>2016-06-13T09:39:44Z</time>
      </trkpt>
      <trkpt lat="43.67155" lon="4.40934">
        <ele>66.47</ele>
        <time>2016-06-13T09:39:50Z</time>
      </trkpt>
      <trkpt lat="43.67203" lon="4.41023">
        <ele>65.99</ele>
        <time>2016-06-13T09:39:55Z</time>
      </trkpt>
      <trkpt lat="43.67229" lon="4.41174">
        <ele>66.47</ele>
        <time>2016-06-13T09:40:02Z</time>
      </trkpt>
      <trkpt lat="43.67251" lon="4.415">
        <ele>68.39</ele>
        <time>2016-06-13T09:40:15Z</time>
      </trkpt>
      <trkpt lat="43.6725" lon="4.416">
        <ele>68.87</ele>
        <time>2016-06-13T09:40:19Z</time>
      </trkpt>
      <trkpt lat="43.67255" lon="4.41649">
        <ele>68.39</ele>
        <time>2016-06-13T09:40:21Z</time>
      </trkpt>
      <trkpt lat="43.67302" lon="4.41879">
        <ele>67.91</ele>
        <time>2016-06-13T09:40:31Z</time>
      </trkpt>
      <trkpt lat="43.67317" lon="4.42017">
        <ele>65.03</ele>
        <time>2016-06-13T09:40:39Z</time>
      </trkpt>
      <trkpt lat="43.67324" lon="4.42107">
        <ele>64.07</ele>
        <time>2016-06-13T09:40:48Z</time>
      </trkpt>
      <trkpt lat="43.67324" lon="4.4212">
        <ele>64.07</ele>
        <time>2016-06-13T09:40:57Z</time>
      </trkpt>
      <trkpt lat="43.67324" lon="4.4212">
        <ele>64.55</ele>
        <time>2016-06-13T09:41:28Z</time>
      </trkpt>
      <trkpt lat="43.67324" lon="4.42134">
        <ele>65.03</ele>
        <time>2016-06-13T09:42:13Z</time>
      </trkpt>
      <trkpt lat="43.67351" lon="4.42158">
        <ele>65.51</ele>
        <time>2016-06-13T09:42:19Z</time>
      </trkpt>
      <trkpt lat="43.67368" lon="4.42149">
        <ele>65.51</ele>
        <time>2016-06-13T09:42:21Z</time>
      </trkpt>
      <trkpt lat="43.67486" lon="4.42131">
        <ele>67.91</ele>
        <time>2016-06-13T09:42:31Z</time>
      </trkpt>
      <trkpt lat="43.67533" lon="4.42139">
        <ele>67.43</ele>
        <time>2016-06-13T09:42:36Z</time>
      </trkpt>
      <trkpt lat="43.67554" lon="4.42153">
        <ele>66.47</ele>
        <time>2016-06-13T09:42:41Z</time>
      </trkpt>
      <trkpt lat="43.67575" lon="4.42154">
        <ele>66.47</ele>
        <time>2016-06-13T09:42:45Z</time>
      </trkpt>
      <trkpt lat="43.67605" lon="4.42157">
        <ele>68.39</ele>
        <time>2016-06-13T09:42:49Z</time>
      </trkpt>
      <trkpt lat="43.67641" lon="4.42169">
        <ele>71.76</ele>
        <time>2016-06-13T09:42:52Z</time>
      </trkpt>
      <trkpt lat="43.67787" lon="4.42208">
        <ele>71.76</ele>
        <time>2016-06-13T09:43:02Z</time>
      </trkpt>
      <trkpt lat="43.67829" lon="4.42224">
        <ele>71.27</ele>
        <time>2016-06-13T09:43:06Z</time>
      </trkpt>
      <trkpt lat="43.67871" lon="4.42234">
        <ele>73.68</ele>
        <time>2016-06-13T09:43:10Z</time>
      </trkpt>
      <trkpt lat="43.67882" lon="4.42242">
        <ele>73.2</ele>
        <time>2016-06-13T09:43:11Z</time>
      </trkpt>
      <trkpt lat="43.67916" lon="4.42271">
        <ele>74.16</ele>
        <time>2016-06-13T09:43:14Z</time>
      </trkpt>
      <trkpt lat="43.68052" lon="4.42403">
        <ele>74.16</ele>
        <time>2016-06-13T09:43:25Z</time>
      </trkpt>
      <trkpt lat="43.68139" lon="4.42555">
        <ele>71.27</ele>
        <time>2016-06-13T09:43:34Z</time>
      </trkpt>
      <trkpt lat="43.68196" lon="4.42731">
        <ele>69.83</ele>
        <time>2016-06-13T09:43:43Z</time>
      </trkpt>
      <trkpt lat="43.68206" lon="4.42792">
        <ele>66.47</ele>
        <time>2016-06-13T09:43:46Z</time>
      </trkpt>
      <trkpt lat="43.68209" lon="4.42811">
        <ele>66.47</ele>
        <time>2016-06-13T09:43:47Z</time>
      </trkpt>
      <trkpt lat="43.68217" lon="4.429">
        <ele>63.58</ele>
        <time>2016-06-13T09:43:52Z</time>
      </trkpt>
      <trkpt lat="43.68217" lon="4.42928">
        <ele>61.66</ele>
        <time>2016-06-13T09:43:54Z</time>
      </trkpt>
      <trkpt lat="43.68198" lon="4.42995">
        <ele>58.78</ele>
        <time>2016-06-13T09:44:00Z</time>
      </trkpt>
      <trkpt lat="43.68201" lon="4.43007">
        <ele>59.26</ele>
        <time>2016-06-13T09:44:01Z</time>
      </trkpt>
      <trkpt lat="43.68199" lon="4.4309">
        <ele>64.55</ele>
        <time>2016-06-13T09:44:06Z</time>
      </trkpt>
      <trkpt lat="43.68181" lon="4.43143">
        <ele>66.47</ele>
        <time>2016-06-13T09:44:09Z</time>
      </trkpt>
      <trkpt lat="43.68147" lon="4.43192">
        <ele>70.79</ele>
        <time>2016-06-13T09:44:14Z</time>
      </trkpt>
      <trkpt lat="43.68141" lon="4.43205">
        <ele>71.76</ele>
        <time>2016-06-13T09:44:15Z</time>
      </trkpt>
      <trkpt lat="43.68128" lon="4.43239">
        <ele>72.72</ele>
        <time>2016-06-13T09:44:17Z</time>
      </trkpt>
      <trkpt lat="43.68115" lon="4.43278">
        <ele>74.16</ele>
        <time>2016-06-13T09:44:19Z</time>
      </trkpt>
      <trkpt lat="43.68103" lon="4.43439">
        <ele>77.04</ele>
        <time>2016-06-13T09:44:26Z</time>
      </trkpt>
      <trkpt lat="43.6812" lon="4.43536">
        <ele>79.93</ele>
        <time>2016-06-13T09:44:30Z</time>
      </trkpt>
      <trkpt lat="43.6814" lon="4.43605">
        <ele>83.29</ele>
        <time>2016-06-13T09:44:33Z</time>
      </trkpt>
      <trkpt lat="43.68147" lon="4.43626">
        <ele>83.29</ele>
        <time>2016-06-13T09:44:34Z</time>
      </trkpt>
      <trkpt lat="43.6817" lon="4.43693">
        <ele>81.85</ele>
        <time>2016-06-13T09:44:37Z</time>
      </trkpt>
      <trkpt lat="43.68214" lon="4.43782">
        <ele>81.37</ele>
        <time>2016-06-13T09:44:41Z</time>
      </trkpt>
      <trkpt lat="43.68281" lon="4.43854">
        <ele>77.04</ele>
        <time>2016-06-13T09:44:45Z</time>
      </trkpt>
      <trkpt lat="43.68339" lon="4.43894">
        <ele>74.64</ele>
        <time>2016-06-13T09:44:48Z</time>
      </trkpt>
      <trkpt lat="43.68397" lon="4.43934">
        <ele>71.27</ele>
        <time>2016-06-13T09:44:51Z</time>
      </trkpt>
      <trkpt lat="43.6845" lon="4.43981">
        <ele>66.47</ele>
        <time>2016-06-13T09:44:54Z</time>
      </trkpt>
      <trkpt lat="43.68481" lon="4.44021">
        <ele>63.1</ele>
        <time>2016-06-13T09:44:56Z</time>
      </trkpt>
      <trkpt lat="43.68495" lon="4.44043">
        <ele>64.55</ele>
        <time>2016-06-13T09:44:57Z</time>
      </trkpt>
      <trkpt lat="43.68543" lon="4.44134">
        <ele>60.7</ele>
        <time>2016-06-13T09:45:01Z</time>
      </trkpt>
      <trkpt lat="43.68568" lon="4.44192">
        <ele>57.34</ele>
        <time>2016-06-13T09:45:04Z</time>
      </trkpt>
      <trkpt lat="43.68622" lon="4.44332">
        <ele>60.22</ele>
        <time>2016-06-13T09:45:12Z</time>
      </trkpt>
      <trkpt lat="43.68641" lon="4.44378">
        <ele>56.37</ele>
        <time>2016-06-13T09:45:15Z</time>
      </trkpt>
      <trkpt lat="43.68654" lon="4.44408">
        <ele>55.89</ele>
        <time>2016-06-13T09:45:17Z</time>
      </trkpt>
      <trkpt lat="43.68731" lon="4.44486">
        <ele>62.14</ele>
        <time>2016-06-13T09:45:23Z</time>
      </trkpt>
      <trkpt lat="43.68919" lon="4.44615">
        <ele>63.1</ele>
        <time>2016-06-13T09:45:33Z</time>
      </trkpt>
      <trkpt lat="43.68938" lon="4.44628">
        <ele>63.58</ele>
        <time>2016-06-13T09:45:34Z</time>
      </trkpt>
      <trkpt lat="43.6921" lon="4.4481">
        <ele>63.1</ele>
        <time>2016-06-13T09:45:48Z</time>
      </trkpt>
      <trkpt lat="43.69444" lon="4.4486">
        <ele>64.07</ele>
        <time>2016-06-13T09:45:59Z</time>
      </trkpt>
      <trkpt lat="43.69767" lon="4.449">
        <ele>65.03</ele>
        <time>2016-06-13T09:46:14Z</time>
      </trkpt>
      <trkpt lat="43.69913" lon="4.44957">
        <ele>65.51</ele>
        <time>2016-06-13T09:46:21Z</time>
      </trkpt>
      <trkpt lat="43.70159" lon="4.45091">
        <ele>66.47</ele>
        <time>2016-06-13T09:46:34Z</time>
      </trkpt>
      <trkpt lat="43.70218" lon="4.45123">
        <ele>69.35</ele>
        <time>2016-06-13T09:46:37Z</time>
      </trkpt>
      <trkpt lat="43.70433" lon="4.4524">
        <ele>72.72</ele>
        <time>2016-06-13T09:46:47Z</time>
      </trkpt>
      <trkpt lat="43.70479" lon="4.45264">
        <ele>76.08</ele>
        <time>2016-06-13T09:46:49Z</time>
      </trkpt>
      <trkpt lat="43.70503" lon="4.45277">
        <ele>75.12</ele>
        <time>2016-06-13T09:46:50Z</time>
      </trkpt>
      <trkpt lat="43.70898" lon="4.45488">
        <ele>75.6</ele>
        <time>2016-06-13T09:47:07Z</time>
      </trkpt>
      <trkpt lat="43.71014" lon="4.45548">
        <ele>77.04</ele>
        <time>2016-06-13T09:47:12Z</time>
      </trkpt>
      <trkpt lat="43.71396" lon="4.45751">
        <ele>78.48</ele>
        <time>2016-06-13T09:47:29Z</time>
      </trkpt>
      <trkpt lat="43.71487" lon="4.458">
        <ele>74.64</ele>
        <time>2016-06-13T09:47:33Z</time>
      </trkpt>
      <trkpt lat="43.71556" lon="4.45838">
        <ele>71.27</ele>
        <time>2016-06-13T09:47:36Z</time>
      </trkpt>
      <trkpt lat="43.7158" lon="4.45852">
        <ele>72.24</ele>
        <time>2016-06-13T09:47:37Z</time>
      </trkpt>
      <trkpt lat="43.7174" lon="4.45941">
        <ele>69.35</ele>
        <time>2016-06-13T09:47:44Z</time>
      </trkpt>
      <trkpt lat="43.71763" lon="4.45954">
        <ele>69.83</ele>
        <time>2016-06-13T09:47:45Z</time>
      </trkpt>
      <trkpt lat="43.71899" lon="4.46032">
        <ele>68.39</ele>
        <time>2016-06-13T09:47:51Z</time>
      </trkpt>
      <trkpt lat="43.72015" lon="4.46098">
        <ele>72.24</ele>
        <time>2016-06-13T09:47:56Z</time>
      </trkpt>
      <trkpt lat="43.72085" lon="4.46137">
        <ele>70.79</ele>
        <time>2016-06-13T09:47:59Z</time>
      </trkpt>
      <trkpt lat="43.72217" lon="4.46213">
        <ele>73.68</ele>
        <time>2016-06-13T09:48:05Z</time>
      </trkpt>
      <trkpt lat="43.72259" lon="4.46236">
        <ele>72.72</ele>
        <time>2016-06-13T09:48:07Z</time>
      </trkpt>
      <trkpt lat="43.72326" lon="4.46255">
        <ele>77.52</ele>
        <time>2016-06-13T09:48:10Z</time>
      </trkpt>
      <trkpt lat="43.72488" lon="4.46289">
        <ele>78</ele>
        <time>2016-06-13T09:48:17Z</time>
      </trkpt>
      <trkpt lat="43.72904" lon="4.46403">
        <ele>80.41</ele>
        <time>2016-06-13T09:48:34Z</time>
      </trkpt>
      <trkpt lat="43.73028" lon="4.46438">
        <ele>77.04</ele>
        <time>2016-06-13T09:48:39Z</time>
      </trkpt>
      <trkpt lat="43.73053" lon="4.46445">
        <ele>77.04</ele>
        <time>2016-06-13T09:48:40Z</time>
      </trkpt>
      <trkpt lat="43.7315" lon="4.46471">
        <ele>77.52</ele>
        <time>2016-06-13T09:48:44Z</time>
      </trkpt>
      <trkpt lat="43.73194" lon="4.46484">
        <ele>74.16</ele>
        <time>2016-06-13T09:48:46Z</time>
      </trkpt>
      <trkpt lat="43.73253" lon="4.46501">
        <ele>72.72</ele>
        <time>2016-06-13T09:48:49Z</time>
      </trkpt>
      <trkpt lat="43.733" lon="4.46522">
        <ele>69.83</ele>
        <time>2016-06-13T09:48:52Z</time>
      </trkpt>
      <trkpt lat="43.73331" lon="4.46544">
        <ele>66.47</ele>
        <time>2016-06-13T09:48:55Z</time>
      </trkpt>
      <trkpt lat="43.73377" lon="4.46583">
        <ele>65.99</ele>
        <time>2016-06-13T09:49:02Z</time>
      </trkpt>
      <trkpt lat="43.73455" lon="4.46643">
        <ele>66.95</ele>
        <time>2016-06-13T09:49:12Z</time>
      </trkpt>
      <trkpt lat="43.73478" lon="4.46662">
        <ele>68.39</ele>
        <time>2016-06-13T09:49:14Z</time>
      </trkpt>
      <trkpt lat="43.73504" lon="4.46687">
        <ele>69.83</ele>
        <time>2016-06-13T09:49:16Z</time>
      </trkpt>
      <trkpt lat="43.73533" lon="4.46714">
        <ele>71.76</ele>
        <time>2016-06-13T09:49:18Z</time>
      </trkpt>
      <trkpt lat="43.73581" lon="4.46754">
        <ele>73.68</ele>
        <time>2016-06-13T09:49:21Z</time>
      </trkpt>
      <trkpt lat="43.7365" lon="4.4681">
        <ele>77.52</ele>
        <time>2016-06-13T09:49:25Z</time>
      </trkpt>
      <trkpt lat="43.73686" lon="4.46841">
        <ele>78.48</ele>
        <time>2016-06-13T09:49:27Z</time>
      </trkpt>
      <trkpt lat="43.73741" lon="4.4689">
        <ele>80.89</ele>
        <time>2016-06-13T09:49:30Z</time>
      </trkpt>
      <trkpt lat="43.73806" lon="4.46972">
        <ele>78.48</ele>
        <time>2016-06-13T09:49:34Z</time>
      </trkpt>
      <trkpt lat="43.73872" lon="4.47173">
        <ele>78.48</ele>
        <time>2016-06-13T09:49:41Z</time>
      </trkpt>
      <trkpt lat="43.73911" lon="4.47371">
        <ele>75.6</ele>
        <time>2016-06-13T09:49:47Z</time>
      </trkpt>
      <trkpt lat="43.73918" lon="4.47405">
        <ele>75.6</ele>
        <time>2016-06-13T09:49:48Z</time>
      </trkpt>
      <trkpt lat="43.73967" lon="4.47647">
        <ele>74.64</ele>
        <time>2016-06-13T09:49:55Z</time>
      </trkpt>
      <trkpt lat="43.73993" lon="4.47787">
        <ele>73.68</ele>
        <time>2016-06-13T09:49:59Z</time>
      </trkpt>
      <trkpt lat="43.74006" lon="4.47856">
        <ele>74.64</ele>
        <time>2016-06-13T09:50:01Z</time>
      </trkpt>
      <trkpt lat="43.74076" lon="4.48225">
        <ele>71.27</ele>
        <time>2016-06-13T09:50:12Z</time>
      </trkpt>
      <trkpt lat="43.74115" lon="4.48431">
        <ele>71.76</ele>
        <time>2016-06-13T09:50:18Z</time>
      </trkpt>
      <trkpt lat="43.74206" lon="4.48929">
        <ele>70.79</ele>
        <time>2016-06-13T09:50:33Z</time>
      </trkpt>
      <trkpt lat="43.74218" lon="4.48993">
        <ele>70.31</ele>
        <time>2016-06-13T09:50:35Z</time>
      </trkpt>
      <trkpt lat="43.74247" lon="4.49156">
        <ele>71.76</ele>
        <time>2016-06-13T09:50:40Z</time>
      </trkpt>
      <trkpt lat="43.74259" lon="4.49292">
        <ele>68.39</ele>
        <time>2016-06-13T09:50:44Z</time>
      </trkpt>
      <trkpt lat="43.74259" lon="4.49326">
        <ele>68.87</ele>
        <time>2016-06-13T09:50:45Z</time>
      </trkpt>
      <trkpt lat="43.74232" lon="4.49498">
        <ele>65.03</ele>
        <time>2016-06-13T09:50:50Z</time>
      </trkpt>
      <trkpt lat="43.74112" lon="4.49965">
        <ele>64.07</ele>
        <time>2016-06-13T09:51:04Z</time>
      </trkpt>
      <trkpt lat="43.74093" lon="4.50064">
        <ele>65.03</ele>
        <time>2016-06-13T09:51:07Z</time>
      </trkpt>
      <trkpt lat="43.74088" lon="4.50134">
        <ele>65.51</ele>
        <time>2016-06-13T09:51:09Z</time>
      </trkpt>
      <trkpt lat="43.74122" lon="4.50376">
        <ele>66.47</ele>
        <time>2016-06-13T09:51:16Z</time>
      </trkpt>
      <trkpt lat="43.7416" lon="4.50544">
        <ele>70.31</ele>
        <time>2016-06-13T09:51:21Z</time>
      </trkpt>
      <trkpt lat="43.74183" lon="4.50643">
        <ele>66.95</ele>
        <time>2016-06-13T09:51:24Z</time>
      </trkpt>
      <trkpt lat="43.74227" lon="4.5084">
        <ele>65.03</ele>
        <time>2016-06-13T09:51:30Z</time>
      </trkpt>
      <trkpt lat="43.74281" lon="4.51102">
        <ele>65.51</ele>
        <time>2016-06-13T09:51:38Z</time>
      </trkpt>
      <trkpt lat="43.74328" lon="4.51368">
        <ele>66.95</ele>
        <time>2016-06-13T09:51:46Z</time>
      </trkpt>
      <trkpt lat="43.74427" lon="4.51782">
        <ele>63.58</ele>
        <time>2016-06-13T09:51:59Z</time>
      </trkpt>
      <trkpt lat="43.74496" lon="4.51915">
        <ele>61.18</ele>
        <time>2016-06-13T09:52:05Z</time>
      </trkpt>
      <trkpt lat="43.74556" lon="4.52009">
        <ele>57.82</ele>
        <time>2016-06-13T09:52:11Z</time>
      </trkpt>
      <trkpt lat="43.7463" lon="4.52128">
        <ele>55.41</ele>
        <time>2016-06-13T09:52:20Z</time>
      </trkpt>
      <trkpt lat="43.74699" lon="4.52308">
        <ele>56.37</ele>
        <time>2016-06-13T09:52:31Z</time>
      </trkpt>
      <trkpt lat="43.74709" lon="4.52345">
        <ele>57.34</ele>
        <time>2016-06-13T09:52:33Z</time>
      </trkpt>
      <trkpt lat="43.74775" lon="4.52551">
        <ele>58.3</ele>
        <time>2016-06-13T09:52:43Z</time>
      </trkpt>
      <trkpt lat="43.74896" lon="4.52749">
        <ele>60.7</ele>
        <time>2016-06-13T09:52:53Z</time>
      </trkpt>
      <trkpt lat="43.75046" lon="4.52927">
        <ele>60.22</ele>
        <time>2016-06-13T09:53:03Z</time>
      </trkpt>
      <trkpt lat="43.75083" lon="4.5295">
        <ele>60.22</ele>
        <time>2016-06-13T09:53:05Z</time>
      </trkpt>
      <trkpt lat="43.75181" lon="4.52971">
        <ele>61.66</ele>
        <time>2016-06-13T09:53:10Z</time>
      </trkpt>
      <trkpt lat="43.75242" lon="4.5296">
        <ele>60.7</ele>
        <time>2016-06-13T09:53:13Z</time>
      </trkpt>
      <trkpt lat="43.75364" lon="4.529">
        <ele>65.99</ele>
        <time>2016-06-13T09:53:19Z</time>
      </trkpt>
      <trkpt lat="43.75386" lon="4.52886">
        <ele>68.87</ele>
        <time>2016-06-13T09:53:20Z</time>
      </trkpt>
      <trkpt lat="43.75408" lon="4.52873">
        <ele>68.87</ele>
        <time>2016-06-13T09:53:21Z</time>
      </trkpt>
      <trkpt lat="43.75475" lon="4.52831">
        <ele>65.99</ele>
        <time>2016-06-13T09:53:24Z</time>
      </trkpt>
      <trkpt lat="43.75545" lon="4.52791">
        <ele>67.91</ele>
        <time>2016-06-13T09:53:27Z</time>
      </trkpt>
      <trkpt lat="43.75913" lon="4.52564">
        <ele>67.43</ele>
        <time>2016-06-13T09:53:44Z</time>
      </trkpt>
      <trkpt lat="43.76091" lon="4.52498">
        <ele>69.35</ele>
        <time>2016-06-13T09:53:52Z</time>
      </trkpt>
      <trkpt lat="43.76114" lon="4.52498">
        <ele>70.79</ele>
        <time>2016-06-13T09:53:53Z</time>
      </trkpt>
      <trkpt lat="43.76247" lon="4.52555">
        <ele>67.91</ele>
        <time>2016-06-13T09:53:59Z</time>
      </trkpt>
      <trkpt lat="43.76395" lon="4.52726">
        <ele>68.87</ele>
        <time>2016-06-13T09:54:07Z</time>
      </trkpt>
      <trkpt lat="43.76601" lon="4.53021">
        <ele>65.51</ele>
        <time>2016-06-13T09:54:19Z</time>
      </trkpt>
      <trkpt lat="43.76692" lon="4.5314">
        <ele>66.95</ele>
        <time>2016-06-13T09:54:24Z</time>
      </trkpt>
      <trkpt lat="43.7673" lon="4.53181">
        <ele>68.87</ele>
        <time>2016-06-13T09:54:26Z</time>
      </trkpt>
      <trkpt lat="43.76875" lon="4.53282">
        <ele>65.51</ele>
        <time>2016-06-13T09:54:33Z</time>
      </trkpt>
      <trkpt lat="43.76976" lon="4.53335">
        <ele>63.1</ele>
        <time>2016-06-13T09:54:39Z</time>
      </trkpt>
      <trkpt lat="43.77017" lon="4.53358">
        <ele>60.7</ele>
        <time>2016-06-13T09:54:42Z</time>
      </trkpt>
      <trkpt lat="43.77052" lon="4.53383">
        <ele>60.22</ele>
        <time>2016-06-13T09:54:45Z</time>
      </trkpt>
      <trkpt lat="43.7709" lon="4.53425">
        <ele>61.66</ele>
        <time>2016-06-13T09:54:48Z</time>
      </trkpt>
      <trkpt lat="43.77117" lon="4.53461">
        <ele>63.58</ele>
        <time>2016-06-13T09:54:50Z</time>
      </trkpt>
      <trkpt lat="43.77188" lon="4.53564">
        <ele>66.95</ele>
        <time>2016-06-13T09:54:55Z</time>
      </trkpt>
      <trkpt lat="43.77277" lon="4.53696">
        <ele>70.31</ele>
        <time>2016-06-13T09:55:01Z</time>
      </trkpt>
      <trkpt lat="43.77467" lon="4.53895">
        <ele>69.35</ele>
        <time>2016-06-13T09:55:11Z</time>
      </trkpt>
      <trkpt lat="43.77486" lon="4.53916">
        <ele>70.79</ele>
        <time>2016-06-13T09:55:12Z</time>
      </trkpt>
      <trkpt lat="43.77619" lon="4.54151">
        <ele>67.43</ele>
        <time>2016-06-13T09:55:21Z</time>
      </trkpt>
      <trkpt lat="43.77697" lon="4.54269">
        <ele>71.27</ele>
        <time>2016-06-13T09:55:26Z</time>
      </trkpt>
      <trkpt lat="43.77743" lon="4.54332">
        <ele>68.39</ele>
        <time>2016-06-13T09:55:29Z</time>
      </trkpt>
      <trkpt lat="43.77801" lon="4.54435">
        <ele>64.55</ele>
        <time>2016-06-13T09:55:34Z</time>
      </trkpt>
      <trkpt lat="43.77822" lon="4.54476">
        <ele>62.62</ele>
        <time>2016-06-13T09:55:36Z</time>
      </trkpt>
      <trkpt lat="43.77864" lon="4.54563">
        <ele>63.58</ele>
        <time>2016-06-13T09:55:40Z</time>
      </trkpt>
      <trkpt lat="43.77923" lon="4.54756">
        <ele>66.95</ele>
        <time>2016-06-13T09:55:47Z</time>
      </trkpt>
      <trkpt lat="43.78061" lon="4.5507">
        <ele>67.43</ele>
        <time>2016-06-13T09:55:58Z</time>
      </trkpt>
      <trkpt lat="43.78115" lon="4.55181">
        <ele>68.39</ele>
        <time>2016-06-13T09:56:02Z</time>
      </trkpt>
      <trkpt lat="43.78144" lon="4.55305">
        <ele>68.39</ele>
        <time>2016-06-13T09:56:06Z</time>
      </trkpt>
      <trkpt lat="43.78156" lon="4.55471">
        <ele>69.35</ele>
        <time>2016-06-13T09:56:11Z</time>
      </trkpt>
      <trkpt lat="43.78161" lon="4.55537">
        <ele>66.95</ele>
        <time>2016-06-13T09:56:13Z</time>
      </trkpt>
      <trkpt lat="43.78217" lon="4.55756">
        <ele>70.31</ele>
        <time>2016-06-13T09:56:20Z</time>
      </trkpt>
      <trkpt lat="43.78224" lon="4.55788">
        <ele>70.31</ele>
        <time>2016-06-13T09:56:21Z</time>
      </trkpt>
      <trkpt lat="43.78244" lon="4.55954">
        <ele>66.95</ele>
        <time>2016-06-13T09:56:26Z</time>
      </trkpt>
      <trkpt lat="43.78324" lon="4.56288">
        <ele>69.83</ele>
        <time>2016-06-13T09:56:36Z</time>
      </trkpt>
      <trkpt lat="43.78411" lon="4.56615">
        <ele>70.79</ele>
        <time>2016-06-13T09:56:46Z</time>
      </trkpt>
      <trkpt lat="43.78451" lon="4.5674">
        <ele>67.91</ele>
        <time>2016-06-13T09:56:50Z</time>
      </trkpt>
      <trkpt lat="43.7848" lon="4.56833">
        <ele>68.87</ele>
        <time>2016-06-13T09:56:53Z</time>
      </trkpt>
      <trkpt lat="43.78539" lon="4.57047">
        <ele>65.99</ele>
        <time>2016-06-13T09:57:00Z</time>
      </trkpt>
      <trkpt lat="43.7861" lon="4.57288">
        <ele>69.35</ele>
        <time>2016-06-13T09:57:08Z</time>
      </trkpt>
      <trkpt lat="43.78718" lon="4.57554">
        <ele>70.31</ele>
        <time>2016-06-13T09:57:17Z</time>
      </trkpt>
      <trkpt lat="43.78798" lon="4.57761">
        <ele>69.35</ele>
        <time>2016-06-13T09:57:24Z</time>
      </trkpt>
      <trkpt lat="43.78822" lon="4.5782">
        <ele>70.79</ele>
        <time>2016-06-13T09:57:26Z</time>
      </trkpt>
      <trkpt lat="43.78847" lon="4.57877">
        <ele>69.35</ele>
        <time>2016-06-13T09:57:28Z</time>
      </trkpt>
      <trkpt lat="43.78896" lon="4.57989">
        <ele>69.35</ele>
        <time>2016-06-13T09:57:32Z</time>
      </trkpt>
      <trkpt lat="43.78966" lon="4.58083">
        <ele>69.35</ele>
        <time>2016-06-13T09:57:36Z</time>
      </trkpt>
      <trkpt lat="43.79009" lon="4.5812">
        <ele>70.79</ele>
        <time>2016-06-13T09:57:38Z</time>
      </trkpt>
      <trkpt lat="43.79134" lon="4.58228">
        <ele>67.43</ele>
        <time>2016-06-13T09:57:44Z</time>
      </trkpt>
      <trkpt lat="43.7921" lon="4.58361">
        <ele>69.35</ele>
        <time>2016-06-13T09:57:49Z</time>
      </trkpt>
      <trkpt lat="43.79295" lon="4.58643">
        <ele>67.43</ele>
        <time>2016-06-13T09:57:58Z</time>
      </trkpt>
      <trkpt lat="43.7937" lon="4.58932">
        <ele>67.43</ele>
        <time>2016-06-13T09:58:07Z</time>
      </trkpt>
      <trkpt lat="43.79472" lon="4.59323">
        <ele>66.95</ele>
        <time>2016-06-13T09:58:19Z</time>
      </trkpt>
      <trkpt lat="43.79505" lon="4.59511">
        <ele>72.24</ele>
        <time>2016-06-13T09:58:25Z</time>
      </trkpt>
      <trkpt lat="43.79507" lon="4.59543">
        <ele>70.31</ele>
        <time>2016-06-13T09:58:26Z</time>
      </trkpt>
      <trkpt lat="43.79523" lon="4.59996">
        <ele>71.27</ele>
        <time>2016-06-13T09:58:40Z</time>
      </trkpt>
      <trkpt lat="43.79528" lon="4.60085">
        <ele>67.91</ele>
        <time>2016-06-13T09:58:43Z</time>
      </trkpt>
      <trkpt lat="43.79571" lon="4.60278">
        <ele>68.87</ele>
        <time>2016-06-13T09:58:50Z</time>
      </trkpt>
      <trkpt lat="43.79633" lon="4.60446">
        <ele>69.35</ele>
        <time>2016-06-13T09:58:57Z</time>
      </trkpt>
      <trkpt lat="43.79653" lon="4.6049">
        <ele>67.43</ele>
        <time>2016-06-13T09:58:59Z</time>
      </trkpt>
      <trkpt lat="43.79782" lon="4.60786">
        <ele>65.99</ele>
        <time>2016-06-13T09:59:12Z</time>
      </trkpt>
      <trkpt lat="43.79938" lon="4.61037">
        <ele>65.03</ele>
        <time>2016-06-13T09:59:24Z</time>
      </trkpt>
      <trkpt lat="43.7995" lon="4.61058">
        <ele>65.03</ele>
        <time>2016-06-13T09:59:25Z</time>
      </trkpt>
      <trkpt lat="43.80075" lon="4.61272">
        <ele>63.1</ele>
        <time>2016-06-13T09:59:36Z</time>
      </trkpt>
      <trkpt lat="43.80161" lon="4.61503">
        <ele>62.14</ele>
        <time>2016-06-13T09:59:47Z</time>
      </trkpt>
      <trkpt lat="43.80258" lon="4.61732">
        <ele>61.66</ele>
        <time>2016-06-13T09:59:58Z</time>
      </trkpt>
      <trkpt lat="43.8033" lon="4.61804">
        <ele>62.62</ele>
        <time>2016-06-13T10:00:03Z</time>
      </trkpt>
      <trkpt lat="43.80435" lon="4.61849">
        <ele>63.58</ele>
        <time>2016-06-13T10:00:09Z</time>
      </trkpt>
      <trkpt lat="43.80531" lon="4.61957">
        <ele>62.62</ele>
        <time>2016-06-13T10:00:16Z</time>
      </trkpt>
      <trkpt lat="43.80622" lon="4.62089">
        <ele>64.07</ele>
        <time>2016-06-13T10:00:24Z</time>
      </trkpt>
      <trkpt lat="43.80706" lon="4.62236">
        <ele>62.62</ele>
        <time>2016-06-13T10:00:32Z</time>
      </trkpt>
      <trkpt lat="43.80735" lon="4.62279">
        <ele>61.66</ele>
        <time>2016-06-13T10:00:35Z</time>
      </trkpt>
      <trkpt lat="43.80791" lon="4.62312">
        <ele>61.66</ele>
        <time>2016-06-13T10:00:40Z</time>
      </trkpt>
      <trkpt lat="43.80855" lon="4.62364">
        <ele>61.66</ele>
        <time>2016-06-13T10:00:47Z</time>
      </trkpt>
      <trkpt lat="43.80853" lon="4.6238">
        <ele>62.62</ele>
        <time>2016-06-13T10:00:48Z</time>
      </trkpt>
      <trkpt lat="43.80833" lon="4.6247">
        <ele>63.1</ele>
        <time>2016-06-13T10:00:53Z</time>
      </trkpt>
      <trkpt lat="43.8082" lon="4.62527">
        <ele>62.14</ele>
        <time>2016-06-13T10:00:56Z</time>
      </trkpt>
      <trkpt lat="43.80783" lon="4.62698">
        <ele>63.58</ele>
        <time>2016-06-13T10:01:04Z</time>
      </trkpt>
      <trkpt lat="43.80785" lon="4.62863">
        <ele>61.66</ele>
        <time>2016-06-13T10:01:12Z</time>
      </trkpt>
      <trkpt lat="43.80803" lon="4.63083">
        <ele>63.1</ele>
        <time>2016-06-13T10:01:24Z</time>
      </trkpt>
      <trkpt lat="43.80799" lon="4.632">
        <ele>60.7</ele>
        <time>2016-06-13T10:01:32Z</time>
      </trkpt>
      <trkpt lat="43.80767" lon="4.63362">
        <ele>60.7</ele>
        <time>2016-06-13T10:01:43Z</time>
      </trkpt>
      <trkpt lat="43.80728" lon="4.63525">
        <ele>60.7</ele>
        <time>2016-06-13T10:01:54Z</time>
      </trkpt>
      <trkpt lat="43.80713" lon="4.63674">
        <ele>60.7</ele>
        <time>2016-06-13T10:02:03Z</time>
      </trkpt>
      <trkpt lat="43.80707" lon="4.63788">
        <ele>59.26</ele>
        <time>2016-06-13T10:02:13Z</time>
      </trkpt>
      <trkpt lat="43.80704" lon="4.63804">
        <ele>58.78</ele>
        <time>2016-06-13T10:02:19Z</time>
      </trkpt>
      <trkpt lat="43.80694" lon="4.63796">
        <ele>60.7</ele>
        <time>2016-06-13T10:02:24Z</time>
      </trkpt>
      <trkpt lat="43.80697" lon="4.63786">
        <ele>60.22</ele>
        <time>2016-06-13T10:02:32Z</time>
      </trkpt>
      <trkpt lat="43.80697" lon="4.63786">
        <ele>60.7</ele>
        <time>2016-06-13T10:03:35Z</time>
      </trkpt>
      <trkpt lat="43.80697" lon="4.63782">
        <ele>60.7</ele>
        <time>2016-06-13T10:03:43Z</time>
      </trkpt>
      <trkpt lat="43.80692" lon="4.63778">
        <ele>59.74</ele>
        <time>2016-06-13T10:04:01Z</time>
      </trkpt>
      <trkpt lat="43.80692" lon="4.63778">
        <ele>61.18</ele>
        <time>2016-06-13T10:04:07Z</time>
      </trkpt>
      <trkpt lat="43.80692" lon="4.63778">
        <ele>59.74</ele>
        <time>2016-06-13T10:04:38Z</time>
      </trkpt>
      <trkpt lat="43.80692" lon="4.63778">
        <ele>61.18</ele>
        <time>2016-06-13T10:04:45Z</time>
      </trkpt>
      <trkpt lat="43.80691" lon="4.63778">
        <ele>61.66</ele>
        <time>2016-06-13T10:05:12Z</time>
      </trkpt>
      <trkpt lat="43.80691" lon="4.63778">
        <ele>60.22</ele>
        <time>2016-06-13T10:05:16Z</time>
      </trkpt>
      <trkpt lat="43.80691" lon="4.63778">
        <ele>61.18</ele>
        <time>2016-06-13T10:05:27Z</time>
      </trkpt>
      <trkpt lat="43.80692" lon="4.63778">
        <ele>60.22</ele>
        <time>2016-06-13T10:06:29Z</time>
      </trkpt>
      <trkpt lat="43.80692" lon="4.63778">
        <ele>61.18</ele>
        <time>2016-06-13T10:06:42Z</time>
      </trkpt>
      <trkpt lat="43.80692" lon="4.63778">
        <ele>60.7</ele>
        <time>2016-06-13T10:07:00Z</time>
      </trkpt>
      <trkpt lat="43.80692" lon="4.63776">
        <ele>61.66</ele>
        <time>2016-06-13T10:08:02Z</time>
      </trkpt>
      <trkpt lat="43.80695" lon="4.63779">
        <ele>62.62</ele>
        <time>2016-06-13T10:23:33Z</time>
      </trkpt>
      <trkpt lat="43.80695" lon="4.63779">
        <ele>62.14</ele>
        <time>2016-06-13T10:24:08Z</time>
      </trkpt>
      <trkpt lat="43.80692" lon="4.63813">
        <ele>63.1</ele>
        <time>2016-06-13T10:24:18Z</time>
      </trkpt>
      <trkpt lat="43.80694" lon="4.63823">
        <ele>62.14</ele>
        <time>2016-06-13T10:24:20Z</time>
      </trkpt>
      <trkpt lat="43.80706" lon="4.63817">
        <ele>62.14</ele>
        <time>2016-06-13T10:24:26Z</time>
      </trkpt>
      <trkpt lat="43.80683" lon="4.63815">
        <ele>62.62</ele>
        <time>2016-06-13T10:24:31Z</time>
      </trkpt>
      <trkpt lat="43.80676" lon="4.63815">
        <ele>63.58</ele>
        <time>2016-06-13T10:24:32Z</time>
      </trkpt>
      <trkpt lat="43.80624" lon="4.63807">
        <ele>66.47</ele>
        <time>2016-06-13T10:24:39Z</time>
      </trkpt>
      <trkpt lat="43.80617" lon="4.63806">
        <ele>66.47</ele>
        <time>2016-06-13T10:24:40Z</time>
      </trkpt>
      <trkpt lat="43.80592" lon="4.63808">
        <ele>65.03</ele>
        <time>2016-06-13T10:24:44Z</time>
      </trkpt>
      <trkpt lat="43.8058" lon="4.6381">
        <ele>63.58</ele>
        <time>2016-06-13T10:24:46Z</time>
      </trkpt>
      <trkpt lat="43.80549" lon="4.63792">
        <ele>63.58</ele>
        <time>2016-06-13T10:24:51Z</time>
      </trkpt>
      <trkpt lat="43.80495" lon="4.63678">
        <ele>63.1</ele>
        <time>2016-06-13T10:25:03Z</time>
      </trkpt>
      <trkpt lat="43.80482" lon="4.63652">
        <ele>61.18</ele>
        <time>2016-06-13T10:25:10Z</time>
      </trkpt>
      <trkpt lat="43.80465" lon="4.63635">
        <ele>62.62</ele>
        <time>2016-06-13T10:25:26Z</time>
      </trkpt>
      <trkpt lat="43.80417" lon="4.63591">
        <ele>61.66</ele>
        <time>2016-06-13T10:25:35Z</time>
      </trkpt>
      <trkpt lat="43.80414" lon="4.63589">
        <ele>61.66</ele>
        <time>2016-06-13T10:25:47Z</time>
      </trkpt>
      <trkpt lat="43.80409" lon="4.63584">
        <ele>61.18</ele>
        <time>2016-06-13T10:26:16Z</time>
      </trkpt>
      <trkpt lat="43.80391" lon="4.63559">
        <ele>62.14</ele>
        <time>2016-06-13T10:26:20Z</time>
      </trkpt>
      <trkpt lat="43.80341" lon="4.63528">
        <ele>62.62</ele>
        <time>2016-06-13T10:26:27Z</time>
      </trkpt>
      <trkpt lat="43.80319" lon="4.63503">
        <ele>61.18</ele>
        <time>2016-06-13T10:26:34Z</time>
      </trkpt>
      <trkpt lat="43.80319" lon="4.63503">
        <ele>60.7</ele>
        <time>2016-06-13T10:27:07Z</time>
      </trkpt>
      <trkpt lat="43.80303" lon="4.63489">
        <ele>61.66</ele>
        <time>2016-06-13T10:27:11Z</time>
      </trkpt>
      <trkpt lat="43.80256" lon="4.63428">
        <ele>64.55</ele>
        <time>2016-06-13T10:27:17Z</time>
      </trkpt>
      <trkpt lat="43.80147" lon="4.63326">
        <ele>65.03</ele>
        <time>2016-06-13T10:27:26Z</time>
      </trkpt>
      <trkpt lat="43.80062" lon="4.63245">
        <ele>63.1</ele>
        <time>2016-06-13T10:27:33Z</time>
      </trkpt>
      <trkpt lat="43.79978" lon="4.63164">
        <ele>63.1</ele>
        <time>2016-06-13T10:27:43Z</time>
      </trkpt>
      <trkpt lat="43.79895" lon="4.63127">
        <ele>64.07</ele>
        <time>2016-06-13T10:27:51Z</time>
      </trkpt>
      <trkpt lat="43.79753" lon="4.63096">
        <ele>65.51</ele>
        <time>2016-06-13T10:28:01Z</time>
      </trkpt>
      <trkpt lat="43.7958" lon="4.63058">
        <ele>67.91</ele>
        <time>2016-06-13T10:28:11Z</time>
      </trkpt>
      <trkpt lat="43.79461" lon="4.63033">
        <ele>66.47</ele>
        <time>2016-06-13T10:28:18Z</time>
      </trkpt>
      <trkpt lat="43.79353" lon="4.63038">
        <ele>65.03</ele>
        <time>2016-06-13T10:28:25Z</time>
      </trkpt>
      <trkpt lat="43.79342" lon="4.63038">
        <ele>65.03</ele>
        <time>2016-06-13T10:28:26Z</time>
      </trkpt>
      <trkpt lat="43.79323" lon="4.63035">
        <ele>63.1</ele>
        <time>2016-06-13T10:28:28Z</time>
      </trkpt>
      <trkpt lat="43.79302" lon="4.62992">
        <ele>64.55</ele>
        <time>2016-06-13T10:28:32Z</time>
      </trkpt>
      <trkpt lat="43.79265" lon="4.62977">
        <ele>63.1</ele>
        <time>2016-06-13T10:28:36Z</time>
      </trkpt>
      <trkpt lat="43.7925" lon="4.63024">
        <ele>63.1</ele>
        <time>2016-06-13T10:28:40Z</time>
      </trkpt>
      <trkpt lat="43.79254" lon="4.63093">
        <ele>62.14</ele>
        <time>2016-06-13T10:28:46Z</time>
      </trkpt>
      <trkpt lat="43.79211" lon="4.63264">
        <ele>64.55</ele>
        <time>2016-06-13T10:28:57Z</time>
      </trkpt>
      <trkpt lat="43.79153" lon="4.63482">
        <ele>64.07</ele>
        <time>2016-06-13T10:29:09Z</time>
      </trkpt>
      <trkpt lat="43.79133" lon="4.63552">
        <ele>64.07</ele>
        <time>2016-06-13T10:29:14Z</time>
      </trkpt>
      <trkpt lat="43.79109" lon="4.63586">
        <ele>64.55</ele>
        <time>2016-06-13T10:29:18Z</time>
      </trkpt>
      <trkpt lat="43.791" lon="4.63647">
        <ele>64.07</ele>
        <time>2016-06-13T10:29:25Z</time>
      </trkpt>
      <trkpt lat="43.79096" lon="4.63698">
        <ele>63.58</ele>
        <time>2016-06-13T10:29:29Z</time>
      </trkpt>
      <trkpt lat="43.79055" lon="4.63859">
        <ele>65.99</ele>
        <time>2016-06-13T10:29:39Z</time>
      </trkpt>
      <trkpt lat="43.79028" lon="4.6396">
        <ele>67.91</ele>
        <time>2016-06-13T10:29:44Z</time>
      </trkpt>
      <trkpt lat="43.78962" lon="4.64212">
        <ele>67.91</ele>
        <time>2016-06-13T10:29:56Z</time>
      </trkpt>
      <trkpt lat="43.78903" lon="4.64356">
        <ele>67.91</ele>
        <time>2016-06-13T10:30:05Z</time>
      </trkpt>
      <trkpt lat="43.78895" lon="4.64366">
        <ele>67.43</ele>
        <time>2016-06-13T10:30:06Z</time>
      </trkpt>
      <trkpt lat="43.78869" lon="4.64386">
        <ele>68.39</ele>
        <time>2016-06-13T10:30:09Z</time>
      </trkpt>
      <trkpt lat="43.78848" lon="4.64406">
        <ele>66.95</ele>
        <time>2016-06-13T10:30:12Z</time>
      </trkpt>
      <trkpt lat="43.78843" lon="4.64428">
        <ele>67.43</ele>
        <time>2016-06-13T10:30:14Z</time>
      </trkpt>
      <trkpt lat="43.78819" lon="4.64511">
        <ele>71.76</ele>
        <time>2016-06-13T10:30:19Z</time>
      </trkpt>
      <trkpt lat="43.7881" lon="4.64528">
        <ele>71.27</ele>
        <time>2016-06-13T10:30:20Z</time>
      </trkpt>
      <trkpt lat="43.78784" lon="4.64584">
        <ele>74.64</ele>
        <time>2016-06-13T10:30:23Z</time>
      </trkpt>
      <trkpt lat="43.78769" lon="4.64625">
        <ele>78</ele>
        <time>2016-06-13T10:30:25Z</time>
      </trkpt>
      <trkpt lat="43.78763" lon="4.64646">
        <ele>78</ele>
        <time>2016-06-13T10:30:26Z</time>
      </trkpt>
      <trkpt lat="43.78748" lon="4.64743">
        <ele>81.37</ele>
        <time>2016-06-13T10:30:30Z</time>
      </trkpt>
      <trkpt lat="43.78737" lon="4.64873">
        <ele>84.73</ele>
        <time>2016-06-13T10:30:35Z</time>
      </trkpt>
      <trkpt lat="43.78723" lon="4.65017">
        <ele>87.62</ele>
        <time>2016-06-13T10:30:40Z</time>
      </trkpt>
      <trkpt lat="43.78709" lon="4.6517">
        <ele>86.18</ele>
        <time>2016-06-13T10:30:45Z</time>
      </trkpt>
      <trkpt lat="43.78696" lon="4.65317">
        <ele>82.81</ele>
        <time>2016-06-13T10:30:50Z</time>
      </trkpt>
      <trkpt lat="43.78685" lon="4.65394">
        <ele>78.97</ele>
        <time>2016-06-13T10:30:53Z</time>
      </trkpt>
      <trkpt lat="43.78668" lon="4.65462">
        <ele>77.04</ele>
        <time>2016-06-13T10:30:56Z</time>
      </trkpt>
      <trkpt lat="43.78661" lon="4.65482">
        <ele>75.6</ele>
        <time>2016-06-13T10:30:57Z</time>
      </trkpt>
      <trkpt lat="43.78626" lon="4.65545">
        <ele>72.72</ele>
        <time>2016-06-13T10:31:01Z</time>
      </trkpt>
      <trkpt lat="43.78589" lon="4.65612">
        <ele>73.2</ele>
        <time>2016-06-13T10:31:06Z</time>
      </trkpt>
      <trkpt lat="43.78581" lon="4.6563">
        <ele>72.72</ele>
        <time>2016-06-13T10:31:07Z</time>
      </trkpt>
      <trkpt lat="43.78553" lon="4.65689">
        <ele>75.6</ele>
        <time>2016-06-13T10:31:10Z</time>
      </trkpt>
      <trkpt lat="43.78526" lon="4.65781">
        <ele>77.52</ele>
        <time>2016-06-13T10:31:14Z</time>
      </trkpt>
      <trkpt lat="43.78516" lon="4.65829">
        <ele>78</ele>
        <time>2016-06-13T10:31:16Z</time>
      </trkpt>
      <trkpt lat="43.78513" lon="4.65965">
        <ele>78.48</ele>
        <time>2016-06-13T10:31:21Z</time>
      </trkpt>
      <trkpt lat="43.78546" lon="4.66174">
        <ele>75.12</ele>
        <time>2016-06-13T10:31:28Z</time>
      </trkpt>
      <trkpt lat="43.78571" lon="4.66313">
        <ele>71.27</ele>
        <time>2016-06-13T10:31:34Z</time>
      </trkpt>
      <trkpt lat="43.78583" lon="4.6643">
        <ele>72.72</ele>
        <time>2016-06-13T10:31:40Z</time>
      </trkpt>
      <trkpt lat="43.7858" lon="4.66588">
        <ele>72.24</ele>
        <time>2016-06-13T10:31:46Z</time>
      </trkpt>
      <trkpt lat="43.78536" lon="4.66874">
        <ele>74.64</ele>
        <time>2016-06-13T10:31:56Z</time>
      </trkpt>
      <trkpt lat="43.78514" lon="4.67145">
        <ele>72.24</ele>
        <time>2016-06-13T10:32:05Z</time>
      </trkpt>
      <trkpt lat="43.78518" lon="4.67238">
        <ele>75.12</ele>
        <time>2016-06-13T10:32:08Z</time>
      </trkpt>
      <trkpt lat="43.7852" lon="4.67269">
        <ele>74.64</ele>
        <time>2016-06-13T10:32:09Z</time>
      </trkpt>
      <trkpt lat="43.78558" lon="4.67498">
        <ele>71.27</ele>
        <time>2016-06-13T10:32:17Z</time>
      </trkpt>
      <trkpt lat="43.78564" lon="4.67521">
        <ele>71.27</ele>
        <time>2016-06-13T10:32:18Z</time>
      </trkpt>
      <trkpt lat="43.78578" lon="4.67579">
        <ele>66.95</ele>
        <time>2016-06-13T10:32:21Z</time>
      </trkpt>
      <trkpt lat="43.78583" lon="4.67612">
        <ele>64.07</ele>
        <time>2016-06-13T10:32:24Z</time>
      </trkpt>
      <trkpt lat="43.78571" lon="4.67676">
        <ele>64.55</ele>
        <time>2016-06-13T10:32:31Z</time>
      </trkpt>
      <trkpt lat="43.78597" lon="4.67718">
        <ele>65.51</ele>
        <time>2016-06-13T10:32:35Z</time>
      </trkpt>
      <trkpt lat="43.78628" lon="4.6776">
        <ele>65.51</ele>
        <time>2016-06-13T10:32:39Z</time>
      </trkpt>
      <trkpt lat="43.78646" lon="4.67822">
        <ele>66.95</ele>
        <time>2016-06-13T10:32:43Z</time>
      </trkpt>
      <trkpt lat="43.78723" lon="4.68108">
        <ele>69.83</ele>
        <time>2016-06-13T10:32:59Z</time>
      </trkpt>
      <trkpt lat="43.7879" lon="4.68361">
        <ele>73.2</ele>
        <time>2016-06-13T10:33:09Z</time>
      </trkpt>
      <trkpt lat="43.78906" lon="4.68793">
        <ele>73.2</ele>
        <time>2016-06-13T10:33:24Z</time>
      </trkpt>
      <trkpt lat="43.78992" lon="4.69091">
        <ele>74.16</ele>
        <time>2016-06-13T10:33:34Z</time>
      </trkpt>
      <trkpt lat="43.79094" lon="4.69298">
        <ele>72.24</ele>
        <time>2016-06-13T10:33:42Z</time>
      </trkpt>
      <trkpt lat="43.79236" lon="4.69463">
        <ele>73.68</ele>
        <time>2016-06-13T10:33:50Z</time>
      </trkpt>
      <trkpt lat="43.79389" lon="4.69583">
        <ele>69.83</ele>
        <time>2016-06-13T10:33:58Z</time>
      </trkpt>
      <trkpt lat="43.79406" lon="4.69595">
        <ele>69.83</ele>
        <time>2016-06-13T10:33:59Z</time>
      </trkpt>
      <trkpt lat="43.7945" lon="4.69623">
        <ele>65.99</ele>
        <time>2016-06-13T10:34:02Z</time>
      </trkpt>
      <trkpt lat="43.79463" lon="4.69632">
        <ele>66.47</ele>
        <time>2016-06-13T10:34:03Z</time>
      </trkpt>
      <trkpt lat="43.79475" lon="4.69641">
        <ele>66.47</ele>
        <time>2016-06-13T10:34:04Z</time>
      </trkpt>
      <trkpt lat="43.79537" lon="4.69707">
        <ele>65.03</ele>
        <time>2016-06-13T10:34:10Z</time>
      </trkpt>
      <trkpt lat="43.79554" lon="4.69788">
        <ele>66.95</ele>
        <time>2016-06-13T10:34:14Z</time>
      </trkpt>
      <trkpt lat="43.79556" lon="4.6989">
        <ele>68.39</ele>
        <time>2016-06-13T10:34:18Z</time>
      </trkpt>
      <trkpt lat="43.79557" lon="4.70024">
        <ele>68.39</ele>
        <time>2016-06-13T10:34:23Z</time>
      </trkpt>
      <trkpt lat="43.79558" lon="4.70143">
        <ele>72.24</ele>
        <time>2016-06-13T10:34:27Z</time>
      </trkpt>
      <trkpt lat="43.79558" lon="4.70174">
        <ele>72.24</ele>
        <time>2016-06-13T10:34:28Z</time>
      </trkpt>
      <trkpt lat="43.79526" lon="4.70355">
        <ele>71.27</ele>
        <time>2016-06-13T10:34:34Z</time>
      </trkpt>
      <trkpt lat="43.79464" lon="4.70491">
        <ele>73.2</ele>
        <time>2016-06-13T10:34:39Z</time>
      </trkpt>
      <trkpt lat="43.79348" lon="4.70712">
        <ele>69.83</ele>
        <time>2016-06-13T10:34:48Z</time>
      </trkpt>
      <trkpt lat="43.79341" lon="4.70738">
        <ele>69.83</ele>
        <time>2016-06-13T10:34:49Z</time>
      </trkpt>
      <trkpt lat="43.79308" lon="4.70939">
        <ele>67.43</ele>
        <time>2016-06-13T10:34:57Z</time>
      </trkpt>
      <trkpt lat="43.79281" lon="4.71085">
        <ele>65.03</ele>
        <time>2016-06-13T10:35:04Z</time>
      </trkpt>
      <trkpt lat="43.79276" lon="4.71097">
        <ele>64.07</ele>
        <time>2016-06-13T10:35:05Z</time>
      </trkpt>
      <trkpt lat="43.79272" lon="4.71107">
        <ele>64.07</ele>
        <time>2016-06-13T10:35:06Z</time>
      </trkpt>
      <trkpt lat="43.79261" lon="4.71126">
        <ele>63.58</ele>
        <time>2016-06-13T10:35:09Z</time>
      </trkpt>
      <trkpt lat="43.79257" lon="4.7113">
        <ele>63.58</ele>
        <time>2016-06-13T10:35:10Z</time>
      </trkpt>
      <trkpt lat="43.79252" lon="4.71133">
        <ele>63.58</ele>
        <time>2016-06-13T10:35:11Z</time>
      </trkpt>
      <trkpt lat="43.79245" lon="4.71135">
        <ele>64.55</ele>
        <time>2016-06-13T10:35:12Z</time>
      </trkpt>
      <trkpt lat="43.79238" lon="4.71134">
        <ele>63.58</ele>
        <time>2016-06-13T10:35:13Z</time>
      </trkpt>
      <trkpt lat="43.79229" lon="4.71132">
        <ele>63.58</ele>
        <time>2016-06-13T10:35:14Z</time>
      </trkpt>
      <trkpt lat="43.7922" lon="4.71133">
        <ele>65.03</ele>
        <time>2016-06-13T10:35:15Z</time>
      </trkpt>
      <trkpt lat="43.79211" lon="4.71137">
        <ele>64.07</ele>
        <time>2016-06-13T10:35:16Z</time>
      </trkpt>
      <trkpt lat="43.79205" lon="4.71145">
        <ele>64.07</ele>
        <time>2016-06-13T10:35:17Z</time>
      </trkpt>
      <trkpt lat="43.79201" lon="4.71156">
        <ele>64.07</ele>
        <time>2016-06-13T10:35:18Z</time>
      </trkpt>
      <trkpt lat="43.792" lon="4.71168">
        <ele>64.55</ele>
        <time>2016-06-13T10:35:19Z</time>
      </trkpt>
      <trkpt lat="43.79199" lon="4.71237">
        <ele>65.03</ele>
        <time>2016-06-13T10:35:24Z</time>
      </trkpt>
      <trkpt lat="43.79186" lon="4.71267">
        <ele>65.03</ele>
        <time>2016-06-13T10:35:26Z</time>
      </trkpt>
      <trkpt lat="43.79108" lon="4.71411">
        <ele>69.35</ele>
        <time>2016-06-13T10:35:34Z</time>
      </trkpt>
      <trkpt lat="43.79097" lon="4.71432">
        <ele>68.87</ele>
        <time>2016-06-13T10:35:35Z</time>
      </trkpt>
      <trkpt lat="43.79018" lon="4.71579">
        <ele>69.83</ele>
        <time>2016-06-13T10:35:42Z</time>
      </trkpt>
      <trkpt lat="43.78911" lon="4.71686">
        <ele>70.31</ele>
        <time>2016-06-13T10:35:49Z</time>
      </trkpt>
      <trkpt lat="43.78752" lon="4.71811">
        <ele>68.87</ele>
        <time>2016-06-13T10:35:59Z</time>
      </trkpt>
      <trkpt lat="43.78692" lon="4.71858">
        <ele>66.95</ele>
        <time>2016-06-13T10:36:04Z</time>
      </trkpt>
      <trkpt lat="43.78639" lon="4.71896">
        <ele>65.99</ele>
        <time>2016-06-13T10:36:10Z</time>
      </trkpt>
      <trkpt lat="43.78629" lon="4.71906">
        <ele>66.47</ele>
        <time>2016-06-13T10:36:11Z</time>
      </trkpt>
      <trkpt lat="43.78607" lon="4.71924">
        <ele>67.43</ele>
        <time>2016-06-13T10:36:13Z</time>
      </trkpt>
      <trkpt lat="43.78547" lon="4.72009">
        <ele>68.39</ele>
        <time>2016-06-13T10:36:19Z</time>
      </trkpt>
      <trkpt lat="43.78446" lon="4.72282">
        <ele>72.72</ele>
        <time>2016-06-13T10:36:31Z</time>
      </trkpt>
      <trkpt lat="43.78385" lon="4.72444">
        <ele>69.83</ele>
        <time>2016-06-13T10:36:38Z</time>
      </trkpt>
      <trkpt lat="43.78327" lon="4.72593">
        <ele>66.47</ele>
        <time>2016-06-13T10:36:46Z</time>
      </trkpt>
      <trkpt lat="43.78315" lon="4.7262">
        <ele>65.99</ele>
        <time>2016-06-13T10:36:48Z</time>
      </trkpt>
      <trkpt lat="43.78312" lon="4.72634">
        <ele>65.99</ele>
        <time>2016-06-13T10:36:49Z</time>
      </trkpt>
      <trkpt lat="43.78308" lon="4.72646">
        <ele>66.47</ele>
        <time>2016-06-13T10:36:50Z</time>
      </trkpt>
      <trkpt lat="43.78302" lon="4.72656">
        <ele>66.47</ele>
        <time>2016-06-13T10:36:51Z</time>
      </trkpt>
      <trkpt lat="43.78296" lon="4.72666">
        <ele>65.99</ele>
        <time>2016-06-13T10:36:52Z</time>
      </trkpt>
      <trkpt lat="43.78292" lon="4.72677">
        <ele>66.47</ele>
        <time>2016-06-13T10:36:53Z</time>
      </trkpt>
      <trkpt lat="43.78289" lon="4.72692">
        <ele>66.47</ele>
        <time>2016-06-13T10:36:54Z</time>
      </trkpt>
      <trkpt lat="43.78286" lon="4.72709">
        <ele>67.91</ele>
        <time>2016-06-13T10:36:55Z</time>
      </trkpt>
      <trkpt lat="43.7828" lon="4.72726">
        <ele>67.91</ele>
        <time>2016-06-13T10:36:56Z</time>
      </trkpt>
      <trkpt lat="43.78272" lon="4.72744">
        <ele>68.87</ele>
        <time>2016-06-13T10:36:57Z</time>
      </trkpt>
      <trkpt lat="43.78228" lon="4.72858">
        <ele>72.24</ele>
        <time>2016-06-13T10:37:03Z</time>
      </trkpt>
      <trkpt lat="43.78154" lon="4.73092">
        <ele>70.31</ele>
        <time>2016-06-13T10:37:15Z</time>
      </trkpt>
      <trkpt lat="43.78162" lon="4.73224">
        <ele>68.87</ele>
        <time>2016-06-13T10:37:21Z</time>
      </trkpt>
      <trkpt lat="43.78194" lon="4.73441">
        <ele>72.24</ele>
        <time>2016-06-13T10:37:30Z</time>
      </trkpt>
      <trkpt lat="43.78203" lon="4.73464">
        <ele>70.79</ele>
        <time>2016-06-13T10:37:31Z</time>
      </trkpt>
      <trkpt lat="43.78261" lon="4.73568">
        <ele>73.68</ele>
        <time>2016-06-13T10:37:36Z</time>
      </trkpt>
      <trkpt lat="43.78281" lon="4.73612">
        <ele>74.16</ele>
        <time>2016-06-13T10:37:38Z</time>
      </trkpt>
      <trkpt lat="43.78329" lon="4.73832">
        <ele>73.2</ele>
        <time>2016-06-13T10:37:46Z</time>
      </trkpt>
      <trkpt lat="43.78402" lon="4.74026">
        <ele>75.6</ele>
        <time>2016-06-13T10:37:53Z</time>
      </trkpt>
      <trkpt lat="43.78499" lon="4.74267">
        <ele>74.16</ele>
        <time>2016-06-13T10:38:02Z</time>
      </trkpt>
      <trkpt lat="43.78588" lon="4.74531">
        <ele>73.68</ele>
        <time>2016-06-13T10:38:12Z</time>
      </trkpt>
      <trkpt lat="43.78613" lon="4.74602">
        <ele>74.16</ele>
        <time>2016-06-13T10:38:15Z</time>
      </trkpt>
      <trkpt lat="43.78624" lon="4.74706">
        <ele>74.16</ele>
        <time>2016-06-13T10:38:19Z</time>
      </trkpt>
      <trkpt lat="43.78622" lon="4.74761">
        <ele>76.56</ele>
        <time>2016-06-13T10:38:21Z</time>
      </trkpt>
      <trkpt lat="43.78623" lon="4.74988">
        <ele>74.64</ele>
        <time>2016-06-13T10:38:29Z</time>
      </trkpt>
      <trkpt lat="43.78637" lon="4.75077">
        <ele>76.08</ele>
        <time>2016-06-13T10:38:32Z</time>
      </trkpt>
      <trkpt lat="43.78725" lon="4.75387">
        <ele>77.52</ele>
        <time>2016-06-13T10:38:43Z</time>
      </trkpt>
      <trkpt lat="43.78778" lon="4.75531">
        <ele>75.12</ele>
        <time>2016-06-13T10:38:50Z</time>
      </trkpt>
      <trkpt lat="43.78833" lon="4.75654">
        <ele>76.56</ele>
        <time>2016-06-13T10:38:57Z</time>
      </trkpt>
      <trkpt lat="43.78882" lon="4.75792">
        <ele>74.16</ele>
        <time>2016-06-13T10:39:04Z</time>
      </trkpt>
      <trkpt lat="43.78917" lon="4.75919">
        <ele>70.79</ele>
        <time>2016-06-13T10:39:11Z</time>
      </trkpt>
      <trkpt lat="43.78921" lon="4.75934">
        <ele>71.27</ele>
        <time>2016-06-13T10:39:12Z</time>
      </trkpt>
      <trkpt lat="43.78935" lon="4.75998">
        <ele>71.76</ele>
        <time>2016-06-13T10:39:17Z</time>
      </trkpt>
      <trkpt lat="43.78944" lon="4.76022">
        <ele>71.76</ele>
        <time>2016-06-13T10:39:19Z</time>
      </trkpt>
      <trkpt lat="43.78976" lon="4.76132">
        <ele>73.68</ele>
        <time>2016-06-13T10:39:25Z</time>
      </trkpt>
      <trkpt lat="43.78989" lon="4.76175">
        <ele>74.64</ele>
        <time>2016-06-13T10:39:27Z</time>
      </trkpt>
      <trkpt lat="43.79029" lon="4.7632">
        <ele>78.48</ele>
        <time>2016-06-13T10:39:33Z</time>
      </trkpt>
      <trkpt lat="43.79117" lon="4.76654">
        <ele>80.89</ele>
        <time>2016-06-13T10:39:46Z</time>
      </trkpt>
      <trkpt lat="43.79141" lon="4.76765">
        <ele>81.85</ele>
        <time>2016-06-13T10:39:50Z</time>
      </trkpt>
      <trkpt lat="43.79215" lon="4.77131">
        <ele>80.89</ele>
        <time>2016-06-13T10:40:03Z</time>
      </trkpt>
      <trkpt lat="43.79284" lon="4.77473">
        <ele>80.41</ele>
        <time>2016-06-13T10:40:15Z</time>
      </trkpt>
      <trkpt lat="43.7932" lon="4.77648">
        <ele>81.37</ele>
        <time>2016-06-13T10:40:21Z</time>
      </trkpt>
      <trkpt lat="43.79389" lon="4.77994">
        <ele>81.37</ele>
        <time>2016-06-13T10:40:34Z</time>
      </trkpt>
      <trkpt lat="43.79451" lon="4.78318">
        <ele>84.25</ele>
        <time>2016-06-13T10:40:47Z</time>
      </trkpt>
      <trkpt lat="43.79519" lon="4.7868">
        <ele>85.21</ele>
        <time>2016-06-13T10:41:02Z</time>
      </trkpt>
      <trkpt lat="43.7959" lon="4.79065">
        <ele>82.81</ele>
        <time>2016-06-13T10:41:18Z</time>
      </trkpt>
      <trkpt lat="43.79623" lon="4.7924">
        <ele>80.89</ele>
        <time>2016-06-13T10:41:25Z</time>
      </trkpt>
      <trkpt lat="43.79691" lon="4.79584">
        <ele>78.97</ele>
        <time>2016-06-13T10:41:39Z</time>
      </trkpt>
      <trkpt lat="43.79718" lon="4.79736">
        <ele>78</ele>
        <time>2016-06-13T10:41:45Z</time>
      </trkpt>
      <trkpt lat="43.79736" lon="4.79834">
        <ele>79.93</ele>
        <time>2016-06-13T10:41:49Z</time>
      </trkpt>
      <trkpt lat="43.79739" lon="4.79859">
        <ele>80.89</ele>
        <time>2016-06-13T10:41:50Z</time>
      </trkpt>
      <trkpt lat="43.7972" lon="4.80042">
        <ele>80.89</ele>
        <time>2016-06-13T10:41:57Z</time>
      </trkpt>
      <trkpt lat="43.79663" lon="4.80233">
        <ele>80.89</ele>
        <time>2016-06-13T10:42:05Z</time>
      </trkpt>
      <trkpt lat="43.79602" lon="4.80397">
        <ele>84.25</ele>
        <time>2016-06-13T10:42:12Z</time>
      </trkpt>
      <trkpt lat="43.79505" lon="4.80674">
        <ele>83.29</ele>
        <time>2016-06-13T10:42:25Z</time>
      </trkpt>
      <trkpt lat="43.79462" lon="4.80886">
        <ele>85.69</ele>
        <time>2016-06-13T10:42:37Z</time>
      </trkpt>
      <trkpt lat="43.79407" lon="4.81142">
        <ele>89.06</ele>
        <time>2016-06-13T10:42:51Z</time>
      </trkpt>
      <trkpt lat="43.79364" lon="4.81228">
        <ele>91.94</ele>
        <time>2016-06-13T10:42:56Z</time>
      </trkpt>
      <trkpt lat="43.79274" lon="4.81401">
        <ele>95.31</ele>
        <time>2016-06-13T10:43:05Z</time>
      </trkpt>
      <trkpt lat="43.79267" lon="4.81423">
        <ele>95.79</ele>
        <time>2016-06-13T10:43:06Z</time>
      </trkpt>
      <trkpt lat="43.79206" lon="4.81637">
        <ele>98.67</ele>
        <time>2016-06-13T10:43:16Z</time>
      </trkpt>
      <trkpt lat="43.79138" lon="4.81876">
        <ele>102.04</ele>
        <time>2016-06-13T10:43:29Z</time>
      </trkpt>
      <trkpt lat="43.79087" lon="4.82058">
        <ele>104.44</ele>
        <time>2016-06-13T10:43:38Z</time>
      </trkpt>
      <trkpt lat="43.79064" lon="4.82137">
        <ele>107.81</ele>
        <time>2016-06-13T10:43:42Z</time>
      </trkpt>
      <trkpt lat="43.79004" lon="4.82356">
        <ele>108.77</ele>
        <time>2016-06-13T10:43:53Z</time>
      </trkpt>
      <trkpt lat="43.78975" lon="4.82455">
        <ele>109.25</ele>
        <time>2016-06-13T10:44:00Z</time>
      </trkpt>
      <trkpt lat="43.78926" lon="4.8263">
        <ele>110.21</ele>
        <time>2016-06-13T10:44:12Z</time>
      </trkpt>
      <trkpt lat="43.78913" lon="4.82679">
        <ele>108.77</ele>
        <time>2016-06-13T10:44:16Z</time>
      </trkpt>
      <trkpt lat="43.78896" lon="4.8272">
        <ele>109.25</ele>
        <time>2016-06-13T10:44:21Z</time>
      </trkpt>
      <trkpt lat="43.78888" lon="4.82751">
        <ele>110.21</ele>
        <time>2016-06-13T10:44:25Z</time>
      </trkpt>
      <trkpt lat="43.7888" lon="4.82849">
        <ele>110.69</ele>
        <time>2016-06-13T10:44:35Z</time>
      </trkpt>
      <trkpt lat="43.78868" lon="4.82963">
        <ele>112.13</ele>
        <time>2016-06-13T10:44:47Z</time>
      </trkpt>
      <trkpt lat="43.78862" lon="4.83">
        <ele>112.61</ele>
        <time>2016-06-13T10:44:53Z</time>
      </trkpt>
      <trkpt lat="43.78846" lon="4.83013">
        <ele>114.05</ele>
        <time>2016-06-13T10:44:59Z</time>
      </trkpt>
      <trkpt lat="43.78816" lon="4.83017">
        <ele>113.57</ele>
        <time>2016-06-13T10:45:06Z</time>
      </trkpt>
      <trkpt lat="43.78807" lon="4.83004">
        <ele>115.01</ele>
        <time>2016-06-13T10:45:09Z</time>
      </trkpt>
      <trkpt lat="43.78815" lon="4.82994">
        <ele>114.05</ele>
        <time>2016-06-13T10:45:17Z</time>
      </trkpt>
      <trkpt lat="43.78816" lon="4.82995">
        <ele>115.01</ele>
        <time>2016-06-13T10:45:33Z</time>
      </trkpt>
      <trkpt lat="43.78816" lon="4.82995">
        <ele>113.09</ele>
        <time>2016-06-13T10:45:51Z</time>
      </trkpt>
      <trkpt lat="43.78816" lon="4.82994">
        <ele>114.53</ele>
        <time>2016-06-13T10:47:57Z</time>
      </trkpt>
      <trkpt lat="43.78816" lon="4.82994">
        <ele>114.53</ele>
        <time>2016-06-13T10:48:50Z</time>
      </trkpt>
      <trkpt lat="43.78816" lon="4.82994">
        <ele>113.09</ele>
        <time>2016-06-13T10:49:13Z</time>
      </trkpt>
      <trkpt lat="43.78815" lon="4.82992">
        <ele>115.5</ele>
        <time>2016-06-13T10:51:04Z</time>
      </trkpt>
      <trkpt lat="43.78815" lon="4.82992">
        <ele>113.57</ele>
        <time>2016-06-13T10:51:27Z</time>
      </trkpt>
      <trkpt lat="43.78815" lon="4.82992">
        <ele>114.53</ele>
        <time>2016-06-13T10:51:29Z</time>
      </trkpt>
      <trkpt lat="43.78815" lon="4.82992">
        <ele>113.57</ele>
        <time>2016-06-13T10:51:39Z</time>
      </trkpt>
      <trkpt lat="43.78815" lon="4.82992">
        <ele>115.01</ele>
        <time>2016-06-13T10:51:49Z</time>
      </trkpt>
      <trkpt lat="43.78815" lon="4.82992">
        <ele>113.57</ele>
        <time>2016-06-13T10:52:35Z</time>
      </trkpt>
      <trkpt lat="43.78815" lon="4.82992">
        <ele>114.53</ele>
        <time>2016-06-13T10:52:40Z</time>
      </trkpt>
      <trkpt lat="43.78811" lon="4.8299">
        <ele>114.05</ele>
        <time>2016-06-13T10:53:37Z</time>
      </trkpt>
      <trkpt lat="43.78811" lon="4.8299">
        <ele>114.05</ele>
        <time>2016-06-13T10:53:44Z</time>
      </trkpt>
      <trkpt lat="43.78811" lon="4.8299">
        <ele>115.01</ele>
        <time>2016-06-13T10:53:55Z</time>
      </trkpt>
      <trkpt lat="43.78835" lon="4.82982">
        <ele>114.05</ele>
        <time>2016-06-13T10:54:04Z</time>
      </trkpt>
      <trkpt lat="43.78835" lon="4.82997">
        <ele>114.05</ele>
        <time>2016-06-13T10:54:11Z</time>
      </trkpt>
      <trkpt lat="43.78831" lon="4.82999">
        <ele>114.05</ele>
        <time>2016-06-13T10:54:13Z</time>
      </trkpt>
      <trkpt lat="43.78814" lon="4.83022">
        <ele>113.09</ele>
        <time>2016-06-13T10:54:23Z</time>
      </trkpt>
      <trkpt lat="43.78791" lon="4.83032">
        <ele>115.98</ele>
        <time>2016-06-13T10:54:27Z</time>
      </trkpt>
      <trkpt lat="43.78755" lon="4.83088">
        <ele>116.94</ele>
        <time>2016-06-13T10:54:34Z</time>
      </trkpt>
      <trkpt lat="43.78749" lon="4.83125">
        <ele>116.46</ele>
        <time>2016-06-13T10:54:38Z</time>
      </trkpt>
      <trkpt lat="43.78753" lon="4.83184">
        <ele>117.42</ele>
        <time>2016-06-13T10:54:44Z</time>
      </trkpt>
      <trkpt lat="43.7878" lon="4.83237">
        <ele>115.5</ele>
        <time>2016-06-13T10:54:51Z</time>
      </trkpt>
      <trkpt lat="43.7881" lon="4.83282">
        <ele>114.53</ele>
        <time>2016-06-13T10:54:57Z</time>
      </trkpt>
      <trkpt lat="43.7888" lon="4.83344">
        <ele>112.13</ele>
        <time>2016-06-13T10:55:10Z</time>
      </trkpt>
      <trkpt lat="43.78892" lon="4.8338">
        <ele>110.69</ele>
        <time>2016-06-13T10:55:14Z</time>
      </trkpt>
      <trkpt lat="43.78886" lon="4.83421">
        <ele>112.61</ele>
        <time>2016-06-13T10:55:18Z</time>
      </trkpt>
      <trkpt lat="43.78881" lon="4.83445">
        <ele>111.17</ele>
        <time>2016-06-13T10:55:21Z</time>
      </trkpt>
      <trkpt lat="43.7888" lon="4.83454">
        <ele>111.17</ele>
        <time>2016-06-13T10:55:22Z</time>
      </trkpt>
      <trkpt lat="43.78865" lon="4.83578">
        <ele>113.57</ele>
        <time>2016-06-13T10:55:35Z</time>
      </trkpt>
      <trkpt lat="43.78853" lon="4.83676">
        <ele>114.53</ele>
        <time>2016-06-13T10:55:45Z</time>
      </trkpt>
      <trkpt lat="43.78851" lon="4.83705">
        <ele>115.5</ele>
        <time>2016-06-13T10:55:47Z</time>
      </trkpt>
      <trkpt lat="43.78835" lon="4.83842">
        <ele>119.34</ele>
        <time>2016-06-13T10:55:56Z</time>
      </trkpt>
      <trkpt lat="43.78813" lon="4.84054">
        <ele>120.3</ele>
        <time>2016-06-13T10:56:07Z</time>
      </trkpt>
      <trkpt lat="43.788" lon="4.8417">
        <ele>117.42</ele>
        <time>2016-06-13T10:56:14Z</time>
      </trkpt>
      <trkpt lat="43.78796" lon="4.84199">
        <ele>118.86</ele>
        <time>2016-06-13T10:56:16Z</time>
      </trkpt>
      <trkpt lat="43.78792" lon="4.84235">
        <ele>120.3</ele>
        <time>2016-06-13T10:56:18Z</time>
      </trkpt>
      <trkpt lat="43.78763" lon="4.84493">
        <ele>121.74</ele>
        <time>2016-06-13T10:56:30Z</time>
      </trkpt>
      <trkpt lat="43.78738" lon="4.84735">
        <ele>125.11</ele>
        <time>2016-06-13T10:56:40Z</time>
      </trkpt>
      <trkpt lat="43.78736" lon="4.84759">
        <ele>125.11</ele>
        <time>2016-06-13T10:56:41Z</time>
      </trkpt>
      <trkpt lat="43.78714" lon="4.84994">
        <ele>126.55</ele>
        <time>2016-06-13T10:56:51Z</time>
      </trkpt>
      <trkpt lat="43.78707" lon="4.85078">
        <ele>129.43</ele>
        <time>2016-06-13T10:56:54Z</time>
      </trkpt>
      <trkpt lat="43.787" lon="4.85176">
        <ele>125.11</ele>
        <time>2016-06-13T10:56:58Z</time>
      </trkpt>
      <trkpt lat="43.78699" lon="4.85194">
        <ele>124.63</ele>
        <time>2016-06-13T10:56:59Z</time>
      </trkpt>
      <trkpt lat="43.78698" lon="4.8521">
        <ele>124.63</ele>
        <time>2016-06-13T10:57:00Z</time>
      </trkpt>
      <trkpt lat="43.78711" lon="4.85252">
        <ele>121.26</ele>
        <time>2016-06-13T10:57:04Z</time>
      </trkpt>
      <trkpt lat="43.78713" lon="4.85274">
        <ele>121.74</ele>
        <time>2016-06-13T10:57:06Z</time>
      </trkpt>
      <trkpt lat="43.78707" lon="4.85303">
        <ele>122.71</ele>
        <time>2016-06-13T10:57:08Z</time>
      </trkpt>
      <trkpt lat="43.78693" lon="4.85375">
        <ele>125.59</ele>
        <time>2016-06-13T10:57:12Z</time>
      </trkpt>
      <trkpt lat="43.78649" lon="4.85604">
        <ele>127.51</ele>
        <time>2016-06-13T10:57:22Z</time>
      </trkpt>
      <trkpt lat="43.78631" lon="4.85759">
        <ele>129.43</ele>
        <time>2016-06-13T10:57:28Z</time>
      </trkpt>
      <trkpt lat="43.78594" lon="4.86103">
        <ele>129.43</ele>
        <time>2016-06-13T10:57:41Z</time>
      </trkpt>
      <trkpt lat="43.78565" lon="4.86368">
        <ele>130.88</ele>
        <time>2016-06-13T10:57:52Z</time>
      </trkpt>
      <trkpt lat="43.78555" lon="4.86466">
        <ele>129.43</ele>
        <time>2016-06-13T10:57:56Z</time>
      </trkpt>
      <trkpt lat="43.78518" lon="4.86816">
        <ele>129.43</ele>
        <time>2016-06-13T10:58:09Z</time>
      </trkpt>
      <trkpt lat="43.78512" lon="4.86874">
        <ele>129.92</ele>
        <time>2016-06-13T10:58:11Z</time>
      </trkpt>
      <trkpt lat="43.78489" lon="4.87106">
        <ele>131.36</ele>
        <time>2016-06-13T10:58:19Z</time>
      </trkpt>
      <trkpt lat="43.78456" lon="4.87417">
        <ele>132.32</ele>
        <time>2016-06-13T10:58:30Z</time>
      </trkpt>
      <trkpt lat="43.78447" lon="4.87528">
        <ele>129.43</ele>
        <time>2016-06-13T10:58:34Z</time>
      </trkpt>
      <trkpt lat="43.78446" lon="4.87695">
        <ele>133.28</ele>
        <time>2016-06-13T10:58:40Z</time>
      </trkpt>
      <trkpt lat="43.78447" lon="4.87722">
        <ele>129.92</ele>
        <time>2016-06-13T10:58:41Z</time>
      </trkpt>
      <trkpt lat="43.78447" lon="4.87885">
        <ele>129.43</ele>
        <time>2016-06-13T10:58:47Z</time>
      </trkpt>
      <trkpt lat="43.78447" lon="4.8826">
        <ele>127.51</ele>
        <time>2016-06-13T10:59:00Z</time>
      </trkpt>
      <trkpt lat="43.78447" lon="4.88642">
        <ele>123.67</ele>
        <time>2016-06-13T10:59:13Z</time>
      </trkpt>
      <trkpt lat="43.78448" lon="4.89037">
        <ele>123.67</ele>
        <time>2016-06-13T10:59:26Z</time>
      </trkpt>
      <trkpt lat="43.78447" lon="4.89159">
        <ele>122.71</ele>
        <time>2016-06-13T10:59:30Z</time>
      </trkpt>
      <trkpt lat="43.78447" lon="4.89344">
        <ele>127.51</ele>
        <time>2016-06-13T10:59:36Z</time>
      </trkpt>
      <trkpt lat="43.78447" lon="4.89375">
        <ele>124.63</ele>
        <time>2016-06-13T10:59:37Z</time>
      </trkpt>
      <trkpt lat="43.78447" lon="4.89623">
        <ele>122.71</ele>
        <time>2016-06-13T10:59:45Z</time>
      </trkpt>
      <trkpt lat="43.78446" lon="4.89842">
        <ele>121.74</ele>
        <time>2016-06-13T10:59:52Z</time>
      </trkpt>
      <trkpt lat="43.78444" lon="4.90256">
        <ele>126.55</ele>
        <time>2016-06-13T11:00:05Z</time>
      </trkpt>
      <trkpt lat="43.78444" lon="4.90289">
        <ele>126.07</ele>
        <time>2016-06-13T11:00:06Z</time>
      </trkpt>
      <trkpt lat="43.78442" lon="4.90716">
        <ele>127.99</ele>
        <time>2016-06-13T11:00:19Z</time>
      </trkpt>
      <trkpt lat="43.78463" lon="4.90987">
        <ele>128.95</ele>
        <time>2016-06-13T11:00:28Z</time>
      </trkpt>
      <trkpt lat="43.78489" lon="4.91107">
        <ele>130.4</ele>
        <time>2016-06-13T11:00:32Z</time>
      </trkpt>
      <trkpt lat="43.78504" lon="4.91332">
        <ele>129.43</ele>
        <time>2016-06-13T11:00:39Z</time>
      </trkpt>
      <trkpt lat="43.78505" lon="4.91397">
        <ele>130.4</ele>
        <time>2016-06-13T11:00:41Z</time>
      </trkpt>
      <trkpt lat="43.78509" lon="4.9156">
        <ele>128.95</ele>
        <time>2016-06-13T11:00:46Z</time>
      </trkpt>
      <trkpt lat="43.7851" lon="4.91652">
        <ele>126.07</ele>
        <time>2016-06-13T11:00:49Z</time>
      </trkpt>
      <trkpt lat="43.78511" lon="4.9168">
        <ele>125.59</ele>
        <time>2016-06-13T11:00:50Z</time>
      </trkpt>
      <trkpt lat="43.78512" lon="4.91764">
        <ele>122.71</ele>
        <time>2016-06-13T11:00:53Z</time>
      </trkpt>
      <trkpt lat="43.78515" lon="4.9193">
        <ele>123.67</ele>
        <time>2016-06-13T11:00:59Z</time>
      </trkpt>
      <trkpt lat="43.78519" lon="4.9219">
        <ele>123.19</ele>
        <time>2016-06-13T11:01:08Z</time>
      </trkpt>
      <trkpt lat="43.78521" lon="4.92276">
        <ele>126.07</ele>
        <time>2016-06-13T11:01:11Z</time>
      </trkpt>
      <trkpt lat="43.78522" lon="4.92333">
        <ele>123.67</ele>
        <time>2016-06-13T11:01:13Z</time>
      </trkpt>
      <trkpt lat="43.78525" lon="4.92477">
        <ele>122.22</ele>
        <time>2016-06-13T11:01:18Z</time>
      </trkpt>
      <trkpt lat="43.78529" lon="4.92694">
        <ele>120.78</ele>
        <time>2016-06-13T11:01:26Z</time>
      </trkpt>
      <trkpt lat="43.78531" lon="4.92832">
        <ele>121.74</ele>
        <time>2016-06-13T11:01:31Z</time>
      </trkpt>
      <trkpt lat="43.78535" lon="4.93031">
        <ele>118.86</ele>
        <time>2016-06-13T11:01:38Z</time>
      </trkpt>
      <trkpt lat="43.78553" lon="4.93239">
        <ele>122.22</ele>
        <time>2016-06-13T11:01:45Z</time>
      </trkpt>
      <trkpt lat="43.78586" lon="4.935">
        <ele>120.3</ele>
        <time>2016-06-13T11:01:54Z</time>
      </trkpt>
      <trkpt lat="43.78601" lon="4.93614">
        <ele>121.74</ele>
        <time>2016-06-13T11:01:58Z</time>
      </trkpt>
      <trkpt lat="43.78651" lon="4.94017">
        <ele>119.34</ele>
        <time>2016-06-13T11:02:12Z</time>
      </trkpt>
      <trkpt lat="43.78668" lon="4.94162">
        <ele>120.78</ele>
        <time>2016-06-13T11:02:17Z</time>
      </trkpt>
      <trkpt lat="43.78714" lon="4.94535">
        <ele>120.78</ele>
        <time>2016-06-13T11:02:30Z</time>
      </trkpt>
      <trkpt lat="43.78718" lon="4.94563">
        <ele>120.78</ele>
        <time>2016-06-13T11:02:31Z</time>
      </trkpt>
      <trkpt lat="43.78733" lon="4.94674">
        <ele>119.34</ele>
        <time>2016-06-13T11:02:35Z</time>
      </trkpt>
      <trkpt lat="43.78793" lon="4.95147">
        <ele>117.9</ele>
        <time>2016-06-13T11:02:52Z</time>
      </trkpt>
      <trkpt lat="43.78801" lon="4.95213">
        <ele>116.46</ele>
        <time>2016-06-13T11:02:55Z</time>
      </trkpt>
      <trkpt lat="43.78822" lon="4.95341">
        <ele>114.53</ele>
        <time>2016-06-13T11:03:02Z</time>
      </trkpt>
      <trkpt lat="43.78834" lon="4.95445">
        <ele>115.5</ele>
        <time>2016-06-13T11:03:09Z</time>
      </trkpt>
      <trkpt lat="43.78838" lon="4.95505">
        <ele>116.94</ele>
        <time>2016-06-13T11:03:12Z</time>
      </trkpt>
      <trkpt lat="43.78851" lon="4.95597">
        <ele>119.34</ele>
        <time>2016-06-13T11:03:16Z</time>
      </trkpt>
      <trkpt lat="43.7887" lon="4.95747">
        <ele>120.78</ele>
        <time>2016-06-13T11:03:22Z</time>
      </trkpt>
      <trkpt lat="43.78922" lon="4.96046">
        <ele>121.74</ele>
        <time>2016-06-13T11:03:33Z</time>
      </trkpt>
      <trkpt lat="43.78939" lon="4.96123">
        <ele>120.3</ele>
        <time>2016-06-13T11:03:36Z</time>
      </trkpt>
      <trkpt lat="43.78977" lon="4.96261">
        <ele>118.38</ele>
        <time>2016-06-13T11:03:43Z</time>
      </trkpt>
      <trkpt lat="43.78985" lon="4.96306">
        <ele>115.98</ele>
        <time>2016-06-13T11:03:46Z</time>
      </trkpt>
      <trkpt lat="43.79018" lon="4.96337">
        <ele>117.42</ele>
        <time>2016-06-13T11:03:50Z</time>
      </trkpt>
      <trkpt lat="43.79026" lon="4.9635">
        <ele>118.38</ele>
        <time>2016-06-13T11:03:51Z</time>
      </trkpt>
      <trkpt lat="43.79048" lon="4.96394">
        <ele>116.46</ele>
        <time>2016-06-13T11:03:54Z</time>
      </trkpt>
      <trkpt lat="43.79114" lon="4.96519">
        <ele>117.9</ele>
        <time>2016-06-13T11:04:03Z</time>
      </trkpt>
      <trkpt lat="43.79123" lon="4.96535">
        <ele>118.38</ele>
        <time>2016-06-13T11:04:04Z</time>
      </trkpt>
      <trkpt lat="43.79223" lon="4.96722">
        <ele>121.26</ele>
        <time>2016-06-13T11:04:15Z</time>
      </trkpt>
      <trkpt lat="43.79301" lon="4.96861">
        <ele>126.07</ele>
        <time>2016-06-13T11:04:22Z</time>
      </trkpt>
      <trkpt lat="43.79327" lon="4.96911">
        <ele>126.55</ele>
        <time>2016-06-13T11:04:24Z</time>
      </trkpt>
      <trkpt lat="43.79368" lon="4.96989">
        <ele>128.47</ele>
        <time>2016-06-13T11:04:27Z</time>
      </trkpt>
      <trkpt lat="43.79422" lon="4.97091">
        <ele>128.95</ele>
        <time>2016-06-13T11:04:31Z</time>
      </trkpt>
      <trkpt lat="43.79612" lon="4.97445">
        <ele>130.4</ele>
        <time>2016-06-13T11:04:45Z</time>
      </trkpt>
      <trkpt lat="43.79736" lon="4.97678">
        <ele>133.76</ele>
        <time>2016-06-13T11:04:54Z</time>
      </trkpt>
      <trkpt lat="43.79931" lon="4.98038">
        <ele>134.72</ele>
        <time>2016-06-13T11:05:08Z</time>
      </trkpt>
      <trkpt lat="43.79958" lon="4.98088">
        <ele>132.8</ele>
        <time>2016-06-13T11:05:10Z</time>
      </trkpt>
      <trkpt lat="43.80122" lon="4.98385">
        <ele>131.84</ele>
        <time>2016-06-13T11:05:22Z</time>
      </trkpt>
      <trkpt lat="43.80163" lon="4.98461">
        <ele>133.28</ele>
        <time>2016-06-13T11:05:25Z</time>
      </trkpt>
      <trkpt lat="43.80243" lon="4.98609">
        <ele>131.36</ele>
        <time>2016-06-13T11:05:31Z</time>
      </trkpt>
      <trkpt lat="43.80282" lon="4.9868">
        <ele>132.8</ele>
        <time>2016-06-13T11:05:34Z</time>
      </trkpt>
      <trkpt lat="43.80357" lon="4.98818">
        <ele>129.92</ele>
        <time>2016-06-13T11:05:40Z</time>
      </trkpt>
      <trkpt lat="43.80412" lon="4.98922">
        <ele>127.99</ele>
        <time>2016-06-13T11:05:45Z</time>
      </trkpt>
      <trkpt lat="43.80472" lon="4.99036">
        <ele>126.55</ele>
        <time>2016-06-13T11:05:51Z</time>
      </trkpt>
      <trkpt lat="43.80514" lon="4.99112">
        <ele>128.47</ele>
        <time>2016-06-13T11:05:55Z</time>
      </trkpt>
      <trkpt lat="43.80565" lon="4.99208">
        <ele>127.99</ele>
        <time>2016-06-13T11:06:00Z</time>
      </trkpt>
      <trkpt lat="43.80611" lon="4.99292">
        <ele>125.59</ele>
        <time>2016-06-13T11:06:06Z</time>
      </trkpt>
      <trkpt lat="43.80672" lon="4.99408">
        <ele>129.43</ele>
        <time>2016-06-13T11:06:15Z</time>
      </trkpt>
      <trkpt lat="43.8068" lon="4.99421">
        <ele>127.99</ele>
        <time>2016-06-13T11:06:16Z</time>
      </trkpt>
      <trkpt lat="43.80694" lon="4.99447">
        <ele>126.55</ele>
        <time>2016-06-13T11:06:18Z</time>
      </trkpt>
      <trkpt lat="43.80726" lon="4.99505">
        <ele>124.63</ele>
        <time>2016-06-13T11:06:25Z</time>
      </trkpt>
      <trkpt lat="43.80729" lon="4.99511">
        <ele>125.11</ele>
        <time>2016-06-13T11:06:35Z</time>
      </trkpt>
      <trkpt lat="43.80733" lon="4.99518">
        <ele>126.55</ele>
        <time>2016-06-13T11:07:41Z</time>
      </trkpt>
      <trkpt lat="43.80777" lon="4.99596">
        <ele>127.03</ele>
        <time>2016-06-13T11:07:51Z</time>
      </trkpt>
      <trkpt lat="43.8083" lon="4.9969">
        <ele>128.95</ele>
        <time>2016-06-13T11:07:59Z</time>
      </trkpt>
      <trkpt lat="43.80914" lon="4.99837">
        <ele>128.47</ele>
        <time>2016-06-13T11:08:11Z</time>
      </trkpt>
      <trkpt lat="43.80967" lon="4.99931">
        <ele>128.95</ele>
        <time>2016-06-13T11:08:21Z</time>
      </trkpt>
      <trkpt lat="43.81048" lon="5.00072">
        <ele>129.43</ele>
        <time>2016-06-13T11:08:32Z</time>
      </trkpt>
      <trkpt lat="43.81075" lon="5.00121">
        <ele>128.95</ele>
        <time>2016-06-13T11:08:36Z</time>
      </trkpt>
      <trkpt lat="43.8116" lon="5.00277">
        <ele>128.47</ele>
        <time>2016-06-13T11:08:51Z</time>
      </trkpt>
      <trkpt lat="43.81226" lon="5.00405">
        <ele>130.4</ele>
        <time>2016-06-13T11:09:02Z</time>
      </trkpt>
      <trkpt lat="43.81298" lon="5.00528">
        <ele>130.88</ele>
        <time>2016-06-13T11:09:13Z</time>
      </trkpt>
      <trkpt lat="43.81406" lon="5.00723">
        <ele>130.4</ele>
        <time>2016-06-13T11:09:27Z</time>
      </trkpt>
      <trkpt lat="43.81474" lon="5.00862">
        <ele>130.4</ele>
        <time>2016-06-13T11:09:38Z</time>
      </trkpt>
      <trkpt lat="43.81539" lon="5.00978">
        <ele>127.99</ele>
        <time>2016-06-13T11:09:47Z</time>
      </trkpt>
      <trkpt lat="43.81602" lon="5.01096">
        <ele>130.88</ele>
        <time>2016-06-13T11:09:56Z</time>
      </trkpt>
      <trkpt lat="43.8164" lon="5.01165">
        <ele>132.8</ele>
        <time>2016-06-13T11:10:00Z</time>
      </trkpt>
      <trkpt lat="43.81707" lon="5.01285">
        <ele>130.4</ele>
        <time>2016-06-13T11:10:08Z</time>
      </trkpt>
      <trkpt lat="43.81726" lon="5.01316">
        <ele>127.51</ele>
        <time>2016-06-13T11:10:14Z</time>
      </trkpt>
      <trkpt lat="43.81727" lon="5.01314">
        <ele>128.47</ele>
        <time>2016-06-13T11:10:33Z</time>
      </trkpt>
      <trkpt lat="43.81728" lon="5.01312">
        <ele>128.47</ele>
        <time>2016-06-13T11:13:01Z</time>
      </trkpt>
      <trkpt lat="43.81728" lon="5.01312">
        <ele>127.51</ele>
        <time>2016-06-13T11:13:14Z</time>
      </trkpt>
      <trkpt lat="43.81739" lon="5.01327">
        <ele>128.47</ele>
        <time>2016-06-13T11:14:00Z</time>
      </trkpt>
      <trkpt lat="43.8174" lon="5.0133">
        <ele>128.47</ele>
        <time>2016-06-13T11:14:01Z</time>
      </trkpt>
      <trkpt lat="43.81743" lon="5.01338">
        <ele>128.47</ele>
        <time>2016-06-13T11:14:11Z</time>
      </trkpt>
      <trkpt lat="43.8175" lon="5.01344">
        <ele>128.95</ele>
        <time>2016-06-13T11:14:37Z</time>
      </trkpt>
      <trkpt lat="43.8178" lon="5.01396">
        <ele>129.92</ele>
        <time>2016-06-13T11:14:44Z</time>
      </trkpt>
      <trkpt lat="43.81814" lon="5.01471">
        <ele>126.55</ele>
        <time>2016-06-13T11:14:54Z</time>
      </trkpt>
      <trkpt lat="43.81832" lon="5.01517">
        <ele>128.95</ele>
        <time>2016-06-13T11:15:01Z</time>
      </trkpt>
      <trkpt lat="43.81834" lon="5.01523">
        <ele>128.47</ele>
        <time>2016-06-13T11:15:02Z</time>
      </trkpt>
      <trkpt lat="43.81832" lon="5.0158">
        <ele>129.92</ele>
        <time>2016-06-13T11:15:08Z</time>
      </trkpt>
      <trkpt lat="43.81861" lon="5.01613">
        <ele>131.36</ele>
        <time>2016-06-13T11:15:12Z</time>
      </trkpt>
      <trkpt lat="43.81885" lon="5.0165">
        <ele>131.84</ele>
        <time>2016-06-13T11:15:15Z</time>
      </trkpt>
      <trkpt lat="43.81916" lon="5.01719">
        <ele>133.76</ele>
        <time>2016-06-13T11:15:19Z</time>
      </trkpt>
      <trkpt lat="43.82001" lon="5.01903">
        <ele>135.2</ele>
        <time>2016-06-13T11:15:28Z</time>
      </trkpt>
      <trkpt lat="43.82025" lon="5.01946">
        <ele>136.64</ele>
        <time>2016-06-13T11:15:30Z</time>
      </trkpt>
      <trkpt lat="43.8206" lon="5.02007">
        <ele>133.28</ele>
        <time>2016-06-13T11:15:33Z</time>
      </trkpt>
      <trkpt lat="43.82119" lon="5.02113">
        <ele>131.36</ele>
        <time>2016-06-13T11:15:40Z</time>
      </trkpt>
      <trkpt lat="43.82123" lon="5.02121">
        <ele>130.4</ele>
        <time>2016-06-13T11:15:41Z</time>
      </trkpt>
      <trkpt lat="43.82135" lon="5.02183">
        <ele>130.4</ele>
        <time>2016-06-13T11:15:48Z</time>
      </trkpt>
      <trkpt lat="43.82142" lon="5.02192">
        <ele>130.88</ele>
        <time>2016-06-13T11:15:49Z</time>
      </trkpt>
      <trkpt lat="43.82166" lon="5.02246">
        <ele>130.88</ele>
        <time>2016-06-13T11:15:53Z</time>
      </trkpt>
      <trkpt lat="43.82216" lon="5.02485">
        <ele>132.8</ele>
        <time>2016-06-13T11:16:06Z</time>
      </trkpt>
      <trkpt lat="43.82228" lon="5.0254">
        <ele>136.16</ele>
        <time>2016-06-13T11:16:09Z</time>
      </trkpt>
      <trkpt lat="43.82232" lon="5.02559">
        <ele>136.16</ele>
        <time>2016-06-13T11:16:10Z</time>
      </trkpt>
      <trkpt lat="43.8224" lon="5.02596">
        <ele>138.09</ele>
        <time>2016-06-13T11:16:12Z</time>
      </trkpt>
      <trkpt lat="43.82259" lon="5.02695">
        <ele>140.49</ele>
        <time>2016-06-13T11:16:17Z</time>
      </trkpt>
      <trkpt lat="43.82277" lon="5.0278">
        <ele>144.34</ele>
        <time>2016-06-13T11:16:21Z</time>
      </trkpt>
      <trkpt lat="43.823" lon="5.02933">
        <ele>141.93</ele>
        <time>2016-06-13T11:16:29Z</time>
      </trkpt>
      <trkpt lat="43.8227" lon="5.03045">
        <ele>139.53</ele>
        <time>2016-06-13T11:16:36Z</time>
      </trkpt>
      <trkpt lat="43.82225" lon="5.03076">
        <ele>138.57</ele>
        <time>2016-06-13T11:16:41Z</time>
      </trkpt>
      <trkpt lat="43.822" lon="5.03042">
        <ele>137.13</ele>
        <time>2016-06-13T11:16:45Z</time>
      </trkpt>
      <trkpt lat="43.82214" lon="5.02994">
        <ele>136.16</ele>
        <time>2016-06-13T11:16:49Z</time>
      </trkpt>
      <trkpt lat="43.82233" lon="5.0298">
        <ele>136.64</ele>
        <time>2016-06-13T11:16:51Z</time>
      </trkpt>
      <trkpt lat="43.82326" lon="5.02937">
        <ele>140.01</ele>
        <time>2016-06-13T11:16:58Z</time>
      </trkpt>
      <trkpt lat="43.82468" lon="5.02865">
        <ele>138.57</ele>
        <time>2016-06-13T11:17:08Z</time>
      </trkpt>
      <trkpt lat="43.82531" lon="5.02866">
        <ele>136.16</ele>
        <time>2016-06-13T11:17:13Z</time>
      </trkpt>
      <trkpt lat="43.82571" lon="5.02907">
        <ele>136.64</ele>
        <time>2016-06-13T11:17:17Z</time>
      </trkpt>
      <trkpt lat="43.8263" lon="5.03011">
        <ele>140.01</ele>
        <time>2016-06-13T11:17:24Z</time>
      </trkpt>
      <trkpt lat="43.82744" lon="5.03213">
        <ele>138.09</ele>
        <time>2016-06-13T11:17:37Z</time>
      </trkpt>
      <trkpt lat="43.82756" lon="5.03235">
        <ele>135.68</ele>
        <time>2016-06-13T11:17:39Z</time>
      </trkpt>
      <trkpt lat="43.82767" lon="5.03281">
        <ele>135.2</ele>
        <time>2016-06-13T11:17:43Z</time>
      </trkpt>
      <trkpt lat="43.82764" lon="5.03305">
        <ele>134.24</ele>
        <time>2016-06-13T11:17:45Z</time>
      </trkpt>
      <trkpt lat="43.82762" lon="5.03343">
        <ele>134.24</ele>
        <time>2016-06-13T11:17:48Z</time>
      </trkpt>
      <trkpt lat="43.82767" lon="5.03384">
        <ele>131.36</ele>
        <time>2016-06-13T11:17:52Z</time>
      </trkpt>
      <trkpt lat="43.82756" lon="5.03436">
        <ele>132.8</ele>
        <time>2016-06-13T11:17:57Z</time>
      </trkpt>
      <trkpt lat="43.82701" lon="5.03481">
        <ele>133.28</ele>
        <time>2016-06-13T11:18:02Z</time>
      </trkpt>
      <trkpt lat="43.82674" lon="5.03502">
        <ele>134.72</ele>
        <time>2016-06-13T11:18:04Z</time>
      </trkpt>
      <trkpt lat="43.82616" lon="5.03544">
        <ele>138.09</ele>
        <time>2016-06-13T11:18:08Z</time>
      </trkpt>
      <trkpt lat="43.826" lon="5.03555">
        <ele>138.09</ele>
        <time>2016-06-13T11:18:09Z</time>
      </trkpt>
      <trkpt lat="43.82454" lon="5.03623">
        <ele>138.57</ele>
        <time>2016-06-13T11:18:18Z</time>
      </trkpt>
      <trkpt lat="43.82438" lon="5.03628">
        <ele>138.09</ele>
        <time>2016-06-13T11:18:19Z</time>
      </trkpt>
      <trkpt lat="43.82403" lon="5.0364">
        <ele>136.64</ele>
        <time>2016-06-13T11:18:21Z</time>
      </trkpt>
      <trkpt lat="43.82367" lon="5.03647">
        <ele>137.61</ele>
        <time>2016-06-13T11:18:23Z</time>
      </trkpt>
      <trkpt lat="43.82181" lon="5.03661">
        <ele>140.49</ele>
        <time>2016-06-13T11:18:33Z</time>
      </trkpt>
      <trkpt lat="43.82041" lon="5.03747">
        <ele>140.01</ele>
        <time>2016-06-13T11:18:41Z</time>
      </trkpt>
      <trkpt lat="43.81892" lon="5.03856">
        <ele>138.09</ele>
        <time>2016-06-13T11:18:50Z</time>
      </trkpt>
      <trkpt lat="43.81853" lon="5.03897">
        <ele>138.09</ele>
        <time>2016-06-13T11:18:53Z</time>
      </trkpt>
      <trkpt lat="43.81815" lon="5.03925">
        <ele>135.68</ele>
        <time>2016-06-13T11:18:56Z</time>
      </trkpt>
      <trkpt lat="43.81785" lon="5.03986">
        <ele>136.64</ele>
        <time>2016-06-13T11:19:00Z</time>
      </trkpt>
      <trkpt lat="43.81778" lon="5.04052">
        <ele>139.53</ele>
        <time>2016-06-13T11:19:03Z</time>
      </trkpt>
      <trkpt lat="43.81762" lon="5.04183">
        <ele>136.16</ele>
        <time>2016-06-13T11:19:09Z</time>
      </trkpt>
      <trkpt lat="43.81753" lon="5.04247">
        <ele>133.76</ele>
        <time>2016-06-13T11:19:12Z</time>
      </trkpt>
      <trkpt lat="43.8174" lon="5.04334">
        <ele>132.8</ele>
        <time>2016-06-13T11:19:18Z</time>
      </trkpt>
      <trkpt lat="43.81736" lon="5.04361">
        <ele>132.8</ele>
        <time>2016-06-13T11:19:22Z</time>
      </trkpt>
      <trkpt lat="43.81727" lon="5.04385">
        <ele>132.32</ele>
        <time>2016-06-13T11:19:25Z</time>
      </trkpt>
      <trkpt lat="43.81726" lon="5.04424">
        <ele>133.76</ele>
        <time>2016-06-13T11:19:28Z</time>
      </trkpt>
      <trkpt lat="43.81728" lon="5.04458">
        <ele>136.16</ele>
        <time>2016-06-13T11:19:30Z</time>
      </trkpt>
      <trkpt lat="43.81733" lon="5.04588">
        <ele>139.53</ele>
        <time>2016-06-13T11:19:36Z</time>
      </trkpt>
      <trkpt lat="43.81735" lon="5.04612">
        <ele>138.57</ele>
        <time>2016-06-13T11:19:37Z</time>
      </trkpt>
      <trkpt lat="43.81748" lon="5.04687">
        <ele>141.93</ele>
        <time>2016-06-13T11:19:40Z</time>
      </trkpt>
      <trkpt lat="43.81758" lon="5.04739">
        <ele>146.26</ele>
        <time>2016-06-13T11:19:42Z</time>
      </trkpt>
      <trkpt lat="43.81768" lon="5.04791">
        <ele>147.7</ele>
        <time>2016-06-13T11:19:44Z</time>
      </trkpt>
      <trkpt lat="43.81792" lon="5.04919">
        <ele>149.62</ele>
        <time>2016-06-13T11:19:49Z</time>
      </trkpt>
      <trkpt lat="43.81801" lon="5.04971">
        <ele>149.14</ele>
        <time>2016-06-13T11:19:51Z</time>
      </trkpt>
      <trkpt lat="43.81852" lon="5.05085">
        <ele>145.78</ele>
        <time>2016-06-13T11:19:56Z</time>
      </trkpt>
      <trkpt lat="43.8189" lon="5.05139">
        <ele>140.49</ele>
        <time>2016-06-13T11:19:59Z</time>
      </trkpt>
      <trkpt lat="43.819" lon="5.05154">
        <ele>139.53</ele>
        <time>2016-06-13T11:20:00Z</time>
      </trkpt>
      <trkpt lat="43.81901" lon="5.05224">
        <ele>135.68</ele>
        <time>2016-06-13T11:20:05Z</time>
      </trkpt>
      <trkpt lat="43.81911" lon="5.05264">
        <ele>137.61</ele>
        <time>2016-06-13T11:20:08Z</time>
      </trkpt>
      <trkpt lat="43.81969" lon="5.05302">
        <ele>139.53</ele>
        <time>2016-06-13T11:20:13Z</time>
      </trkpt>
      <trkpt lat="43.81999" lon="5.05306">
        <ele>139.05</ele>
        <time>2016-06-13T11:20:15Z</time>
      </trkpt>
      <trkpt lat="43.82121" lon="5.05322">
        <ele>140.01</ele>
        <time>2016-06-13T11:20:24Z</time>
      </trkpt>
      <trkpt lat="43.8217" lon="5.05351">
        <ele>142.89</ele>
        <time>2016-06-13T11:20:27Z</time>
      </trkpt>
      <trkpt lat="43.82299" lon="5.05474">
        <ele>143.37</ele>
        <time>2016-06-13T11:20:35Z</time>
      </trkpt>
      <trkpt lat="43.8248" lon="5.05727">
        <ele>142.41</ele>
        <time>2016-06-13T11:20:48Z</time>
      </trkpt>
      <trkpt lat="43.82503" lon="5.05764">
        <ele>141.45</ele>
        <time>2016-06-13T11:20:50Z</time>
      </trkpt>
      <trkpt lat="43.82537" lon="5.05856">
        <ele>137.61</ele>
        <time>2016-06-13T11:20:55Z</time>
      </trkpt>
      <trkpt lat="43.82538" lon="5.05909">
        <ele>133.76</ele>
        <time>2016-06-13T11:20:59Z</time>
      </trkpt>
      <trkpt lat="43.82522" lon="5.05949">
        <ele>136.64</ele>
        <time>2016-06-13T11:21:02Z</time>
      </trkpt>
      <trkpt lat="43.82503" lon="5.0597">
        <ele>135.68</ele>
        <time>2016-06-13T11:21:04Z</time>
      </trkpt>
      <trkpt lat="43.82482" lon="5.05989">
        <ele>137.13</ele>
        <time>2016-06-13T11:21:06Z</time>
      </trkpt>
      <trkpt lat="43.82394" lon="5.06061">
        <ele>139.05</ele>
        <time>2016-06-13T11:21:13Z</time>
      </trkpt>
      <trkpt lat="43.8233" lon="5.06105">
        <ele>143.37</ele>
        <time>2016-06-13T11:21:17Z</time>
      </trkpt>
      <trkpt lat="43.82314" lon="5.06115">
        <ele>140.01</ele>
        <time>2016-06-13T11:21:18Z</time>
      </trkpt>
      <trkpt lat="43.82298" lon="5.06125">
        <ele>140.01</ele>
        <time>2016-06-13T11:21:19Z</time>
      </trkpt>
      <trkpt lat="43.82175" lon="5.06194">
        <ele>141.93</ele>
        <time>2016-06-13T11:21:26Z</time>
      </trkpt>
      <trkpt lat="43.82032" lon="5.06289">
        <ele>141.93</ele>
        <time>2016-06-13T11:21:34Z</time>
      </trkpt>
      <trkpt lat="43.81849" lon="5.0639">
        <ele>145.3</ele>
        <time>2016-06-13T11:21:43Z</time>
      </trkpt>
      <trkpt lat="43.81829" lon="5.064">
        <ele>144.34</ele>
        <time>2016-06-13T11:21:44Z</time>
      </trkpt>
      <trkpt lat="43.81551" lon="5.06563">
        <ele>143.85</ele>
        <time>2016-06-13T11:21:58Z</time>
      </trkpt>
      <trkpt lat="43.81366" lon="5.06634">
        <ele>145.3</ele>
        <time>2016-06-13T11:22:07Z</time>
      </trkpt>
      <trkpt lat="43.81193" lon="5.06691">
        <ele>141.93</ele>
        <time>2016-06-13T11:22:16Z</time>
      </trkpt>
      <trkpt lat="43.81177" lon="5.06697">
        <ele>142.41</ele>
        <time>2016-06-13T11:22:17Z</time>
      </trkpt>
      <trkpt lat="43.81021" lon="5.06759">
        <ele>141.93</ele>
        <time>2016-06-13T11:22:28Z</time>
      </trkpt>
      <trkpt lat="43.80763" lon="5.06864">
        <ele>140.97</ele>
        <time>2016-06-13T11:22:47Z</time>
      </trkpt>
      <trkpt lat="43.80653" lon="5.06933">
        <ele>140.01</ele>
        <time>2016-06-13T11:22:57Z</time>
      </trkpt>
      <trkpt lat="43.80641" lon="5.0694">
        <ele>139.53</ele>
        <time>2016-06-13T11:22:59Z</time>
      </trkpt>
      <trkpt lat="43.80625" lon="5.06943">
        <ele>140.97</ele>
        <time>2016-06-13T11:23:02Z</time>
      </trkpt>
      <trkpt lat="43.80604" lon="5.06967">
        <ele>139.53</ele>
        <time>2016-06-13T11:23:07Z</time>
      </trkpt>
      <trkpt lat="43.80563" lon="5.0701">
        <ele>140.01</ele>
        <time>2016-06-13T11:23:14Z</time>
      </trkpt>
      <trkpt lat="43.80541" lon="5.07036">
        <ele>139.05</ele>
        <time>2016-06-13T11:23:23Z</time>
      </trkpt>
      <trkpt lat="43.80541" lon="5.07036">
        <ele>139.53</ele>
        <time>2016-06-13T11:23:24Z</time>
      </trkpt>
      <trkpt lat="43.80535" lon="5.07043">
        <ele>141.45</ele>
        <time>2016-06-13T11:23:39Z</time>
      </trkpt>
      <trkpt lat="43.80529" lon="5.07052">
        <ele>140.01</ele>
        <time>2016-06-13T11:23:41Z</time>
      </trkpt>
      <trkpt lat="43.8048" lon="5.07114">
        <ele>140.97</ele>
        <time>2016-06-13T11:23:52Z</time>
      </trkpt>
      <trkpt lat="43.80414" lon="5.07192">
        <ele>140.97</ele>
        <time>2016-06-13T11:24:05Z</time>
      </trkpt>
      <trkpt lat="43.8037" lon="5.07245">
        <ele>142.41</ele>
        <time>2016-06-13T11:24:12Z</time>
      </trkpt>
      <trkpt lat="43.80272" lon="5.07364">
        <ele>142.41</ele>
        <time>2016-06-13T11:24:25Z</time>
      </trkpt>
      <trkpt lat="43.80231" lon="5.07414">
        <ele>145.3</ele>
        <time>2016-06-13T11:24:29Z</time>
      </trkpt>
      <trkpt lat="43.80105" lon="5.07568">
        <ele>146.26</ele>
        <time>2016-06-13T11:24:40Z</time>
      </trkpt>
      <trkpt lat="43.80002" lon="5.07699">
        <ele>149.62</ele>
        <time>2016-06-13T11:24:48Z</time>
      </trkpt>
      <trkpt lat="43.79972" lon="5.07736">
        <ele>147.7</ele>
        <time>2016-06-13T11:24:50Z</time>
      </trkpt>
      <trkpt lat="43.79922" lon="5.07797">
        <ele>151.06</ele>
        <time>2016-06-13T11:24:53Z</time>
      </trkpt>
      <trkpt lat="43.79886" lon="5.07839">
        <ele>153.47</ele>
        <time>2016-06-13T11:24:55Z</time>
      </trkpt>
      <trkpt lat="43.79715" lon="5.08005">
        <ele>152.99</ele>
        <time>2016-06-13T11:25:04Z</time>
      </trkpt>
      <trkpt lat="43.79488" lon="5.0817">
        <ele>151.06</ele>
        <time>2016-06-13T11:25:16Z</time>
      </trkpt>
      <trkpt lat="43.79226" lon="5.0836">
        <ele>151.06</ele>
        <time>2016-06-13T11:25:31Z</time>
      </trkpt>
      <trkpt lat="43.79014" lon="5.08475">
        <ele>151.06</ele>
        <time>2016-06-13T11:25:43Z</time>
      </trkpt>
      <trkpt lat="43.78998" lon="5.08487">
        <ele>151.06</ele>
        <time>2016-06-13T11:25:44Z</time>
      </trkpt>
      <trkpt lat="43.78828" lon="5.08617">
        <ele>153.95</ele>
        <time>2016-06-13T11:25:55Z</time>
      </trkpt>
      <trkpt lat="43.78811" lon="5.0863">
        <ele>154.43</ele>
        <time>2016-06-13T11:25:56Z</time>
      </trkpt>
      <trkpt lat="43.78732" lon="5.08694">
        <ele>154.43</ele>
        <time>2016-06-13T11:26:01Z</time>
      </trkpt>
      <trkpt lat="43.78599" lon="5.08869">
        <ele>153.47</ele>
        <time>2016-06-13T11:26:11Z</time>
      </trkpt>
      <trkpt lat="43.7846" lon="5.09068">
        <ele>155.39</ele>
        <time>2016-06-13T11:26:22Z</time>
      </trkpt>
      <trkpt lat="43.78439" lon="5.09114">
        <ele>156.83</ele>
        <time>2016-06-13T11:26:24Z</time>
      </trkpt>
      <trkpt lat="43.7841" lon="5.09191">
        <ele>159.72</ele>
        <time>2016-06-13T11:26:27Z</time>
      </trkpt>
      <trkpt lat="43.78375" lon="5.09283">
        <ele>155.87</ele>
        <time>2016-06-13T11:26:31Z</time>
      </trkpt>
      <trkpt lat="43.78258" lon="5.09587">
        <ele>156.83</ele>
        <time>2016-06-13T11:26:45Z</time>
      </trkpt>
      <trkpt lat="43.78215" lon="5.09663">
        <ele>156.35</ele>
        <time>2016-06-13T11:26:49Z</time>
      </trkpt>
      <trkpt lat="43.78194" lon="5.097">
        <ele>158.27</ele>
        <time>2016-06-13T11:26:51Z</time>
      </trkpt>
      <trkpt lat="43.78114" lon="5.09884">
        <ele>160.2</ele>
        <time>2016-06-13T11:26:59Z</time>
      </trkpt>
      <trkpt lat="43.78065" lon="5.10141">
        <ele>162.6</ele>
        <time>2016-06-13T11:27:08Z</time>
      </trkpt>
      <trkpt lat="43.78029" lon="5.10357">
        <ele>159.24</ele>
        <time>2016-06-13T11:27:16Z</time>
      </trkpt>
      <trkpt lat="43.77973" lon="5.10648">
        <ele>160.68</ele>
        <time>2016-06-13T11:27:28Z</time>
      </trkpt>
      <trkpt lat="43.77957" lon="5.10696">
        <ele>161.64</ele>
        <time>2016-06-13T11:27:30Z</time>
      </trkpt>
      <trkpt lat="43.77879" lon="5.10847">
        <ele>162.6</ele>
        <time>2016-06-13T11:27:37Z</time>
      </trkpt>
      <trkpt lat="43.77777" lon="5.10985">
        <ele>163.56</ele>
        <time>2016-06-13T11:27:45Z</time>
      </trkpt>
      <trkpt lat="43.77621" lon="5.11084">
        <ele>161.64</ele>
        <time>2016-06-13T11:27:54Z</time>
      </trkpt>
      <trkpt lat="43.77571" lon="5.11116">
        <ele>163.08</ele>
        <time>2016-06-13T11:27:57Z</time>
      </trkpt>
      <trkpt lat="43.77538" lon="5.11137">
        <ele>162.12</ele>
        <time>2016-06-13T11:27:59Z</time>
      </trkpt>
      <trkpt lat="43.77379" lon="5.1127">
        <ele>163.56</ele>
        <time>2016-06-13T11:28:09Z</time>
      </trkpt>
      <trkpt lat="43.77306" lon="5.11347">
        <ele>164.04</ele>
        <time>2016-06-13T11:28:14Z</time>
      </trkpt>
      <trkpt lat="43.7726" lon="5.11427">
        <ele>165</ele>
        <time>2016-06-13T11:28:18Z</time>
      </trkpt>
      <trkpt lat="43.77224" lon="5.11498">
        <ele>166.45</ele>
        <time>2016-06-13T11:28:21Z</time>
      </trkpt>
      <trkpt lat="43.77175" lon="5.11598">
        <ele>163.08</ele>
        <time>2016-06-13T11:28:25Z</time>
      </trkpt>
      <trkpt lat="43.77163" lon="5.11623">
        <ele>163.56</ele>
        <time>2016-06-13T11:28:26Z</time>
      </trkpt>
      <trkpt lat="43.77137" lon="5.11678">
        <ele>166.93</ele>
        <time>2016-06-13T11:28:28Z</time>
      </trkpt>
      <trkpt lat="43.77123" lon="5.11708">
        <ele>171.25</ele>
        <time>2016-06-13T11:28:29Z</time>
      </trkpt>
      <trkpt lat="43.77108" lon="5.11738">
        <ele>170.77</ele>
        <time>2016-06-13T11:28:30Z</time>
      </trkpt>
      <trkpt lat="43.76976" lon="5.12001">
        <ele>168.85</ele>
        <time>2016-06-13T11:28:39Z</time>
      </trkpt>
      <trkpt lat="43.76847" lon="5.12263">
        <ele>172.21</ele>
        <time>2016-06-13T11:28:49Z</time>
      </trkpt>
      <trkpt lat="43.76744" lon="5.1244">
        <ele>171.25</ele>
        <time>2016-06-13T11:28:56Z</time>
      </trkpt>
      <trkpt lat="43.76572" lon="5.12667">
        <ele>170.77</ele>
        <time>2016-06-13T11:29:06Z</time>
      </trkpt>
      <trkpt lat="43.764" lon="5.12907">
        <ele>169.33</ele>
        <time>2016-06-13T11:29:17Z</time>
      </trkpt>
      <trkpt lat="43.76359" lon="5.12978">
        <ele>167.41</ele>
        <time>2016-06-13T11:29:20Z</time>
      </trkpt>
      <trkpt lat="43.76251" lon="5.13164">
        <ele>167.41</ele>
        <time>2016-06-13T11:29:28Z</time>
      </trkpt>
      <trkpt lat="43.76117" lon="5.13392">
        <ele>170.77</ele>
        <time>2016-06-13T11:29:38Z</time>
      </trkpt>
      <trkpt lat="43.76071" lon="5.13489">
        <ele>171.73</ele>
        <time>2016-06-13T11:29:42Z</time>
      </trkpt>
      <trkpt lat="43.7599" lon="5.13756">
        <ele>170.77</ele>
        <time>2016-06-13T11:29:52Z</time>
      </trkpt>
      <trkpt lat="43.75961" lon="5.13867">
        <ele>171.25</ele>
        <time>2016-06-13T11:29:56Z</time>
      </trkpt>
      <trkpt lat="43.75907" lon="5.14057">
        <ele>170.29</ele>
        <time>2016-06-13T11:30:03Z</time>
      </trkpt>
      <trkpt lat="43.75862" lon="5.14214">
        <ele>172.21</ele>
        <time>2016-06-13T11:30:09Z</time>
      </trkpt>
      <trkpt lat="43.75736" lon="5.14652">
        <ele>171.73</ele>
        <time>2016-06-13T11:30:25Z</time>
      </trkpt>
      <trkpt lat="43.75642" lon="5.14955">
        <ele>174.62</ele>
        <time>2016-06-13T11:30:36Z</time>
      </trkpt>
      <trkpt lat="43.75632" lon="5.14982">
        <ele>174.14</ele>
        <time>2016-06-13T11:30:37Z</time>
      </trkpt>
      <trkpt lat="43.75589" lon="5.15117">
        <ele>175.58</ele>
        <time>2016-06-13T11:30:42Z</time>
      </trkpt>
      <trkpt lat="43.7559" lon="5.15264">
        <ele>175.58</ele>
        <time>2016-06-13T11:30:47Z</time>
      </trkpt>
      <trkpt lat="43.75657" lon="5.15594">
        <ele>177.98</ele>
        <time>2016-06-13T11:30:58Z</time>
      </trkpt>
      <trkpt lat="43.75666" lon="5.15652">
        <ele>177.98</ele>
        <time>2016-06-13T11:31:00Z</time>
      </trkpt>
      <trkpt lat="43.75667" lon="5.15714">
        <ele>179.42</ele>
        <time>2016-06-13T11:31:02Z</time>
      </trkpt>
      <trkpt lat="43.75656" lon="5.15776">
        <ele>179.42</ele>
        <time>2016-06-13T11:31:04Z</time>
      </trkpt>
      <trkpt lat="43.75557" lon="5.16122">
        <ele>179.42</ele>
        <time>2016-06-13T11:31:15Z</time>
      </trkpt>
      <trkpt lat="43.7553" lon="5.16421">
        <ele>178.94</ele>
        <time>2016-06-13T11:31:24Z</time>
      </trkpt>
      <trkpt lat="43.75519" lon="5.16589">
        <ele>179.42</ele>
        <time>2016-06-13T11:31:29Z</time>
      </trkpt>
      <trkpt lat="43.75475" lon="5.17215">
        <ele>179.42</ele>
        <time>2016-06-13T11:31:48Z</time>
      </trkpt>
      <trkpt lat="43.75462" lon="5.17418">
        <ele>179.9</ele>
        <time>2016-06-13T11:31:54Z</time>
      </trkpt>
      <trkpt lat="43.75433" lon="5.1788">
        <ele>177.5</ele>
        <time>2016-06-13T11:32:08Z</time>
      </trkpt>
      <trkpt lat="43.75423" lon="5.18014">
        <ele>176.54</ele>
        <time>2016-06-13T11:32:14Z</time>
      </trkpt>
      <trkpt lat="43.75416" lon="5.18063">
        <ele>177.02</ele>
        <time>2016-06-13T11:32:19Z</time>
      </trkpt>
      <trkpt lat="43.75393" lon="5.18119">
        <ele>179.42</ele>
        <time>2016-06-13T11:32:26Z</time>
      </trkpt>
      <trkpt lat="43.75408" lon="5.18174">
        <ele>182.31</ele>
        <time>2016-06-13T11:32:31Z</time>
      </trkpt>
      <trkpt lat="43.75408" lon="5.18189">
        <ele>181.35</ele>
        <time>2016-06-13T11:32:32Z</time>
      </trkpt>
      <trkpt lat="43.75407" lon="5.18237">
        <ele>184.23</ele>
        <time>2016-06-13T11:32:35Z</time>
      </trkpt>
      <trkpt lat="43.75406" lon="5.18278">
        <ele>189.52</ele>
        <time>2016-06-13T11:32:37Z</time>
      </trkpt>
      <trkpt lat="43.75402" lon="5.1833">
        <ele>192.88</ele>
        <time>2016-06-13T11:32:39Z</time>
      </trkpt>
      <trkpt lat="43.754" lon="5.18359">
        <ele>196.25</ele>
        <time>2016-06-13T11:32:40Z</time>
      </trkpt>
      <trkpt lat="43.75396" lon="5.18419">
        <ele>198.65</ele>
        <time>2016-06-13T11:32:42Z</time>
      </trkpt>
      <trkpt lat="43.75392" lon="5.18513">
        <ele>203.46</ele>
        <time>2016-06-13T11:32:45Z</time>
      </trkpt>
      <trkpt lat="43.75388" lon="5.18578">
        <ele>206.82</ele>
        <time>2016-06-13T11:32:47Z</time>
      </trkpt>
      <trkpt lat="43.75386" lon="5.18611">
        <ele>210.67</ele>
        <time>2016-06-13T11:32:48Z</time>
      </trkpt>
      <trkpt lat="43.75384" lon="5.18644">
        <ele>209.7</ele>
        <time>2016-06-13T11:32:49Z</time>
      </trkpt>
      <trkpt lat="43.7538" lon="5.18709">
        <ele>213.55</ele>
        <time>2016-06-13T11:32:51Z</time>
      </trkpt>
      <trkpt lat="43.75368" lon="5.18837">
        <ele>217.4</ele>
        <time>2016-06-13T11:32:55Z</time>
      </trkpt>
      <trkpt lat="43.75365" lon="5.18869">
        <ele>217.4</ele>
        <time>2016-06-13T11:32:56Z</time>
      </trkpt>
      <trkpt lat="43.75356" lon="5.18966">
        <ele>221.72</ele>
        <time>2016-06-13T11:32:59Z</time>
      </trkpt>
      <trkpt lat="43.7534" lon="5.19121">
        <ele>221.72</ele>
        <time>2016-06-13T11:33:04Z</time>
      </trkpt>
      <trkpt lat="43.75325" lon="5.19284">
        <ele>216.43</ele>
        <time>2016-06-13T11:33:10Z</time>
      </trkpt>
      <trkpt lat="43.75323" lon="5.19308">
        <ele>216.43</ele>
        <time>2016-06-13T11:33:11Z</time>
      </trkpt>
      <trkpt lat="43.75314" lon="5.1942">
        <ele>213.07</ele>
        <time>2016-06-13T11:33:16Z</time>
      </trkpt>
      <trkpt lat="43.75304" lon="5.19538">
        <ele>210.19</ele>
        <time>2016-06-13T11:33:21Z</time>
      </trkpt>
      <trkpt lat="43.753" lon="5.19585">
        <ele>206.82</ele>
        <time>2016-06-13T11:33:23Z</time>
      </trkpt>
      <trkpt lat="43.75295" lon="5.19629">
        <ele>205.86</ele>
        <time>2016-06-13T11:33:25Z</time>
      </trkpt>
      <trkpt lat="43.75282" lon="5.19802">
        <ele>205.86</ele>
        <time>2016-06-13T11:33:34Z</time>
      </trkpt>
      <trkpt lat="43.75276" lon="5.19886">
        <ele>205.86</ele>
        <time>2016-06-13T11:33:38Z</time>
      </trkpt>
      <trkpt lat="43.75261" lon="5.20059">
        <ele>206.82</ele>
        <time>2016-06-13T11:33:46Z</time>
      </trkpt>
      <trkpt lat="43.75247" lon="5.20193">
        <ele>206.34</ele>
        <time>2016-06-13T11:33:53Z</time>
      </trkpt>
      <trkpt lat="43.75235" lon="5.20262">
        <ele>205.38</ele>
        <time>2016-06-13T11:33:58Z</time>
      </trkpt>
      <trkpt lat="43.75239" lon="5.20277">
        <ele>205.38</ele>
        <time>2016-06-13T11:33:59Z</time>
      </trkpt>
      <trkpt lat="43.75239" lon="5.20313">
        <ele>207.78</ele>
        <time>2016-06-13T11:34:01Z</time>
      </trkpt>
      <trkpt lat="43.75223" lon="5.20481">
        <ele>204.9</ele>
        <time>2016-06-13T11:34:11Z</time>
      </trkpt>
      <trkpt lat="43.75218" lon="5.20555">
        <ele>204.9</ele>
        <time>2016-06-13T11:34:20Z</time>
      </trkpt>
      <trkpt lat="43.75215" lon="5.20596">
        <ele>203.46</ele>
        <time>2016-06-13T11:34:29Z</time>
      </trkpt>
      <trkpt lat="43.75214" lon="5.20601">
        <ele>203.46</ele>
        <time>2016-06-13T11:34:40Z</time>
      </trkpt>
      <trkpt lat="43.75213" lon="5.20638">
        <ele>204.9</ele>
        <time>2016-06-13T11:35:03Z</time>
      </trkpt>
      <trkpt lat="43.75204" lon="5.20743">
        <ele>205.38</ele>
        <time>2016-06-13T11:35:12Z</time>
      </trkpt>
      <trkpt lat="43.75199" lon="5.20791">
        <ele>206.82</ele>
        <time>2016-06-13T11:35:15Z</time>
      </trkpt>
      <trkpt lat="43.75187" lon="5.20943">
        <ele>207.78</ele>
        <time>2016-06-13T11:35:23Z</time>
      </trkpt>
      <trkpt lat="43.75203" lon="5.21034">
        <ele>210.67</ele>
        <time>2016-06-13T11:35:27Z</time>
      </trkpt>
      <trkpt lat="43.75218" lon="5.2109">
        <ele>214.03</ele>
        <time>2016-06-13T11:35:29Z</time>
      </trkpt>
      <trkpt lat="43.75224" lon="5.21119">
        <ele>212.59</ele>
        <time>2016-06-13T11:35:30Z</time>
      </trkpt>
      <trkpt lat="43.75227" lon="5.21367">
        <ele>209.22</ele>
        <time>2016-06-13T11:35:38Z</time>
      </trkpt>
      <trkpt lat="43.75228" lon="5.21455">
        <ele>208.26</ele>
        <time>2016-06-13T11:35:41Z</time>
      </trkpt>
      <trkpt lat="43.75254" lon="5.21596">
        <ele>211.63</ele>
        <time>2016-06-13T11:35:46Z</time>
      </trkpt>
      <trkpt lat="43.75265" lon="5.2165">
        <ele>208.74</ele>
        <time>2016-06-13T11:35:48Z</time>
      </trkpt>
      <trkpt lat="43.75278" lon="5.21853">
        <ele>208.74</ele>
        <time>2016-06-13T11:35:55Z</time>
      </trkpt>
      <trkpt lat="43.75269" lon="5.2211">
        <ele>209.7</ele>
        <time>2016-06-13T11:36:04Z</time>
      </trkpt>
      <trkpt lat="43.75277" lon="5.22236">
        <ele>207.3</ele>
        <time>2016-06-13T11:36:08Z</time>
      </trkpt>
      <trkpt lat="43.7532" lon="5.22443">
        <ele>206.34</ele>
        <time>2016-06-13T11:36:14Z</time>
      </trkpt>
      <trkpt lat="43.75341" lon="5.22508">
        <ele>199.61</ele>
        <time>2016-06-13T11:36:16Z</time>
      </trkpt>
      <trkpt lat="43.75352" lon="5.2254">
        <ele>200.09</ele>
        <time>2016-06-13T11:36:17Z</time>
      </trkpt>
      <trkpt lat="43.75394" lon="5.22665">
        <ele>196.25</ele>
        <time>2016-06-13T11:36:21Z</time>
      </trkpt>
      <trkpt lat="43.75404" lon="5.22695">
        <ele>196.73</ele>
        <time>2016-06-13T11:36:22Z</time>
      </trkpt>
      <trkpt lat="43.75443" lon="5.22816">
        <ele>198.65</ele>
        <time>2016-06-13T11:36:26Z</time>
      </trkpt>
      <trkpt lat="43.755" lon="5.23071">
        <ele>197.21</ele>
        <time>2016-06-13T11:36:34Z</time>
      </trkpt>
      <trkpt lat="43.75516" lon="5.23275">
        <ele>195.77</ele>
        <time>2016-06-13T11:36:40Z</time>
      </trkpt>
      <trkpt lat="43.75506" lon="5.2348">
        <ele>200.09</ele>
        <time>2016-06-13T11:36:46Z</time>
      </trkpt>
      <trkpt lat="43.75502" lon="5.23514">
        <ele>200.09</ele>
        <time>2016-06-13T11:36:47Z</time>
      </trkpt>
      <trkpt lat="43.75463" lon="5.23781">
        <ele>197.21</ele>
        <time>2016-06-13T11:36:55Z</time>
      </trkpt>
      <trkpt lat="43.75459" lon="5.23815">
        <ele>198.17</ele>
        <time>2016-06-13T11:36:56Z</time>
      </trkpt>
      <trkpt lat="43.75424" lon="5.24085">
        <ele>201.05</ele>
        <time>2016-06-13T11:37:04Z</time>
      </trkpt>
      <trkpt lat="43.75412" lon="5.24187">
        <ele>199.61</ele>
        <time>2016-06-13T11:37:07Z</time>
      </trkpt>
      <trkpt lat="43.75392" lon="5.24358">
        <ele>202.01</ele>
        <time>2016-06-13T11:37:12Z</time>
      </trkpt>
      <trkpt lat="43.75372" lon="5.24531">
        <ele>200.57</ele>
        <time>2016-06-13T11:37:17Z</time>
      </trkpt>
      <trkpt lat="43.7533" lon="5.24848">
        <ele>199.13</ele>
        <time>2016-06-13T11:37:26Z</time>
      </trkpt>
      <trkpt lat="43.75299" lon="5.25102">
        <ele>197.69</ele>
        <time>2016-06-13T11:37:33Z</time>
      </trkpt>
      <trkpt lat="43.75281" lon="5.25246">
        <ele>203.46</ele>
        <time>2016-06-13T11:37:37Z</time>
      </trkpt>
      <trkpt lat="43.75277" lon="5.25282">
        <ele>201.53</ele>
        <time>2016-06-13T11:37:38Z</time>
      </trkpt>
      <trkpt lat="43.75264" lon="5.25389">
        <ele>199.13</ele>
        <time>2016-06-13T11:37:41Z</time>
      </trkpt>
      <trkpt lat="43.75196" lon="5.25955">
        <ele>200.57</ele>
        <time>2016-06-13T11:37:57Z</time>
      </trkpt>
      <trkpt lat="43.75136" lon="5.26422">
        <ele>202.49</ele>
        <time>2016-06-13T11:38:10Z</time>
      </trkpt>
      <trkpt lat="43.75117" lon="5.26611">
        <ele>199.61</ele>
        <time>2016-06-13T11:38:16Z</time>
      </trkpt>
      <trkpt lat="43.75116" lon="5.26709">
        <ele>197.21</ele>
        <time>2016-06-13T11:38:20Z</time>
      </trkpt>
      <trkpt lat="43.75115" lon="5.2673">
        <ele>197.69</ele>
        <time>2016-06-13T11:38:21Z</time>
      </trkpt>
      <trkpt lat="43.75093" lon="5.26857">
        <ele>197.69</ele>
        <time>2016-06-13T11:38:27Z</time>
      </trkpt>
      <trkpt lat="43.75078" lon="5.26903">
        <ele>197.69</ele>
        <time>2016-06-13T11:38:29Z</time>
      </trkpt>
      <trkpt lat="43.7506" lon="5.27014">
        <ele>201.53</ele>
        <time>2016-06-13T11:38:33Z</time>
      </trkpt>
      <trkpt lat="43.75052" lon="5.27073">
        <ele>200.57</ele>
        <time>2016-06-13T11:38:35Z</time>
      </trkpt>
      <trkpt lat="43.75044" lon="5.27137">
        <ele>203.94</ele>
        <time>2016-06-13T11:38:37Z</time>
      </trkpt>
      <trkpt lat="43.75023" lon="5.27304">
        <ele>206.82</ele>
        <time>2016-06-13T11:38:42Z</time>
      </trkpt>
      <trkpt lat="43.74952" lon="5.27884">
        <ele>210.67</ele>
        <time>2016-06-13T11:38:59Z</time>
      </trkpt>
      <trkpt lat="43.74922" lon="5.28118">
        <ele>207.3</ele>
        <time>2016-06-13T11:39:06Z</time>
      </trkpt>
      <trkpt lat="43.74903" lon="5.28283">
        <ele>207.3</ele>
        <time>2016-06-13T11:39:11Z</time>
      </trkpt>
      <trkpt lat="43.74831" lon="5.28853">
        <ele>211.15</ele>
        <time>2016-06-13T11:39:28Z</time>
      </trkpt>
      <trkpt lat="43.74818" lon="5.28956">
        <ele>212.11</ele>
        <time>2016-06-13T11:39:31Z</time>
      </trkpt>
      <trkpt lat="43.74768" lon="5.29365">
        <ele>208.26</ele>
        <time>2016-06-13T11:39:43Z</time>
      </trkpt>
      <trkpt lat="43.74736" lon="5.29643">
        <ele>211.63</ele>
        <time>2016-06-13T11:39:51Z</time>
      </trkpt>
      <trkpt lat="43.74743" lon="5.29898">
        <ele>214.99</ele>
        <time>2016-06-13T11:39:58Z</time>
      </trkpt>
      <trkpt lat="43.74742" lon="5.30003">
        <ele>210.19</ele>
        <time>2016-06-13T11:40:01Z</time>
      </trkpt>
      <trkpt lat="43.74731" lon="5.30101">
        <ele>206.34</ele>
        <time>2016-06-13T11:40:04Z</time>
      </trkpt>
      <trkpt lat="43.74725" lon="5.30134">
        <ele>206.82</ele>
        <time>2016-06-13T11:40:05Z</time>
      </trkpt>
      <trkpt lat="43.74705" lon="5.30237">
        <ele>209.22</ele>
        <time>2016-06-13T11:40:08Z</time>
      </trkpt>
      <trkpt lat="43.74637" lon="5.30528">
        <ele>207.3</ele>
        <time>2016-06-13T11:40:17Z</time>
      </trkpt>
      <trkpt lat="43.7462" lon="5.306">
        <ele>203.94</ele>
        <time>2016-06-13T11:40:20Z</time>
      </trkpt>
      <trkpt lat="43.74615" lon="5.3062">
        <ele>204.42</ele>
        <time>2016-06-13T11:40:21Z</time>
      </trkpt>
      <trkpt lat="43.7461" lon="5.30638">
        <ele>204.9</ele>
        <time>2016-06-13T11:40:22Z</time>
      </trkpt>
      <trkpt lat="43.74575" lon="5.30671">
        <ele>204.42</ele>
        <time>2016-06-13T11:40:27Z</time>
      </trkpt>
      <trkpt lat="43.74542" lon="5.30683">
        <ele>203.46</ele>
        <time>2016-06-13T11:40:31Z</time>
      </trkpt>
      <trkpt lat="43.74538" lon="5.30696">
        <ele>203.94</ele>
        <time>2016-06-13T11:40:32Z</time>
      </trkpt>
      <trkpt lat="43.74478" lon="5.309">
        <ele>206.82</ele>
        <time>2016-06-13T11:40:43Z</time>
      </trkpt>
      <trkpt lat="43.74415" lon="5.31159">
        <ele>209.7</ele>
        <time>2016-06-13T11:40:52Z</time>
      </trkpt>
      <trkpt lat="43.74407" lon="5.3119">
        <ele>209.22</ele>
        <time>2016-06-13T11:40:53Z</time>
      </trkpt>
      <trkpt lat="43.74324" lon="5.31531">
        <ele>210.67</ele>
        <time>2016-06-13T11:41:04Z</time>
      </trkpt>
      <trkpt lat="43.74256" lon="5.31801">
        <ele>214.51</ele>
        <time>2016-06-13T11:41:13Z</time>
      </trkpt>
      <trkpt lat="43.74208" lon="5.31999">
        <ele>218.36</ele>
        <time>2016-06-13T11:41:19Z</time>
      </trkpt>
      <trkpt lat="43.74125" lon="5.32331">
        <ele>218.36</ele>
        <time>2016-06-13T11:41:28Z</time>
      </trkpt>
      <trkpt lat="43.74074" lon="5.32536">
        <ele>216.43</ele>
        <time>2016-06-13T11:41:34Z</time>
      </trkpt>
      <trkpt lat="43.74057" lon="5.32604">
        <ele>217.88</ele>
        <time>2016-06-13T11:41:36Z</time>
      </trkpt>
      <trkpt lat="43.74041" lon="5.32672">
        <ele>221.24</ele>
        <time>2016-06-13T11:41:38Z</time>
      </trkpt>
      <trkpt lat="43.74032" lon="5.32706">
        <ele>221.24</ele>
        <time>2016-06-13T11:41:39Z</time>
      </trkpt>
      <trkpt lat="43.73939" lon="5.33086">
        <ele>224.61</ele>
        <time>2016-06-13T11:41:50Z</time>
      </trkpt>
      <trkpt lat="43.73837" lon="5.33503">
        <ele>223.64</ele>
        <time>2016-06-13T11:42:02Z</time>
      </trkpt>
      <trkpt lat="43.73817" lon="5.33724">
        <ele>221.24</ele>
        <time>2016-06-13T11:42:08Z</time>
      </trkpt>
      <trkpt lat="43.73803" lon="5.33835">
        <ele>225.57</ele>
        <time>2016-06-13T11:42:11Z</time>
      </trkpt>
      <trkpt lat="43.73795" lon="5.3387">
        <ele>225.57</ele>
        <time>2016-06-13T11:42:12Z</time>
      </trkpt>
      <trkpt lat="43.73746" lon="5.33999">
        <ele>229.41</ele>
        <time>2016-06-13T11:42:16Z</time>
      </trkpt>
      <trkpt lat="43.73696" lon="5.3408">
        <ele>232.78</ele>
        <time>2016-06-13T11:42:19Z</time>
      </trkpt>
      <trkpt lat="43.7357" lon="5.34268">
        <ele>231.81</ele>
        <time>2016-06-13T11:42:26Z</time>
      </trkpt>
      <trkpt lat="43.73527" lon="5.34404">
        <ele>228.45</ele>
        <time>2016-06-13T11:42:30Z</time>
      </trkpt>
      <trkpt lat="43.73516" lon="5.34472">
        <ele>224.12</ele>
        <time>2016-06-13T11:42:32Z</time>
      </trkpt>
      <trkpt lat="43.73514" lon="5.34506">
        <ele>225.09</ele>
        <time>2016-06-13T11:42:33Z</time>
      </trkpt>
      <trkpt lat="43.73494" lon="5.34739">
        <ele>224.61</ele>
        <time>2016-06-13T11:42:40Z</time>
      </trkpt>
      <trkpt lat="43.73479" lon="5.34804">
        <ele>223.64</ele>
        <time>2016-06-13T11:42:42Z</time>
      </trkpt>
      <trkpt lat="43.734" lon="5.3512">
        <ele>220.28</ele>
        <time>2016-06-13T11:42:52Z</time>
      </trkpt>
      <trkpt lat="43.73368" lon="5.35248">
        <ele>224.61</ele>
        <time>2016-06-13T11:42:56Z</time>
      </trkpt>
      <trkpt lat="43.73352" lon="5.35314">
        <ele>221.24</ele>
        <time>2016-06-13T11:42:58Z</time>
      </trkpt>
      <trkpt lat="43.73344" lon="5.35348">
        <ele>221.24</ele>
        <time>2016-06-13T11:42:59Z</time>
      </trkpt>
      <trkpt lat="43.73327" lon="5.35418">
        <ele>226.05</ele>
        <time>2016-06-13T11:43:01Z</time>
      </trkpt>
      <trkpt lat="43.73319" lon="5.35454">
        <ele>225.57</ele>
        <time>2016-06-13T11:43:02Z</time>
      </trkpt>
      <trkpt lat="43.73281" lon="5.35603">
        <ele>224.61</ele>
        <time>2016-06-13T11:43:06Z</time>
      </trkpt>
      <trkpt lat="43.73262" lon="5.3568">
        <ele>227.49</ele>
        <time>2016-06-13T11:43:08Z</time>
      </trkpt>
      <trkpt lat="43.73252" lon="5.35718">
        <ele>224.12</ele>
        <time>2016-06-13T11:43:09Z</time>
      </trkpt>
      <trkpt lat="43.73234" lon="5.35792">
        <ele>228.45</ele>
        <time>2016-06-13T11:43:11Z</time>
      </trkpt>
      <trkpt lat="43.73217" lon="5.35863">
        <ele>224.12</ele>
        <time>2016-06-13T11:43:13Z</time>
      </trkpt>
      <trkpt lat="43.73174" lon="5.36034">
        <ele>225.09</ele>
        <time>2016-06-13T11:43:18Z</time>
      </trkpt>
      <trkpt lat="43.73157" lon="5.36101">
        <ele>228.45</ele>
        <time>2016-06-13T11:43:20Z</time>
      </trkpt>
      <trkpt lat="43.73133" lon="5.362">
        <ele>226.05</ele>
        <time>2016-06-13T11:43:23Z</time>
      </trkpt>
      <trkpt lat="43.7309" lon="5.3637">
        <ele>228.93</ele>
        <time>2016-06-13T11:43:28Z</time>
      </trkpt>
      <trkpt lat="43.72935" lon="5.36995">
        <ele>227.01</ele>
        <time>2016-06-13T11:43:47Z</time>
      </trkpt>
      <trkpt lat="43.72897" lon="5.3712">
        <ele>224.12</ele>
        <time>2016-06-13T11:43:52Z</time>
      </trkpt>
      <trkpt lat="43.72869" lon="5.372">
        <ele>224.12</ele>
        <time>2016-06-13T11:43:56Z</time>
      </trkpt>
      <trkpt lat="43.72841" lon="5.37272">
        <ele>221.72</ele>
        <time>2016-06-13T11:44:02Z</time>
      </trkpt>
      <trkpt lat="43.72811" lon="5.37314">
        <ele>222.2</ele>
        <time>2016-06-13T11:44:09Z</time>
      </trkpt>
      <trkpt lat="43.72822" lon="5.37377">
        <ele>222.2</ele>
        <time>2016-06-13T11:44:14Z</time>
      </trkpt>
      <trkpt lat="43.7282" lon="5.37393">
        <ele>224.12</ele>
        <time>2016-06-13T11:44:15Z</time>
      </trkpt>
      <trkpt lat="43.72798" lon="5.37537">
        <ele>226.05</ele>
        <time>2016-06-13T11:44:22Z</time>
      </trkpt>
      <trkpt lat="43.72768" lon="5.37665">
        <ele>227.97</ele>
        <time>2016-06-13T11:44:27Z</time>
      </trkpt>
      <trkpt lat="43.72741" lon="5.37745">
        <ele>231.33</ele>
        <time>2016-06-13T11:44:30Z</time>
      </trkpt>
      <trkpt lat="43.72731" lon="5.37772">
        <ele>230.37</ele>
        <time>2016-06-13T11:44:31Z</time>
      </trkpt>
      <trkpt lat="43.72692" lon="5.37878">
        <ele>233.26</ele>
        <time>2016-06-13T11:44:35Z</time>
      </trkpt>
      <trkpt lat="43.72683" lon="5.37903">
        <ele>232.78</ele>
        <time>2016-06-13T11:44:36Z</time>
      </trkpt>
      <trkpt lat="43.7265" lon="5.38031">
        <ele>238.06</ele>
        <time>2016-06-13T11:44:41Z</time>
      </trkpt>
      <trkpt lat="43.72645" lon="5.38057">
        <ele>238.06</ele>
        <time>2016-06-13T11:44:42Z</time>
      </trkpt>
      <trkpt lat="43.72619" lon="5.38197">
        <ele>239.51</ele>
        <time>2016-06-13T11:44:47Z</time>
      </trkpt>
      <trkpt lat="43.72611" lon="5.38226">
        <ele>239.02</ele>
        <time>2016-06-13T11:44:48Z</time>
      </trkpt>
      <trkpt lat="43.7259" lon="5.38281">
        <ele>238.06</ele>
        <time>2016-06-13T11:44:50Z</time>
      </trkpt>
      <trkpt lat="43.72506" lon="5.38388">
        <ele>239.51</ele>
        <time>2016-06-13T11:44:55Z</time>
      </trkpt>
      <trkpt lat="43.72462" lon="5.38413">
        <ele>238.06</ele>
        <time>2016-06-13T11:44:57Z</time>
      </trkpt>
      <trkpt lat="43.72418" lon="5.38433">
        <ele>235.66</ele>
        <time>2016-06-13T11:44:59Z</time>
      </trkpt>
      <trkpt lat="43.72277" lon="5.38541">
        <ele>237.58</ele>
        <time>2016-06-13T11:45:06Z</time>
      </trkpt>
      <trkpt lat="43.72204" lon="5.38669">
        <ele>234.7</ele>
        <time>2016-06-13T11:45:11Z</time>
      </trkpt>
      <trkpt lat="43.72183" lon="5.38727">
        <ele>232.78</ele>
        <time>2016-06-13T11:45:13Z</time>
      </trkpt>
      <trkpt lat="43.72155" lon="5.38806">
        <ele>230.85</ele>
        <time>2016-06-13T11:45:16Z</time>
      </trkpt>
      <trkpt lat="43.7214" lon="5.3885">
        <ele>228.93</ele>
        <time>2016-06-13T11:45:18Z</time>
      </trkpt>
      <trkpt lat="43.72103" lon="5.3896">
        <ele>227.01</ele>
        <time>2016-06-13T11:45:24Z</time>
      </trkpt>
      <trkpt lat="43.72064" lon="5.39071">
        <ele>227.01</ele>
        <time>2016-06-13T11:45:33Z</time>
      </trkpt>
      <trkpt lat="43.72034" lon="5.39156">
        <ele>226.53</ele>
        <time>2016-06-13T11:45:45Z</time>
      </trkpt>
      <trkpt lat="43.72023" lon="5.39192">
        <ele>227.01</ele>
        <time>2016-06-13T11:45:52Z</time>
      </trkpt>
      <trkpt lat="43.72037" lon="5.39229">
        <ele>227.97</ele>
        <time>2016-06-13T11:45:58Z</time>
      </trkpt>
      <trkpt lat="43.72079" lon="5.39245">
        <ele>229.89</ele>
        <time>2016-06-13T11:46:06Z</time>
      </trkpt>
      <trkpt lat="43.72159" lon="5.39276">
        <ele>230.85</ele>
        <time>2016-06-13T11:46:16Z</time>
      </trkpt>
      <trkpt lat="43.72224" lon="5.39314">
        <ele>231.81</ele>
        <time>2016-06-13T11:46:25Z</time>
      </trkpt>
      <trkpt lat="43.72233" lon="5.39364">
        <ele>234.7</ele>
        <time>2016-06-13T11:46:31Z</time>
      </trkpt>
      <trkpt lat="43.72227" lon="5.39375">
        <ele>234.7</ele>
        <time>2016-06-13T11:46:32Z</time>
      </trkpt>
      <trkpt lat="43.72175" lon="5.39446">
        <ele>239.02</ele>
        <time>2016-06-13T11:46:38Z</time>
      </trkpt>
      <trkpt lat="43.72099" lon="5.39595">
        <ele>239.51</ele>
        <time>2016-06-13T11:46:46Z</time>
      </trkpt>
      <trkpt lat="43.72058" lon="5.39763">
        <ele>235.66</ele>
        <time>2016-06-13T11:46:53Z</time>
      </trkpt>
      <trkpt lat="43.72054" lon="5.39786">
        <ele>236.14</ele>
        <time>2016-06-13T11:46:54Z</time>
      </trkpt>
      <trkpt lat="43.72043" lon="5.39856">
        <ele>234.7</ele>
        <time>2016-06-13T11:46:57Z</time>
      </trkpt>
      <trkpt lat="43.72008" lon="5.40102">
        <ele>233.74</ele>
        <time>2016-06-13T11:47:09Z</time>
      </trkpt>
      <trkpt lat="43.71975" lon="5.40325">
        <ele>235.18</ele>
        <time>2016-06-13T11:47:19Z</time>
      </trkpt>
      <trkpt lat="43.71927" lon="5.40637">
        <ele>237.1</ele>
        <time>2016-06-13T11:47:32Z</time>
      </trkpt>
      <trkpt lat="43.71867" lon="5.41034">
        <ele>238.54</ele>
        <time>2016-06-13T11:47:48Z</time>
      </trkpt>
      <trkpt lat="43.71801" lon="5.41472">
        <ele>239.99</ele>
        <time>2016-06-13T11:48:06Z</time>
      </trkpt>
      <trkpt lat="43.71797" lon="5.41495">
        <ele>239.51</ele>
        <time>2016-06-13T11:48:07Z</time>
      </trkpt>
      <trkpt lat="43.71782" lon="5.41594">
        <ele>243.83</ele>
        <time>2016-06-13T11:48:11Z</time>
      </trkpt>
      <trkpt lat="43.71774" lon="5.41647">
        <ele>244.79</ele>
        <time>2016-06-13T11:48:13Z</time>
      </trkpt>
      <trkpt lat="43.71733" lon="5.41914">
        <ele>243.35</ele>
        <time>2016-06-13T11:48:24Z</time>
      </trkpt>
      <trkpt lat="43.71728" lon="5.41933">
        <ele>244.31</ele>
        <time>2016-06-13T11:48:25Z</time>
      </trkpt>
      <trkpt lat="43.7168" lon="5.42013">
        <ele>246.72</ele>
        <time>2016-06-13T11:48:30Z</time>
      </trkpt>
      <trkpt lat="43.71563" lon="5.42165">
        <ele>245.75</ele>
        <time>2016-06-13T11:48:41Z</time>
      </trkpt>
      <trkpt lat="43.71543" lon="5.42189">
        <ele>243.35</ele>
        <time>2016-06-13T11:48:43Z</time>
      </trkpt>
      <trkpt lat="43.71523" lon="5.42207">
        <ele>242.39</ele>
        <time>2016-06-13T11:48:45Z</time>
      </trkpt>
      <trkpt lat="43.71486" lon="5.42207">
        <ele>243.83</ele>
        <time>2016-06-13T11:48:48Z</time>
      </trkpt>
      <trkpt lat="43.7146" lon="5.4219">
        <ele>243.83</ele>
        <time>2016-06-13T11:48:50Z</time>
      </trkpt>
      <trkpt lat="43.71278" lon="5.42048">
        <ele>243.83</ele>
        <time>2016-06-13T11:49:04Z</time>
      </trkpt>
      <trkpt lat="43.7124" lon="5.42015">
        <ele>242.87</ele>
        <time>2016-06-13T11:49:07Z</time>
      </trkpt>
      <trkpt lat="43.71185" lon="5.42">
        <ele>242.39</ele>
        <time>2016-06-13T11:49:12Z</time>
      </trkpt>
      <trkpt lat="43.7116" lon="5.41999">
        <ele>240.95</ele>
        <time>2016-06-13T11:49:15Z</time>
      </trkpt>
      <trkpt lat="43.71117" lon="5.41988">
        <ele>240.95</ele>
        <time>2016-06-13T11:49:20Z</time>
      </trkpt>
      <trkpt lat="43.71075" lon="5.42025">
        <ele>238.54</ele>
        <time>2016-06-13T11:49:25Z</time>
      </trkpt>
      <trkpt lat="43.71069" lon="5.42042">
        <ele>239.02</ele>
        <time>2016-06-13T11:49:26Z</time>
      </trkpt>
      <trkpt lat="43.71006" lon="5.42224">
        <ele>242.87</ele>
        <time>2016-06-13T11:49:35Z</time>
      </trkpt>
      <trkpt lat="43.70908" lon="5.42512">
        <ele>240.95</ele>
        <time>2016-06-13T11:49:47Z</time>
      </trkpt>
      <trkpt lat="43.70878" lon="5.42599">
        <ele>239.51</ele>
        <time>2016-06-13T11:49:51Z</time>
      </trkpt>
      <trkpt lat="43.70806" lon="5.42811">
        <ele>242.39</ele>
        <time>2016-06-13T11:50:01Z</time>
      </trkpt>
      <trkpt lat="43.70799" lon="5.42832">
        <ele>241.91</ele>
        <time>2016-06-13T11:50:02Z</time>
      </trkpt>
      <trkpt lat="43.70776" lon="5.42934">
        <ele>240.47</ele>
        <time>2016-06-13T11:50:07Z</time>
      </trkpt>
      <trkpt lat="43.70765" lon="5.4303">
        <ele>239.99</ele>
        <time>2016-06-13T11:50:13Z</time>
      </trkpt>
      <trkpt lat="43.70736" lon="5.43061">
        <ele>241.43</ele>
        <time>2016-06-13T11:50:20Z</time>
      </trkpt>
      <trkpt lat="43.70709" lon="5.43088">
        <ele>239.02</ele>
        <time>2016-06-13T11:50:25Z</time>
      </trkpt>
      <trkpt lat="43.70715" lon="5.43106">
        <ele>239.99</ele>
        <time>2016-06-13T11:50:27Z</time>
      </trkpt>
      <trkpt lat="43.70734" lon="5.43162">
        <ele>239.99</ele>
        <time>2016-06-13T11:50:32Z</time>
      </trkpt>
      <trkpt lat="43.70722" lon="5.43185">
        <ele>240.47</ele>
        <time>2016-06-13T11:50:34Z</time>
      </trkpt>
      <trkpt lat="43.7066" lon="5.43258">
        <ele>241.43</ele>
        <time>2016-06-13T11:50:40Z</time>
      </trkpt>
      <trkpt lat="43.7058" lon="5.43432">
        <ele>241.91</ele>
        <time>2016-06-13T11:50:49Z</time>
      </trkpt>
      <trkpt lat="43.70479" lon="5.43679">
        <ele>246.23</ele>
        <time>2016-06-13T11:51:00Z</time>
      </trkpt>
      <trkpt lat="43.70461" lon="5.43728">
        <ele>247.2</ele>
        <time>2016-06-13T11:51:02Z</time>
      </trkpt>
      <trkpt lat="43.70359" lon="5.43991">
        <ele>244.31</ele>
        <time>2016-06-13T11:51:14Z</time>
      </trkpt>
      <trkpt lat="43.70332" lon="5.44058">
        <ele>246.72</ele>
        <time>2016-06-13T11:51:17Z</time>
      </trkpt>
      <trkpt lat="43.70261" lon="5.44239">
        <ele>245.75</ele>
        <time>2016-06-13T11:51:25Z</time>
      </trkpt>
      <trkpt lat="43.70263" lon="5.44375">
        <ele>249.12</ele>
        <time>2016-06-13T11:51:31Z</time>
      </trkpt>
      <trkpt lat="43.70295" lon="5.44425">
        <ele>247.68</ele>
        <time>2016-06-13T11:51:34Z</time>
      </trkpt>
      <trkpt lat="43.70438" lon="5.44563">
        <ele>246.72</ele>
        <time>2016-06-13T11:51:47Z</time>
      </trkpt>
      <trkpt lat="43.70462" lon="5.44612">
        <ele>243.83</ele>
        <time>2016-06-13T11:51:52Z</time>
      </trkpt>
      <trkpt lat="43.70447" lon="5.44665">
        <ele>243.83</ele>
        <time>2016-06-13T11:51:56Z</time>
      </trkpt>
      <trkpt lat="43.70355" lon="5.44847">
        <ele>245.75</ele>
        <time>2016-06-13T11:52:06Z</time>
      </trkpt>
      <trkpt lat="43.70293" lon="5.44971">
        <ele>248.64</ele>
        <time>2016-06-13T11:52:12Z</time>
      </trkpt>
      <trkpt lat="43.70229" lon="5.45099">
        <ele>250.56</ele>
        <time>2016-06-13T11:52:18Z</time>
      </trkpt>
      <trkpt lat="43.70127" lon="5.45307">
        <ele>253.93</ele>
        <time>2016-06-13T11:52:28Z</time>
      </trkpt>
      <trkpt lat="43.70085" lon="5.45457">
        <ele>254.89</ele>
        <time>2016-06-13T11:52:35Z</time>
      </trkpt>
      <trkpt lat="43.70075" lon="5.45496">
        <ele>255.85</ele>
        <time>2016-06-13T11:52:37Z</time>
      </trkpt>
      <trkpt lat="43.70055" lon="5.45579">
        <ele>258.73</ele>
        <time>2016-06-13T11:52:41Z</time>
      </trkpt>
      <trkpt lat="43.70058" lon="5.45754">
        <ele>264.02</ele>
        <time>2016-06-13T11:52:48Z</time>
      </trkpt>
      <trkpt lat="43.70068" lon="5.45995">
        <ele>266.42</ele>
        <time>2016-06-13T11:52:58Z</time>
      </trkpt>
      <trkpt lat="43.70051" lon="5.46087">
        <ele>270.75</ele>
        <time>2016-06-13T11:53:02Z</time>
      </trkpt>
      <trkpt lat="43.70042" lon="5.46108">
        <ele>269.79</ele>
        <time>2016-06-13T11:53:03Z</time>
      </trkpt>
      <trkpt lat="43.70024" lon="5.46148">
        <ele>272.67</ele>
        <time>2016-06-13T11:53:05Z</time>
      </trkpt>
      <trkpt lat="43.69979" lon="5.46252">
        <ele>276.04</ele>
        <time>2016-06-13T11:53:10Z</time>
      </trkpt>
      <trkpt lat="43.69969" lon="5.46273">
        <ele>275.56</ele>
        <time>2016-06-13T11:53:11Z</time>
      </trkpt>
      <trkpt lat="43.69864" lon="5.46522">
        <ele>275.07</ele>
        <time>2016-06-13T11:53:23Z</time>
      </trkpt>
      <trkpt lat="43.69845" lon="5.46643">
        <ele>271.23</ele>
        <time>2016-06-13T11:53:28Z</time>
      </trkpt>
      <trkpt lat="43.69843" lon="5.46667">
        <ele>271.23</ele>
        <time>2016-06-13T11:53:29Z</time>
      </trkpt>
      <trkpt lat="43.69836" lon="5.46794">
        <ele>270.27</ele>
        <time>2016-06-13T11:53:34Z</time>
      </trkpt>
      <trkpt lat="43.69836" lon="5.46865">
        <ele>268.35</ele>
        <time>2016-06-13T11:53:37Z</time>
      </trkpt>
      <trkpt lat="43.69845" lon="5.47151">
        <ele>270.27</ele>
        <time>2016-06-13T11:53:49Z</time>
      </trkpt>
      <trkpt lat="43.69839" lon="5.47246">
        <ele>272.19</ele>
        <time>2016-06-13T11:53:53Z</time>
      </trkpt>
      <trkpt lat="43.69806" lon="5.47375">
        <ele>274.11</ele>
        <time>2016-06-13T11:53:59Z</time>
      </trkpt>
      <trkpt lat="43.69797" lon="5.47478">
        <ele>275.07</ele>
        <time>2016-06-13T11:54:04Z</time>
      </trkpt>
      <trkpt lat="43.69813" lon="5.47644">
        <ele>277</ele>
        <time>2016-06-13T11:54:14Z</time>
      </trkpt>
      <trkpt lat="43.69817" lon="5.47683">
        <ele>277.96</ele>
        <time>2016-06-13T11:54:18Z</time>
      </trkpt>
      <trkpt lat="43.69814" lon="5.47708">
        <ele>277.48</ele>
        <time>2016-06-13T11:54:22Z</time>
      </trkpt>
      <trkpt lat="43.69806" lon="5.47745">
        <ele>276.52</ele>
        <time>2016-06-13T11:54:27Z</time>
      </trkpt>
      <trkpt lat="43.69802" lon="5.47831">
        <ele>278.44</ele>
        <time>2016-06-13T11:54:34Z</time>
      </trkpt>
      <trkpt lat="43.69799" lon="5.47844">
        <ele>278.44</ele>
        <time>2016-06-13T11:54:35Z</time>
      </trkpt>
      <trkpt lat="43.69769" lon="5.47932">
        <ele>277.48</ele>
        <time>2016-06-13T11:54:42Z</time>
      </trkpt>
      <trkpt lat="43.69731" lon="5.48046">
        <ele>274.11</ele>
        <time>2016-06-13T11:54:51Z</time>
      </trkpt>
      <trkpt lat="43.69708" lon="5.48116">
        <ele>273.15</ele>
        <time>2016-06-13T11:54:56Z</time>
      </trkpt>
      <trkpt lat="43.69657" lon="5.48266">
        <ele>271.71</ele>
        <time>2016-06-13T11:55:06Z</time>
      </trkpt>
      <trkpt lat="43.69607" lon="5.48378">
        <ele>272.19</ele>
        <time>2016-06-13T11:55:15Z</time>
      </trkpt>
      <trkpt lat="43.69546" lon="5.48531">
        <ele>271.23</ele>
        <time>2016-06-13T11:55:28Z</time>
      </trkpt>
      <trkpt lat="43.6953" lon="5.48588">
        <ele>270.27</ele>
        <time>2016-06-13T11:55:34Z</time>
      </trkpt>
      <trkpt lat="43.69522" lon="5.48604">
        <ele>271.23</ele>
        <time>2016-06-13T11:55:36Z</time>
      </trkpt>
      <trkpt lat="43.6951" lon="5.48657">
        <ele>272.19</ele>
        <time>2016-06-13T11:55:41Z</time>
      </trkpt>
      <trkpt lat="43.69471" lon="5.48804">
        <ele>271.71</ele>
        <time>2016-06-13T11:55:55Z</time>
      </trkpt>
      <trkpt lat="43.69444" lon="5.48906">
        <ele>269.79</ele>
        <time>2016-06-13T11:56:07Z</time>
      </trkpt>
      <trkpt lat="43.69434" lon="5.48929">
        <ele>268.83</ele>
        <time>2016-06-13T11:56:16Z</time>
      </trkpt>
      <trkpt lat="43.69429" lon="5.48935">
        <ele>266.9</ele>
        <time>2016-06-13T11:56:23Z</time>
      </trkpt>
      <trkpt lat="43.69419" lon="5.48943">
        <ele>267.38</ele>
        <time>2016-06-13T11:56:25Z</time>
      </trkpt>
      <trkpt lat="43.69418" lon="5.4898">
        <ele>266.9</ele>
        <time>2016-06-13T11:56:30Z</time>
      </trkpt>
      <trkpt lat="43.69438" lon="5.48979">
        <ele>267.86</ele>
        <time>2016-06-13T11:56:33Z</time>
      </trkpt>
      <trkpt lat="43.69464" lon="5.48998">
        <ele>267.86</ele>
        <time>2016-06-13T11:56:39Z</time>
      </trkpt>
      <trkpt lat="43.69457" lon="5.49025">
        <ele>265.46</ele>
        <time>2016-06-13T11:56:44Z</time>
      </trkpt>
      <trkpt lat="43.69429" lon="5.49064">
        <ele>266.42</ele>
        <time>2016-06-13T11:56:55Z</time>
      </trkpt>
      <trkpt lat="43.69425" lon="5.49073">
        <ele>265.46</ele>
        <time>2016-06-13T11:57:04Z</time>
      </trkpt>
      <trkpt lat="43.69425" lon="5.49073">
        <ele>264.02</ele>
        <time>2016-06-13T11:58:12Z</time>
      </trkpt>
      <trkpt lat="43.69424" lon="5.49072">
        <ele>263.54</ele>
        <time>2016-06-13T11:59:53Z</time>
      </trkpt>
      <trkpt lat="43.69424" lon="5.49072">
        <ele>266.9</ele>
        <time>2016-06-13T12:00:05Z</time>
      </trkpt>
      <trkpt lat="43.69424" lon="5.49072">
        <ele>266.42</ele>
        <time>2016-06-13T12:00:15Z</time>
      </trkpt>
      <trkpt lat="43.69425" lon="5.49073">
        <ele>264.5</ele>
        <time>2016-06-13T12:00:39Z</time>
      </trkpt>
      <trkpt lat="43.69424" lon="5.49073">
        <ele>266.42</ele>
        <time>2016-06-13T12:01:00Z</time>
      </trkpt>
      <trkpt lat="43.69424" lon="5.49073">
        <ele>263.06</ele>
        <time>2016-06-13T12:01:23Z</time>
      </trkpt>
      <trkpt lat="43.69424" lon="5.49073">
        <ele>266.42</ele>
        <time>2016-06-13T12:01:35Z</time>
      </trkpt>
      <trkpt lat="43.69424" lon="5.49073">
        <ele>265.94</ele>
        <time>2016-06-13T12:01:36Z</time>
      </trkpt>
      <trkpt lat="43.69424" lon="5.49073">
        <ele>264.02</ele>
        <time>2016-06-13T12:01:40Z</time>
      </trkpt>
      <trkpt lat="43.69424" lon="5.49073">
        <ele>265.94</ele>
        <time>2016-06-13T12:01:48Z</time>
      </trkpt>
      <trkpt lat="43.69425" lon="5.49073">
        <ele>265.46</ele>
        <time>2016-06-13T12:02:28Z</time>
      </trkpt>
      <trkpt lat="43.69425" lon="5.49073">
        <ele>266.42</ele>
        <time>2016-06-13T12:02:44Z</time>
      </trkpt>
      <trkpt lat="43.69425" lon="5.49073">
        <ele>263.54</ele>
        <time>2016-06-13T12:02:57Z</time>
      </trkpt>
      <trkpt lat="43.69425" lon="5.49073">
        <ele>264.02</ele>
        <time>2016-06-13T12:02:58Z</time>
      </trkpt>
      <trkpt lat="43.69425" lon="5.49072">
        <ele>265.94</ele>
        <time>2016-06-13T12:03:03Z</time>
      </trkpt>
      <trkpt lat="43.69425" lon="5.49072">
        <ele>264.98</ele>
        <time>2016-06-13T12:03:05Z</time>
      </trkpt>
      <trkpt lat="43.69423" lon="5.49072">
        <ele>264.98</ele>
        <time>2016-06-13T12:03:39Z</time>
      </trkpt>
      <trkpt lat="43.69423" lon="5.49072">
        <ele>264.98</ele>
        <time>2016-06-13T12:05:17Z</time>
      </trkpt>
      <trkpt lat="43.69423" lon="5.49072">
        <ele>266.42</ele>
        <time>2016-06-13T12:05:38Z</time>
      </trkpt>
      <trkpt lat="43.69424" lon="5.49072">
        <ele>265.46</ele>
        <time>2016-06-13T12:06:31Z</time>
      </trkpt>
      <trkpt lat="43.69424" lon="5.49072">
        <ele>265.46</ele>
        <time>2016-06-13T12:06:45Z</time>
      </trkpt>
      <trkpt lat="43.69424" lon="5.49072">
        <ele>264.98</ele>
        <time>2016-06-13T12:06:55Z</time>
      </trkpt>
      <trkpt lat="43.69424" lon="5.49072">
        <ele>265.94</ele>
        <time>2016-06-13T12:07:01Z</time>
      </trkpt>
      <trkpt lat="43.69424" lon="5.49072">
        <ele>264.5</ele>
        <time>2016-06-13T12:07:25Z</time>
      </trkpt>
      <trkpt lat="43.69424" lon="5.49072">
        <ele>265.94</ele>
        <time>2016-06-13T12:07:50Z</time>
      </trkpt>
      <trkpt lat="43.69424" lon="5.49072">
        <ele>264.5</ele>
        <time>2016-06-13T12:08:42Z</time>
      </trkpt>
      <trkpt lat="43.69424" lon="5.49072">
        <ele>264.5</ele>
        <time>2016-06-13T12:09:39Z</time>
      </trkpt>
      <trkpt lat="43.69424" lon="5.49072">
        <ele>266.42</ele>
        <time>2016-06-13T12:09:42Z</time>
      </trkpt>
      <trkpt lat="43.69424" lon="5.49072">
        <ele>264.98</ele>
        <time>2016-06-13T12:09:57Z</time>
      </trkpt>
      <trkpt lat="43.69423" lon="5.49072">
        <ele>266.42</ele>
        <time>2016-06-13T12:10:22Z</time>
      </trkpt>
      <trkpt lat="43.69423" lon="5.49072">
        <ele>264.5</ele>
        <time>2016-06-13T12:10:30Z</time>
      </trkpt>
      <trkpt lat="43.69423" lon="5.49073">
        <ele>265.46</ele>
        <time>2016-06-13T12:11:12Z</time>
      </trkpt>
      <trkpt lat="43.69424" lon="5.49074">
        <ele>264.98</ele>
        <time>2016-06-13T12:12:54Z</time>
      </trkpt>
      <trkpt lat="43.69424" lon="5.49074">
        <ele>266.42</ele>
        <time>2016-06-13T12:12:56Z</time>
      </trkpt>
      <trkpt lat="43.69424" lon="5.49074">
        <ele>267.38</ele>
        <time>2016-06-13T12:13:06Z</time>
      </trkpt>
      <trkpt lat="43.69424" lon="5.49074">
        <ele>265.94</ele>
        <time>2016-06-13T12:13:11Z</time>
      </trkpt>
      <trkpt lat="43.69425" lon="5.49075">
        <ele>264.02</ele>
        <time>2016-06-13T12:14:29Z</time>
      </trkpt>
      <trkpt lat="43.69425" lon="5.49075">
        <ele>266.42</ele>
        <time>2016-06-13T12:14:41Z</time>
      </trkpt>
      <trkpt lat="43.69425" lon="5.49075">
        <ele>265.46</ele>
        <time>2016-06-13T12:15:13Z</time>
      </trkpt>
      <trkpt lat="43.69425" lon="5.49075">
        <ele>265.46</ele>
        <time>2016-06-13T12:16:04Z</time>
      </trkpt>
      <trkpt lat="43.69425" lon="5.49075">
        <ele>269.31</ele>
        <time>2016-06-13T12:17:03Z</time>
      </trkpt>
      <trkpt lat="43.69425" lon="5.49075">
        <ele>266.42</ele>
        <time>2016-06-13T12:17:06Z</time>
      </trkpt>
      <trkpt lat="43.69425" lon="5.49075">
        <ele>267.86</ele>
        <time>2016-06-13T12:17:09Z</time>
      </trkpt>
      <trkpt lat="43.69425" lon="5.49075">
        <ele>265.94</ele>
        <time>2016-06-13T12:17:12Z</time>
      </trkpt>
      <trkpt lat="43.69426" lon="5.49075">
        <ele>265.94</ele>
        <time>2016-06-13T12:17:52Z</time>
      </trkpt>
      <trkpt lat="43.69426" lon="5.49075">
        <ele>266.42</ele>
        <time>2016-06-13T12:18:08Z</time>
      </trkpt>
      <trkpt lat="43.69427" lon="5.49075">
        <ele>265.46</ele>
        <time>2016-06-13T12:19:05Z</time>
      </trkpt>
      <trkpt lat="43.69427" lon="5.49075">
        <ele>266.42</ele>
        <time>2016-06-13T12:20:47Z</time>
      </trkpt>
      <trkpt lat="43.69427" lon="5.49074">
        <ele>265.94</ele>
        <time>2016-06-13T12:22:29Z</time>
      </trkpt>
      <trkpt lat="43.69427" lon="5.49074">
        <ele>266.9</ele>
        <time>2016-06-13T12:22:34Z</time>
      </trkpt>
      <trkpt lat="43.69426" lon="5.49072">
        <ele>267.38</ele>
        <time>2016-06-13T12:25:24Z</time>
      </trkpt>
      <trkpt lat="43.69427" lon="5.49072">
        <ele>265.94</ele>
        <time>2016-06-13T12:25:54Z</time>
      </trkpt>
      <trkpt lat="43.69427" lon="5.49072">
        <ele>266.9</ele>
        <time>2016-06-13T12:26:12Z</time>
      </trkpt>
      <trkpt lat="43.69426" lon="5.49072">
        <ele>265.94</ele>
        <time>2016-06-13T12:28:21Z</time>
      </trkpt>
      <trkpt lat="43.69428" lon="5.49074">
        <ele>264.98</ele>
        <time>2016-06-13T12:29:41Z</time>
      </trkpt>
      <trkpt lat="43.69428" lon="5.49074">
        <ele>268.35</ele>
        <time>2016-06-13T12:30:35Z</time>
      </trkpt>
      <trkpt lat="43.69428" lon="5.49074">
        <ele>266.42</ele>
        <time>2016-06-13T12:30:37Z</time>
      </trkpt>
      <trkpt lat="43.69428" lon="5.49074">
        <ele>266.42</ele>
        <time>2016-06-13T12:32:23Z</time>
      </trkpt>
      <trkpt lat="43.69428" lon="5.49074">
        <ele>266.9</ele>
        <time>2016-06-13T12:32:44Z</time>
      </trkpt>
      <trkpt lat="43.69428" lon="5.49073">
        <ele>266.42</ele>
        <time>2016-06-13T12:34:00Z</time>
      </trkpt>
      <trkpt lat="43.69429" lon="5.49074">
        <ele>266.42</ele>
        <time>2016-06-13T12:34:20Z</time>
      </trkpt>
      <trkpt lat="43.69429" lon="5.49074">
        <ele>267.86</ele>
        <time>2016-06-13T12:34:47Z</time>
      </trkpt>
      <trkpt lat="43.69429" lon="5.49074">
        <ele>266.42</ele>
        <time>2016-06-13T12:35:09Z</time>
      </trkpt>
      <trkpt lat="43.69429" lon="5.49074">
        <ele>268.35</ele>
        <time>2016-06-13T12:35:12Z</time>
      </trkpt>
      <trkpt lat="43.69429" lon="5.49074">
        <ele>266.9</ele>
        <time>2016-06-13T12:35:15Z</time>
      </trkpt>
      <trkpt lat="43.69429" lon="5.49074">
        <ele>268.35</ele>
        <time>2016-06-13T12:35:25Z</time>
      </trkpt>
      <trkpt lat="43.69429" lon="5.49092">
        <ele>268.35</ele>
        <time>2016-06-13T12:35:28Z</time>
      </trkpt>
      <trkpt lat="43.69431" lon="5.49128">
        <ele>267.86</ele>
        <time>2016-06-13T12:35:33Z</time>
      </trkpt>
      <trkpt lat="43.69456" lon="5.49223">
        <ele>268.83</ele>
        <time>2016-06-13T12:35:45Z</time>
      </trkpt>
      <trkpt lat="43.69462" lon="5.4924">
        <ele>267.86</ele>
        <time>2016-06-13T12:35:52Z</time>
      </trkpt>
      <trkpt lat="43.69462" lon="5.4924">
        <ele>268.35</ele>
        <time>2016-06-13T12:35:55Z</time>
      </trkpt>
      <trkpt lat="43.6947" lon="5.49245">
        <ele>267.86</ele>
        <time>2016-06-13T12:36:01Z</time>
      </trkpt>
      <trkpt lat="43.69463" lon="5.49234">
        <ele>267.86</ele>
        <time>2016-06-13T12:36:10Z</time>
      </trkpt>
      <trkpt lat="43.69463" lon="5.49234">
        <ele>266.42</ele>
        <time>2016-06-13T12:36:38Z</time>
      </trkpt>
      <trkpt lat="43.69463" lon="5.49234">
        <ele>266.42</ele>
        <time>2016-06-13T12:37:04Z</time>
      </trkpt>
      <trkpt lat="43.69463" lon="5.49234">
        <ele>269.79</ele>
        <time>2016-06-13T12:37:19Z</time>
      </trkpt>
      <trkpt lat="43.69463" lon="5.49234">
        <ele>266.9</ele>
        <time>2016-06-13T12:37:27Z</time>
      </trkpt>
      <trkpt lat="43.69463" lon="5.49234">
        <ele>266.42</ele>
        <time>2016-06-13T12:37:28Z</time>
      </trkpt>
      <trkpt lat="43.69463" lon="5.49234">
        <ele>267.86</ele>
        <time>2016-06-13T12:37:31Z</time>
      </trkpt>
      <trkpt lat="43.69463" lon="5.49233">
        <ele>268.83</ele>
        <time>2016-06-13T12:37:45Z</time>
      </trkpt>
      <trkpt lat="43.69453" lon="5.4921">
        <ele>268.83</ele>
        <time>2016-06-13T12:37:51Z</time>
      </trkpt>
      <trkpt lat="43.69463" lon="5.49199">
        <ele>266.9</ele>
        <time>2016-06-13T12:37:56Z</time>
      </trkpt>
      <trkpt lat="43.69471" lon="5.49195">
        <ele>267.86</ele>
        <time>2016-06-13T12:37:59Z</time>
      </trkpt>
      <trkpt lat="43.69482" lon="5.49212">
        <ele>268.35</ele>
        <time>2016-06-13T12:38:04Z</time>
      </trkpt>
      <trkpt lat="43.69487" lon="5.49228">
        <ele>266.9</ele>
        <time>2016-06-13T12:38:07Z</time>
      </trkpt>
      <trkpt lat="43.69499" lon="5.49269">
        <ele>266.9</ele>
        <time>2016-06-13T12:38:18Z</time>
      </trkpt>
      <trkpt lat="43.69497" lon="5.49276">
        <ele>267.86</ele>
        <time>2016-06-13T12:38:20Z</time>
      </trkpt>
      <trkpt lat="43.69482" lon="5.49282">
        <ele>267.38</ele>
        <time>2016-06-13T12:38:25Z</time>
      </trkpt>
      <trkpt lat="43.69472" lon="5.49281">
        <ele>268.35</ele>
        <time>2016-06-13T12:38:30Z</time>
      </trkpt>
      <trkpt lat="43.69458" lon="5.49257">
        <ele>269.31</ele>
        <time>2016-06-13T12:38:34Z</time>
      </trkpt>
      <trkpt lat="43.69422" lon="5.49129">
        <ele>268.83</ele>
        <time>2016-06-13T12:38:45Z</time>
      </trkpt>
      <trkpt lat="43.69422" lon="5.49037">
        <ele>268.35</ele>
        <time>2016-06-13T12:38:53Z</time>
      </trkpt>
      <trkpt lat="43.69422" lon="5.49031">
        <ele>268.35</ele>
        <time>2016-06-13T12:38:54Z</time>
      </trkpt>
      <trkpt lat="43.69425" lon="5.49012">
        <ele>267.38</ele>
        <time>2016-06-13T12:39:03Z</time>
      </trkpt>
      <trkpt lat="43.69428" lon="5.49004">
        <ele>270.27</ele>
        <time>2016-06-13T12:39:06Z</time>
      </trkpt>
      <trkpt lat="43.69436" lon="5.48979">
        <ele>270.75</ele>
        <time>2016-06-13T12:39:09Z</time>
      </trkpt>
      <trkpt lat="43.69428" lon="5.48942">
        <ele>270.27</ele>
        <time>2016-06-13T12:39:14Z</time>
      </trkpt>
      <trkpt lat="43.69414" lon="5.48974">
        <ele>269.31</ele>
        <time>2016-06-13T12:39:19Z</time>
      </trkpt>
      <trkpt lat="43.69421" lon="5.49017">
        <ele>267.86</ele>
        <time>2016-06-13T12:39:24Z</time>
      </trkpt>
      <trkpt lat="43.69418" lon="5.49124">
        <ele>268.83</ele>
        <time>2016-06-13T12:39:33Z</time>
      </trkpt>
      <trkpt lat="43.69446" lon="5.49247">
        <ele>268.83</ele>
        <time>2016-06-13T12:39:43Z</time>
      </trkpt>
      <trkpt lat="43.69488" lon="5.49396">
        <ele>269.79</ele>
        <time>2016-06-13T12:39:57Z</time>
      </trkpt>
      <trkpt lat="43.69513" lon="5.49512">
        <ele>270.27</ele>
        <time>2016-06-13T12:40:08Z</time>
      </trkpt>
      <trkpt lat="43.69524" lon="5.49568">
        <ele>268.35</ele>
        <time>2016-06-13T12:40:12Z</time>
      </trkpt>
      <trkpt lat="43.69545" lon="5.49661">
        <ele>269.31</ele>
        <time>2016-06-13T12:40:20Z</time>
      </trkpt>
      <trkpt lat="43.69562" lon="5.49713">
        <ele>272.67</ele>
        <time>2016-06-13T12:40:25Z</time>
      </trkpt>
      <trkpt lat="43.69608" lon="5.49837">
        <ele>271.23</ele>
        <time>2016-06-13T12:40:38Z</time>
      </trkpt>
      <trkpt lat="43.69629" lon="5.49888">
        <ele>274.11</ele>
        <time>2016-06-13T12:40:42Z</time>
      </trkpt>
      <trkpt lat="43.69699" lon="5.50016">
        <ele>274.59</ele>
        <time>2016-06-13T12:40:51Z</time>
      </trkpt>
      <trkpt lat="43.69779" lon="5.50125">
        <ele>276.04</ele>
        <time>2016-06-13T12:41:00Z</time>
      </trkpt>
      <trkpt lat="43.69825" lon="5.5019">
        <ele>273.63</ele>
        <time>2016-06-13T12:41:09Z</time>
      </trkpt>
      <trkpt lat="43.69832" lon="5.50199">
        <ele>272.67</ele>
        <time>2016-06-13T12:41:12Z</time>
      </trkpt>
      <trkpt lat="43.69852" lon="5.50228">
        <ele>273.15</ele>
        <time>2016-06-13T12:41:20Z</time>
      </trkpt>
      <trkpt lat="43.69872" lon="5.50258">
        <ele>273.15</ele>
        <time>2016-06-13T12:41:28Z</time>
      </trkpt>
      <trkpt lat="43.69888" lon="5.50304">
        <ele>275.56</ele>
        <time>2016-06-13T12:41:39Z</time>
      </trkpt>
      <trkpt lat="43.69911" lon="5.50382">
        <ele>275.56</ele>
        <time>2016-06-13T12:41:47Z</time>
      </trkpt>
      <trkpt lat="43.6992" lon="5.50446">
        <ele>274.11</ele>
        <time>2016-06-13T12:41:54Z</time>
      </trkpt>
      <trkpt lat="43.69921" lon="5.5046">
        <ele>276.04</ele>
        <time>2016-06-13T12:41:56Z</time>
      </trkpt>
      <trkpt lat="43.6992" lon="5.50473">
        <ele>273.63</ele>
        <time>2016-06-13T12:41:58Z</time>
      </trkpt>
      <trkpt lat="43.69913" lon="5.50491">
        <ele>274.59</ele>
        <time>2016-06-13T12:42:04Z</time>
      </trkpt>
      <trkpt lat="43.69915" lon="5.50528">
        <ele>274.59</ele>
        <time>2016-06-13T12:42:10Z</time>
      </trkpt>
      <trkpt lat="43.69929" lon="5.50535">
        <ele>274.59</ele>
        <time>2016-06-13T12:42:12Z</time>
      </trkpt>
      <trkpt lat="43.69945" lon="5.50543">
        <ele>276.52</ele>
        <time>2016-06-13T12:42:14Z</time>
      </trkpt>
      <trkpt lat="43.70044" lon="5.50551">
        <ele>276.52</ele>
        <time>2016-06-13T12:42:26Z</time>
      </trkpt>
      <trkpt lat="43.70117" lon="5.50591">
        <ele>278.92</ele>
        <time>2016-06-13T12:42:34Z</time>
      </trkpt>
      <trkpt lat="43.70138" lon="5.50613">
        <ele>279.88</ele>
        <time>2016-06-13T12:42:36Z</time>
      </trkpt>
      <trkpt lat="43.70258" lon="5.50763">
        <ele>281.32</ele>
        <time>2016-06-13T12:42:48Z</time>
      </trkpt>
      <trkpt lat="43.7032" lon="5.50849">
        <ele>281.32</ele>
        <time>2016-06-13T12:42:56Z</time>
      </trkpt>
      <trkpt lat="43.70335" lon="5.50921">
        <ele>282.28</ele>
        <time>2016-06-13T12:43:03Z</time>
      </trkpt>
      <trkpt lat="43.7035" lon="5.50935">
        <ele>283.25</ele>
        <time>2016-06-13T12:43:06Z</time>
      </trkpt>
      <trkpt lat="43.70406" lon="5.50976">
        <ele>284.21</ele>
        <time>2016-06-13T12:43:12Z</time>
      </trkpt>
      <trkpt lat="43.70464" lon="5.51068">
        <ele>288.53</ele>
        <time>2016-06-13T12:43:18Z</time>
      </trkpt>
      <trkpt lat="43.70478" lon="5.51085">
        <ele>288.53</ele>
        <time>2016-06-13T12:43:19Z</time>
      </trkpt>
      <trkpt lat="43.70492" lon="5.51103">
        <ele>292.86</ele>
        <time>2016-06-13T12:43:20Z</time>
      </trkpt>
      <trkpt lat="43.70506" lon="5.51122">
        <ele>291.9</ele>
        <time>2016-06-13T12:43:21Z</time>
      </trkpt>
      <trkpt lat="43.70594" lon="5.51253">
        <ele>293.82</ele>
        <time>2016-06-13T12:43:27Z</time>
      </trkpt>
      <trkpt lat="43.7063" lon="5.51331">
        <ele>296.7</ele>
        <time>2016-06-13T12:43:30Z</time>
      </trkpt>
      <trkpt lat="43.70696" lon="5.51567">
        <ele>297.67</ele>
        <time>2016-06-13T12:43:38Z</time>
      </trkpt>
      <trkpt lat="43.70754" lon="5.51743">
        <ele>301.03</ele>
        <time>2016-06-13T12:43:44Z</time>
      </trkpt>
      <trkpt lat="43.70766" lon="5.5177">
        <ele>300.55</ele>
        <time>2016-06-13T12:43:45Z</time>
      </trkpt>
      <trkpt lat="43.70889" lon="5.51994">
        <ele>301.99</ele>
        <time>2016-06-13T12:43:54Z</time>
      </trkpt>
      <trkpt lat="43.70926" lon="5.52035">
        <ele>304.88</ele>
        <time>2016-06-13T12:43:56Z</time>
      </trkpt>
      <trkpt lat="43.7097" lon="5.52088">
        <ele>299.59</ele>
        <time>2016-06-13T12:43:59Z</time>
      </trkpt>
      <trkpt lat="43.70981" lon="5.52103">
        <ele>300.55</ele>
        <time>2016-06-13T12:44:00Z</time>
      </trkpt>
      <trkpt lat="43.71" lon="5.5213">
        <ele>297.67</ele>
        <time>2016-06-13T12:44:02Z</time>
      </trkpt>
      <trkpt lat="43.71044" lon="5.52192">
        <ele>296.7</ele>
        <time>2016-06-13T12:44:09Z</time>
      </trkpt>
      <trkpt lat="43.71047" lon="5.52195">
        <ele>296.7</ele>
        <time>2016-06-13T12:44:10Z</time>
      </trkpt>
      <trkpt lat="43.71055" lon="5.522">
        <ele>295.74</ele>
        <time>2016-06-13T12:44:20Z</time>
      </trkpt>
      <trkpt lat="43.71055" lon="5.522">
        <ele>296.22</ele>
        <time>2016-06-13T12:44:24Z</time>
      </trkpt>
      <trkpt lat="43.71055" lon="5.522">
        <ele>294.3</ele>
        <time>2016-06-13T12:45:05Z</time>
      </trkpt>
      <trkpt lat="43.71055" lon="5.522">
        <ele>295.26</ele>
        <time>2016-06-13T12:45:26Z</time>
      </trkpt>
      <trkpt lat="43.71054" lon="5.522">
        <ele>296.7</ele>
        <time>2016-06-13T12:45:42Z</time>
      </trkpt>
      <trkpt lat="43.71055" lon="5.52199">
        <ele>293.82</ele>
        <time>2016-06-13T12:45:45Z</time>
      </trkpt>
      <trkpt lat="43.71055" lon="5.52199">
        <ele>294.78</ele>
        <time>2016-06-13T12:45:46Z</time>
      </trkpt>
      <trkpt lat="43.71055" lon="5.52199">
        <ele>296.22</ele>
        <time>2016-06-13T12:45:48Z</time>
      </trkpt>
      <trkpt lat="43.71055" lon="5.52199">
        <ele>297.67</ele>
        <time>2016-06-13T12:47:00Z</time>
      </trkpt>
      <trkpt lat="43.71054" lon="5.522">
        <ele>296.22</ele>
        <time>2016-06-13T12:47:28Z</time>
      </trkpt>
      <trkpt lat="43.71103" lon="5.5224">
        <ele>298.15</ele>
        <time>2016-06-13T12:47:37Z</time>
      </trkpt>
      <trkpt lat="43.71112" lon="5.52246">
        <ele>299.59</ele>
        <time>2016-06-13T12:47:38Z</time>
      </trkpt>
      <trkpt lat="43.71178" lon="5.52316">
        <ele>303.91</ele>
        <time>2016-06-13T12:47:44Z</time>
      </trkpt>
      <trkpt lat="43.71191" lon="5.52332">
        <ele>303.91</ele>
        <time>2016-06-13T12:47:45Z</time>
      </trkpt>
      <trkpt lat="43.71264" lon="5.52453">
        <ele>307.28</ele>
        <time>2016-06-13T12:47:51Z</time>
      </trkpt>
      <trkpt lat="43.71298" lon="5.52556">
        <ele>309.2</ele>
        <time>2016-06-13T12:47:55Z</time>
      </trkpt>
      <trkpt lat="43.71347" lon="5.52686">
        <ele>311.6</ele>
        <time>2016-06-13T12:48:00Z</time>
      </trkpt>
      <trkpt lat="43.71373" lon="5.52737">
        <ele>315.93</ele>
        <time>2016-06-13T12:48:02Z</time>
      </trkpt>
      <trkpt lat="43.71386" lon="5.52763">
        <ele>316.41</ele>
        <time>2016-06-13T12:48:03Z</time>
      </trkpt>
      <trkpt lat="43.71528" lon="5.53053">
        <ele>313.53</ele>
        <time>2016-06-13T12:48:14Z</time>
      </trkpt>
      <trkpt lat="43.7156" lon="5.53127">
        <ele>310.16</ele>
        <time>2016-06-13T12:48:17Z</time>
      </trkpt>
      <trkpt lat="43.71715" lon="5.53476">
        <ele>312.09</ele>
        <time>2016-06-13T12:48:31Z</time>
      </trkpt>
      <trkpt lat="43.71728" lon="5.53498">
        <ele>312.09</ele>
        <time>2016-06-13T12:48:32Z</time>
      </trkpt>
      <trkpt lat="43.71793" lon="5.53598">
        <ele>314.97</ele>
        <time>2016-06-13T12:48:37Z</time>
      </trkpt>
      <trkpt lat="43.71821" lon="5.53666">
        <ele>313.05</ele>
        <time>2016-06-13T12:48:40Z</time>
      </trkpt>
      <trkpt lat="43.71828" lon="5.5369">
        <ele>313.53</ele>
        <time>2016-06-13T12:48:41Z</time>
      </trkpt>
      <trkpt lat="43.71884" lon="5.53874">
        <ele>312.09</ele>
        <time>2016-06-13T12:48:50Z</time>
      </trkpt>
      <trkpt lat="43.71914" lon="5.53936">
        <ele>311.6</ele>
        <time>2016-06-13T12:48:56Z</time>
      </trkpt>
      <trkpt lat="43.7192" lon="5.53956">
        <ele>311.12</ele>
        <time>2016-06-13T12:48:58Z</time>
      </trkpt>
      <trkpt lat="43.71965" lon="5.53999">
        <ele>312.57</ele>
        <time>2016-06-13T12:49:04Z</time>
      </trkpt>
      <trkpt lat="43.72044" lon="5.54067">
        <ele>314.49</ele>
        <time>2016-06-13T12:49:13Z</time>
      </trkpt>
      <trkpt lat="43.72071" lon="5.54099">
        <ele>313.05</ele>
        <time>2016-06-13T12:49:16Z</time>
      </trkpt>
      <trkpt lat="43.72156" lon="5.54213">
        <ele>313.53</ele>
        <time>2016-06-13T12:49:28Z</time>
      </trkpt>
      <trkpt lat="43.7219" lon="5.54254">
        <ele>313.53</ele>
        <time>2016-06-13T12:49:36Z</time>
      </trkpt>
      <trkpt lat="43.72229" lon="5.5431">
        <ele>314.01</ele>
        <time>2016-06-13T12:49:45Z</time>
      </trkpt>
      <trkpt lat="43.72247" lon="5.54335">
        <ele>315.45</ele>
        <time>2016-06-13T12:49:48Z</time>
      </trkpt>
      <trkpt lat="43.72254" lon="5.54393">
        <ele>314.01</ele>
        <time>2016-06-13T12:49:53Z</time>
      </trkpt>
      <trkpt lat="43.72239" lon="5.54427">
        <ele>314.49</ele>
        <time>2016-06-13T12:49:56Z</time>
      </trkpt>
      <trkpt lat="43.72239" lon="5.54516">
        <ele>314.49</ele>
        <time>2016-06-13T12:50:03Z</time>
      </trkpt>
      <trkpt lat="43.72283" lon="5.54596">
        <ele>316.41</ele>
        <time>2016-06-13T12:50:13Z</time>
      </trkpt>
      <trkpt lat="43.72293" lon="5.54615">
        <ele>319.78</ele>
        <time>2016-06-13T12:50:16Z</time>
      </trkpt>
      <trkpt lat="43.72298" lon="5.54622">
        <ele>318.81</ele>
        <time>2016-06-13T12:50:17Z</time>
      </trkpt>
      <trkpt lat="43.72316" lon="5.5466">
        <ele>321.22</ele>
        <time>2016-06-13T12:50:21Z</time>
      </trkpt>
      <trkpt lat="43.72338" lon="5.54747">
        <ele>320.74</ele>
        <time>2016-06-13T12:50:28Z</time>
      </trkpt>
      <trkpt lat="43.72384" lon="5.54892">
        <ele>316.89</ele>
        <time>2016-06-13T12:50:40Z</time>
      </trkpt>
      <trkpt lat="43.72404" lon="5.54922">
        <ele>314.97</ele>
        <time>2016-06-13T12:50:43Z</time>
      </trkpt>
      <trkpt lat="43.72428" lon="5.54945">
        <ele>316.41</ele>
        <time>2016-06-13T12:50:46Z</time>
      </trkpt>
      <trkpt lat="43.72455" lon="5.54968">
        <ele>315.93</ele>
        <time>2016-06-13T12:50:50Z</time>
      </trkpt>
      <trkpt lat="43.72475" lon="5.54981">
        <ele>317.85</ele>
        <time>2016-06-13T12:50:54Z</time>
      </trkpt>
      <trkpt lat="43.72477" lon="5.55004">
        <ele>318.81</ele>
        <time>2016-06-13T12:50:57Z</time>
      </trkpt>
      <trkpt lat="43.72474" lon="5.55029">
        <ele>317.37</ele>
        <time>2016-06-13T12:50:59Z</time>
      </trkpt>
      <trkpt lat="43.72466" lon="5.55052">
        <ele>316.89</ele>
        <time>2016-06-13T12:51:01Z</time>
      </trkpt>
      <trkpt lat="43.72431" lon="5.55098">
        <ele>315.45</ele>
        <time>2016-06-13T12:51:06Z</time>
      </trkpt>
      <trkpt lat="43.72427" lon="5.55112">
        <ele>316.41</ele>
        <time>2016-06-13T12:51:07Z</time>
      </trkpt>
      <trkpt lat="43.72409" lon="5.55288">
        <ele>319.3</ele>
        <time>2016-06-13T12:51:17Z</time>
      </trkpt>
      <trkpt lat="43.7241" lon="5.5531">
        <ele>320.74</ele>
        <time>2016-06-13T12:51:18Z</time>
      </trkpt>
      <trkpt lat="43.72424" lon="5.55389">
        <ele>322.18</ele>
        <time>2016-06-13T12:51:22Z</time>
      </trkpt>
      <trkpt lat="43.72429" lon="5.55403">
        <ele>322.18</ele>
        <time>2016-06-13T12:51:23Z</time>
      </trkpt>
      <trkpt lat="43.72482" lon="5.55449">
        <ele>325.54</ele>
        <time>2016-06-13T12:51:29Z</time>
      </trkpt>
      <trkpt lat="43.72495" lon="5.55449">
        <ele>326.02</ele>
        <time>2016-06-13T12:51:30Z</time>
      </trkpt>
      <trkpt lat="43.72522" lon="5.55446">
        <ele>325.06</ele>
        <time>2016-06-13T12:51:32Z</time>
      </trkpt>
      <trkpt lat="43.72583" lon="5.55491">
        <ele>326.99</ele>
        <time>2016-06-13T12:51:37Z</time>
      </trkpt>
      <trkpt lat="43.72635" lon="5.55583">
        <ele>329.39</ele>
        <time>2016-06-13T12:51:42Z</time>
      </trkpt>
      <trkpt lat="43.72657" lon="5.55654">
        <ele>333.23</ele>
        <time>2016-06-13T12:51:45Z</time>
      </trkpt>
      <trkpt lat="43.72656" lon="5.55753">
        <ele>334.68</ele>
        <time>2016-06-13T12:51:49Z</time>
      </trkpt>
      <trkpt lat="43.72641" lon="5.55857">
        <ele>339.48</ele>
        <time>2016-06-13T12:51:53Z</time>
      </trkpt>
      <trkpt lat="43.72648" lon="5.55939">
        <ele>345.73</ele>
        <time>2016-06-13T12:51:56Z</time>
      </trkpt>
      <trkpt lat="43.72656" lon="5.55966">
        <ele>346.21</ele>
        <time>2016-06-13T12:51:57Z</time>
      </trkpt>
      <trkpt lat="43.72686" lon="5.56069">
        <ele>350.06</ele>
        <time>2016-06-13T12:52:01Z</time>
      </trkpt>
      <trkpt lat="43.72701" lon="5.56122">
        <ele>353.42</ele>
        <time>2016-06-13T12:52:03Z</time>
      </trkpt>
      <trkpt lat="43.72709" lon="5.56148">
        <ele>353.42</ele>
        <time>2016-06-13T12:52:04Z</time>
      </trkpt>
      <trkpt lat="43.72756" lon="5.56244">
        <ele>357.75</ele>
        <time>2016-06-13T12:52:08Z</time>
      </trkpt>
      <trkpt lat="43.72769" lon="5.56267">
        <ele>357.75</ele>
        <time>2016-06-13T12:52:09Z</time>
      </trkpt>
      <trkpt lat="43.72795" lon="5.56317">
        <ele>361.11</ele>
        <time>2016-06-13T12:52:11Z</time>
      </trkpt>
      <trkpt lat="43.72819" lon="5.5637">
        <ele>364.96</ele>
        <time>2016-06-13T12:52:13Z</time>
      </trkpt>
      <trkpt lat="43.72831" lon="5.56396">
        <ele>365.44</ele>
        <time>2016-06-13T12:52:14Z</time>
      </trkpt>
      <trkpt lat="43.72854" lon="5.56446">
        <ele>368.32</ele>
        <time>2016-06-13T12:52:16Z</time>
      </trkpt>
      <trkpt lat="43.72864" lon="5.5647">
        <ele>369.28</ele>
        <time>2016-06-13T12:52:17Z</time>
      </trkpt>
      <trkpt lat="43.72883" lon="5.56546">
        <ele>373.61</ele>
        <time>2016-06-13T12:52:20Z</time>
      </trkpt>
      <trkpt lat="43.72896" lon="5.56656">
        <ele>376.49</ele>
        <time>2016-06-13T12:52:24Z</time>
      </trkpt>
      <trkpt lat="43.72906" lon="5.56713">
        <ele>377.45</ele>
        <time>2016-06-13T12:52:26Z</time>
      </trkpt>
      <trkpt lat="43.72921" lon="5.56766">
        <ele>380.34</ele>
        <time>2016-06-13T12:52:28Z</time>
      </trkpt>
      <trkpt lat="43.72929" lon="5.56791">
        <ele>380.34</ele>
        <time>2016-06-13T12:52:29Z</time>
      </trkpt>
      <trkpt lat="43.72937" lon="5.56816">
        <ele>384.18</ele>
        <time>2016-06-13T12:52:30Z</time>
      </trkpt>
      <trkpt lat="43.72945" lon="5.56841">
        <ele>384.18</ele>
        <time>2016-06-13T12:52:31Z</time>
      </trkpt>
      <trkpt lat="43.72962" lon="5.56923">
        <ele>389.47</ele>
        <time>2016-06-13T12:52:34Z</time>
      </trkpt>
      <trkpt lat="43.72966" lon="5.56954">
        <ele>396.68</ele>
        <time>2016-06-13T12:52:35Z</time>
      </trkpt>
      <trkpt lat="43.72971" lon="5.57017">
        <ele>400.05</ele>
        <time>2016-06-13T12:52:37Z</time>
      </trkpt>
      <trkpt lat="43.72973" lon="5.57048">
        <ele>399.57</ele>
        <time>2016-06-13T12:52:38Z</time>
      </trkpt>
      <trkpt lat="43.72973" lon="5.57129">
        <ele>404.85</ele>
        <time>2016-06-13T12:52:41Z</time>
      </trkpt>
      <trkpt lat="43.72971" lon="5.57153">
        <ele>404.37</ele>
        <time>2016-06-13T12:52:42Z</time>
      </trkpt>
      <trkpt lat="43.72967" lon="5.57201">
        <ele>407.74</ele>
        <time>2016-06-13T12:52:44Z</time>
      </trkpt>
      <trkpt lat="43.72955" lon="5.57274">
        <ele>412.06</ele>
        <time>2016-06-13T12:52:47Z</time>
      </trkpt>
      <trkpt lat="43.72934" lon="5.57376">
        <ele>415.43</ele>
        <time>2016-06-13T12:52:51Z</time>
      </trkpt>
      <trkpt lat="43.72913" lon="5.57475">
        <ele>418.79</ele>
        <time>2016-06-13T12:52:55Z</time>
      </trkpt>
      <trkpt lat="43.72898" lon="5.57548">
        <ele>422.16</ele>
        <time>2016-06-13T12:52:58Z</time>
      </trkpt>
      <trkpt lat="43.72886" lon="5.57597">
        <ele>426</ele>
        <time>2016-06-13T12:53:00Z</time>
      </trkpt>
      <trkpt lat="43.7288" lon="5.57621">
        <ele>426.48</ele>
        <time>2016-06-13T12:53:01Z</time>
      </trkpt>
      <trkpt lat="43.72858" lon="5.57696">
        <ele>430.33</ele>
        <time>2016-06-13T12:53:04Z</time>
      </trkpt>
      <trkpt lat="43.72827" lon="5.578">
        <ele>435.13</ele>
        <time>2016-06-13T12:53:08Z</time>
      </trkpt>
      <trkpt lat="43.7281" lon="5.5785">
        <ele>436.58</ele>
        <time>2016-06-13T12:53:10Z</time>
      </trkpt>
      <trkpt lat="43.72776" lon="5.5792">
        <ele>441.38</ele>
        <time>2016-06-13T12:53:13Z</time>
      </trkpt>
      <trkpt lat="43.7275" lon="5.57969">
        <ele>444.75</ele>
        <time>2016-06-13T12:53:15Z</time>
      </trkpt>
      <trkpt lat="43.72736" lon="5.57995">
        <ele>444.75</ele>
        <time>2016-06-13T12:53:16Z</time>
      </trkpt>
      <trkpt lat="43.72709" lon="5.58047">
        <ele>446.67</ele>
        <time>2016-06-13T12:53:18Z</time>
      </trkpt>
      <trkpt lat="43.72604" lon="5.58284">
        <ele>449.07</ele>
        <time>2016-06-13T12:53:27Z</time>
      </trkpt>
      <trkpt lat="43.72571" lon="5.58361">
        <ele>448.59</ele>
        <time>2016-06-13T12:53:30Z</time>
      </trkpt>
      <trkpt lat="43.72541" lon="5.58475">
        <ele>452.44</ele>
        <time>2016-06-13T12:53:34Z</time>
      </trkpt>
      <trkpt lat="43.72525" lon="5.58531">
        <ele>453.4</ele>
        <time>2016-06-13T12:53:36Z</time>
      </trkpt>
      <trkpt lat="43.7249" lon="5.58678">
        <ele>458.21</ele>
        <time>2016-06-13T12:53:41Z</time>
      </trkpt>
      <trkpt lat="43.72483" lon="5.58742">
        <ele>461.57</ele>
        <time>2016-06-13T12:53:43Z</time>
      </trkpt>
      <trkpt lat="43.72478" lon="5.58804">
        <ele>463.01</ele>
        <time>2016-06-13T12:53:45Z</time>
      </trkpt>
      <trkpt lat="43.7247" lon="5.58926">
        <ele>466.38</ele>
        <time>2016-06-13T12:53:49Z</time>
      </trkpt>
      <trkpt lat="43.72469" lon="5.58986">
        <ele>468.3</ele>
        <time>2016-06-13T12:53:51Z</time>
      </trkpt>
      <trkpt lat="43.72471" lon="5.59046">
        <ele>470.7</ele>
        <time>2016-06-13T12:53:53Z</time>
      </trkpt>
      <trkpt lat="43.72506" lon="5.59224">
        <ele>474.55</ele>
        <time>2016-06-13T12:54:00Z</time>
      </trkpt>
      <trkpt lat="43.72517" lon="5.5927">
        <ele>477.91</ele>
        <time>2016-06-13T12:54:02Z</time>
      </trkpt>
      <trkpt lat="43.72545" lon="5.59363">
        <ele>481.76</ele>
        <time>2016-06-13T12:54:06Z</time>
      </trkpt>
      <trkpt lat="43.72552" lon="5.59387">
        <ele>482.24</ele>
        <time>2016-06-13T12:54:07Z</time>
      </trkpt>
      <trkpt lat="43.72574" lon="5.59457">
        <ele>485.12</ele>
        <time>2016-06-13T12:54:10Z</time>
      </trkpt>
      <trkpt lat="43.72592" lon="5.59519">
        <ele>488.01</ele>
        <time>2016-06-13T12:54:13Z</time>
      </trkpt>
      <trkpt lat="43.72596" lon="5.59633">
        <ele>493.29</ele>
        <time>2016-06-13T12:54:18Z</time>
      </trkpt>
      <trkpt lat="43.72596" lon="5.59729">
        <ele>496.18</ele>
        <time>2016-06-13T12:54:22Z</time>
      </trkpt>
      <trkpt lat="43.72585" lon="5.59871">
        <ele>494.26</ele>
        <time>2016-06-13T12:54:28Z</time>
      </trkpt>
      <trkpt lat="43.72549" lon="5.60061">
        <ele>492.81</ele>
        <time>2016-06-13T12:54:36Z</time>
      </trkpt>
      <trkpt lat="43.72562" lon="5.60188">
        <ele>492.81</ele>
        <time>2016-06-13T12:54:42Z</time>
      </trkpt>
      <trkpt lat="43.72577" lon="5.60352">
        <ele>496.66</ele>
        <time>2016-06-13T12:54:49Z</time>
      </trkpt>
      <trkpt lat="43.72577" lon="5.60376">
        <ele>496.18</ele>
        <time>2016-06-13T12:54:50Z</time>
      </trkpt>
      <trkpt lat="43.7257" lon="5.60424">
        <ele>494.26</ele>
        <time>2016-06-13T12:54:52Z</time>
      </trkpt>
      <trkpt lat="43.72548" lon="5.60492">
        <ele>494.74</ele>
        <time>2016-06-13T12:54:55Z</time>
      </trkpt>
      <trkpt lat="43.72444" lon="5.60697">
        <ele>490.41</ele>
        <time>2016-06-13T12:55:04Z</time>
      </trkpt>
      <trkpt lat="43.72369" lon="5.60865">
        <ele>487.05</ele>
        <time>2016-06-13T12:55:11Z</time>
      </trkpt>
      <trkpt lat="43.72292" lon="5.61099">
        <ele>488.01</ele>
        <time>2016-06-13T12:55:20Z</time>
      </trkpt>
      <trkpt lat="43.7228" lon="5.61178">
        <ele>484.64</ele>
        <time>2016-06-13T12:55:23Z</time>
      </trkpt>
      <trkpt lat="43.72279" lon="5.61198">
        <ele>483.68</ele>
        <time>2016-06-13T12:55:24Z</time>
      </trkpt>
      <trkpt lat="43.72281" lon="5.6123">
        <ele>482.24</ele>
        <time>2016-06-13T12:55:26Z</time>
      </trkpt>
      <trkpt lat="43.72313" lon="5.61263">
        <ele>484.64</ele>
        <time>2016-06-13T12:55:30Z</time>
      </trkpt>
      <trkpt lat="43.72375" lon="5.61277">
        <ele>487.05</ele>
        <time>2016-06-13T12:55:35Z</time>
      </trkpt>
      <trkpt lat="43.724" lon="5.61283">
        <ele>487.05</ele>
        <time>2016-06-13T12:55:37Z</time>
      </trkpt>
      <trkpt lat="43.72433" lon="5.61343">
        <ele>487.53</ele>
        <time>2016-06-13T12:55:42Z</time>
      </trkpt>
      <trkpt lat="43.72419" lon="5.61526">
        <ele>491.37</ele>
        <time>2016-06-13T12:55:50Z</time>
      </trkpt>
      <trkpt lat="43.72417" lon="5.61548">
        <ele>490.89</ele>
        <time>2016-06-13T12:55:51Z</time>
      </trkpt>
      <trkpt lat="43.72442" lon="5.61668">
        <ele>490.89</ele>
        <time>2016-06-13T12:55:57Z</time>
      </trkpt>
      <trkpt lat="43.72446" lon="5.6168">
        <ele>490.89</ele>
        <time>2016-06-13T12:55:58Z</time>
      </trkpt>
      <trkpt lat="43.72458" lon="5.61718">
        <ele>488.97</ele>
        <time>2016-06-13T12:56:04Z</time>
      </trkpt>
      <trkpt lat="43.72459" lon="5.61726">
        <ele>488.49</ele>
        <time>2016-06-13T12:56:15Z</time>
      </trkpt>
      <trkpt lat="43.72459" lon="5.61726">
        <ele>488.49</ele>
        <time>2016-06-13T12:56:44Z</time>
      </trkpt>
      <trkpt lat="43.72456" lon="5.6176">
        <ele>488.01</ele>
        <time>2016-06-13T12:56:48Z</time>
      </trkpt>
      <trkpt lat="43.72422" lon="5.61912">
        <ele>488.49</ele>
        <time>2016-06-13T12:56:56Z</time>
      </trkpt>
      <trkpt lat="43.72369" lon="5.62154">
        <ele>492.33</ele>
        <time>2016-06-13T12:57:05Z</time>
      </trkpt>
      <trkpt lat="43.72363" lon="5.62182">
        <ele>492.81</ele>
        <time>2016-06-13T12:57:06Z</time>
      </trkpt>
      <trkpt lat="43.72337" lon="5.62298">
        <ele>488.97</ele>
        <time>2016-06-13T12:57:10Z</time>
      </trkpt>
      <trkpt lat="43.72291" lon="5.62499">
        <ele>487.05</ele>
        <time>2016-06-13T12:57:17Z</time>
      </trkpt>
      <trkpt lat="43.72271" lon="5.62582">
        <ele>483.68</ele>
        <time>2016-06-13T12:57:20Z</time>
      </trkpt>
      <trkpt lat="43.72251" lon="5.62633">
        <ele>481.76</ele>
        <time>2016-06-13T12:57:22Z</time>
      </trkpt>
      <trkpt lat="43.72207" lon="5.62726">
        <ele>478.39</ele>
        <time>2016-06-13T12:57:26Z</time>
      </trkpt>
      <trkpt lat="43.72175" lon="5.62793">
        <ele>476.47</ele>
        <time>2016-06-13T12:57:29Z</time>
      </trkpt>
      <trkpt lat="43.72108" lon="5.62864">
        <ele>473.11</ele>
        <time>2016-06-13T12:57:33Z</time>
      </trkpt>
      <trkpt lat="43.72092" lon="5.62876">
        <ele>471.66</ele>
        <time>2016-06-13T12:57:34Z</time>
      </trkpt>
      <trkpt lat="43.72047" lon="5.62979">
        <ele>474.55</ele>
        <time>2016-06-13T12:57:39Z</time>
      </trkpt>
      <trkpt lat="43.72047" lon="5.63031">
        <ele>475.03</ele>
        <time>2016-06-13T12:57:41Z</time>
      </trkpt>
      <trkpt lat="43.7205" lon="5.6308">
        <ele>471.66</ele>
        <time>2016-06-13T12:57:43Z</time>
      </trkpt>
      <trkpt lat="43.72041" lon="5.63167">
        <ele>467.82</ele>
        <time>2016-06-13T12:57:47Z</time>
      </trkpt>
      <trkpt lat="43.72034" lon="5.63186">
        <ele>467.82</ele>
        <time>2016-06-13T12:57:48Z</time>
      </trkpt>
      <trkpt lat="43.71951" lon="5.63356">
        <ele>466.38</ele>
        <time>2016-06-13T12:57:56Z</time>
      </trkpt>
      <trkpt lat="43.71923" lon="5.63396">
        <ele>465.9</ele>
        <time>2016-06-13T12:57:58Z</time>
      </trkpt>
      <trkpt lat="43.71834" lon="5.63434">
        <ele>460.61</ele>
        <time>2016-06-13T12:58:01Z</time>
      </trkpt>
      <trkpt lat="43.71805" lon="5.63468">
        <ele>459.65</ele>
        <time>2016-06-13T12:58:03Z</time>
      </trkpt>
      <trkpt lat="43.71779" lon="5.635">
        <ele>456.28</ele>
        <time>2016-06-13T12:58:05Z</time>
      </trkpt>
      <trkpt lat="43.71762" lon="5.63528">
        <ele>452.92</ele>
        <time>2016-06-13T12:58:07Z</time>
      </trkpt>
      <trkpt lat="43.71722" lon="5.6366">
        <ele>453.4</ele>
        <time>2016-06-13T12:58:14Z</time>
      </trkpt>
      <trkpt lat="43.71672" lon="5.63819">
        <ele>450.03</ele>
        <time>2016-06-13T12:58:22Z</time>
      </trkpt>
      <trkpt lat="43.71661" lon="5.6385">
        <ele>449.07</ele>
        <time>2016-06-13T12:58:24Z</time>
      </trkpt>
      <trkpt lat="43.71612" lon="5.64001">
        <ele>448.11</ele>
        <time>2016-06-13T12:58:33Z</time>
      </trkpt>
      <trkpt lat="43.71536" lon="5.64156">
        <ele>447.63</ele>
        <time>2016-06-13T12:58:41Z</time>
      </trkpt>
      <trkpt lat="43.71436" lon="5.64281">
        <ele>445.23</ele>
        <time>2016-06-13T12:58:48Z</time>
      </trkpt>
      <trkpt lat="43.71422" lon="5.64297">
        <ele>444.75</ele>
        <time>2016-06-13T12:58:49Z</time>
      </trkpt>
      <trkpt lat="43.71352" lon="5.64331">
        <ele>439.46</ele>
        <time>2016-06-13T12:58:53Z</time>
      </trkpt>
      <trkpt lat="43.71318" lon="5.64335">
        <ele>437.54</ele>
        <time>2016-06-13T12:58:55Z</time>
      </trkpt>
      <trkpt lat="43.71279" lon="5.64362">
        <ele>433.21</ele>
        <time>2016-06-13T12:58:58Z</time>
      </trkpt>
      <trkpt lat="43.71262" lon="5.64385">
        <ele>432.25</ele>
        <time>2016-06-13T12:59:00Z</time>
      </trkpt>
      <trkpt lat="43.71249" lon="5.64399">
        <ele>429.37</ele>
        <time>2016-06-13T12:59:02Z</time>
      </trkpt>
      <trkpt lat="43.71237" lon="5.64443">
        <ele>428.89</ele>
        <time>2016-06-13T12:59:06Z</time>
      </trkpt>
      <trkpt lat="43.7121" lon="5.64604">
        <ele>426.96</ele>
        <time>2016-06-13T12:59:14Z</time>
      </trkpt>
      <trkpt lat="43.71193" lon="5.64705">
        <ele>422.16</ele>
        <time>2016-06-13T12:59:18Z</time>
      </trkpt>
      <trkpt lat="43.7119" lon="5.6478">
        <ele>417.35</ele>
        <time>2016-06-13T12:59:21Z</time>
      </trkpt>
      <trkpt lat="43.71193" lon="5.64829">
        <ele>415.43</ele>
        <time>2016-06-13T12:59:23Z</time>
      </trkpt>
      <trkpt lat="43.71177" lon="5.64919">
        <ele>413.98</ele>
        <time>2016-06-13T12:59:27Z</time>
      </trkpt>
      <trkpt lat="43.71129" lon="5.64987">
        <ele>409.18</ele>
        <time>2016-06-13T12:59:31Z</time>
      </trkpt>
      <trkpt lat="43.71099" lon="5.65013">
        <ele>407.26</ele>
        <time>2016-06-13T12:59:33Z</time>
      </trkpt>
      <trkpt lat="43.71083" lon="5.65026">
        <ele>406.29</ele>
        <time>2016-06-13T12:59:34Z</time>
      </trkpt>
      <trkpt lat="43.71024" lon="5.65099">
        <ele>404.37</ele>
        <time>2016-06-13T12:59:38Z</time>
      </trkpt>
      <trkpt lat="43.70994" lon="5.65143">
        <ele>402.93</ele>
        <time>2016-06-13T12:59:40Z</time>
      </trkpt>
      <trkpt lat="43.70949" lon="5.65214">
        <ele>399.57</ele>
        <time>2016-06-13T12:59:43Z</time>
      </trkpt>
      <trkpt lat="43.70919" lon="5.65261">
        <ele>396.2</ele>
        <time>2016-06-13T12:59:45Z</time>
      </trkpt>
      <trkpt lat="43.70904" lon="5.65283">
        <ele>396.68</ele>
        <time>2016-06-13T12:59:46Z</time>
      </trkpt>
      <trkpt lat="43.70874" lon="5.65326">
        <ele>393.8</ele>
        <time>2016-06-13T12:59:48Z</time>
      </trkpt>
      <trkpt lat="43.70827" lon="5.65383">
        <ele>391.87</ele>
        <time>2016-06-13T12:59:51Z</time>
      </trkpt>
      <trkpt lat="43.708" lon="5.65414">
        <ele>387.07</ele>
        <time>2016-06-13T12:59:53Z</time>
      </trkpt>
      <trkpt lat="43.70723" lon="5.65447">
        <ele>384.66</ele>
        <time>2016-06-13T12:59:58Z</time>
      </trkpt>
      <trkpt lat="43.70647" lon="5.65456">
        <ele>382.74</ele>
        <time>2016-06-13T13:00:05Z</time>
      </trkpt>
      <trkpt lat="43.70632" lon="5.65457">
        <ele>383.7</ele>
        <time>2016-06-13T13:00:10Z</time>
      </trkpt>
      <trkpt lat="43.70629" lon="5.65461">
        <ele>382.74</ele>
        <time>2016-06-13T13:00:12Z</time>
      </trkpt>
      <trkpt lat="43.70625" lon="5.65475">
        <ele>382.26</ele>
        <time>2016-06-13T13:00:14Z</time>
      </trkpt>
      <trkpt lat="43.70594" lon="5.6558">
        <ele>381.3</ele>
        <time>2016-06-13T13:00:22Z</time>
      </trkpt>
      <trkpt lat="43.70572" lon="5.65632">
        <ele>379.38</ele>
        <time>2016-06-13T13:00:26Z</time>
      </trkpt>
      <trkpt lat="43.70564" lon="5.65651">
        <ele>377.45</ele>
        <time>2016-06-13T13:00:28Z</time>
      </trkpt>
      <trkpt lat="43.70551" lon="5.65677">
        <ele>375.05</ele>
        <time>2016-06-13T13:00:35Z</time>
      </trkpt>
      <trkpt lat="43.70531" lon="5.65669">
        <ele>378.9</ele>
        <time>2016-06-13T13:00:40Z</time>
      </trkpt>
      <trkpt lat="43.70526" lon="5.65667">
        <ele>378.9</ele>
        <time>2016-06-13T13:00:41Z</time>
      </trkpt>
      <trkpt lat="43.7051" lon="5.65656">
        <ele>380.82</ele>
        <time>2016-06-13T13:00:44Z</time>
      </trkpt>
      <trkpt lat="43.70478" lon="5.65639">
        <ele>382.74</ele>
        <time>2016-06-13T13:00:49Z</time>
      </trkpt>
      <trkpt lat="43.70463" lon="5.65636">
        <ele>381.78</ele>
        <time>2016-06-13T13:00:57Z</time>
      </trkpt>
      <trkpt lat="43.70464" lon="5.65636">
        <ele>381.78</ele>
        <time>2016-06-13T13:01:14Z</time>
      </trkpt>
      <trkpt lat="43.70464" lon="5.65636">
        <ele>382.26</ele>
        <time>2016-06-13T13:01:53Z</time>
      </trkpt>
      <trkpt lat="43.7046" lon="5.65656">
        <ele>382.26</ele>
        <time>2016-06-13T13:02:02Z</time>
      </trkpt>
      <trkpt lat="43.7046" lon="5.65656">
        <ele>382.74</ele>
        <time>2016-06-13T13:02:22Z</time>
      </trkpt>
      <trkpt lat="43.70461" lon="5.65658">
        <ele>382.26</ele>
        <time>2016-06-13T13:03:47Z</time>
      </trkpt>
      <trkpt lat="43.70463" lon="5.6566">
        <ele>382.26</ele>
        <time>2016-06-13T13:06:34Z</time>
      </trkpt>
      <trkpt lat="43.70463" lon="5.6566">
        <ele>380.34</ele>
        <time>2016-06-13T13:06:38Z</time>
      </trkpt>
      <trkpt lat="43.70463" lon="5.65661">
        <ele>382.26</ele>
        <time>2016-06-13T13:07:06Z</time>
      </trkpt>
      <trkpt lat="43.70463" lon="5.65661">
        <ele>382.26</ele>
        <time>2016-06-13T13:07:51Z</time>
      </trkpt>
      <trkpt lat="43.70463" lon="5.65661">
        <ele>382.26</ele>
        <time>2016-06-13T13:08:20Z</time>
      </trkpt>
      <trkpt lat="43.70463" lon="5.6566">
        <ele>380.82</ele>
        <time>2016-06-13T13:09:18Z</time>
      </trkpt>
      <trkpt lat="43.70463" lon="5.6566">
        <ele>381.3</ele>
        <time>2016-06-13T13:10:37Z</time>
      </trkpt>
      <trkpt lat="43.70463" lon="5.6566">
        <ele>382.26</ele>
        <time>2016-06-13T13:12:21Z</time>
      </trkpt>
      <trkpt lat="43.70464" lon="5.65662">
        <ele>383.22</ele>
        <time>2016-06-13T13:20:27Z</time>
      </trkpt>
      <trkpt lat="43.70464" lon="5.65662">
        <ele>381.78</ele>
        <time>2016-06-13T13:21:00Z</time>
      </trkpt>
      <trkpt lat="43.70463" lon="5.65662">
        <ele>383.22</ele>
        <time>2016-06-13T13:21:48Z</time>
      </trkpt>
      <trkpt lat="43.7046" lon="5.65661">
        <ele>383.7</ele>
        <time>2016-06-13T13:31:25Z</time>
      </trkpt>
      <trkpt lat="43.7046" lon="5.65661">
        <ele>385.63</ele>
        <time>2016-06-13T13:31:30Z</time>
      </trkpt>
      <trkpt lat="43.7046" lon="5.65662">
        <ele>385.63</ele>
        <time>2016-06-13T13:32:42Z</time>
      </trkpt>
      <trkpt lat="43.7046" lon="5.65662">
        <ele>384.18</ele>
        <time>2016-06-13T13:32:47Z</time>
      </trkpt>
      <trkpt lat="43.7046" lon="5.65662">
        <ele>385.15</ele>
        <time>2016-06-13T13:34:10Z</time>
      </trkpt>
      <trkpt lat="43.7046" lon="5.65663">
        <ele>384.66</ele>
        <time>2016-06-13T13:45:21Z</time>
      </trkpt>
      <trkpt lat="43.70461" lon="5.65664">
        <ele>385.63</ele>
        <time>2016-06-13T13:50:33Z</time>
      </trkpt>
      <trkpt lat="43.70461" lon="5.65663">
        <ele>384.66</ele>
        <time>2016-06-13T14:00:38Z</time>
      </trkpt>
      <trkpt lat="43.7046" lon="5.65664">
        <ele>386.59</ele>
        <time>2016-06-13T14:02:06Z</time>
      </trkpt>
      <trkpt lat="43.70458" lon="5.65663">
        <ele>387.07</ele>
        <time>2016-06-13T14:08:21Z</time>
      </trkpt>
      <trkpt lat="43.70456" lon="5.65668">
        <ele>387.07</ele>
        <time>2016-06-13T14:08:39Z</time>
      </trkpt>
      <trkpt lat="43.70453" lon="5.6567">
        <ele>387.55</ele>
        <time>2016-06-13T14:09:20Z</time>
      </trkpt>
      <trkpt lat="43.70438" lon="5.65698">
        <ele>387.55</ele>
        <time>2016-06-13T14:09:25Z</time>
      </trkpt>
      <trkpt lat="43.70431" lon="5.65722">
        <ele>387.07</ele>
        <time>2016-06-13T14:09:29Z</time>
      </trkpt>
      <trkpt lat="43.70437" lon="5.65768">
        <ele>383.22</ele>
        <time>2016-06-13T14:09:35Z</time>
      </trkpt>
      <trkpt lat="43.70444" lon="5.65784">
        <ele>381.78</ele>
        <time>2016-06-13T14:09:37Z</time>
      </trkpt>
      <trkpt lat="43.70458" lon="5.65815">
        <ele>378.9</ele>
        <time>2016-06-13T14:09:41Z</time>
      </trkpt>
      <trkpt lat="43.70464" lon="5.65828">
        <ele>376.49</ele>
        <time>2016-06-13T14:09:43Z</time>
      </trkpt>
      <trkpt lat="43.70467" lon="5.65839">
        <ele>376.01</ele>
        <time>2016-06-13T14:09:45Z</time>
      </trkpt>
      <trkpt lat="43.70445" lon="5.65914">
        <ele>373.13</ele>
        <time>2016-06-13T14:09:53Z</time>
      </trkpt>
      <trkpt lat="43.70404" lon="5.66048">
        <ele>369.76</ele>
        <time>2016-06-13T14:10:02Z</time>
      </trkpt>
      <trkpt lat="43.70371" lon="5.66126">
        <ele>366.88</ele>
        <time>2016-06-13T14:10:07Z</time>
      </trkpt>
      <trkpt lat="43.70352" lon="5.66174">
        <ele>365.92</ele>
        <time>2016-06-13T14:10:10Z</time>
      </trkpt>
      <trkpt lat="43.70343" lon="5.66307">
        <ele>363.04</ele>
        <time>2016-06-13T14:10:17Z</time>
      </trkpt>
      <trkpt lat="43.70338" lon="5.66446">
        <ele>360.15</ele>
        <time>2016-06-13T14:10:23Z</time>
      </trkpt>
      <trkpt lat="43.70329" lon="5.66491">
        <ele>359.19</ele>
        <time>2016-06-13T14:10:25Z</time>
      </trkpt>
      <trkpt lat="43.70306" lon="5.66584">
        <ele>355.34</ele>
        <time>2016-06-13T14:10:29Z</time>
      </trkpt>
      <trkpt lat="43.70278" lon="5.66703">
        <ele>351.02</ele>
        <time>2016-06-13T14:10:34Z</time>
      </trkpt>
      <trkpt lat="43.70273" lon="5.66727">
        <ele>351.5</ele>
        <time>2016-06-13T14:10:35Z</time>
      </trkpt>
      <trkpt lat="43.70249" lon="5.66825">
        <ele>347.17</ele>
        <time>2016-06-13T14:10:39Z</time>
      </trkpt>
      <trkpt lat="43.70244" lon="5.66849">
        <ele>347.65</ele>
        <time>2016-06-13T14:10:40Z</time>
      </trkpt>
      <trkpt lat="43.70226" lon="5.66919">
        <ele>344.29</ele>
        <time>2016-06-13T14:10:43Z</time>
      </trkpt>
      <trkpt lat="43.70212" lon="5.66964">
        <ele>342.85</ele>
        <time>2016-06-13T14:10:45Z</time>
      </trkpt>
      <trkpt lat="43.70179" lon="5.67055">
        <ele>339</ele>
        <time>2016-06-13T14:10:49Z</time>
      </trkpt>
      <trkpt lat="43.70157" lon="5.67123">
        <ele>335.16</ele>
        <time>2016-06-13T14:10:52Z</time>
      </trkpt>
      <trkpt lat="43.70151" lon="5.67145">
        <ele>335.16</ele>
        <time>2016-06-13T14:10:53Z</time>
      </trkpt>
      <trkpt lat="43.70137" lon="5.67206">
        <ele>331.79</ele>
        <time>2016-06-13T14:10:56Z</time>
      </trkpt>
      <trkpt lat="43.70124" lon="5.67238">
        <ele>329.87</ele>
        <time>2016-06-13T14:10:58Z</time>
      </trkpt>
      <trkpt lat="43.70102" lon="5.67257">
        <ele>327.95</ele>
        <time>2016-06-13T14:11:00Z</time>
      </trkpt>
      <trkpt lat="43.70042" lon="5.6729">
        <ele>325.54</ele>
        <time>2016-06-13T14:11:07Z</time>
      </trkpt>
      <trkpt lat="43.70031" lon="5.6729">
        <ele>325.54</ele>
        <time>2016-06-13T14:11:10Z</time>
      </trkpt>
      <trkpt lat="43.69988" lon="5.67244">
        <ele>327.47</ele>
        <time>2016-06-13T14:11:17Z</time>
      </trkpt>
      <trkpt lat="43.69951" lon="5.672">
        <ele>330.35</ele>
        <time>2016-06-13T14:11:21Z</time>
      </trkpt>
      <trkpt lat="43.69858" lon="5.67092">
        <ele>334.68</ele>
        <time>2016-06-13T14:11:29Z</time>
      </trkpt>
      <trkpt lat="43.69846" lon="5.67077">
        <ele>333.71</ele>
        <time>2016-06-13T14:11:30Z</time>
      </trkpt>
      <trkpt lat="43.69806" lon="5.6703">
        <ele>336.12</ele>
        <time>2016-06-13T14:11:33Z</time>
      </trkpt>
      <trkpt lat="43.6969" lon="5.66969">
        <ele>334.68</ele>
        <time>2016-06-13T14:11:40Z</time>
      </trkpt>
      <trkpt lat="43.69521" lon="5.66892">
        <ele>334.2</ele>
        <time>2016-06-13T14:11:50Z</time>
      </trkpt>
      <trkpt lat="43.69479" lon="5.66857">
        <ele>330.83</ele>
        <time>2016-06-13T14:11:53Z</time>
      </trkpt>
      <trkpt lat="43.69467" lon="5.66847">
        <ele>331.31</ele>
        <time>2016-06-13T14:11:54Z</time>
      </trkpt>
      <trkpt lat="43.69385" lon="5.66839">
        <ele>330.83</ele>
        <time>2016-06-13T14:12:00Z</time>
      </trkpt>
      <trkpt lat="43.69317" lon="5.66871">
        <ele>327.47</ele>
        <time>2016-06-13T14:12:05Z</time>
      </trkpt>
      <trkpt lat="43.69291" lon="5.66874">
        <ele>326.5</ele>
        <time>2016-06-13T14:12:07Z</time>
      </trkpt>
      <trkpt lat="43.69264" lon="5.66864">
        <ele>326.5</ele>
        <time>2016-06-13T14:12:09Z</time>
      </trkpt>
      <trkpt lat="43.69192" lon="5.66825">
        <ele>324.58</ele>
        <time>2016-06-13T14:12:14Z</time>
      </trkpt>
      <trkpt lat="43.6915" lon="5.66803">
        <ele>323.62</ele>
        <time>2016-06-13T14:12:17Z</time>
      </trkpt>
      <trkpt lat="43.69109" lon="5.66759">
        <ele>324.1</ele>
        <time>2016-06-13T14:12:21Z</time>
      </trkpt>
      <trkpt lat="43.69047" lon="5.66722">
        <ele>326.02</ele>
        <time>2016-06-13T14:12:26Z</time>
      </trkpt>
      <trkpt lat="43.68916" lon="5.66714">
        <ele>326.99</ele>
        <time>2016-06-13T14:12:35Z</time>
      </trkpt>
      <trkpt lat="43.68865" lon="5.66695">
        <ele>322.18</ele>
        <time>2016-06-13T14:12:41Z</time>
      </trkpt>
      <trkpt lat="43.68863" lon="5.66737">
        <ele>321.7</ele>
        <time>2016-06-13T14:12:45Z</time>
      </trkpt>
      <trkpt lat="43.68903" lon="5.66798">
        <ele>323.62</ele>
        <time>2016-06-13T14:12:50Z</time>
      </trkpt>
      <trkpt lat="43.68946" lon="5.66894">
        <ele>323.62</ele>
        <time>2016-06-13T14:12:56Z</time>
      </trkpt>
      <trkpt lat="43.68965" lon="5.66924">
        <ele>325.06</ele>
        <time>2016-06-13T14:12:58Z</time>
      </trkpt>
      <trkpt lat="43.68991" lon="5.66999">
        <ele>328.43</ele>
        <time>2016-06-13T14:13:02Z</time>
      </trkpt>
      <trkpt lat="43.68997" lon="5.67017">
        <ele>326.99</ele>
        <time>2016-06-13T14:13:03Z</time>
      </trkpt>
      <trkpt lat="43.69007" lon="5.67046">
        <ele>325.54</ele>
        <time>2016-06-13T14:13:05Z</time>
      </trkpt>
      <trkpt lat="43.6903" lon="5.67094">
        <ele>325.54</ele>
        <time>2016-06-13T14:13:10Z</time>
      </trkpt>
      <trkpt lat="43.69041" lon="5.67153">
        <ele>327.47</ele>
        <time>2016-06-13T14:13:15Z</time>
      </trkpt>
      <trkpt lat="43.69038" lon="5.67275">
        <ele>331.31</ele>
        <time>2016-06-13T14:13:21Z</time>
      </trkpt>
      <trkpt lat="43.69037" lon="5.67298">
        <ele>332.27</ele>
        <time>2016-06-13T14:13:22Z</time>
      </trkpt>
      <trkpt lat="43.6902" lon="5.67386">
        <ele>336.12</ele>
        <time>2016-06-13T14:13:26Z</time>
      </trkpt>
      <trkpt lat="43.69017" lon="5.67408">
        <ele>337.08</ele>
        <time>2016-06-13T14:13:27Z</time>
      </trkpt>
      <trkpt lat="43.69016" lon="5.67481">
        <ele>339</ele>
        <time>2016-06-13T14:13:30Z</time>
      </trkpt>
      <trkpt lat="43.69013" lon="5.67588">
        <ele>338.52</ele>
        <time>2016-06-13T14:13:34Z</time>
      </trkpt>
      <trkpt lat="43.69003" lon="5.67671">
        <ele>343.81</ele>
        <time>2016-06-13T14:13:37Z</time>
      </trkpt>
      <trkpt lat="43.69014" lon="5.67842">
        <ele>346.69</ele>
        <time>2016-06-13T14:13:43Z</time>
      </trkpt>
      <trkpt lat="43.69017" lon="5.67872">
        <ele>345.25</ele>
        <time>2016-06-13T14:13:44Z</time>
      </trkpt>
      <trkpt lat="43.68995" lon="5.68045">
        <ele>344.77</ele>
        <time>2016-06-13T14:13:50Z</time>
      </trkpt>
      <trkpt lat="43.68966" lon="5.68116">
        <ele>347.65</ele>
        <time>2016-06-13T14:13:53Z</time>
      </trkpt>
      <trkpt lat="43.6895" lon="5.6816">
        <ele>346.21</ele>
        <time>2016-06-13T14:13:55Z</time>
      </trkpt>
      <trkpt lat="43.68938" lon="5.68235">
        <ele>349.1</ele>
        <time>2016-06-13T14:13:58Z</time>
      </trkpt>
      <trkpt lat="43.68934" lon="5.68292">
        <ele>351.5</ele>
        <time>2016-06-13T14:14:00Z</time>
      </trkpt>
      <trkpt lat="43.68914" lon="5.68634">
        <ele>352.46</ele>
        <time>2016-06-13T14:14:11Z</time>
      </trkpt>
      <trkpt lat="43.68913" lon="5.68697">
        <ele>353.9</ele>
        <time>2016-06-13T14:14:13Z</time>
      </trkpt>
      <trkpt lat="43.68912" lon="5.68854">
        <ele>357.27</ele>
        <time>2016-06-13T14:14:18Z</time>
      </trkpt>
      <trkpt lat="43.68912" lon="5.68885">
        <ele>357.27</ele>
        <time>2016-06-13T14:14:19Z</time>
      </trkpt>
      <trkpt lat="43.6891" lon="5.69041">
        <ele>358.23</ele>
        <time>2016-06-13T14:14:24Z</time>
      </trkpt>
      <trkpt lat="43.68881" lon="5.69501">
        <ele>356.79</ele>
        <time>2016-06-13T14:14:38Z</time>
      </trkpt>
      <trkpt lat="43.68879" lon="5.69535">
        <ele>356.79</ele>
        <time>2016-06-13T14:14:39Z</time>
      </trkpt>
      <trkpt lat="43.68872" lon="5.69637">
        <ele>354.38</ele>
        <time>2016-06-13T14:14:42Z</time>
      </trkpt>
      <trkpt lat="43.68869" lon="5.69671">
        <ele>351.5</ele>
        <time>2016-06-13T14:14:43Z</time>
      </trkpt>
      <trkpt lat="43.68862" lon="5.69772">
        <ele>347.17</ele>
        <time>2016-06-13T14:14:46Z</time>
      </trkpt>
      <trkpt lat="43.68856" lon="5.69835">
        <ele>346.21</ele>
        <time>2016-06-13T14:14:48Z</time>
      </trkpt>
      <trkpt lat="43.68814" lon="5.7001">
        <ele>346.21</ele>
        <time>2016-06-13T14:14:54Z</time>
      </trkpt>
      <trkpt lat="43.6872" lon="5.70211">
        <ele>341.89</ele>
        <time>2016-06-13T14:15:02Z</time>
      </trkpt>
      <trkpt lat="43.68708" lon="5.70233">
        <ele>342.37</ele>
        <time>2016-06-13T14:15:03Z</time>
      </trkpt>
      <trkpt lat="43.68618" lon="5.70409">
        <ele>340.92</ele>
        <time>2016-06-13T14:15:12Z</time>
      </trkpt>
      <trkpt lat="43.68611" lon="5.70424">
        <ele>341.41</ele>
        <time>2016-06-13T14:15:13Z</time>
      </trkpt>
      <trkpt lat="43.68581" lon="5.70528">
        <ele>339.48</ele>
        <time>2016-06-13T14:15:21Z</time>
      </trkpt>
      <trkpt lat="43.68571" lon="5.70636">
        <ele>341.89</ele>
        <time>2016-06-13T14:15:31Z</time>
      </trkpt>
      <trkpt lat="43.6857" lon="5.70681">
        <ele>339.96</ele>
        <time>2016-06-13T14:15:34Z</time>
      </trkpt>
      <trkpt lat="43.68567" lon="5.70782">
        <ele>339.48</ele>
        <time>2016-06-13T14:15:41Z</time>
      </trkpt>
      <trkpt lat="43.68563" lon="5.70984">
        <ele>340.92</ele>
        <time>2016-06-13T14:15:55Z</time>
      </trkpt>
      <trkpt lat="43.68571" lon="5.71044">
        <ele>342.85</ele>
        <time>2016-06-13T14:15:59Z</time>
      </trkpt>
      <trkpt lat="43.68611" lon="5.71204">
        <ele>343.33</ele>
        <time>2016-06-13T14:16:08Z</time>
      </trkpt>
      <trkpt lat="43.68633" lon="5.71292">
        <ele>347.17</ele>
        <time>2016-06-13T14:16:12Z</time>
      </trkpt>
      <trkpt lat="43.68697" lon="5.71545">
        <ele>343.81</ele>
        <time>2016-06-13T14:16:22Z</time>
      </trkpt>
      <trkpt lat="43.68719" lon="5.71624">
        <ele>347.17</ele>
        <time>2016-06-13T14:16:25Z</time>
      </trkpt>
      <trkpt lat="43.68833" lon="5.71998">
        <ele>346.21</ele>
        <time>2016-06-13T14:16:39Z</time>
      </trkpt>
      <trkpt lat="43.68853" lon="5.72049">
        <ele>347.65</ele>
        <time>2016-06-13T14:16:41Z</time>
      </trkpt>
      <trkpt lat="43.68909" lon="5.72133">
        <ele>346.21</ele>
        <time>2016-06-13T14:16:45Z</time>
      </trkpt>
      <trkpt lat="43.68983" lon="5.72228">
        <ele>345.25</ele>
        <time>2016-06-13T14:16:50Z</time>
      </trkpt>
      <trkpt lat="43.69254" lon="5.72569">
        <ele>347.65</ele>
        <time>2016-06-13T14:17:08Z</time>
      </trkpt>
      <trkpt lat="43.69298" lon="5.72629">
        <ele>343.81</ele>
        <time>2016-06-13T14:17:11Z</time>
      </trkpt>
      <trkpt lat="43.69312" lon="5.72651">
        <ele>344.77</ele>
        <time>2016-06-13T14:17:12Z</time>
      </trkpt>
      <trkpt lat="43.69374" lon="5.72775">
        <ele>347.65</ele>
        <time>2016-06-13T14:17:17Z</time>
      </trkpt>
      <trkpt lat="43.69418" lon="5.72845">
        <ele>349.58</ele>
        <time>2016-06-13T14:17:20Z</time>
      </trkpt>
      <trkpt lat="43.696" lon="5.73084">
        <ele>351.02</ele>
        <time>2016-06-13T14:17:32Z</time>
      </trkpt>
      <trkpt lat="43.69656" lon="5.73162">
        <ele>347.17</ele>
        <time>2016-06-13T14:17:36Z</time>
      </trkpt>
      <trkpt lat="43.69684" lon="5.73201">
        <ele>350.54</ele>
        <time>2016-06-13T14:17:38Z</time>
      </trkpt>
      <trkpt lat="43.69713" lon="5.73241">
        <ele>351.5</ele>
        <time>2016-06-13T14:17:40Z</time>
      </trkpt>
      <trkpt lat="43.69832" lon="5.73363">
        <ele>347.65</ele>
        <time>2016-06-13T14:17:47Z</time>
      </trkpt>
      <trkpt lat="43.69848" lon="5.73382">
        <ele>349.1</ele>
        <time>2016-06-13T14:17:48Z</time>
      </trkpt>
      <trkpt lat="43.699" lon="5.73472">
        <ele>346.69</ele>
        <time>2016-06-13T14:17:52Z</time>
      </trkpt>
      <trkpt lat="43.69917" lon="5.73522">
        <ele>344.77</ele>
        <time>2016-06-13T14:17:54Z</time>
      </trkpt>
      <trkpt lat="43.69929" lon="5.73572">
        <ele>343.81</ele>
        <time>2016-06-13T14:17:56Z</time>
      </trkpt>
      <trkpt lat="43.6997" lon="5.73754">
        <ele>342.85</ele>
        <time>2016-06-13T14:18:05Z</time>
      </trkpt>
      <trkpt lat="43.69988" lon="5.7388">
        <ele>340.44</ele>
        <time>2016-06-13T14:18:13Z</time>
      </trkpt>
      <trkpt lat="43.69996" lon="5.73961">
        <ele>343.33</ele>
        <time>2016-06-13T14:18:20Z</time>
      </trkpt>
      <trkpt lat="43.70006" lon="5.73968">
        <ele>343.81</ele>
        <time>2016-06-13T14:18:21Z</time>
      </trkpt>
      <trkpt lat="43.70035" lon="5.74024">
        <ele>342.37</ele>
        <time>2016-06-13T14:18:25Z</time>
      </trkpt>
      <trkpt lat="43.7005" lon="5.7408">
        <ele>344.29</ele>
        <time>2016-06-13T14:18:28Z</time>
      </trkpt>
      <trkpt lat="43.70058" lon="5.7414">
        <ele>347.65</ele>
        <time>2016-06-13T14:18:31Z</time>
      </trkpt>
      <trkpt lat="43.70061" lon="5.7416">
        <ele>348.13</ele>
        <time>2016-06-13T14:18:32Z</time>
      </trkpt>
      <trkpt lat="43.70069" lon="5.74221">
        <ele>351.98</ele>
        <time>2016-06-13T14:18:35Z</time>
      </trkpt>
      <trkpt lat="43.70072" lon="5.74242">
        <ele>351.02</ele>
        <time>2016-06-13T14:18:36Z</time>
      </trkpt>
      <trkpt lat="43.70078" lon="5.74289">
        <ele>354.86</ele>
        <time>2016-06-13T14:18:38Z</time>
      </trkpt>
      <trkpt lat="43.70084" lon="5.7434">
        <ele>357.75</ele>
        <time>2016-06-13T14:18:40Z</time>
      </trkpt>
      <trkpt lat="43.70087" lon="5.74367">
        <ele>357.27</ele>
        <time>2016-06-13T14:18:41Z</time>
      </trkpt>
      <trkpt lat="43.70101" lon="5.74472">
        <ele>358.71</ele>
        <time>2016-06-13T14:18:45Z</time>
      </trkpt>
      <trkpt lat="43.70144" lon="5.74649">
        <ele>360.63</ele>
        <time>2016-06-13T14:18:52Z</time>
      </trkpt>
      <trkpt lat="43.70156" lon="5.748">
        <ele>364</ele>
        <time>2016-06-13T14:18:58Z</time>
      </trkpt>
      <trkpt lat="43.70207" lon="5.749">
        <ele>363.04</ele>
        <time>2016-06-13T14:19:03Z</time>
      </trkpt>
      <trkpt lat="43.70311" lon="5.75041">
        <ele>366.88</ele>
        <time>2016-06-13T14:19:11Z</time>
      </trkpt>
      <trkpt lat="43.70323" lon="5.75062">
        <ele>366.88</ele>
        <time>2016-06-13T14:19:12Z</time>
      </trkpt>
      <trkpt lat="43.70346" lon="5.75101">
        <ele>367.84</ele>
        <time>2016-06-13T14:19:14Z</time>
      </trkpt>
      <trkpt lat="43.70413" lon="5.75254">
        <ele>367.84</ele>
        <time>2016-06-13T14:19:22Z</time>
      </trkpt>
      <trkpt lat="43.70435" lon="5.75319">
        <ele>367.84</ele>
        <time>2016-06-13T14:19:26Z</time>
      </trkpt>
      <trkpt lat="43.70457" lon="5.75401">
        <ele>368.8</ele>
        <time>2016-06-13T14:19:32Z</time>
      </trkpt>
      <trkpt lat="43.70479" lon="5.75421">
        <ele>370.73</ele>
        <time>2016-06-13T14:19:34Z</time>
      </trkpt>
      <trkpt lat="43.7059" lon="5.75574">
        <ele>371.21</ele>
        <time>2016-06-13T14:19:44Z</time>
      </trkpt>
      <trkpt lat="43.70627" lon="5.75665">
        <ele>373.61</ele>
        <time>2016-06-13T14:19:48Z</time>
      </trkpt>
      <trkpt lat="43.70652" lon="5.75741">
        <ele>372.17</ele>
        <time>2016-06-13T14:19:51Z</time>
      </trkpt>
      <trkpt lat="43.70769" lon="5.76091">
        <ele>373.61</ele>
        <time>2016-06-13T14:20:05Z</time>
      </trkpt>
      <trkpt lat="43.70831" lon="5.76281">
        <ele>376.97</ele>
        <time>2016-06-13T14:20:13Z</time>
      </trkpt>
      <trkpt lat="43.70861" lon="5.76373">
        <ele>376.97</ele>
        <time>2016-06-13T14:20:17Z</time>
      </trkpt>
      <trkpt lat="43.70902" lon="5.7651">
        <ele>376.97</ele>
        <time>2016-06-13T14:20:23Z</time>
      </trkpt>
      <trkpt lat="43.70906" lon="5.76602">
        <ele>375.05</ele>
        <time>2016-06-13T14:20:27Z</time>
      </trkpt>
      <trkpt lat="43.70908" lon="5.76705">
        <ele>375.53</ele>
        <time>2016-06-13T14:20:32Z</time>
      </trkpt>
      <trkpt lat="43.70934" lon="5.76764">
        <ele>377.94</ele>
        <time>2016-06-13T14:20:35Z</time>
      </trkpt>
      <trkpt lat="43.70943" lon="5.76784">
        <ele>377.45</ele>
        <time>2016-06-13T14:20:36Z</time>
      </trkpt>
      <trkpt lat="43.70992" lon="5.76889">
        <ele>379.86</ele>
        <time>2016-06-13T14:20:41Z</time>
      </trkpt>
      <trkpt lat="43.71097" lon="5.77097">
        <ele>381.3</ele>
        <time>2016-06-13T14:20:51Z</time>
      </trkpt>
      <trkpt lat="43.71181" lon="5.77297">
        <ele>382.74</ele>
        <time>2016-06-13T14:21:01Z</time>
      </trkpt>
      <trkpt lat="43.71196" lon="5.7733">
        <ele>378.42</ele>
        <time>2016-06-13T14:21:03Z</time>
      </trkpt>
      <trkpt lat="43.7121" lon="5.77362">
        <ele>376.49</ele>
        <time>2016-06-13T14:21:05Z</time>
      </trkpt>
      <trkpt lat="43.71217" lon="5.77451">
        <ele>376.01</ele>
        <time>2016-06-13T14:21:11Z</time>
      </trkpt>
      <trkpt lat="43.71236" lon="5.77487">
        <ele>376.01</ele>
        <time>2016-06-13T14:21:15Z</time>
      </trkpt>
      <trkpt lat="43.71255" lon="5.77498">
        <ele>374.57</ele>
        <time>2016-06-13T14:21:17Z</time>
      </trkpt>
      <trkpt lat="43.71282" lon="5.77537">
        <ele>375.53</ele>
        <time>2016-06-13T14:21:20Z</time>
      </trkpt>
      <trkpt lat="43.71336" lon="5.7765">
        <ele>374.09</ele>
        <time>2016-06-13T14:21:27Z</time>
      </trkpt>
      <trkpt lat="43.71344" lon="5.77668">
        <ele>374.09</ele>
        <time>2016-06-13T14:21:28Z</time>
      </trkpt>
      <trkpt lat="43.71391" lon="5.77805">
        <ele>370.73</ele>
        <time>2016-06-13T14:21:35Z</time>
      </trkpt>
      <trkpt lat="43.71413" lon="5.77859">
        <ele>368.8</ele>
        <time>2016-06-13T14:21:38Z</time>
      </trkpt>
      <trkpt lat="43.71492" lon="5.7794">
        <ele>370.73</ele>
        <time>2016-06-13T14:21:44Z</time>
      </trkpt>
      <trkpt lat="43.71504" lon="5.77956">
        <ele>366.4</ele>
        <time>2016-06-13T14:21:45Z</time>
      </trkpt>
      <trkpt lat="43.71514" lon="5.77974">
        <ele>366.4</ele>
        <time>2016-06-13T14:21:46Z</time>
      </trkpt>
      <trkpt lat="43.71543" lon="5.78089">
        <ele>366.88</ele>
        <time>2016-06-13T14:21:51Z</time>
      </trkpt>
      <trkpt lat="43.71567" lon="5.78288">
        <ele>369.28</ele>
        <time>2016-06-13T14:21:57Z</time>
      </trkpt>
      <trkpt lat="43.71571" lon="5.78324">
        <ele>364.48</ele>
        <time>2016-06-13T14:21:58Z</time>
      </trkpt>
      <trkpt lat="43.71591" lon="5.78529">
        <ele>361.59</ele>
        <time>2016-06-13T14:22:04Z</time>
      </trkpt>
      <trkpt lat="43.71598" lon="5.78677">
        <ele>356.79</ele>
        <time>2016-06-13T14:22:09Z</time>
      </trkpt>
      <trkpt lat="43.71618" lon="5.78751">
        <ele>358.71</ele>
        <time>2016-06-13T14:22:12Z</time>
      </trkpt>
      <trkpt lat="43.71644" lon="5.78784">
        <ele>356.31</ele>
        <time>2016-06-13T14:22:14Z</time>
      </trkpt>
      <trkpt lat="43.71677" lon="5.78823">
        <ele>350.06</ele>
        <time>2016-06-13T14:22:17Z</time>
      </trkpt>
      <trkpt lat="43.71688" lon="5.78861">
        <ele>349.1</ele>
        <time>2016-06-13T14:22:19Z</time>
      </trkpt>
      <trkpt lat="43.71704" lon="5.78981">
        <ele>349.58</ele>
        <time>2016-06-13T14:22:25Z</time>
      </trkpt>
      <trkpt lat="43.71706" lon="5.79027">
        <ele>348.13</ele>
        <time>2016-06-13T14:22:27Z</time>
      </trkpt>
      <trkpt lat="43.71709" lon="5.79129">
        <ele>350.06</ele>
        <time>2016-06-13T14:22:31Z</time>
      </trkpt>
      <trkpt lat="43.71739" lon="5.79326">
        <ele>352.46</ele>
        <time>2016-06-13T14:22:38Z</time>
      </trkpt>
      <trkpt lat="43.71745" lon="5.79355">
        <ele>352.46</ele>
        <time>2016-06-13T14:22:39Z</time>
      </trkpt>
      <trkpt lat="43.7178" lon="5.79522">
        <ele>356.31</ele>
        <time>2016-06-13T14:22:45Z</time>
      </trkpt>
      <trkpt lat="43.71787" lon="5.79583">
        <ele>357.27</ele>
        <time>2016-06-13T14:22:47Z</time>
      </trkpt>
      <trkpt lat="43.71822" lon="5.79856">
        <ele>356.31</ele>
        <time>2016-06-13T14:22:56Z</time>
      </trkpt>
      <trkpt lat="43.71856" lon="5.80129">
        <ele>359.19</ele>
        <time>2016-06-13T14:23:05Z</time>
      </trkpt>
      <trkpt lat="43.71851" lon="5.80349">
        <ele>358.71</ele>
        <time>2016-06-13T14:23:12Z</time>
      </trkpt>
      <trkpt lat="43.71852" lon="5.80378">
        <ele>357.75</ele>
        <time>2016-06-13T14:23:13Z</time>
      </trkpt>
      <trkpt lat="43.71893" lon="5.80601">
        <ele>357.27</ele>
        <time>2016-06-13T14:23:21Z</time>
      </trkpt>
      <trkpt lat="43.71948" lon="5.80775">
        <ele>354.86</ele>
        <time>2016-06-13T14:23:29Z</time>
      </trkpt>
      <trkpt lat="43.71979" lon="5.80866">
        <ele>354.86</ele>
        <time>2016-06-13T14:23:34Z</time>
      </trkpt>
      <trkpt lat="43.72026" lon="5.8093">
        <ele>357.75</ele>
        <time>2016-06-13T14:23:39Z</time>
      </trkpt>
      <trkpt lat="43.72059" lon="5.80967">
        <ele>356.31</ele>
        <time>2016-06-13T14:23:43Z</time>
      </trkpt>
      <trkpt lat="43.721" lon="5.81003">
        <ele>356.31</ele>
        <time>2016-06-13T14:23:48Z</time>
      </trkpt>
      <trkpt lat="43.72187" lon="5.81037">
        <ele>354.86</ele>
        <time>2016-06-13T14:23:58Z</time>
      </trkpt>
      <trkpt lat="43.72209" lon="5.81041">
        <ele>354.38</ele>
        <time>2016-06-13T14:24:05Z</time>
      </trkpt>
      <trkpt lat="43.72218" lon="5.81044">
        <ele>355.34</ele>
        <time>2016-06-13T14:24:10Z</time>
      </trkpt>
      <trkpt lat="43.72241" lon="5.81047">
        <ele>354.38</ele>
        <time>2016-06-13T14:24:18Z</time>
      </trkpt>
      <trkpt lat="43.72279" lon="5.81065">
        <ele>356.31</ele>
        <time>2016-06-13T14:24:26Z</time>
      </trkpt>
      <trkpt lat="43.72368" lon="5.81061">
        <ele>355.34</ele>
        <time>2016-06-13T14:24:37Z</time>
      </trkpt>
      <trkpt lat="43.72503" lon="5.81081">
        <ele>356.31</ele>
        <time>2016-06-13T14:24:52Z</time>
      </trkpt>
      <trkpt lat="43.7258" lon="5.8109">
        <ele>354.86</ele>
        <time>2016-06-13T14:25:02Z</time>
      </trkpt>
      <trkpt lat="43.72604" lon="5.81093">
        <ele>355.34</ele>
        <time>2016-06-13T14:25:06Z</time>
      </trkpt>
      <trkpt lat="43.72657" lon="5.81138">
        <ele>354.86</ele>
        <time>2016-06-13T14:25:14Z</time>
      </trkpt>
      <trkpt lat="43.72666" lon="5.81194">
        <ele>354.86</ele>
        <time>2016-06-13T14:25:20Z</time>
      </trkpt>
      <trkpt lat="43.72671" lon="5.81246">
        <ele>357.27</ele>
        <time>2016-06-13T14:25:25Z</time>
      </trkpt>
      <trkpt lat="43.72672" lon="5.81282">
        <ele>358.23</ele>
        <time>2016-06-13T14:25:28Z</time>
      </trkpt>
      <trkpt lat="43.72703" lon="5.81328">
        <ele>360.63</ele>
        <time>2016-06-13T14:25:34Z</time>
      </trkpt>
      <trkpt lat="43.72711" lon="5.81324">
        <ele>361.11</ele>
        <time>2016-06-13T14:25:35Z</time>
      </trkpt>
      <trkpt lat="43.7273" lon="5.81314">
        <ele>361.59</ele>
        <time>2016-06-13T14:25:37Z</time>
      </trkpt>
      <trkpt lat="43.72849" lon="5.81283">
        <ele>361.11</ele>
        <time>2016-06-13T14:25:49Z</time>
      </trkpt>
      <trkpt lat="43.7291" lon="5.81273">
        <ele>359.67</ele>
        <time>2016-06-13T14:25:56Z</time>
      </trkpt>
      <trkpt lat="43.72927" lon="5.81276">
        <ele>360.63</ele>
        <time>2016-06-13T14:25:58Z</time>
      </trkpt>
      <trkpt lat="43.72948" lon="5.81284">
        <ele>360.63</ele>
        <time>2016-06-13T14:26:01Z</time>
      </trkpt>
      <trkpt lat="43.72975" lon="5.81311">
        <ele>362.07</ele>
        <time>2016-06-13T14:26:05Z</time>
      </trkpt>
      <trkpt lat="43.73033" lon="5.81423">
        <ele>364.48</ele>
        <time>2016-06-13T14:26:14Z</time>
      </trkpt>
      <trkpt lat="43.73112" lon="5.81601">
        <ele>366.4</ele>
        <time>2016-06-13T14:26:25Z</time>
      </trkpt>
      <trkpt lat="43.73151" lon="5.81796">
        <ele>366.4</ele>
        <time>2016-06-13T14:26:35Z</time>
      </trkpt>
      <trkpt lat="43.7317" lon="5.8197">
        <ele>366.4</ele>
        <time>2016-06-13T14:26:44Z</time>
      </trkpt>
      <trkpt lat="43.73171" lon="5.81981">
        <ele>365.92</ele>
        <time>2016-06-13T14:26:45Z</time>
      </trkpt>
      <trkpt lat="43.73186" lon="5.82064">
        <ele>366.4</ele>
        <time>2016-06-13T14:26:54Z</time>
      </trkpt>
      <trkpt lat="43.73211" lon="5.82192">
        <ele>367.36</ele>
        <time>2016-06-13T14:27:04Z</time>
      </trkpt>
      <trkpt lat="43.73234" lon="5.82302">
        <ele>368.8</ele>
        <time>2016-06-13T14:27:14Z</time>
      </trkpt>
      <trkpt lat="43.7325" lon="5.82422">
        <ele>372.65</ele>
        <time>2016-06-13T14:27:21Z</time>
      </trkpt>
      <trkpt lat="43.73254" lon="5.8258">
        <ele>376.01</ele>
        <time>2016-06-13T14:27:29Z</time>
      </trkpt>
      <trkpt lat="43.73258" lon="5.8262">
        <ele>376.97</ele>
        <time>2016-06-13T14:27:31Z</time>
      </trkpt>
      <trkpt lat="43.73276" lon="5.82742">
        <ele>380.34</ele>
        <time>2016-06-13T14:27:37Z</time>
      </trkpt>
      <trkpt lat="43.73292" lon="5.82821">
        <ele>381.3</ele>
        <time>2016-06-13T14:27:41Z</time>
      </trkpt>
      <trkpt lat="43.73294" lon="5.82843">
        <ele>381.3</ele>
        <time>2016-06-13T14:27:42Z</time>
      </trkpt>
      <trkpt lat="43.73296" lon="5.83034">
        <ele>383.22</ele>
        <time>2016-06-13T14:27:51Z</time>
      </trkpt>
      <trkpt lat="43.73323" lon="5.83147">
        <ele>387.55</ele>
        <time>2016-06-13T14:27:57Z</time>
      </trkpt>
      <trkpt lat="43.73329" lon="5.83165">
        <ele>388.03</ele>
        <time>2016-06-13T14:27:58Z</time>
      </trkpt>
      <trkpt lat="43.73374" lon="5.83311">
        <ele>390.91</ele>
        <time>2016-06-13T14:28:05Z</time>
      </trkpt>
      <trkpt lat="43.73398" lon="5.83425">
        <ele>391.87</ele>
        <time>2016-06-13T14:28:10Z</time>
      </trkpt>
      <trkpt lat="43.73405" lon="5.83447">
        <ele>392.36</ele>
        <time>2016-06-13T14:28:11Z</time>
      </trkpt>
      <trkpt lat="43.73458" lon="5.83535">
        <ele>390.43</ele>
        <time>2016-06-13T14:28:16Z</time>
      </trkpt>
      <trkpt lat="43.73539" lon="5.83605">
        <ele>392.36</ele>
        <time>2016-06-13T14:28:22Z</time>
      </trkpt>
      <trkpt lat="43.7362" lon="5.83721">
        <ele>391.87</ele>
        <time>2016-06-13T14:28:29Z</time>
      </trkpt>
      <trkpt lat="43.73631" lon="5.83736">
        <ele>391.39</ele>
        <time>2016-06-13T14:28:30Z</time>
      </trkpt>
      <trkpt lat="43.73653" lon="5.83823">
        <ele>391.87</ele>
        <time>2016-06-13T14:28:35Z</time>
      </trkpt>
      <trkpt lat="43.73636" lon="5.83929">
        <ele>389.47</ele>
        <time>2016-06-13T14:28:41Z</time>
      </trkpt>
      <trkpt lat="43.73645" lon="5.83988">
        <ele>389.47</ele>
        <time>2016-06-13T14:28:45Z</time>
      </trkpt>
      <trkpt lat="43.7366" lon="5.84015">
        <ele>388.03</ele>
        <time>2016-06-13T14:28:47Z</time>
      </trkpt>
      <trkpt lat="43.73679" lon="5.84037">
        <ele>387.07</ele>
        <time>2016-06-13T14:28:49Z</time>
      </trkpt>
      <trkpt lat="43.73718" lon="5.84038">
        <ele>386.11</ele>
        <time>2016-06-13T14:28:52Z</time>
      </trkpt>
      <trkpt lat="43.73837" lon="5.84029">
        <ele>385.63</ele>
        <time>2016-06-13T14:28:59Z</time>
      </trkpt>
      <trkpt lat="43.7391" lon="5.84044">
        <ele>382.74</ele>
        <time>2016-06-13T14:29:02Z</time>
      </trkpt>
      <trkpt lat="43.73934" lon="5.84049">
        <ele>382.74</ele>
        <time>2016-06-13T14:29:03Z</time>
      </trkpt>
      <trkpt lat="43.74098" lon="5.84101">
        <ele>380.34</ele>
        <time>2016-06-13T14:29:10Z</time>
      </trkpt>
      <trkpt lat="43.74245" lon="5.8421">
        <ele>379.86</ele>
        <time>2016-06-13T14:29:17Z</time>
      </trkpt>
      <trkpt lat="43.74285" lon="5.84244">
        <ele>378.9</ele>
        <time>2016-06-13T14:29:19Z</time>
      </trkpt>
      <trkpt lat="43.7442" lon="5.84371">
        <ele>378.42</ele>
        <time>2016-06-13T14:29:26Z</time>
      </trkpt>
      <trkpt lat="43.74525" lon="5.84514">
        <ele>379.38</ele>
        <time>2016-06-13T14:29:33Z</time>
      </trkpt>
      <trkpt lat="43.7457" lon="5.84538">
        <ele>376.01</ele>
        <time>2016-06-13T14:29:36Z</time>
      </trkpt>
      <trkpt lat="43.74623" lon="5.84564">
        <ele>379.38</ele>
        <time>2016-06-13T14:29:39Z</time>
      </trkpt>
      <trkpt lat="43.7464" lon="5.84582">
        <ele>380.34</ele>
        <time>2016-06-13T14:29:40Z</time>
      </trkpt>
      <trkpt lat="43.74807" lon="5.84788">
        <ele>381.78</ele>
        <time>2016-06-13T14:29:50Z</time>
      </trkpt>
      <trkpt lat="43.74835" lon="5.84881">
        <ele>382.74</ele>
        <time>2016-06-13T14:29:54Z</time>
      </trkpt>
      <trkpt lat="43.74858" lon="5.84957">
        <ele>384.66</ele>
        <time>2016-06-13T14:29:57Z</time>
      </trkpt>
      <trkpt lat="43.74881" lon="5.85008">
        <ele>388.51</ele>
        <time>2016-06-13T14:29:59Z</time>
      </trkpt>
      <trkpt lat="43.74893" lon="5.85033">
        <ele>388.03</ele>
        <time>2016-06-13T14:30:00Z</time>
      </trkpt>
      <trkpt lat="43.74997" lon="5.85202">
        <ele>391.39</ele>
        <time>2016-06-13T14:30:07Z</time>
      </trkpt>
      <trkpt lat="43.75096" lon="5.85346">
        <ele>388.03</ele>
        <time>2016-06-13T14:30:13Z</time>
      </trkpt>
      <trkpt lat="43.75158" lon="5.85439">
        <ele>386.59</ele>
        <time>2016-06-13T14:30:17Z</time>
      </trkpt>
      <trkpt lat="43.75181" lon="5.85487">
        <ele>385.15</ele>
        <time>2016-06-13T14:30:19Z</time>
      </trkpt>
      <trkpt lat="43.75191" lon="5.85545">
        <ele>386.59</ele>
        <time>2016-06-13T14:30:21Z</time>
      </trkpt>
      <trkpt lat="43.75206" lon="5.85669">
        <ele>387.07</ele>
        <time>2016-06-13T14:30:25Z</time>
      </trkpt>
      <trkpt lat="43.75233" lon="5.85752">
        <ele>386.59</ele>
        <time>2016-06-13T14:30:28Z</time>
      </trkpt>
      <trkpt lat="43.75253" lon="5.85808">
        <ele>388.51</ele>
        <time>2016-06-13T14:30:30Z</time>
      </trkpt>
      <trkpt lat="43.75265" lon="5.85866">
        <ele>387.07</ele>
        <time>2016-06-13T14:30:32Z</time>
      </trkpt>
      <trkpt lat="43.75306" lon="5.86003">
        <ele>387.55</ele>
        <time>2016-06-13T14:30:37Z</time>
      </trkpt>
      <trkpt lat="43.75342" lon="5.86136">
        <ele>387.07</ele>
        <time>2016-06-13T14:30:42Z</time>
      </trkpt>
      <trkpt lat="43.75373" lon="5.86204">
        <ele>388.99</ele>
        <time>2016-06-13T14:30:45Z</time>
      </trkpt>
      <trkpt lat="43.75387" lon="5.86224">
        <ele>389.47</ele>
        <time>2016-06-13T14:30:46Z</time>
      </trkpt>
      <trkpt lat="43.75415" lon="5.86262">
        <ele>389.95</ele>
        <time>2016-06-13T14:30:48Z</time>
      </trkpt>
      <trkpt lat="43.75476" lon="5.86425">
        <ele>388.51</ele>
        <time>2016-06-13T14:30:55Z</time>
      </trkpt>
      <trkpt lat="43.75497" lon="5.86496">
        <ele>389.47</ele>
        <time>2016-06-13T14:30:58Z</time>
      </trkpt>
      <trkpt lat="43.75527" lon="5.86563">
        <ele>387.07</ele>
        <time>2016-06-13T14:31:01Z</time>
      </trkpt>
      <trkpt lat="43.75553" lon="5.86706">
        <ele>387.07</ele>
        <time>2016-06-13T14:31:07Z</time>
      </trkpt>
      <trkpt lat="43.75555" lon="5.86729">
        <ele>386.59</ele>
        <time>2016-06-13T14:31:08Z</time>
      </trkpt>
      <trkpt lat="43.75582" lon="5.86811">
        <ele>387.07</ele>
        <time>2016-06-13T14:31:12Z</time>
      </trkpt>
      <trkpt lat="43.7566" lon="5.86941">
        <ele>387.55</ele>
        <time>2016-06-13T14:31:20Z</time>
      </trkpt>
      <trkpt lat="43.75671" lon="5.86973">
        <ele>387.55</ele>
        <time>2016-06-13T14:31:22Z</time>
      </trkpt>
      <trkpt lat="43.75677" lon="5.87077">
        <ele>389.47</ele>
        <time>2016-06-13T14:31:27Z</time>
      </trkpt>
      <trkpt lat="43.75666" lon="5.87175">
        <ele>389.95</ele>
        <time>2016-06-13T14:31:31Z</time>
      </trkpt>
      <trkpt lat="43.75688" lon="5.87353">
        <ele>390.91</ele>
        <time>2016-06-13T14:31:39Z</time>
      </trkpt>
      <trkpt lat="43.75701" lon="5.87468">
        <ele>391.87</ele>
        <time>2016-06-13T14:31:45Z</time>
      </trkpt>
      <trkpt lat="43.75738" lon="5.87539">
        <ele>396.68</ele>
        <time>2016-06-13T14:31:50Z</time>
      </trkpt>
      <trkpt lat="43.75763" lon="5.87573">
        <ele>398.6</ele>
        <time>2016-06-13T14:31:53Z</time>
      </trkpt>
      <trkpt lat="43.75775" lon="5.87648">
        <ele>401.49</ele>
        <time>2016-06-13T14:31:58Z</time>
      </trkpt>
      <trkpt lat="43.75766" lon="5.87731">
        <ele>404.85</ele>
        <time>2016-06-13T14:32:03Z</time>
      </trkpt>
      <trkpt lat="43.75765" lon="5.87746">
        <ele>405.33</ele>
        <time>2016-06-13T14:32:04Z</time>
      </trkpt>
      <trkpt lat="43.75789" lon="5.87835">
        <ele>411.1</ele>
        <time>2016-06-13T14:32:10Z</time>
      </trkpt>
      <trkpt lat="43.75816" lon="5.87905">
        <ele>415.43</ele>
        <time>2016-06-13T14:32:15Z</time>
      </trkpt>
      <trkpt lat="43.75831" lon="5.87962">
        <ele>416.87</ele>
        <time>2016-06-13T14:32:20Z</time>
      </trkpt>
      <trkpt lat="43.7584" lon="5.87983">
        <ele>419.27</ele>
        <time>2016-06-13T14:32:22Z</time>
      </trkpt>
      <trkpt lat="43.75835" lon="5.88036">
        <ele>421.68</ele>
        <time>2016-06-13T14:32:28Z</time>
      </trkpt>
      <trkpt lat="43.75818" lon="5.88078">
        <ele>425.04</ele>
        <time>2016-06-13T14:32:32Z</time>
      </trkpt>
      <trkpt lat="43.75819" lon="5.88099">
        <ele>425.52</ele>
        <time>2016-06-13T14:32:34Z</time>
      </trkpt>
      <trkpt lat="43.75843" lon="5.88136">
        <ele>426</ele>
        <time>2016-06-13T14:32:42Z</time>
      </trkpt>
      <trkpt lat="43.75852" lon="5.88153">
        <ele>427.44</ele>
        <time>2016-06-13T14:32:45Z</time>
      </trkpt>
      <trkpt lat="43.75867" lon="5.88203">
        <ele>427.44</ele>
        <time>2016-06-13T14:32:55Z</time>
      </trkpt>
      <trkpt lat="43.75867" lon="5.88206">
        <ele>427.44</ele>
        <time>2016-06-13T14:32:56Z</time>
      </trkpt>
      <trkpt lat="43.75864" lon="5.88214">
        <ele>427.44</ele>
        <time>2016-06-13T14:32:59Z</time>
      </trkpt>
      <trkpt lat="43.75848" lon="5.88224">
        <ele>427.44</ele>
        <time>2016-06-13T14:33:02Z</time>
      </trkpt>
      <trkpt lat="43.75817" lon="5.88236">
        <ele>428.4</ele>
        <time>2016-06-13T14:33:06Z</time>
      </trkpt>
      <trkpt lat="43.75783" lon="5.88262">
        <ele>426</ele>
        <time>2016-06-13T14:33:10Z</time>
      </trkpt>
      <trkpt lat="43.75775" lon="5.88272">
        <ele>427.92</ele>
        <time>2016-06-13T14:33:11Z</time>
      </trkpt>
      <trkpt lat="43.75761" lon="5.88291">
        <ele>426.96</ele>
        <time>2016-06-13T14:33:13Z</time>
      </trkpt>
      <trkpt lat="43.75704" lon="5.88329">
        <ele>429.37</ele>
        <time>2016-06-13T14:33:19Z</time>
      </trkpt>
      <trkpt lat="43.75683" lon="5.8834">
        <ele>428.89</ele>
        <time>2016-06-13T14:33:21Z</time>
      </trkpt>
      <trkpt lat="43.75637" lon="5.8842">
        <ele>429.85</ele>
        <time>2016-06-13T14:33:28Z</time>
      </trkpt>
      <trkpt lat="43.75639" lon="5.88435">
        <ele>429.85</ele>
        <time>2016-06-13T14:33:29Z</time>
      </trkpt>
      <trkpt lat="43.75643" lon="5.88467">
        <ele>429.37</ele>
        <time>2016-06-13T14:33:31Z</time>
      </trkpt>
      <trkpt lat="43.75637" lon="5.88587">
        <ele>428.4</ele>
        <time>2016-06-13T14:33:38Z</time>
      </trkpt>
      <trkpt lat="43.75633" lon="5.88648">
        <ele>425.04</ele>
        <time>2016-06-13T14:33:42Z</time>
      </trkpt>
      <trkpt lat="43.75632" lon="5.88663">
        <ele>425.52</ele>
        <time>2016-06-13T14:33:43Z</time>
      </trkpt>
      <trkpt lat="43.75629" lon="5.88726">
        <ele>423.12</ele>
        <time>2016-06-13T14:33:47Z</time>
      </trkpt>
      <trkpt lat="43.75634" lon="5.88757">
        <ele>421.19</ele>
        <time>2016-06-13T14:33:49Z</time>
      </trkpt>
      <trkpt lat="43.75678" lon="5.88814">
        <ele>418.79</ele>
        <time>2016-06-13T14:33:55Z</time>
      </trkpt>
      <trkpt lat="43.75697" lon="5.88811">
        <ele>416.87</ele>
        <time>2016-06-13T14:33:57Z</time>
      </trkpt>
      <trkpt lat="43.75716" lon="5.88803">
        <ele>415.91</ele>
        <time>2016-06-13T14:33:59Z</time>
      </trkpt>
      <trkpt lat="43.75767" lon="5.88784">
        <ele>412.06</ele>
        <time>2016-06-13T14:34:05Z</time>
      </trkpt>
      <trkpt lat="43.75772" lon="5.88783">
        <ele>412.06</ele>
        <time>2016-06-13T14:34:06Z</time>
      </trkpt>
      <trkpt lat="43.75792" lon="5.88781">
        <ele>410.62</ele>
        <time>2016-06-13T14:34:13Z</time>
      </trkpt>
      <trkpt lat="43.758" lon="5.88806">
        <ele>408.7</ele>
        <time>2016-06-13T14:34:18Z</time>
      </trkpt>
      <trkpt lat="43.75799" lon="5.88849">
        <ele>407.26</ele>
        <time>2016-06-13T14:34:24Z</time>
      </trkpt>
      <trkpt lat="43.75798" lon="5.88894">
        <ele>404.85</ele>
        <time>2016-06-13T14:34:29Z</time>
      </trkpt>
      <trkpt lat="43.75798" lon="5.88957">
        <ele>403.41</ele>
        <time>2016-06-13T14:34:35Z</time>
      </trkpt>
      <trkpt lat="43.75797" lon="5.88991">
        <ele>401.97</ele>
        <time>2016-06-13T14:34:38Z</time>
      </trkpt>
      <trkpt lat="43.75796" lon="5.89149">
        <ele>399.08</ele>
        <time>2016-06-13T14:34:50Z</time>
      </trkpt>
      <trkpt lat="43.7579" lon="5.89321">
        <ele>398.12</ele>
        <time>2016-06-13T14:35:00Z</time>
      </trkpt>
      <trkpt lat="43.75779" lon="5.89375">
        <ele>401.49</ele>
        <time>2016-06-13T14:35:03Z</time>
      </trkpt>
      <trkpt lat="43.75764" lon="5.89432">
        <ele>405.33</ele>
        <time>2016-06-13T14:35:06Z</time>
      </trkpt>
      <trkpt lat="43.75752" lon="5.8947">
        <ele>408.7</ele>
        <time>2016-06-13T14:35:08Z</time>
      </trkpt>
      <trkpt lat="43.75722" lon="5.89552">
        <ele>410.62</ele>
        <time>2016-06-13T14:35:13Z</time>
      </trkpt>
      <trkpt lat="43.75732" lon="5.89628">
        <ele>414.95</ele>
        <time>2016-06-13T14:35:18Z</time>
      </trkpt>
      <trkpt lat="43.7575" lon="5.89655">
        <ele>416.39</ele>
        <time>2016-06-13T14:35:20Z</time>
      </trkpt>
      <trkpt lat="43.75758" lon="5.89668">
        <ele>418.79</ele>
        <time>2016-06-13T14:35:21Z</time>
      </trkpt>
      <trkpt lat="43.75786" lon="5.89746">
        <ele>422.16</ele>
        <time>2016-06-13T14:35:26Z</time>
      </trkpt>
      <trkpt lat="43.7579" lon="5.89765">
        <ele>422.16</ele>
        <time>2016-06-13T14:35:27Z</time>
      </trkpt>
      <trkpt lat="43.75827" lon="5.89983">
        <ele>424.08</ele>
        <time>2016-06-13T14:35:38Z</time>
      </trkpt>
      <trkpt lat="43.75842" lon="5.90153">
        <ele>426</ele>
        <time>2016-06-13T14:35:48Z</time>
      </trkpt>
      <trkpt lat="43.75831" lon="5.90216">
        <ele>426.96</ele>
        <time>2016-06-13T14:35:52Z</time>
      </trkpt>
      <trkpt lat="43.75803" lon="5.90397">
        <ele>425.52</ele>
        <time>2016-06-13T14:36:01Z</time>
      </trkpt>
      <trkpt lat="43.7579" lon="5.90576">
        <ele>422.16</ele>
        <time>2016-06-13T14:36:08Z</time>
      </trkpt>
      <trkpt lat="43.75753" lon="5.90822">
        <ele>421.68</ele>
        <time>2016-06-13T14:36:16Z</time>
      </trkpt>
      <trkpt lat="43.75746" lon="5.90887">
        <ele>417.35</ele>
        <time>2016-06-13T14:36:18Z</time>
      </trkpt>
      <trkpt lat="43.75736" lon="5.90985">
        <ele>415.43</ele>
        <time>2016-06-13T14:36:21Z</time>
      </trkpt>
      <trkpt lat="43.75726" lon="5.91085">
        <ele>412.06</ele>
        <time>2016-06-13T14:36:24Z</time>
      </trkpt>
      <trkpt lat="43.75719" lon="5.91151">
        <ele>410.62</ele>
        <time>2016-06-13T14:36:26Z</time>
      </trkpt>
      <trkpt lat="43.75713" lon="5.91214">
        <ele>412.06</ele>
        <time>2016-06-13T14:36:28Z</time>
      </trkpt>
      <trkpt lat="43.7566" lon="5.91515">
        <ele>412.06</ele>
        <time>2016-06-13T14:36:38Z</time>
      </trkpt>
      <trkpt lat="43.75646" lon="5.91573">
        <ele>410.14</ele>
        <time>2016-06-13T14:36:40Z</time>
      </trkpt>
      <trkpt lat="43.75619" lon="5.91689">
        <ele>411.58</ele>
        <time>2016-06-13T14:36:44Z</time>
      </trkpt>
      <trkpt lat="43.75637" lon="5.91824">
        <ele>413.98</ele>
        <time>2016-06-13T14:36:49Z</time>
      </trkpt>
      <trkpt lat="43.75651" lon="5.91847">
        <ele>414.95</ele>
        <time>2016-06-13T14:36:50Z</time>
      </trkpt>
      <trkpt lat="43.75697" lon="5.91916">
        <ele>419.75</ele>
        <time>2016-06-13T14:36:53Z</time>
      </trkpt>
      <trkpt lat="43.75757" lon="5.92015">
        <ele>425.04</ele>
        <time>2016-06-13T14:36:58Z</time>
      </trkpt>
      <trkpt lat="43.75792" lon="5.92014">
        <ele>430.81</ele>
        <time>2016-06-13T14:37:00Z</time>
      </trkpt>
      <trkpt lat="43.75828" lon="5.91993">
        <ele>434.17</ele>
        <time>2016-06-13T14:37:02Z</time>
      </trkpt>
      <trkpt lat="43.75905" lon="5.92011">
        <ele>436.58</ele>
        <time>2016-06-13T14:37:06Z</time>
      </trkpt>
      <trkpt lat="43.75943" lon="5.92044">
        <ele>438.5</ele>
        <time>2016-06-13T14:37:08Z</time>
      </trkpt>
      <trkpt lat="43.76015" lon="5.92163">
        <ele>437.54</ele>
        <time>2016-06-13T14:37:13Z</time>
      </trkpt>
      <trkpt lat="43.76031" lon="5.9222">
        <ele>435.61</ele>
        <time>2016-06-13T14:37:15Z</time>
      </trkpt>
      <trkpt lat="43.76041" lon="5.9228">
        <ele>436.58</ele>
        <time>2016-06-13T14:37:17Z</time>
      </trkpt>
      <trkpt lat="43.76051" lon="5.92341">
        <ele>439.94</ele>
        <time>2016-06-13T14:37:19Z</time>
      </trkpt>
      <trkpt lat="43.76057" lon="5.92372">
        <ele>439.46</ele>
        <time>2016-06-13T14:37:20Z</time>
      </trkpt>
      <trkpt lat="43.76098" lon="5.9251">
        <ele>435.61</ele>
        <time>2016-06-13T14:37:25Z</time>
      </trkpt>
      <trkpt lat="43.76106" lon="5.92535">
        <ele>436.1</ele>
        <time>2016-06-13T14:37:26Z</time>
      </trkpt>
      <trkpt lat="43.76113" lon="5.92559">
        <ele>435.61</ele>
        <time>2016-06-13T14:37:27Z</time>
      </trkpt>
      <trkpt lat="43.76162" lon="5.92634">
        <ele>436.58</ele>
        <time>2016-06-13T14:37:31Z</time>
      </trkpt>
      <trkpt lat="43.76235" lon="5.92701">
        <ele>437.06</ele>
        <time>2016-06-13T14:37:36Z</time>
      </trkpt>
      <trkpt lat="43.76288" lon="5.92727">
        <ele>438.98</ele>
        <time>2016-06-13T14:37:39Z</time>
      </trkpt>
      <trkpt lat="43.76308" lon="5.92771">
        <ele>439.46</ele>
        <time>2016-06-13T14:37:41Z</time>
      </trkpt>
      <trkpt lat="43.76368" lon="5.9285">
        <ele>443.79</ele>
        <time>2016-06-13T14:37:46Z</time>
      </trkpt>
      <trkpt lat="43.76427" lon="5.92902">
        <ele>447.15</ele>
        <time>2016-06-13T14:37:50Z</time>
      </trkpt>
      <trkpt lat="43.76445" lon="5.93008">
        <ele>449.07</ele>
        <time>2016-06-13T14:37:54Z</time>
      </trkpt>
      <trkpt lat="43.76443" lon="5.93037">
        <ele>447.63</ele>
        <time>2016-06-13T14:37:55Z</time>
      </trkpt>
      <trkpt lat="43.76426" lon="5.932">
        <ele>447.63</ele>
        <time>2016-06-13T14:38:01Z</time>
      </trkpt>
      <trkpt lat="43.76453" lon="5.93275">
        <ele>445.71</ele>
        <time>2016-06-13T14:38:05Z</time>
      </trkpt>
      <trkpt lat="43.7651" lon="5.93352">
        <ele>447.63</ele>
        <time>2016-06-13T14:38:10Z</time>
      </trkpt>
      <trkpt lat="43.76564" lon="5.93441">
        <ele>446.67</ele>
        <time>2016-06-13T14:38:16Z</time>
      </trkpt>
      <trkpt lat="43.76581" lon="5.93442">
        <ele>447.63</ele>
        <time>2016-06-13T14:38:17Z</time>
      </trkpt>
      <trkpt lat="43.7668" lon="5.93493">
        <ele>448.11</ele>
        <time>2016-06-13T14:38:23Z</time>
      </trkpt>
      <trkpt lat="43.76722" lon="5.93547">
        <ele>449.55</ele>
        <time>2016-06-13T14:38:26Z</time>
      </trkpt>
      <trkpt lat="43.76752" lon="5.9366">
        <ele>447.15</ele>
        <time>2016-06-13T14:38:31Z</time>
      </trkpt>
      <trkpt lat="43.76749" lon="5.93683">
        <ele>447.63</ele>
        <time>2016-06-13T14:38:32Z</time>
      </trkpt>
      <trkpt lat="43.76742" lon="5.93728">
        <ele>446.67</ele>
        <time>2016-06-13T14:38:34Z</time>
      </trkpt>
      <trkpt lat="43.76734" lon="5.93856">
        <ele>446.19</ele>
        <time>2016-06-13T14:38:40Z</time>
      </trkpt>
      <trkpt lat="43.76743" lon="5.93876">
        <ele>445.71</ele>
        <time>2016-06-13T14:38:41Z</time>
      </trkpt>
      <trkpt lat="43.76773" lon="5.93934">
        <ele>444.75</ele>
        <time>2016-06-13T14:38:44Z</time>
      </trkpt>
      <trkpt lat="43.76787" lon="5.94004">
        <ele>447.15</ele>
        <time>2016-06-13T14:38:47Z</time>
      </trkpt>
      <trkpt lat="43.76793" lon="5.94097">
        <ele>446.19</ele>
        <time>2016-06-13T14:38:51Z</time>
      </trkpt>
      <trkpt lat="43.76825" lon="5.94169">
        <ele>445.23</ele>
        <time>2016-06-13T14:38:55Z</time>
      </trkpt>
      <trkpt lat="43.76876" lon="5.94237">
        <ele>442.82</ele>
        <time>2016-06-13T14:39:02Z</time>
      </trkpt>
      <trkpt lat="43.76901" lon="5.94275">
        <ele>441.38</ele>
        <time>2016-06-13T14:39:05Z</time>
      </trkpt>
      <trkpt lat="43.76923" lon="5.94368">
        <ele>438.5</ele>
        <time>2016-06-13T14:39:10Z</time>
      </trkpt>
      <trkpt lat="43.76914" lon="5.94424">
        <ele>436.1</ele>
        <time>2016-06-13T14:39:13Z</time>
      </trkpt>
      <trkpt lat="43.76885" lon="5.94526">
        <ele>435.61</ele>
        <time>2016-06-13T14:39:19Z</time>
      </trkpt>
      <trkpt lat="43.76886" lon="5.94599">
        <ele>438.02</ele>
        <time>2016-06-13T14:39:23Z</time>
      </trkpt>
      <trkpt lat="43.76891" lon="5.94615">
        <ele>437.06</ele>
        <time>2016-06-13T14:39:24Z</time>
      </trkpt>
      <trkpt lat="43.76939" lon="5.94732">
        <ele>437.54</ele>
        <time>2016-06-13T14:39:34Z</time>
      </trkpt>
      <trkpt lat="43.76955" lon="5.9476">
        <ele>438.5</ele>
        <time>2016-06-13T14:39:37Z</time>
      </trkpt>
      <trkpt lat="43.76968" lon="5.94781">
        <ele>441.38</ele>
        <time>2016-06-13T14:39:39Z</time>
      </trkpt>
      <trkpt lat="43.77004" lon="5.94838">
        <ele>444.75</ele>
        <time>2016-06-13T14:39:44Z</time>
      </trkpt>
      <trkpt lat="43.77035" lon="5.94876">
        <ele>448.11</ele>
        <time>2016-06-13T14:39:47Z</time>
      </trkpt>
      <trkpt lat="43.77061" lon="5.94903">
        <ele>451</ele>
        <time>2016-06-13T14:39:49Z</time>
      </trkpt>
      <trkpt lat="43.77173" lon="5.95013">
        <ele>450.52</ele>
        <time>2016-06-13T14:39:56Z</time>
      </trkpt>
      <trkpt lat="43.77188" lon="5.95034">
        <ele>450.52</ele>
        <time>2016-06-13T14:39:57Z</time>
      </trkpt>
      <trkpt lat="43.77257" lon="5.95189">
        <ele>452.92</ele>
        <time>2016-06-13T14:40:03Z</time>
      </trkpt>
      <trkpt lat="43.77266" lon="5.95218">
        <ele>452.92</ele>
        <time>2016-06-13T14:40:04Z</time>
      </trkpt>
      <trkpt lat="43.77347" lon="5.95408">
        <ele>456.28</ele>
        <time>2016-06-13T14:40:11Z</time>
      </trkpt>
      <trkpt lat="43.77359" lon="5.95433">
        <ele>456.28</ele>
        <time>2016-06-13T14:40:12Z</time>
      </trkpt>
      <trkpt lat="43.77385" lon="5.95482">
        <ele>460.13</ele>
        <time>2016-06-13T14:40:14Z</time>
      </trkpt>
      <trkpt lat="43.77398" lon="5.95506">
        <ele>459.17</ele>
        <time>2016-06-13T14:40:15Z</time>
      </trkpt>
      <trkpt lat="43.77451" lon="5.95709">
        <ele>464.45</ele>
        <time>2016-06-13T14:40:22Z</time>
      </trkpt>
      <trkpt lat="43.77517" lon="5.95945">
        <ele>465.42</ele>
        <time>2016-06-13T14:40:30Z</time>
      </trkpt>
      <trkpt lat="43.77528" lon="5.96066">
        <ele>464.45</ele>
        <time>2016-06-13T14:40:34Z</time>
      </trkpt>
      <trkpt lat="43.77551" lon="5.96182">
        <ele>466.38</ele>
        <time>2016-06-13T14:40:38Z</time>
      </trkpt>
      <trkpt lat="43.77559" lon="5.9621">
        <ele>465.9</ele>
        <time>2016-06-13T14:40:39Z</time>
      </trkpt>
      <trkpt lat="43.77602" lon="5.96448">
        <ele>470.7</ele>
        <time>2016-06-13T14:40:47Z</time>
      </trkpt>
      <trkpt lat="43.7761" lon="5.96477">
        <ele>471.18</ele>
        <time>2016-06-13T14:40:48Z</time>
      </trkpt>
      <trkpt lat="43.77648" lon="5.9672">
        <ele>471.66</ele>
        <time>2016-06-13T14:40:56Z</time>
      </trkpt>
      <trkpt lat="43.77671" lon="5.96999">
        <ele>472.63</ele>
        <time>2016-06-13T14:41:05Z</time>
      </trkpt>
      <trkpt lat="43.77701" lon="5.97201">
        <ele>469.26</ele>
        <time>2016-06-13T14:41:11Z</time>
      </trkpt>
      <trkpt lat="43.77711" lon="5.97328">
        <ele>469.26</ele>
        <time>2016-06-13T14:41:15Z</time>
      </trkpt>
      <trkpt lat="43.77693" lon="5.97465">
        <ele>468.3</ele>
        <time>2016-06-13T14:41:20Z</time>
      </trkpt>
      <trkpt lat="43.77712" lon="5.97596">
        <ele>471.18</ele>
        <time>2016-06-13T14:41:25Z</time>
      </trkpt>
      <trkpt lat="43.77759" lon="5.9772">
        <ele>472.14</ele>
        <time>2016-06-13T14:41:30Z</time>
      </trkpt>
      <trkpt lat="43.77764" lon="5.97778">
        <ele>474.07</ele>
        <time>2016-06-13T14:41:32Z</time>
      </trkpt>
      <trkpt lat="43.77771" lon="5.97836">
        <ele>474.07</ele>
        <time>2016-06-13T14:41:34Z</time>
      </trkpt>
      <trkpt lat="43.77826" lon="5.97973">
        <ele>478.39</ele>
        <time>2016-06-13T14:41:39Z</time>
      </trkpt>
      <trkpt lat="43.77843" lon="5.98003">
        <ele>483.2</ele>
        <time>2016-06-13T14:41:40Z</time>
      </trkpt>
      <trkpt lat="43.77859" lon="5.98034">
        <ele>483.68</ele>
        <time>2016-06-13T14:41:41Z</time>
      </trkpt>
      <trkpt lat="43.77893" lon="5.981">
        <ele>485.6</ele>
        <time>2016-06-13T14:41:43Z</time>
      </trkpt>
      <trkpt lat="43.77975" lon="5.98255">
        <ele>481.28</ele>
        <time>2016-06-13T14:41:48Z</time>
      </trkpt>
      <trkpt lat="43.77989" lon="5.98283">
        <ele>481.76</ele>
        <time>2016-06-13T14:41:49Z</time>
      </trkpt>
      <trkpt lat="43.78015" lon="5.98338">
        <ele>481.28</ele>
        <time>2016-06-13T14:41:51Z</time>
      </trkpt>
      <trkpt lat="43.78059" lon="5.98404">
        <ele>479.35</ele>
        <time>2016-06-13T14:41:54Z</time>
      </trkpt>
      <trkpt lat="43.78089" lon="5.9845">
        <ele>481.28</ele>
        <time>2016-06-13T14:41:56Z</time>
      </trkpt>
      <trkpt lat="43.78111" lon="5.98503">
        <ele>482.72</ele>
        <time>2016-06-13T14:41:58Z</time>
      </trkpt>
      <trkpt lat="43.78122" lon="5.98564">
        <ele>484.16</ele>
        <time>2016-06-13T14:42:00Z</time>
      </trkpt>
      <trkpt lat="43.78141" lon="5.98696">
        <ele>482.24</ele>
        <time>2016-06-13T14:42:04Z</time>
      </trkpt>
      <trkpt lat="43.78156" lon="5.98763">
        <ele>486.08</ele>
        <time>2016-06-13T14:42:06Z</time>
      </trkpt>
      <trkpt lat="43.78169" lon="5.9883">
        <ele>489.45</ele>
        <time>2016-06-13T14:42:08Z</time>
      </trkpt>
      <trkpt lat="43.78176" lon="5.98864">
        <ele>485.6</ele>
        <time>2016-06-13T14:42:09Z</time>
      </trkpt>
      <trkpt lat="43.78188" lon="5.98933">
        <ele>485.12</ele>
        <time>2016-06-13T14:42:11Z</time>
      </trkpt>
      <trkpt lat="43.78205" lon="5.99036">
        <ele>488.97</ele>
        <time>2016-06-13T14:42:14Z</time>
      </trkpt>
      <trkpt lat="43.78211" lon="5.99069">
        <ele>488.97</ele>
        <time>2016-06-13T14:42:15Z</time>
      </trkpt>
      <trkpt lat="43.78228" lon="5.9913">
        <ele>487.53</ele>
        <time>2016-06-13T14:42:17Z</time>
      </trkpt>
      <trkpt lat="43.78249" lon="5.99184">
        <ele>486.56</ele>
        <time>2016-06-13T14:42:19Z</time>
      </trkpt>
      <trkpt lat="43.7827" lon="5.99232">
        <ele>484.64</ele>
        <time>2016-06-13T14:42:21Z</time>
      </trkpt>
      <trkpt lat="43.78267" lon="5.9937">
        <ele>489.93</ele>
        <time>2016-06-13T14:42:26Z</time>
      </trkpt>
      <trkpt lat="43.78277" lon="5.99532">
        <ele>492.81</ele>
        <time>2016-06-13T14:42:31Z</time>
      </trkpt>
      <trkpt lat="43.78339" lon="5.99897">
        <ele>495.7</ele>
        <time>2016-06-13T14:42:42Z</time>
      </trkpt>
      <trkpt lat="43.78346" lon="5.99955">
        <ele>492.81</ele>
        <time>2016-06-13T14:42:44Z</time>
      </trkpt>
      <trkpt lat="43.7835" lon="6.00008">
        <ele>490.41</ele>
        <time>2016-06-13T14:42:46Z</time>
      </trkpt>
      <trkpt lat="43.78347" lon="6.00056">
        <ele>491.85</ele>
        <time>2016-06-13T14:42:48Z</time>
      </trkpt>
      <trkpt lat="43.78328" lon="6.00133">
        <ele>493.77</ele>
        <time>2016-06-13T14:42:52Z</time>
      </trkpt>
      <trkpt lat="43.7832" lon="6.00168">
        <ele>495.7</ele>
        <time>2016-06-13T14:42:54Z</time>
      </trkpt>
      <trkpt lat="43.78305" lon="6.00234">
        <ele>499.06</ele>
        <time>2016-06-13T14:42:58Z</time>
      </trkpt>
      <trkpt lat="43.78285" lon="6.00321">
        <ele>500.98</ele>
        <time>2016-06-13T14:43:06Z</time>
      </trkpt>
      <trkpt lat="43.78264" lon="6.00477">
        <ele>504.35</ele>
        <time>2016-06-13T14:43:18Z</time>
      </trkpt>
      <trkpt lat="43.78263" lon="6.00491">
        <ele>503.87</ele>
        <time>2016-06-13T14:43:19Z</time>
      </trkpt>
      <trkpt lat="43.78268" lon="6.00551">
        <ele>503.39</ele>
        <time>2016-06-13T14:43:24Z</time>
      </trkpt>
      <trkpt lat="43.78254" lon="6.00658">
        <ele>501.95</ele>
        <time>2016-06-13T14:43:34Z</time>
      </trkpt>
      <trkpt lat="43.78248" lon="6.00705">
        <ele>501.95</ele>
        <time>2016-06-13T14:43:40Z</time>
      </trkpt>
      <trkpt lat="43.78247" lon="6.00742">
        <ele>502.91</ele>
        <time>2016-06-13T14:43:43Z</time>
      </trkpt>
      <trkpt lat="43.78229" lon="6.00844">
        <ele>503.87</ele>
        <time>2016-06-13T14:43:49Z</time>
      </trkpt>
      <trkpt lat="43.7819" lon="6.00967">
        <ele>505.31</ele>
        <time>2016-06-13T14:43:57Z</time>
      </trkpt>
      <trkpt lat="43.78186" lon="6.00977">
        <ele>505.31</ele>
        <time>2016-06-13T14:43:58Z</time>
      </trkpt>
      <trkpt lat="43.78179" lon="6.00988">
        <ele>504.83</ele>
        <time>2016-06-13T14:44:00Z</time>
      </trkpt>
      <trkpt lat="43.78173" lon="6.0101">
        <ele>505.79</ele>
        <time>2016-06-13T14:44:05Z</time>
      </trkpt>
      <trkpt lat="43.78175" lon="6.01014">
        <ele>504.35</ele>
        <time>2016-06-13T14:44:09Z</time>
      </trkpt>
      <trkpt lat="43.78175" lon="6.01014">
        <ele>506.27</ele>
        <time>2016-06-13T14:44:11Z</time>
      </trkpt>
      <trkpt lat="43.78175" lon="6.01014">
        <ele>505.31</ele>
        <time>2016-06-13T14:44:19Z</time>
      </trkpt>
      <trkpt lat="43.78175" lon="6.01014">
        <ele>506.75</ele>
        <time>2016-06-13T14:44:31Z</time>
      </trkpt>
      <trkpt lat="43.78175" lon="6.01014">
        <ele>505.79</ele>
        <time>2016-06-13T14:44:33Z</time>
      </trkpt>
      <trkpt lat="43.78175" lon="6.01014">
        <ele>506.75</ele>
        <time>2016-06-13T14:44:39Z</time>
      </trkpt>
      <trkpt lat="43.78185" lon="6.01028">
        <ele>506.75</ele>
        <time>2016-06-13T14:45:04Z</time>
      </trkpt>
      <trkpt lat="43.78208" lon="6.01033">
        <ele>508.19</ele>
        <time>2016-06-13T14:45:08Z</time>
      </trkpt>
      <trkpt lat="43.78224" lon="6.01027">
        <ele>509.16</ele>
        <time>2016-06-13T14:45:10Z</time>
      </trkpt>
      <trkpt lat="43.78251" lon="6.0102">
        <ele>511.08</ele>
        <time>2016-06-13T14:45:13Z</time>
      </trkpt>
      <trkpt lat="43.78291" lon="6.01047">
        <ele>514.44</ele>
        <time>2016-06-13T14:45:18Z</time>
      </trkpt>
      <trkpt lat="43.78296" lon="6.01059">
        <ele>514.44</ele>
        <time>2016-06-13T14:45:19Z</time>
      </trkpt>
      <trkpt lat="43.783" lon="6.0109">
        <ele>517.33</ele>
        <time>2016-06-13T14:45:21Z</time>
      </trkpt>
      <trkpt lat="43.78304" lon="6.01129">
        <ele>520.69</ele>
        <time>2016-06-13T14:45:23Z</time>
      </trkpt>
      <trkpt lat="43.78316" lon="6.01196">
        <ele>522.13</ele>
        <time>2016-06-13T14:45:26Z</time>
      </trkpt>
      <trkpt lat="43.78335" lon="6.01302">
        <ele>525.5</ele>
        <time>2016-06-13T14:45:30Z</time>
      </trkpt>
      <trkpt lat="43.7834" lon="6.0133">
        <ele>525.5</ele>
        <time>2016-06-13T14:45:31Z</time>
      </trkpt>
      <trkpt lat="43.78387" lon="6.01496">
        <ele>528.86</ele>
        <time>2016-06-13T14:45:37Z</time>
      </trkpt>
      <trkpt lat="43.7841" lon="6.01587">
        <ele>526.46</ele>
        <time>2016-06-13T14:45:40Z</time>
      </trkpt>
      <trkpt lat="43.78435" lon="6.01703">
        <ele>523.58</ele>
        <time>2016-06-13T14:45:44Z</time>
      </trkpt>
      <trkpt lat="43.78482" lon="6.01865">
        <ele>527.9</ele>
        <time>2016-06-13T14:45:50Z</time>
      </trkpt>
      <trkpt lat="43.78493" lon="6.01894">
        <ele>528.38</ele>
        <time>2016-06-13T14:45:51Z</time>
      </trkpt>
      <trkpt lat="43.78568" lon="6.021">
        <ele>529.34</ele>
        <time>2016-06-13T14:45:58Z</time>
      </trkpt>
      <trkpt lat="43.786" lon="6.02191">
        <ele>527.42</ele>
        <time>2016-06-13T14:46:01Z</time>
      </trkpt>
      <trkpt lat="43.78632" lon="6.0228">
        <ele>530.3</ele>
        <time>2016-06-13T14:46:04Z</time>
      </trkpt>
      <trkpt lat="43.78693" lon="6.02412">
        <ele>530.79</ele>
        <time>2016-06-13T14:46:09Z</time>
      </trkpt>
      <trkpt lat="43.78719" lon="6.02458">
        <ele>529.34</ele>
        <time>2016-06-13T14:46:11Z</time>
      </trkpt>
      <trkpt lat="43.78804" lon="6.02611">
        <ele>528.86</ele>
        <time>2016-06-13T14:46:19Z</time>
      </trkpt>
      <trkpt lat="43.78833" lon="6.02682">
        <ele>532.23</ele>
        <time>2016-06-13T14:46:22Z</time>
      </trkpt>
      <trkpt lat="43.78844" lon="6.02708">
        <ele>536.07</ele>
        <time>2016-06-13T14:46:23Z</time>
      </trkpt>
      <trkpt lat="43.78855" lon="6.02735">
        <ele>535.59</ele>
        <time>2016-06-13T14:46:24Z</time>
      </trkpt>
      <trkpt lat="43.78921" lon="6.02862">
        <ele>533.19</ele>
        <time>2016-06-13T14:46:29Z</time>
      </trkpt>
      <trkpt lat="43.7898" lon="6.02958">
        <ele>535.59</ele>
        <time>2016-06-13T14:46:33Z</time>
      </trkpt>
      <trkpt lat="43.79053" lon="6.03035">
        <ele>537.03</ele>
        <time>2016-06-13T14:46:37Z</time>
      </trkpt>
      <trkpt lat="43.7911" lon="6.0313">
        <ele>540.88</ele>
        <time>2016-06-13T14:46:41Z</time>
      </trkpt>
      <trkpt lat="43.79178" lon="6.03208">
        <ele>541.84</ele>
        <time>2016-06-13T14:46:45Z</time>
      </trkpt>
      <trkpt lat="43.79215" lon="6.03239">
        <ele>544.24</ele>
        <time>2016-06-13T14:46:47Z</time>
      </trkpt>
      <trkpt lat="43.7929" lon="6.03356">
        <ele>542.8</ele>
        <time>2016-06-13T14:46:52Z</time>
      </trkpt>
      <trkpt lat="43.79379" lon="6.03458">
        <ele>543.76</ele>
        <time>2016-06-13T14:46:57Z</time>
      </trkpt>
      <trkpt lat="43.79414" lon="6.03497">
        <ele>547.13</ele>
        <time>2016-06-13T14:46:59Z</time>
      </trkpt>
      <trkpt lat="43.79514" lon="6.03673">
        <ele>546.65</ele>
        <time>2016-06-13T14:47:06Z</time>
      </trkpt>
      <trkpt lat="43.79627" lon="6.03888">
        <ele>547.61</ele>
        <time>2016-06-13T14:47:14Z</time>
      </trkpt>
      <trkpt lat="43.79725" lon="6.04148">
        <ele>548.09</ele>
        <time>2016-06-13T14:47:23Z</time>
      </trkpt>
      <trkpt lat="43.7974" lon="6.04209">
        <ele>551.45</ele>
        <time>2016-06-13T14:47:25Z</time>
      </trkpt>
      <trkpt lat="43.79756" lon="6.04299">
        <ele>551.45</ele>
        <time>2016-06-13T14:47:28Z</time>
      </trkpt>
      <trkpt lat="43.79801" lon="6.0441">
        <ele>554.34</ele>
        <time>2016-06-13T14:47:32Z</time>
      </trkpt>
      <trkpt lat="43.79933" lon="6.046">
        <ele>554.34</ele>
        <time>2016-06-13T14:47:40Z</time>
      </trkpt>
      <trkpt lat="43.80064" lon="6.04811">
        <ele>555.3</ele>
        <time>2016-06-13T14:47:48Z</time>
      </trkpt>
      <trkpt lat="43.80114" lon="6.04889">
        <ele>560.11</ele>
        <time>2016-06-13T14:47:51Z</time>
      </trkpt>
      <trkpt lat="43.80131" lon="6.04914">
        <ele>558.66</ele>
        <time>2016-06-13T14:47:52Z</time>
      </trkpt>
      <trkpt lat="43.80206" lon="6.05">
        <ele>563.95</ele>
        <time>2016-06-13T14:47:56Z</time>
      </trkpt>
      <trkpt lat="43.8024" lon="6.05046">
        <ele>565.39</ele>
        <time>2016-06-13T14:47:58Z</time>
      </trkpt>
      <trkpt lat="43.80294" lon="6.05119">
        <ele>566.35</ele>
        <time>2016-06-13T14:48:01Z</time>
      </trkpt>
      <trkpt lat="43.80388" lon="6.05238">
        <ele>566.35</ele>
        <time>2016-06-13T14:48:06Z</time>
      </trkpt>
      <trkpt lat="43.80501" lon="6.05366">
        <ele>570.2</ele>
        <time>2016-06-13T14:48:12Z</time>
      </trkpt>
      <trkpt lat="43.80537" lon="6.05407">
        <ele>573.56</ele>
        <time>2016-06-13T14:48:14Z</time>
      </trkpt>
      <trkpt lat="43.80555" lon="6.05426">
        <ele>573.08</ele>
        <time>2016-06-13T14:48:15Z</time>
      </trkpt>
      <trkpt lat="43.80593" lon="6.05462">
        <ele>573.56</ele>
        <time>2016-06-13T14:48:17Z</time>
      </trkpt>
      <trkpt lat="43.80659" lon="6.05575">
        <ele>573.56</ele>
        <time>2016-06-13T14:48:22Z</time>
      </trkpt>
      <trkpt lat="43.80666" lon="6.05602">
        <ele>575.01</ele>
        <time>2016-06-13T14:48:23Z</time>
      </trkpt>
      <trkpt lat="43.80683" lon="6.05693">
        <ele>576.93</ele>
        <time>2016-06-13T14:48:26Z</time>
      </trkpt>
      <trkpt lat="43.80701" lon="6.05791">
        <ele>575.49</ele>
        <time>2016-06-13T14:48:29Z</time>
      </trkpt>
      <trkpt lat="43.80714" lon="6.05857">
        <ele>573.56</ele>
        <time>2016-06-13T14:48:31Z</time>
      </trkpt>
      <trkpt lat="43.80753" lon="6.06006">
        <ele>573.56</ele>
        <time>2016-06-13T14:48:36Z</time>
      </trkpt>
      <trkpt lat="43.80765" lon="6.06064">
        <ele>574.53</ele>
        <time>2016-06-13T14:48:38Z</time>
      </trkpt>
      <trkpt lat="43.80773" lon="6.06183">
        <ele>577.89</ele>
        <time>2016-06-13T14:48:42Z</time>
      </trkpt>
      <trkpt lat="43.80777" lon="6.0621">
        <ele>578.37</ele>
        <time>2016-06-13T14:48:43Z</time>
      </trkpt>
      <trkpt lat="43.80817" lon="6.06421">
        <ele>578.37</ele>
        <time>2016-06-13T14:48:51Z</time>
      </trkpt>
      <trkpt lat="43.80836" lon="6.0648">
        <ele>582.22</ele>
        <time>2016-06-13T14:48:53Z</time>
      </trkpt>
      <trkpt lat="43.80848" lon="6.06511">
        <ele>586.06</ele>
        <time>2016-06-13T14:48:54Z</time>
      </trkpt>
      <trkpt lat="43.80859" lon="6.06544">
        <ele>585.58</ele>
        <time>2016-06-13T14:48:55Z</time>
      </trkpt>
      <trkpt lat="43.80877" lon="6.06612">
        <ele>586.54</ele>
        <time>2016-06-13T14:48:57Z</time>
      </trkpt>
      <trkpt lat="43.80963" lon="6.0682">
        <ele>587.02</ele>
        <time>2016-06-13T14:49:04Z</time>
      </trkpt>
      <trkpt lat="43.80986" lon="6.06875">
        <ele>588.95</ele>
        <time>2016-06-13T14:49:06Z</time>
      </trkpt>
      <trkpt lat="43.81005" lon="6.06971">
        <ele>590.87</ele>
        <time>2016-06-13T14:49:09Z</time>
      </trkpt>
      <trkpt lat="43.81054" lon="6.07093">
        <ele>595.19</ele>
        <time>2016-06-13T14:49:13Z</time>
      </trkpt>
      <trkpt lat="43.81121" lon="6.07199">
        <ele>598.56</ele>
        <time>2016-06-13T14:49:17Z</time>
      </trkpt>
      <trkpt lat="43.81168" lon="6.07277">
        <ele>601.92</ele>
        <time>2016-06-13T14:49:20Z</time>
      </trkpt>
      <trkpt lat="43.81181" lon="6.07302">
        <ele>598.08</ele>
        <time>2016-06-13T14:49:21Z</time>
      </trkpt>
      <trkpt lat="43.81193" lon="6.07327">
        <ele>598.56</ele>
        <time>2016-06-13T14:49:22Z</time>
      </trkpt>
      <trkpt lat="43.81203" lon="6.07352">
        <ele>598.08</ele>
        <time>2016-06-13T14:49:23Z</time>
      </trkpt>
      <trkpt lat="43.81236" lon="6.07492">
        <ele>600</ele>
        <time>2016-06-13T14:49:28Z</time>
      </trkpt>
      <trkpt lat="43.81274" lon="6.07674">
        <ele>597.12</ele>
        <time>2016-06-13T14:49:34Z</time>
      </trkpt>
      <trkpt lat="43.81284" lon="6.07736">
        <ele>592.31</ele>
        <time>2016-06-13T14:49:37Z</time>
      </trkpt>
      <trkpt lat="43.81289" lon="6.07768">
        <ele>589.91</ele>
        <time>2016-06-13T14:49:41Z</time>
      </trkpt>
      <trkpt lat="43.81292" lon="6.07788">
        <ele>589.43</ele>
        <time>2016-06-13T14:49:52Z</time>
      </trkpt>
      <trkpt lat="43.81292" lon="6.07795">
        <ele>590.39</ele>
        <time>2016-06-13T14:50:09Z</time>
      </trkpt>
      <trkpt lat="43.81292" lon="6.07795">
        <ele>589.43</ele>
        <time>2016-06-13T14:50:16Z</time>
      </trkpt>
      <trkpt lat="43.81292" lon="6.07795">
        <ele>589.43</ele>
        <time>2016-06-13T14:50:46Z</time>
      </trkpt>
      <trkpt lat="43.81292" lon="6.07795">
        <ele>590.39</ele>
        <time>2016-06-13T14:51:12Z</time>
      </trkpt>
      <trkpt lat="43.81294" lon="6.07829">
        <ele>590.39</ele>
        <time>2016-06-13T14:51:58Z</time>
      </trkpt>
      <trkpt lat="43.81308" lon="6.07946">
        <ele>590.39</ele>
        <time>2016-06-13T14:52:08Z</time>
      </trkpt>
      <trkpt lat="43.81336" lon="6.08047">
        <ele>593.75</ele>
        <time>2016-06-13T14:52:14Z</time>
      </trkpt>
      <trkpt lat="43.81412" lon="6.0821">
        <ele>594.71</ele>
        <time>2016-06-13T14:52:23Z</time>
      </trkpt>
      <trkpt lat="43.81449" lon="6.08289">
        <ele>597.6</ele>
        <time>2016-06-13T14:52:27Z</time>
      </trkpt>
      <trkpt lat="43.81478" lon="6.08354">
        <ele>598.08</ele>
        <time>2016-06-13T14:52:30Z</time>
      </trkpt>
      <trkpt lat="43.81496" lon="6.08431">
        <ele>600</ele>
        <time>2016-06-13T14:52:33Z</time>
      </trkpt>
      <trkpt lat="43.81503" lon="6.08484">
        <ele>601.44</ele>
        <time>2016-06-13T14:52:35Z</time>
      </trkpt>
      <trkpt lat="43.81511" lon="6.08587">
        <ele>605.77</ele>
        <time>2016-06-13T14:52:39Z</time>
      </trkpt>
      <trkpt lat="43.81513" lon="6.08613">
        <ele>605.29</ele>
        <time>2016-06-13T14:52:40Z</time>
      </trkpt>
      <trkpt lat="43.81516" lon="6.08766">
        <ele>602.88</ele>
        <time>2016-06-13T14:52:46Z</time>
      </trkpt>
      <trkpt lat="43.81522" lon="6.08838">
        <ele>605.29</ele>
        <time>2016-06-13T14:52:49Z</time>
      </trkpt>
      <trkpt lat="43.81529" lon="6.0888">
        <ele>602.4</ele>
        <time>2016-06-13T14:52:51Z</time>
      </trkpt>
      <trkpt lat="43.81543" lon="6.08951">
        <ele>600.96</ele>
        <time>2016-06-13T14:52:55Z</time>
      </trkpt>
      <trkpt lat="43.81549" lon="6.08977">
        <ele>599.52</ele>
        <time>2016-06-13T14:52:57Z</time>
      </trkpt>
      <trkpt lat="43.81559" lon="6.09008">
        <ele>600</ele>
        <time>2016-06-13T14:53:02Z</time>
      </trkpt>
      <trkpt lat="43.81561" lon="6.09022">
        <ele>600.48</ele>
        <time>2016-06-13T14:53:05Z</time>
      </trkpt>
      <trkpt lat="43.81591" lon="6.09019">
        <ele>601.44</ele>
        <time>2016-06-13T14:53:12Z</time>
      </trkpt>
      <trkpt lat="43.81595" lon="6.0902">
        <ele>601.44</ele>
        <time>2016-06-13T14:53:13Z</time>
      </trkpt>
      <trkpt lat="43.81601" lon="6.09022">
        <ele>600</ele>
        <time>2016-06-13T14:53:21Z</time>
      </trkpt>
      <trkpt lat="43.81603" lon="6.09022">
        <ele>600</ele>
        <time>2016-06-13T14:53:39Z</time>
      </trkpt>
      <trkpt lat="43.81621" lon="6.09024">
        <ele>602.4</ele>
        <time>2016-06-13T14:53:43Z</time>
      </trkpt>
      <trkpt lat="43.81672" lon="6.09027">
        <ele>602.88</ele>
        <time>2016-06-13T14:53:54Z</time>
      </trkpt>
      <trkpt lat="43.81723" lon="6.09037">
        <ele>601.92</ele>
        <time>2016-06-13T14:54:05Z</time>
      </trkpt>
      <trkpt lat="43.81741" lon="6.09041">
        <ele>600.96</ele>
        <time>2016-06-13T14:54:09Z</time>
      </trkpt>
      <trkpt lat="43.81748" lon="6.09042">
        <ele>600.96</ele>
        <time>2016-06-13T14:54:19Z</time>
      </trkpt>
      <trkpt lat="43.81767" lon="6.09047">
        <ele>601.44</ele>
        <time>2016-06-13T14:54:31Z</time>
      </trkpt>
      <trkpt lat="43.81788" lon="6.09052">
        <ele>601.92</ele>
        <time>2016-06-13T14:54:40Z</time>
      </trkpt>
      <trkpt lat="43.81801" lon="6.09056">
        <ele>603.36</ele>
        <time>2016-06-13T14:54:43Z</time>
      </trkpt>
      <trkpt lat="43.81843" lon="6.09064">
        <ele>604.33</ele>
        <time>2016-06-13T14:54:50Z</time>
      </trkpt>
      <trkpt lat="43.81852" lon="6.09065">
        <ele>601.92</ele>
        <time>2016-06-13T14:54:52Z</time>
      </trkpt>
      <trkpt lat="43.81867" lon="6.09081">
        <ele>602.88</ele>
        <time>2016-06-13T14:54:56Z</time>
      </trkpt>
      <trkpt lat="43.81877" lon="6.09089">
        <ele>603.85</ele>
        <time>2016-06-13T14:55:04Z</time>
      </trkpt>
      <trkpt lat="43.81877" lon="6.09089">
        <ele>602.88</ele>
        <time>2016-06-13T14:55:10Z</time>
      </trkpt>
      <trkpt lat="43.81877" lon="6.09089">
        <ele>596.64</ele>
        <time>2016-06-13T14:55:26Z</time>
      </trkpt>
      <trkpt lat="43.81877" lon="6.09089">
        <ele>602.4</ele>
        <time>2016-06-13T14:55:27Z</time>
      </trkpt>
      <trkpt lat="43.81877" lon="6.09089">
        <ele>605.29</ele>
        <time>2016-06-13T14:55:34Z</time>
      </trkpt>
      <trkpt lat="43.81877" lon="6.09089">
        <ele>600.48</ele>
        <time>2016-06-13T14:55:35Z</time>
      </trkpt>
      <trkpt lat="43.81877" lon="6.09089">
        <ele>602.88</ele>
        <time>2016-06-13T14:55:36Z</time>
      </trkpt>
      <trkpt lat="43.81877" lon="6.0909">
        <ele>604.33</ele>
        <time>2016-06-13T14:56:04Z</time>
      </trkpt>
      <trkpt lat="43.81876" lon="6.09088">
        <ele>604.33</ele>
        <time>2016-06-13T14:57:24Z</time>
      </trkpt>
      <trkpt lat="43.81884" lon="6.09094">
        <ele>604.33</ele>
        <time>2016-06-13T14:57:28Z</time>
      </trkpt>
      <trkpt lat="43.81879" lon="6.09078">
        <ele>604.33</ele>
        <time>2016-06-13T14:57:36Z</time>
      </trkpt>
      <trkpt lat="43.81877" lon="6.09076">
        <ele>602.88</ele>
        <time>2016-06-13T14:57:38Z</time>
      </trkpt>
      <trkpt lat="43.81863" lon="6.09051">
        <ele>603.36</ele>
        <time>2016-06-13T14:57:47Z</time>
      </trkpt>
      <trkpt lat="43.81855" lon="6.09024">
        <ele>601.92</ele>
        <time>2016-06-13T14:57:51Z</time>
      </trkpt>
      <trkpt lat="43.81852" lon="6.09016">
        <ele>602.4</ele>
        <time>2016-06-13T14:57:52Z</time>
      </trkpt>
      <trkpt lat="43.81861" lon="6.08966">
        <ele>601.92</ele>
        <time>2016-06-13T14:57:57Z</time>
      </trkpt>
      <trkpt lat="43.81945" lon="6.08871">
        <ele>603.85</ele>
        <time>2016-06-13T14:58:08Z</time>
      </trkpt>
      <trkpt lat="43.81967" lon="6.08848">
        <ele>603.85</ele>
        <time>2016-06-13T14:58:11Z</time>
      </trkpt>
      <trkpt lat="43.82008" lon="6.08859">
        <ele>604.33</ele>
        <time>2016-06-13T14:58:16Z</time>
      </trkpt>
      <trkpt lat="43.82034" lon="6.08906">
        <ele>606.73</ele>
        <time>2016-06-13T14:58:20Z</time>
      </trkpt>
      <trkpt lat="43.8209" lon="6.09012">
        <ele>607.21</ele>
        <time>2016-06-13T14:58:28Z</time>
      </trkpt>
      <trkpt lat="43.82154" lon="6.09092">
        <ele>609.13</ele>
        <time>2016-06-13T14:58:34Z</time>
      </trkpt>
      <trkpt lat="43.82254" lon="6.09157">
        <ele>609.13</ele>
        <time>2016-06-13T14:58:42Z</time>
      </trkpt>
      <trkpt lat="43.82291" lon="6.09184">
        <ele>609.61</ele>
        <time>2016-06-13T14:58:45Z</time>
      </trkpt>
      <trkpt lat="43.82339" lon="6.09262">
        <ele>612.5</ele>
        <time>2016-06-13T14:58:50Z</time>
      </trkpt>
      <trkpt lat="43.82349" lon="6.09283">
        <ele>613.94</ele>
        <time>2016-06-13T14:58:51Z</time>
      </trkpt>
      <trkpt lat="43.82372" lon="6.09321">
        <ele>614.9</ele>
        <time>2016-06-13T14:58:53Z</time>
      </trkpt>
      <trkpt lat="43.82418" lon="6.0936">
        <ele>616.34</ele>
        <time>2016-06-13T14:58:56Z</time>
      </trkpt>
      <trkpt lat="43.82472" lon="6.09391">
        <ele>621.15</ele>
        <time>2016-06-13T14:58:59Z</time>
      </trkpt>
      <trkpt lat="43.8249" lon="6.09402">
        <ele>621.63</ele>
        <time>2016-06-13T14:59:00Z</time>
      </trkpt>
      <trkpt lat="43.82592" lon="6.09503">
        <ele>621.63</ele>
        <time>2016-06-13T14:59:06Z</time>
      </trkpt>
      <trkpt lat="43.82715" lon="6.09552">
        <ele>625.47</ele>
        <time>2016-06-13T14:59:12Z</time>
      </trkpt>
      <trkpt lat="43.82772" lon="6.09592">
        <ele>630.76</ele>
        <time>2016-06-13T14:59:15Z</time>
      </trkpt>
      <trkpt lat="43.82806" lon="6.09628">
        <ele>633.17</ele>
        <time>2016-06-13T14:59:17Z</time>
      </trkpt>
      <trkpt lat="43.82841" lon="6.09661">
        <ele>636.05</ele>
        <time>2016-06-13T14:59:19Z</time>
      </trkpt>
      <trkpt lat="43.82899" lon="6.09702">
        <ele>639.89</ele>
        <time>2016-06-13T14:59:22Z</time>
      </trkpt>
      <trkpt lat="43.83075" lon="6.09844">
        <ele>642.78</ele>
        <time>2016-06-13T14:59:31Z</time>
      </trkpt>
      <trkpt lat="43.83111" lon="6.09888">
        <ele>643.74</ele>
        <time>2016-06-13T14:59:33Z</time>
      </trkpt>
      <trkpt lat="43.83252" lon="6.10015">
        <ele>645.66</ele>
        <time>2016-06-13T14:59:40Z</time>
      </trkpt>
      <trkpt lat="43.83289" lon="6.1005">
        <ele>644.22</ele>
        <time>2016-06-13T14:59:42Z</time>
      </trkpt>
      <trkpt lat="43.83363" lon="6.10203">
        <ele>646.62</ele>
        <time>2016-06-13T14:59:48Z</time>
      </trkpt>
      <trkpt lat="43.83387" lon="6.10295">
        <ele>647.59</ele>
        <time>2016-06-13T14:59:51Z</time>
      </trkpt>
      <trkpt lat="43.83414" lon="6.1035">
        <ele>645.18</ele>
        <time>2016-06-13T14:59:53Z</time>
      </trkpt>
      <trkpt lat="43.83526" lon="6.10478">
        <ele>647.1</ele>
        <time>2016-06-13T14:59:59Z</time>
      </trkpt>
      <trkpt lat="43.83635" lon="6.10601">
        <ele>650.47</ele>
        <time>2016-06-13T15:00:05Z</time>
      </trkpt>
      <trkpt lat="43.83654" lon="6.10616">
        <ele>650.95</ele>
        <time>2016-06-13T15:00:06Z</time>
      </trkpt>
      <trkpt lat="43.83737" lon="6.10641">
        <ele>657.2</ele>
        <time>2016-06-13T15:00:10Z</time>
      </trkpt>
      <trkpt lat="43.83801" lon="6.10612">
        <ele>660.56</ele>
        <time>2016-06-13T15:00:13Z</time>
      </trkpt>
      <trkpt lat="43.8382" lon="6.10594">
        <ele>661.52</ele>
        <time>2016-06-13T15:00:14Z</time>
      </trkpt>
      <trkpt lat="43.83857" lon="6.10556">
        <ele>666.81</ele>
        <time>2016-06-13T15:00:16Z</time>
      </trkpt>
      <trkpt lat="43.8394" lon="6.10507">
        <ele>670.66</ele>
        <time>2016-06-13T15:00:20Z</time>
      </trkpt>
      <trkpt lat="43.83984" lon="6.10501">
        <ele>675.94</ele>
        <time>2016-06-13T15:00:22Z</time>
      </trkpt>
      <trkpt lat="43.84005" lon="6.10504">
        <ele>674.98</ele>
        <time>2016-06-13T15:00:23Z</time>
      </trkpt>
      <trkpt lat="43.84043" lon="6.10513">
        <ele>674.02</ele>
        <time>2016-06-13T15:00:25Z</time>
      </trkpt>
      <trkpt lat="43.8407" lon="6.10524">
        <ele>672.58</ele>
        <time>2016-06-13T15:00:27Z</time>
      </trkpt>
      <trkpt lat="43.84093" lon="6.10582">
        <ele>675.46</ele>
        <time>2016-06-13T15:00:33Z</time>
      </trkpt>
      <trkpt lat="43.84094" lon="6.10592">
        <ele>675.46</ele>
        <time>2016-06-13T15:00:34Z</time>
      </trkpt>
      <trkpt lat="43.84094" lon="6.10611">
        <ele>677.87</ele>
        <time>2016-06-13T15:00:36Z</time>
      </trkpt>
      <trkpt lat="43.84087" lon="6.10634">
        <ele>682.67</ele>
        <time>2016-06-13T15:00:38Z</time>
      </trkpt>
      <trkpt lat="43.84079" lon="6.10647">
        <ele>682.19</ele>
        <time>2016-06-13T15:00:39Z</time>
      </trkpt>
      <trkpt lat="43.84017" lon="6.10621">
        <ele>682.19</ele>
        <time>2016-06-13T15:00:41Z</time>
      </trkpt>
      <trkpt lat="43.83984" lon="6.10641">
        <ele>681.23</ele>
        <time>2016-06-13T15:00:44Z</time>
      </trkpt>
      <trkpt lat="43.83983" lon="6.10655">
        <ele>682.67</ele>
        <time>2016-06-13T15:00:46Z</time>
      </trkpt>
      <trkpt lat="43.83981" lon="6.10656">
        <ele>684.12</ele>
        <time>2016-06-13T15:00:47Z</time>
      </trkpt>
      <trkpt lat="43.83985" lon="6.10647">
        <ele>689.4</ele>
        <time>2016-06-13T15:00:50Z</time>
      </trkpt>
      <trkpt lat="43.84016" lon="6.10641">
        <ele>693.25</ele>
        <time>2016-06-13T15:00:52Z</time>
      </trkpt>
      <trkpt lat="43.84036" lon="6.10638">
        <ele>694.69</ele>
        <time>2016-06-13T15:00:53Z</time>
      </trkpt>
      <trkpt lat="43.84119" lon="6.10657">
        <ele>695.17</ele>
        <time>2016-06-13T15:00:57Z</time>
      </trkpt>
      <trkpt lat="43.84158" lon="6.10682">
        <ele>699.02</ele>
        <time>2016-06-13T15:00:59Z</time>
      </trkpt>
      <trkpt lat="43.84208" lon="6.10762">
        <ele>703.82</ele>
        <time>2016-06-13T15:01:03Z</time>
      </trkpt>
      <trkpt lat="43.8423" lon="6.10808">
        <ele>705.75</ele>
        <time>2016-06-13T15:01:05Z</time>
      </trkpt>
      <trkpt lat="43.84302" lon="6.10842">
        <ele>709.11</ele>
        <time>2016-06-13T15:01:09Z</time>
      </trkpt>
      <trkpt lat="43.8434" lon="6.10824">
        <ele>710.07</ele>
        <time>2016-06-13T15:01:11Z</time>
      </trkpt>
      <trkpt lat="43.84413" lon="6.10771">
        <ele>712.47</ele>
        <time>2016-06-13T15:01:15Z</time>
      </trkpt>
      <trkpt lat="43.84504" lon="6.10811">
        <ele>716.8</ele>
        <time>2016-06-13T15:01:20Z</time>
      </trkpt>
      <trkpt lat="43.84551" lon="6.10844">
        <ele>721.13</ele>
        <time>2016-06-13T15:01:22Z</time>
      </trkpt>
      <trkpt lat="43.84595" lon="6.10877">
        <ele>722.57</ele>
        <time>2016-06-13T15:01:24Z</time>
      </trkpt>
      <trkpt lat="43.84698" lon="6.10953">
        <ele>726.41</ele>
        <time>2016-06-13T15:01:29Z</time>
      </trkpt>
      <trkpt lat="43.84769" lon="6.1103">
        <ele>732.66</ele>
        <time>2016-06-13T15:01:33Z</time>
      </trkpt>
      <trkpt lat="43.84796" lon="6.1108">
        <ele>734.1</ele>
        <time>2016-06-13T15:01:35Z</time>
      </trkpt>
      <trkpt lat="43.84808" lon="6.11104">
        <ele>735.07</ele>
        <time>2016-06-13T15:01:36Z</time>
      </trkpt>
      <trkpt lat="43.84876" lon="6.1117">
        <ele>738.91</ele>
        <time>2016-06-13T15:01:40Z</time>
      </trkpt>
      <trkpt lat="43.84922" lon="6.11183">
        <ele>739.87</ele>
        <time>2016-06-13T15:01:42Z</time>
      </trkpt>
      <trkpt lat="43.84945" lon="6.11186">
        <ele>741.31</ele>
        <time>2016-06-13T15:01:43Z</time>
      </trkpt>
      <trkpt lat="43.85014" lon="6.11187">
        <ele>747.56</ele>
        <time>2016-06-13T15:01:46Z</time>
      </trkpt>
      <trkpt lat="43.85114" lon="6.11247">
        <ele>748.52</ele>
        <time>2016-06-13T15:01:51Z</time>
      </trkpt>
      <trkpt lat="43.85144" lon="6.11293">
        <ele>750.45</ele>
        <time>2016-06-13T15:01:53Z</time>
      </trkpt>
      <trkpt lat="43.85213" lon="6.11421">
        <ele>754.77</ele>
        <time>2016-06-13T15:01:58Z</time>
      </trkpt>
      <trkpt lat="43.85254" lon="6.11505">
        <ele>758.62</ele>
        <time>2016-06-13T15:02:01Z</time>
      </trkpt>
      <trkpt lat="43.85297" lon="6.11591">
        <ele>758.62</ele>
        <time>2016-06-13T15:02:04Z</time>
      </trkpt>
      <trkpt lat="43.85436" lon="6.1174">
        <ele>760.54</ele>
        <time>2016-06-13T15:02:11Z</time>
      </trkpt>
      <trkpt lat="43.85495" lon="6.11797">
        <ele>764.39</ele>
        <time>2016-06-13T15:02:14Z</time>
      </trkpt>
      <trkpt lat="43.85665" lon="6.11969">
        <ele>768.23</ele>
        <time>2016-06-13T15:02:23Z</time>
      </trkpt>
      <trkpt lat="43.85719" lon="6.12019">
        <ele>764.39</ele>
        <time>2016-06-13T15:02:26Z</time>
      </trkpt>
      <trkpt lat="43.85735" lon="6.12034">
        <ele>764.87</ele>
        <time>2016-06-13T15:02:27Z</time>
      </trkpt>
      <trkpt lat="43.85751" lon="6.12048">
        <ele>763.9</ele>
        <time>2016-06-13T15:02:28Z</time>
      </trkpt>
      <trkpt lat="43.85798" lon="6.12128">
        <ele>764.39</ele>
        <time>2016-06-13T15:02:32Z</time>
      </trkpt>
      <trkpt lat="43.85834" lon="6.12229">
        <ele>766.31</ele>
        <time>2016-06-13T15:02:36Z</time>
      </trkpt>
      <trkpt lat="43.85884" lon="6.1231">
        <ele>768.71</ele>
        <time>2016-06-13T15:02:40Z</time>
      </trkpt>
      <trkpt lat="43.85944" lon="6.12385">
        <ele>767.27</ele>
        <time>2016-06-13T15:02:45Z</time>
      </trkpt>
      <trkpt lat="43.85987" lon="6.12435">
        <ele>765.35</ele>
        <time>2016-06-13T15:02:49Z</time>
      </trkpt>
      <trkpt lat="43.86033" lon="6.12488">
        <ele>764.87</ele>
        <time>2016-06-13T15:02:54Z</time>
      </trkpt>
      <trkpt lat="43.86073" lon="6.12518">
        <ele>767.75</ele>
        <time>2016-06-13T15:02:58Z</time>
      </trkpt>
      <trkpt lat="43.86152" lon="6.12573">
        <ele>767.27</ele>
        <time>2016-06-13T15:03:06Z</time>
      </trkpt>
      <trkpt lat="43.8625" lon="6.12645">
        <ele>769.19</ele>
        <time>2016-06-13T15:03:18Z</time>
      </trkpt>
      <trkpt lat="43.86326" lon="6.12699">
        <ele>769.19</ele>
        <time>2016-06-13T15:03:30Z</time>
      </trkpt>
      <trkpt lat="43.86388" lon="6.12744">
        <ele>772.08</ele>
        <time>2016-06-13T15:03:40Z</time>
      </trkpt>
      <trkpt lat="43.86437" lon="6.12783">
        <ele>771.6</ele>
        <time>2016-06-13T15:03:47Z</time>
      </trkpt>
      <trkpt lat="43.86471" lon="6.12789">
        <ele>773.04</ele>
        <time>2016-06-13T15:03:52Z</time>
      </trkpt>
      <trkpt lat="43.86586" lon="6.12797">
        <ele>774</ele>
        <time>2016-06-13T15:04:05Z</time>
      </trkpt>
      <trkpt lat="43.86727" lon="6.1284">
        <ele>775.44</ele>
        <time>2016-06-13T15:04:20Z</time>
      </trkpt>
      <trkpt lat="43.86782" lon="6.12863">
        <ele>777.36</ele>
        <time>2016-06-13T15:04:25Z</time>
      </trkpt>
      <trkpt lat="43.86852" lon="6.12892">
        <ele>778.81</ele>
        <time>2016-06-13T15:04:31Z</time>
      </trkpt>
      <trkpt lat="43.86946" lon="6.12908">
        <ele>776.4</ele>
        <time>2016-06-13T15:04:40Z</time>
      </trkpt>
      <trkpt lat="43.86952" lon="6.12907">
        <ele>777.84</ele>
        <time>2016-06-13T15:04:41Z</time>
      </trkpt>
      <trkpt lat="43.86962" lon="6.12906">
        <ele>774.96</ele>
        <time>2016-06-13T15:04:48Z</time>
      </trkpt>
      <trkpt lat="43.86962" lon="6.12906">
        <ele>777.84</ele>
        <time>2016-06-13T15:04:50Z</time>
      </trkpt>
      <trkpt lat="43.8697" lon="6.12902">
        <ele>775.92</ele>
        <time>2016-06-13T15:04:53Z</time>
      </trkpt>
      <trkpt lat="43.86986" lon="6.129">
        <ele>779.77</ele>
        <time>2016-06-13T15:04:55Z</time>
      </trkpt>
      <trkpt lat="43.87065" lon="6.12907">
        <ele>780.73</ele>
        <time>2016-06-13T15:05:01Z</time>
      </trkpt>
      <trkpt lat="43.87116" lon="6.12922">
        <ele>784.09</ele>
        <time>2016-06-13T15:05:04Z</time>
      </trkpt>
      <trkpt lat="43.87259" lon="6.1296">
        <ele>787.94</ele>
        <time>2016-06-13T15:05:11Z</time>
      </trkpt>
      <trkpt lat="43.87282" lon="6.12962">
        <ele>787.94</ele>
        <time>2016-06-13T15:05:12Z</time>
      </trkpt>
      <trkpt lat="43.87376" lon="6.12974">
        <ele>792.26</ele>
        <time>2016-06-13T15:05:16Z</time>
      </trkpt>
      <trkpt lat="43.87468" lon="6.12994">
        <ele>792.74</ele>
        <time>2016-06-13T15:05:20Z</time>
      </trkpt>
      <trkpt lat="43.87536" lon="6.13011">
        <ele>796.11</ele>
        <time>2016-06-13T15:05:23Z</time>
      </trkpt>
      <trkpt lat="43.87581" lon="6.13023">
        <ele>792.26</ele>
        <time>2016-06-13T15:05:25Z</time>
      </trkpt>
      <trkpt lat="43.87604" lon="6.13028">
        <ele>792.26</ele>
        <time>2016-06-13T15:05:26Z</time>
      </trkpt>
      <trkpt lat="43.87695" lon="6.13049">
        <ele>796.11</ele>
        <time>2016-06-13T15:05:30Z</time>
      </trkpt>
      <trkpt lat="43.87717" lon="6.13055">
        <ele>795.63</ele>
        <time>2016-06-13T15:05:31Z</time>
      </trkpt>
      <trkpt lat="43.87785" lon="6.13076">
        <ele>799.47</ele>
        <time>2016-06-13T15:05:34Z</time>
      </trkpt>
      <trkpt lat="43.87807" lon="6.13084">
        <ele>798.51</ele>
        <time>2016-06-13T15:05:35Z</time>
      </trkpt>
      <trkpt lat="43.87984" lon="6.13145">
        <ele>801.4</ele>
        <time>2016-06-13T15:05:43Z</time>
      </trkpt>
      <trkpt lat="43.88007" lon="6.1315">
        <ele>801.4</ele>
        <time>2016-06-13T15:05:44Z</time>
      </trkpt>
      <trkpt lat="43.88052" lon="6.13161">
        <ele>799.47</ele>
        <time>2016-06-13T15:05:46Z</time>
      </trkpt>
      <trkpt lat="43.88098" lon="6.13174">
        <ele>799.47</ele>
        <time>2016-06-13T15:05:48Z</time>
      </trkpt>
      <trkpt lat="43.88168" lon="6.13174">
        <ele>798.51</ele>
        <time>2016-06-13T15:05:51Z</time>
      </trkpt>
      <trkpt lat="43.88316" lon="6.1319">
        <ele>802.84</ele>
        <time>2016-06-13T15:05:58Z</time>
      </trkpt>
      <trkpt lat="43.88337" lon="6.13192">
        <ele>802.36</ele>
        <time>2016-06-13T15:05:59Z</time>
      </trkpt>
      <trkpt lat="43.88433" lon="6.13209">
        <ele>802.36</ele>
        <time>2016-06-13T15:06:04Z</time>
      </trkpt>
      <trkpt lat="43.88482" lon="6.13236">
        <ele>798.03</ele>
        <time>2016-06-13T15:06:07Z</time>
      </trkpt>
      <trkpt lat="43.88498" lon="6.13251">
        <ele>795.63</ele>
        <time>2016-06-13T15:06:08Z</time>
      </trkpt>
      <trkpt lat="43.88563" lon="6.13283">
        <ele>790.82</ele>
        <time>2016-06-13T15:06:12Z</time>
      </trkpt>
      <trkpt lat="43.88581" lon="6.13282">
        <ele>790.34</ele>
        <time>2016-06-13T15:06:13Z</time>
      </trkpt>
      <trkpt lat="43.88652" lon="6.13264">
        <ele>788.9</ele>
        <time>2016-06-13T15:06:17Z</time>
      </trkpt>
      <trkpt lat="43.88706" lon="6.1326">
        <ele>784.57</ele>
        <time>2016-06-13T15:06:20Z</time>
      </trkpt>
      <trkpt lat="43.88744" lon="6.1325">
        <ele>783.61</ele>
        <time>2016-06-13T15:06:22Z</time>
      </trkpt>
      <trkpt lat="43.88797" lon="6.13224">
        <ele>780.25</ele>
        <time>2016-06-13T15:06:25Z</time>
      </trkpt>
      <trkpt lat="43.88814" lon="6.13217">
        <ele>780.25</ele>
        <time>2016-06-13T15:06:26Z</time>
      </trkpt>
      <trkpt lat="43.88862" lon="6.13197">
        <ele>777.36</ele>
        <time>2016-06-13T15:06:29Z</time>
      </trkpt>
      <trkpt lat="43.88919" lon="6.1322">
        <ele>781.21</ele>
        <time>2016-06-13T15:06:33Z</time>
      </trkpt>
      <trkpt lat="43.8893" lon="6.13235">
        <ele>779.77</ele>
        <time>2016-06-13T15:06:34Z</time>
      </trkpt>
      <trkpt lat="43.88952" lon="6.13256">
        <ele>780.25</ele>
        <time>2016-06-13T15:06:36Z</time>
      </trkpt>
      <trkpt lat="43.88974" lon="6.13272">
        <ele>783.61</ele>
        <time>2016-06-13T15:06:38Z</time>
      </trkpt>
      <trkpt lat="43.88985" lon="6.13279">
        <ele>783.61</ele>
        <time>2016-06-13T15:06:39Z</time>
      </trkpt>
      <trkpt lat="43.89016" lon="6.133">
        <ele>784.09</ele>
        <time>2016-06-13T15:06:42Z</time>
      </trkpt>
      <trkpt lat="43.89034" lon="6.13318">
        <ele>785.05</ele>
        <time>2016-06-13T15:06:44Z</time>
      </trkpt>
      <trkpt lat="43.8905" lon="6.13339">
        <ele>786.5</ele>
        <time>2016-06-13T15:06:46Z</time>
      </trkpt>
      <trkpt lat="43.89057" lon="6.13349">
        <ele>787.94</ele>
        <time>2016-06-13T15:06:47Z</time>
      </trkpt>
      <trkpt lat="43.89089" lon="6.13348">
        <ele>789.38</ele>
        <time>2016-06-13T15:06:53Z</time>
      </trkpt>
      <trkpt lat="43.89086" lon="6.13338">
        <ele>790.82</ele>
        <time>2016-06-13T15:06:55Z</time>
      </trkpt>
      <trkpt lat="43.89037" lon="6.13273">
        <ele>795.63</ele>
        <time>2016-06-13T15:07:00Z</time>
      </trkpt>
      <trkpt lat="43.89027" lon="6.13258">
        <ele>795.63</ele>
        <time>2016-06-13T15:07:01Z</time>
      </trkpt>
      <trkpt lat="43.89017" lon="6.13242">
        <ele>796.11</ele>
        <time>2016-06-13T15:07:02Z</time>
      </trkpt>
      <trkpt lat="43.89022" lon="6.13178">
        <ele>796.59</ele>
        <time>2016-06-13T15:07:07Z</time>
      </trkpt>
      <trkpt lat="43.89044" lon="6.13166">
        <ele>799.47</ele>
        <time>2016-06-13T15:07:09Z</time>
      </trkpt>
      <trkpt lat="43.89081" lon="6.13153">
        <ele>801.4</ele>
        <time>2016-06-13T15:07:12Z</time>
      </trkpt>
      <trkpt lat="43.8912" lon="6.13145">
        <ele>804.76</ele>
        <time>2016-06-13T15:07:15Z</time>
      </trkpt>
      <trkpt lat="43.89145" lon="6.13134">
        <ele>805.72</ele>
        <time>2016-06-13T15:07:17Z</time>
      </trkpt>
      <trkpt lat="43.89206" lon="6.13098">
        <ele>809.09</ele>
        <time>2016-06-13T15:07:22Z</time>
      </trkpt>
      <trkpt lat="43.89269" lon="6.13063">
        <ele>811.49</ele>
        <time>2016-06-13T15:07:27Z</time>
      </trkpt>
      <trkpt lat="43.89409" lon="6.12988">
        <ele>812.45</ele>
        <time>2016-06-13T15:07:38Z</time>
      </trkpt>
      <trkpt lat="43.89499" lon="6.12939">
        <ele>810.53</ele>
        <time>2016-06-13T15:07:46Z</time>
      </trkpt>
      <trkpt lat="43.89583" lon="6.12894">
        <ele>811.49</ele>
        <time>2016-06-13T15:07:57Z</time>
      </trkpt>
      <trkpt lat="43.89597" lon="6.12887">
        <ele>810.05</ele>
        <time>2016-06-13T15:08:00Z</time>
      </trkpt>
      <trkpt lat="43.89613" lon="6.12879">
        <ele>807.64</ele>
        <time>2016-06-13T15:08:05Z</time>
      </trkpt>
      <trkpt lat="43.89635" lon="6.12912">
        <ele>805.72</ele>
        <time>2016-06-13T15:08:11Z</time>
      </trkpt>
      <trkpt lat="43.89637" lon="6.12943">
        <ele>805.24</ele>
        <time>2016-06-13T15:08:13Z</time>
      </trkpt>
      <trkpt lat="43.89631" lon="6.12992">
        <ele>802.84</ele>
        <time>2016-06-13T15:08:16Z</time>
      </trkpt>
      <trkpt lat="43.89623" lon="6.13007">
        <ele>802.84</ele>
        <time>2016-06-13T15:08:17Z</time>
      </trkpt>
      <trkpt lat="43.89603" lon="6.13036">
        <ele>802.84</ele>
        <time>2016-06-13T15:08:19Z</time>
      </trkpt>
      <trkpt lat="43.89583" lon="6.13149">
        <ele>799.95</ele>
        <time>2016-06-13T15:08:25Z</time>
      </trkpt>
      <trkpt lat="43.89592" lon="6.13187">
        <ele>797.07</ele>
        <time>2016-06-13T15:08:27Z</time>
      </trkpt>
      <trkpt lat="43.896" lon="6.1324">
        <ele>793.22</ele>
        <time>2016-06-13T15:08:30Z</time>
      </trkpt>
      <trkpt lat="43.89587" lon="6.13268">
        <ele>794.67</ele>
        <time>2016-06-13T15:08:32Z</time>
      </trkpt>
      <trkpt lat="43.89582" lon="6.13279">
        <ele>792.74</ele>
        <time>2016-06-13T15:08:33Z</time>
      </trkpt>
      <trkpt lat="43.89588" lon="6.13338">
        <ele>792.74</ele>
        <time>2016-06-13T15:08:38Z</time>
      </trkpt>
      <trkpt lat="43.89621" lon="6.13408">
        <ele>790.34</ele>
        <time>2016-06-13T15:08:42Z</time>
      </trkpt>
      <trkpt lat="43.89643" lon="6.13413">
        <ele>789.86</ele>
        <time>2016-06-13T15:08:43Z</time>
      </trkpt>
      <trkpt lat="43.8972" lon="6.13485">
        <ele>786.02</ele>
        <time>2016-06-13T15:08:48Z</time>
      </trkpt>
      <trkpt lat="43.89767" lon="6.13541">
        <ele>784.57</ele>
        <time>2016-06-13T15:08:51Z</time>
      </trkpt>
      <trkpt lat="43.89778" lon="6.13563">
        <ele>781.21</ele>
        <time>2016-06-13T15:08:52Z</time>
      </trkpt>
      <trkpt lat="43.89804" lon="6.13597">
        <ele>780.25</ele>
        <time>2016-06-13T15:08:54Z</time>
      </trkpt>
      <trkpt lat="43.89847" lon="6.13626">
        <ele>773.52</ele>
        <time>2016-06-13T15:08:57Z</time>
      </trkpt>
      <trkpt lat="43.89855" lon="6.13644">
        <ele>774</ele>
        <time>2016-06-13T15:08:58Z</time>
      </trkpt>
      <trkpt lat="43.89887" lon="6.13727">
        <ele>771.11</ele>
        <time>2016-06-13T15:09:02Z</time>
      </trkpt>
      <trkpt lat="43.89901" lon="6.13744">
        <ele>771.11</ele>
        <time>2016-06-13T15:09:03Z</time>
      </trkpt>
      <trkpt lat="43.89913" lon="6.13764">
        <ele>769.67</ele>
        <time>2016-06-13T15:09:04Z</time>
      </trkpt>
      <trkpt lat="43.89957" lon="6.13821">
        <ele>765.35</ele>
        <time>2016-06-13T15:09:08Z</time>
      </trkpt>
      <trkpt lat="43.89988" lon="6.13831">
        <ele>759.1</ele>
        <time>2016-06-13T15:09:10Z</time>
      </trkpt>
      <trkpt lat="43.90002" lon="6.13846">
        <ele>760.54</ele>
        <time>2016-06-13T15:09:11Z</time>
      </trkpt>
      <trkpt lat="43.90057" lon="6.13903">
        <ele>756.21</ele>
        <time>2016-06-13T15:09:15Z</time>
      </trkpt>
      <trkpt lat="43.90087" lon="6.13895">
        <ele>754.77</ele>
        <time>2016-06-13T15:09:17Z</time>
      </trkpt>
      <trkpt lat="43.90126" lon="6.13877">
        <ele>751.41</ele>
        <time>2016-06-13T15:09:20Z</time>
      </trkpt>
      <trkpt lat="43.90143" lon="6.139">
        <ele>748.04</ele>
        <time>2016-06-13T15:09:22Z</time>
      </trkpt>
      <trkpt lat="43.90146" lon="6.13918">
        <ele>748.04</ele>
        <time>2016-06-13T15:09:23Z</time>
      </trkpt>
      <trkpt lat="43.90155" lon="6.13959">
        <ele>749</ele>
        <time>2016-06-13T15:09:25Z</time>
      </trkpt>
      <trkpt lat="43.90204" lon="6.13999">
        <ele>748.04</ele>
        <time>2016-06-13T15:09:30Z</time>
      </trkpt>
      <trkpt lat="43.90238" lon="6.13981">
        <ele>747.08</ele>
        <time>2016-06-13T15:09:32Z</time>
      </trkpt>
      <trkpt lat="43.90323" lon="6.1392">
        <ele>740.83</ele>
        <time>2016-06-13T15:09:37Z</time>
      </trkpt>
      <trkpt lat="43.9034" lon="6.13908">
        <ele>739.87</ele>
        <time>2016-06-13T15:09:38Z</time>
      </trkpt>
      <trkpt lat="43.90403" lon="6.13871">
        <ele>730.74</ele>
        <time>2016-06-13T15:09:42Z</time>
      </trkpt>
      <trkpt lat="43.90415" lon="6.13873">
        <ele>727.86</ele>
        <time>2016-06-13T15:09:43Z</time>
      </trkpt>
      <trkpt lat="43.9043" lon="6.13888">
        <ele>724.01</ele>
        <time>2016-06-13T15:09:45Z</time>
      </trkpt>
      <trkpt lat="43.90435" lon="6.13917">
        <ele>723.05</ele>
        <time>2016-06-13T15:09:48Z</time>
      </trkpt>
      <trkpt lat="43.90425" lon="6.13947">
        <ele>722.09</ele>
        <time>2016-06-13T15:09:50Z</time>
      </trkpt>
      <trkpt lat="43.90423" lon="6.1398">
        <ele>718.72</ele>
        <time>2016-06-13T15:09:52Z</time>
      </trkpt>
      <trkpt lat="43.90424" lon="6.13995">
        <ele>720.16</ele>
        <time>2016-06-13T15:09:53Z</time>
      </trkpt>
      <trkpt lat="43.90455" lon="6.13997">
        <ele>720.65</ele>
        <time>2016-06-13T15:09:57Z</time>
      </trkpt>
      <trkpt lat="43.90499" lon="6.14006">
        <ele>717.28</ele>
        <time>2016-06-13T15:10:00Z</time>
      </trkpt>
      <trkpt lat="43.90521" lon="6.14036">
        <ele>712.95</ele>
        <time>2016-06-13T15:10:02Z</time>
      </trkpt>
      <trkpt lat="43.90527" lon="6.14058">
        <ele>712.47</ele>
        <time>2016-06-13T15:10:03Z</time>
      </trkpt>
      <trkpt lat="43.9052" lon="6.14124">
        <ele>709.11</ele>
        <time>2016-06-13T15:10:06Z</time>
      </trkpt>
      <trkpt lat="43.90514" lon="6.14139">
        <ele>709.11</ele>
        <time>2016-06-13T15:10:07Z</time>
      </trkpt>
      <trkpt lat="43.90512" lon="6.14166">
        <ele>705.75</ele>
        <time>2016-06-13T15:10:09Z</time>
      </trkpt>
      <trkpt lat="43.90541" lon="6.14185">
        <ele>703.34</ele>
        <time>2016-06-13T15:10:12Z</time>
      </trkpt>
      <trkpt lat="43.90577" lon="6.14148">
        <ele>706.71</ele>
        <time>2016-06-13T15:10:15Z</time>
      </trkpt>
      <trkpt lat="43.90599" lon="6.14107">
        <ele>703.82</ele>
        <time>2016-06-13T15:10:17Z</time>
      </trkpt>
      <trkpt lat="43.90633" lon="6.14043">
        <ele>698.53</ele>
        <time>2016-06-13T15:10:20Z</time>
      </trkpt>
      <trkpt lat="43.90679" lon="6.14001">
        <ele>696.13</ele>
        <time>2016-06-13T15:10:23Z</time>
      </trkpt>
      <trkpt lat="43.90739" lon="6.13987">
        <ele>691.33</ele>
        <time>2016-06-13T15:10:26Z</time>
      </trkpt>
      <trkpt lat="43.90756" lon="6.13973">
        <ele>688.92</ele>
        <time>2016-06-13T15:10:27Z</time>
      </trkpt>
      <trkpt lat="43.90823" lon="6.13902">
        <ele>686.52</ele>
        <time>2016-06-13T15:10:31Z</time>
      </trkpt>
      <trkpt lat="43.90841" lon="6.13886">
        <ele>686.52</ele>
        <time>2016-06-13T15:10:32Z</time>
      </trkpt>
      <trkpt lat="43.90885" lon="6.13823">
        <ele>679.79</ele>
        <time>2016-06-13T15:10:35Z</time>
      </trkpt>
      <trkpt lat="43.90896" lon="6.138">
        <ele>679.79</ele>
        <time>2016-06-13T15:10:36Z</time>
      </trkpt>
      <trkpt lat="43.90916" lon="6.13755">
        <ele>675.94</ele>
        <time>2016-06-13T15:10:38Z</time>
      </trkpt>
      <trkpt lat="43.90925" lon="6.13737">
        <ele>671.14</ele>
        <time>2016-06-13T15:10:39Z</time>
      </trkpt>
      <trkpt lat="43.90944" lon="6.13707">
        <ele>670.18</ele>
        <time>2016-06-13T15:10:41Z</time>
      </trkpt>
      <trkpt lat="43.90968" lon="6.13697">
        <ele>666.81</ele>
        <time>2016-06-13T15:10:43Z</time>
      </trkpt>
      <trkpt lat="43.91001" lon="6.13731">
        <ele>663.93</ele>
        <time>2016-06-13T15:10:46Z</time>
      </trkpt>
      <trkpt lat="43.91013" lon="6.13832">
        <ele>662.97</ele>
        <time>2016-06-13T15:10:50Z</time>
      </trkpt>
      <trkpt lat="43.91009" lon="6.13861">
        <ele>662.01</ele>
        <time>2016-06-13T15:10:51Z</time>
      </trkpt>
      <trkpt lat="43.90995" lon="6.13934">
        <ele>656.24</ele>
        <time>2016-06-13T15:10:54Z</time>
      </trkpt>
      <trkpt lat="43.91017" lon="6.13987">
        <ele>650.95</ele>
        <time>2016-06-13T15:10:58Z</time>
      </trkpt>
      <trkpt lat="43.9103" lon="6.13985">
        <ele>650.95</ele>
        <time>2016-06-13T15:10:59Z</time>
      </trkpt>
      <trkpt lat="43.91044" lon="6.13979">
        <ele>652.39</ele>
        <time>2016-06-13T15:11:00Z</time>
      </trkpt>
      <trkpt lat="43.91091" lon="6.13949">
        <ele>649.99</ele>
        <time>2016-06-13T15:11:03Z</time>
      </trkpt>
      <trkpt lat="43.91146" lon="6.13935">
        <ele>640.38</ele>
        <time>2016-06-13T15:11:07Z</time>
      </trkpt>
      <trkpt lat="43.91156" lon="6.13931">
        <ele>638.93</ele>
        <time>2016-06-13T15:11:08Z</time>
      </trkpt>
      <trkpt lat="43.9117" lon="6.1392">
        <ele>639.41</ele>
        <time>2016-06-13T15:11:11Z</time>
      </trkpt>
      <trkpt lat="43.91131" lon="6.13915">
        <ele>636.53</ele>
        <time>2016-06-13T15:11:15Z</time>
      </trkpt>
      <trkpt lat="43.91115" lon="6.13909">
        <ele>634.61</ele>
        <time>2016-06-13T15:11:17Z</time>
      </trkpt>
      <trkpt lat="43.91105" lon="6.139">
        <ele>634.13</ele>
        <time>2016-06-13T15:11:19Z</time>
      </trkpt>
      <trkpt lat="43.91165" lon="6.1384">
        <ele>635.57</ele>
        <time>2016-06-13T15:11:22Z</time>
      </trkpt>
      <trkpt lat="43.91177" lon="6.13827">
        <ele>633.17</ele>
        <time>2016-06-13T15:11:23Z</time>
      </trkpt>
      <trkpt lat="43.91197" lon="6.1381">
        <ele>626.44</ele>
        <time>2016-06-13T15:11:25Z</time>
      </trkpt>
      <trkpt lat="43.91207" lon="6.1381">
        <ele>626.44</ele>
        <time>2016-06-13T15:11:26Z</time>
      </trkpt>
      <trkpt lat="43.9122" lon="6.13819">
        <ele>625.96</ele>
        <time>2016-06-13T15:11:27Z</time>
      </trkpt>
      <trkpt lat="43.91258" lon="6.13847">
        <ele>624.51</ele>
        <time>2016-06-13T15:11:30Z</time>
      </trkpt>
      <trkpt lat="43.91305" lon="6.13828">
        <ele>623.55</ele>
        <time>2016-06-13T15:11:33Z</time>
      </trkpt>
      <trkpt lat="43.91379" lon="6.13798">
        <ele>621.15</ele>
        <time>2016-06-13T15:11:37Z</time>
      </trkpt>
      <trkpt lat="43.91424" lon="6.13756">
        <ele>616.34</ele>
        <time>2016-06-13T15:11:40Z</time>
      </trkpt>
      <trkpt lat="43.91432" lon="6.13732">
        <ele>612.98</ele>
        <time>2016-06-13T15:11:41Z</time>
      </trkpt>
      <trkpt lat="43.91436" lon="6.13705">
        <ele>613.94</ele>
        <time>2016-06-13T15:11:42Z</time>
      </trkpt>
      <trkpt lat="43.91451" lon="6.13592">
        <ele>609.13</ele>
        <time>2016-06-13T15:11:46Z</time>
      </trkpt>
      <trkpt lat="43.91488" lon="6.13503">
        <ele>602.88</ele>
        <time>2016-06-13T15:11:50Z</time>
      </trkpt>
      <trkpt lat="43.91534" lon="6.13467">
        <ele>603.85</ele>
        <time>2016-06-13T15:11:53Z</time>
      </trkpt>
      <trkpt lat="43.91609" lon="6.13447">
        <ele>599.04</ele>
        <time>2016-06-13T15:11:57Z</time>
      </trkpt>
      <trkpt lat="43.91624" lon="6.13438">
        <ele>597.6</ele>
        <time>2016-06-13T15:11:58Z</time>
      </trkpt>
      <trkpt lat="43.91666" lon="6.1342">
        <ele>593.27</ele>
        <time>2016-06-13T15:12:01Z</time>
      </trkpt>
      <trkpt lat="43.91692" lon="6.13435">
        <ele>588.95</ele>
        <time>2016-06-13T15:12:03Z</time>
      </trkpt>
      <trkpt lat="43.91815" lon="6.13508">
        <ele>589.43</ele>
        <time>2016-06-13T15:12:10Z</time>
      </trkpt>
      <trkpt lat="43.91911" lon="6.13493">
        <ele>586.06</ele>
        <time>2016-06-13T15:12:15Z</time>
      </trkpt>
      <trkpt lat="43.91937" lon="6.13461">
        <ele>583.18</ele>
        <time>2016-06-13T15:12:17Z</time>
      </trkpt>
      <trkpt lat="43.91959" lon="6.13429">
        <ele>580.77</ele>
        <time>2016-06-13T15:12:19Z</time>
      </trkpt>
      <trkpt lat="43.91979" lon="6.13401">
        <ele>575.97</ele>
        <time>2016-06-13T15:12:21Z</time>
      </trkpt>
      <trkpt lat="43.92021" lon="6.13388">
        <ele>572.12</ele>
        <time>2016-06-13T15:12:25Z</time>
      </trkpt>
      <trkpt lat="43.9203" lon="6.13396">
        <ele>571.64</ele>
        <time>2016-06-13T15:12:26Z</time>
      </trkpt>
      <trkpt lat="43.92089" lon="6.13447">
        <ele>570.68</ele>
        <time>2016-06-13T15:12:36Z</time>
      </trkpt>
      <trkpt lat="43.92098" lon="6.13456">
        <ele>569.72</ele>
        <time>2016-06-13T15:12:44Z</time>
      </trkpt>
      <trkpt lat="43.92098" lon="6.13456">
        <ele>569.24</ele>
        <time>2016-06-13T15:13:13Z</time>
      </trkpt>
      <trkpt lat="43.92098" lon="6.13456">
        <ele>568.76</ele>
        <time>2016-06-13T15:13:39Z</time>
      </trkpt>
      <trkpt lat="43.92097" lon="6.13455">
        <ele>570.2</ele>
        <time>2016-06-13T15:14:15Z</time>
      </trkpt>
      <trkpt lat="43.92097" lon="6.13454">
        <ele>567.8</ele>
        <time>2016-06-13T15:14:50Z</time>
      </trkpt>
      <trkpt lat="43.92108" lon="6.1346">
        <ele>569.72</ele>
        <time>2016-06-13T15:14:54Z</time>
      </trkpt>
      <trkpt lat="43.92118" lon="6.13465">
        <ele>569.72</ele>
        <time>2016-06-13T15:14:56Z</time>
      </trkpt>
      <trkpt lat="43.92141" lon="6.13483">
        <ele>570.68</ele>
        <time>2016-06-13T15:15:00Z</time>
      </trkpt>
      <trkpt lat="43.92154" lon="6.13491">
        <ele>570.2</ele>
        <time>2016-06-13T15:15:02Z</time>
      </trkpt>
      <trkpt lat="43.92178" lon="6.13527">
        <ele>568.28</ele>
        <time>2016-06-13T15:15:06Z</time>
      </trkpt>
      <trkpt lat="43.92186" lon="6.13557">
        <ele>569.24</ele>
        <time>2016-06-13T15:15:08Z</time>
      </trkpt>
      <trkpt lat="43.92196" lon="6.13606">
        <ele>570.68</ele>
        <time>2016-06-13T15:15:11Z</time>
      </trkpt>
      <trkpt lat="43.92207" lon="6.13684">
        <ele>572.6</ele>
        <time>2016-06-13T15:15:15Z</time>
      </trkpt>
      <trkpt lat="43.92213" lon="6.13724">
        <ele>572.12</ele>
        <time>2016-06-13T15:15:17Z</time>
      </trkpt>
      <trkpt lat="43.92219" lon="6.13765">
        <ele>574.04</ele>
        <time>2016-06-13T15:15:19Z</time>
      </trkpt>
      <trkpt lat="43.92221" lon="6.13786">
        <ele>571.64</ele>
        <time>2016-06-13T15:15:20Z</time>
      </trkpt>
      <trkpt lat="43.92266" lon="6.13879">
        <ele>575.01</ele>
        <time>2016-06-13T15:15:25Z</time>
      </trkpt>
      <trkpt lat="43.92407" lon="6.14049">
        <ele>580.29</ele>
        <time>2016-06-13T15:15:35Z</time>
      </trkpt>
      <trkpt lat="43.92481" lon="6.14096">
        <ele>580.77</ele>
        <time>2016-06-13T15:15:39Z</time>
      </trkpt>
      <trkpt lat="43.92546" lon="6.14102">
        <ele>584.62</ele>
        <time>2016-06-13T15:15:42Z</time>
      </trkpt>
      <trkpt lat="43.92634" lon="6.14112">
        <ele>587.02</ele>
        <time>2016-06-13T15:15:46Z</time>
      </trkpt>
      <trkpt lat="43.92714" lon="6.14153">
        <ele>588.46</ele>
        <time>2016-06-13T15:15:50Z</time>
      </trkpt>
      <trkpt lat="43.92788" lon="6.1422">
        <ele>588.46</ele>
        <time>2016-06-13T15:15:54Z</time>
      </trkpt>
      <trkpt lat="43.92853" lon="6.14376">
        <ele>591.35</ele>
        <time>2016-06-13T15:16:00Z</time>
      </trkpt>
      <trkpt lat="43.92856" lon="6.14407">
        <ele>589.91</ele>
        <time>2016-06-13T15:16:01Z</time>
      </trkpt>
      <trkpt lat="43.92865" lon="6.14536">
        <ele>589.43</ele>
        <time>2016-06-13T15:16:05Z</time>
      </trkpt>
      <trkpt lat="43.92922" lon="6.1468">
        <ele>587.5</ele>
        <time>2016-06-13T15:16:10Z</time>
      </trkpt>
      <trkpt lat="43.92955" lon="6.14727">
        <ele>587.98</ele>
        <time>2016-06-13T15:16:12Z</time>
      </trkpt>
      <trkpt lat="43.93003" lon="6.14864">
        <ele>588.46</ele>
        <time>2016-06-13T15:16:17Z</time>
      </trkpt>
      <trkpt lat="43.93055" lon="6.15115">
        <ele>590.87</ele>
        <time>2016-06-13T15:16:25Z</time>
      </trkpt>
      <trkpt lat="43.9308" lon="6.15211">
        <ele>590.39</ele>
        <time>2016-06-13T15:16:28Z</time>
      </trkpt>
      <trkpt lat="43.93122" lon="6.15294">
        <ele>588.46</ele>
        <time>2016-06-13T15:16:31Z</time>
      </trkpt>
      <trkpt lat="43.93227" lon="6.15429">
        <ele>591.35</ele>
        <time>2016-06-13T15:16:37Z</time>
      </trkpt>
      <trkpt lat="43.93246" lon="6.1545">
        <ele>591.35</ele>
        <time>2016-06-13T15:16:38Z</time>
      </trkpt>
      <trkpt lat="43.93282" lon="6.15494">
        <ele>593.27</ele>
        <time>2016-06-13T15:16:40Z</time>
      </trkpt>
      <trkpt lat="43.9337" lon="6.15604">
        <ele>592.31</ele>
        <time>2016-06-13T15:16:45Z</time>
      </trkpt>
      <trkpt lat="43.93431" lon="6.15657">
        <ele>590.87</ele>
        <time>2016-06-13T15:16:48Z</time>
      </trkpt>
      <trkpt lat="43.93451" lon="6.15675">
        <ele>592.31</ele>
        <time>2016-06-13T15:16:49Z</time>
      </trkpt>
      <trkpt lat="43.93485" lon="6.15716">
        <ele>593.27</ele>
        <time>2016-06-13T15:16:51Z</time>
      </trkpt>
      <trkpt lat="43.93514" lon="6.15768">
        <ele>596.15</ele>
        <time>2016-06-13T15:16:53Z</time>
      </trkpt>
      <trkpt lat="43.93542" lon="6.15825">
        <ele>597.6</ele>
        <time>2016-06-13T15:16:55Z</time>
      </trkpt>
      <trkpt lat="43.93596" lon="6.15944">
        <ele>600.48</ele>
        <time>2016-06-13T15:16:59Z</time>
      </trkpt>
      <trkpt lat="43.93712" lon="6.1613">
        <ele>599.52</ele>
        <time>2016-06-13T15:17:06Z</time>
      </trkpt>
      <trkpt lat="43.93878" lon="6.16333">
        <ele>600.48</ele>
        <time>2016-06-13T15:17:15Z</time>
      </trkpt>
      <trkpt lat="43.93939" lon="6.16392">
        <ele>599.52</ele>
        <time>2016-06-13T15:17:18Z</time>
      </trkpt>
      <trkpt lat="43.94003" lon="6.16493">
        <ele>601.44</ele>
        <time>2016-06-13T15:17:22Z</time>
      </trkpt>
      <trkpt lat="43.94028" lon="6.16552">
        <ele>602.88</ele>
        <time>2016-06-13T15:17:24Z</time>
      </trkpt>
      <trkpt lat="43.94081" lon="6.16731">
        <ele>601.92</ele>
        <time>2016-06-13T15:17:30Z</time>
      </trkpt>
      <trkpt lat="43.94101" lon="6.16778">
        <ele>601.44</ele>
        <time>2016-06-13T15:17:32Z</time>
      </trkpt>
      <trkpt lat="43.94118" lon="6.16849">
        <ele>599.52</ele>
        <time>2016-06-13T15:17:35Z</time>
      </trkpt>
      <trkpt lat="43.94146" lon="6.16928">
        <ele>601.92</ele>
        <time>2016-06-13T15:17:39Z</time>
      </trkpt>
      <trkpt lat="43.94171" lon="6.16949">
        <ele>603.85</ele>
        <time>2016-06-13T15:17:41Z</time>
      </trkpt>
      <trkpt lat="43.94195" lon="6.16958">
        <ele>599.52</ele>
        <time>2016-06-13T15:17:43Z</time>
      </trkpt>
      <trkpt lat="43.94257" lon="6.16988">
        <ele>598.08</ele>
        <time>2016-06-13T15:17:49Z</time>
      </trkpt>
      <trkpt lat="43.94276" lon="6.17004">
        <ele>596.64</ele>
        <time>2016-06-13T15:17:51Z</time>
      </trkpt>
      <trkpt lat="43.94345" lon="6.17092">
        <ele>593.75</ele>
        <time>2016-06-13T15:18:00Z</time>
      </trkpt>
      <trkpt lat="43.94386" lon="6.17149">
        <ele>594.23</ele>
        <time>2016-06-13T15:18:05Z</time>
      </trkpt>
      <trkpt lat="43.94426" lon="6.17227">
        <ele>596.64</ele>
        <time>2016-06-13T15:18:10Z</time>
      </trkpt>
      <trkpt lat="43.94444" lon="6.17262">
        <ele>598.56</ele>
        <time>2016-06-13T15:18:12Z</time>
      </trkpt>
      <trkpt lat="43.94483" lon="6.17312">
        <ele>599.52</ele>
        <time>2016-06-13T15:18:15Z</time>
      </trkpt>
      <trkpt lat="43.94521" lon="6.17338">
        <ele>602.4</ele>
        <time>2016-06-13T15:18:17Z</time>
      </trkpt>
      <trkpt lat="43.94563" lon="6.17362">
        <ele>601.92</ele>
        <time>2016-06-13T15:18:19Z</time>
      </trkpt>
      <trkpt lat="43.94623" lon="6.17413">
        <ele>603.85</ele>
        <time>2016-06-13T15:18:22Z</time>
      </trkpt>
      <trkpt lat="43.94736" lon="6.17568">
        <ele>601.44</ele>
        <time>2016-06-13T15:18:29Z</time>
      </trkpt>
      <trkpt lat="43.9482" lon="6.17638">
        <ele>601.44</ele>
        <time>2016-06-13T15:18:34Z</time>
      </trkpt>
      <trkpt lat="43.94835" lon="6.17649">
        <ele>601.92</ele>
        <time>2016-06-13T15:18:35Z</time>
      </trkpt>
      <trkpt lat="43.94886" lon="6.17675">
        <ele>602.88</ele>
        <time>2016-06-13T15:18:38Z</time>
      </trkpt>
      <trkpt lat="43.9492" lon="6.17691">
        <ele>601.92</ele>
        <time>2016-06-13T15:18:40Z</time>
      </trkpt>
      <trkpt lat="43.9503" lon="6.17766">
        <ele>605.29</ele>
        <time>2016-06-13T15:18:47Z</time>
      </trkpt>
      <trkpt lat="43.95061" lon="6.17793">
        <ele>608.65</ele>
        <time>2016-06-13T15:18:49Z</time>
      </trkpt>
      <trkpt lat="43.95078" lon="6.17808">
        <ele>607.69</ele>
        <time>2016-06-13T15:18:50Z</time>
      </trkpt>
      <trkpt lat="43.95114" lon="6.17841">
        <ele>611.06</ele>
        <time>2016-06-13T15:18:52Z</time>
      </trkpt>
      <trkpt lat="43.95134" lon="6.1786">
        <ele>615.38</ele>
        <time>2016-06-13T15:18:53Z</time>
      </trkpt>
      <trkpt lat="43.95153" lon="6.1788">
        <ele>614.42</ele>
        <time>2016-06-13T15:18:54Z</time>
      </trkpt>
      <trkpt lat="43.95323" lon="6.18058">
        <ele>614.9</ele>
        <time>2016-06-13T15:19:03Z</time>
      </trkpt>
      <trkpt lat="43.95362" lon="6.18085">
        <ele>617.78</ele>
        <time>2016-06-13T15:19:05Z</time>
      </trkpt>
      <trkpt lat="43.95384" lon="6.18099">
        <ele>617.78</ele>
        <time>2016-06-13T15:19:06Z</time>
      </trkpt>
      <trkpt lat="43.95621" lon="6.18266">
        <ele>617.3</ele>
        <time>2016-06-13T15:19:17Z</time>
      </trkpt>
      <trkpt lat="43.95641" lon="6.18284">
        <ele>617.78</ele>
        <time>2016-06-13T15:19:18Z</time>
      </trkpt>
      <trkpt lat="43.957" lon="6.18339">
        <ele>619.71</ele>
        <time>2016-06-13T15:19:21Z</time>
      </trkpt>
      <trkpt lat="43.9574" lon="6.18375">
        <ele>621.15</ele>
        <time>2016-06-13T15:19:23Z</time>
      </trkpt>
      <trkpt lat="43.95783" lon="6.18408">
        <ele>620.19</ele>
        <time>2016-06-13T15:19:25Z</time>
      </trkpt>
      <trkpt lat="43.95978" lon="6.18566">
        <ele>623.55</ele>
        <time>2016-06-13T15:19:34Z</time>
      </trkpt>
      <trkpt lat="43.95997" lon="6.18586">
        <ele>624.03</ele>
        <time>2016-06-13T15:19:35Z</time>
      </trkpt>
      <trkpt lat="43.96055" lon="6.18645">
        <ele>628.36</ele>
        <time>2016-06-13T15:19:38Z</time>
      </trkpt>
      <trkpt lat="43.96074" lon="6.18664">
        <ele>628.36</ele>
        <time>2016-06-13T15:19:39Z</time>
      </trkpt>
      <trkpt lat="43.96131" lon="6.18721">
        <ele>628.36</ele>
        <time>2016-06-13T15:19:42Z</time>
      </trkpt>
      <trkpt lat="43.96284" lon="6.18813">
        <ele>627.4</ele>
        <time>2016-06-13T15:19:49Z</time>
      </trkpt>
      <trkpt lat="43.96463" lon="6.18906">
        <ele>628.84</ele>
        <time>2016-06-13T15:19:57Z</time>
      </trkpt>
      <trkpt lat="43.96486" lon="6.18915">
        <ele>632.2</ele>
        <time>2016-06-13T15:19:58Z</time>
      </trkpt>
      <trkpt lat="43.96661" lon="6.1902">
        <ele>632.2</ele>
        <time>2016-06-13T15:20:06Z</time>
      </trkpt>
      <trkpt lat="43.96749" lon="6.19074">
        <ele>630.28</ele>
        <time>2016-06-13T15:20:10Z</time>
      </trkpt>
      <trkpt lat="43.96866" lon="6.19133">
        <ele>634.13</ele>
        <time>2016-06-13T15:20:15Z</time>
      </trkpt>
      <trkpt lat="43.96919" lon="6.19157">
        <ele>635.09</ele>
        <time>2016-06-13T15:20:17Z</time>
      </trkpt>
      <trkpt lat="43.97022" lon="6.19201">
        <ele>632.68</ele>
        <time>2016-06-13T15:20:21Z</time>
      </trkpt>
      <trkpt lat="43.97094" lon="6.1923">
        <ele>636.05</ele>
        <time>2016-06-13T15:20:24Z</time>
      </trkpt>
      <trkpt lat="43.97165" lon="6.19261">
        <ele>639.89</ele>
        <time>2016-06-13T15:20:27Z</time>
      </trkpt>
      <trkpt lat="43.97344" lon="6.19381">
        <ele>638.93</ele>
        <time>2016-06-13T15:20:35Z</time>
      </trkpt>
      <trkpt lat="43.97515" lon="6.19471">
        <ele>638.93</ele>
        <time>2016-06-13T15:20:42Z</time>
      </trkpt>
      <trkpt lat="43.97585" lon="6.19509">
        <ele>635.57</ele>
        <time>2016-06-13T15:20:45Z</time>
      </trkpt>
      <trkpt lat="43.97632" lon="6.19528">
        <ele>636.05</ele>
        <time>2016-06-13T15:20:47Z</time>
      </trkpt>
      <trkpt lat="43.97711" lon="6.19598">
        <ele>641.82</ele>
        <time>2016-06-13T15:20:51Z</time>
      </trkpt>
      <trkpt lat="43.97729" lon="6.1962">
        <ele>640.38</ele>
        <time>2016-06-13T15:20:52Z</time>
      </trkpt>
      <trkpt lat="43.97816" lon="6.19681">
        <ele>640.86</ele>
        <time>2016-06-13T15:20:56Z</time>
      </trkpt>
      <trkpt lat="43.97864" lon="6.19697">
        <ele>640.86</ele>
        <time>2016-06-13T15:20:58Z</time>
      </trkpt>
      <trkpt lat="43.98037" lon="6.19678">
        <ele>641.82</ele>
        <time>2016-06-13T15:21:05Z</time>
      </trkpt>
      <trkpt lat="43.98086" lon="6.19669">
        <ele>643.26</ele>
        <time>2016-06-13T15:21:07Z</time>
      </trkpt>
      <trkpt lat="43.98287" lon="6.19687">
        <ele>644.22</ele>
        <time>2016-06-13T15:21:15Z</time>
      </trkpt>
      <trkpt lat="43.98411" lon="6.19704">
        <ele>648.55</ele>
        <time>2016-06-13T15:21:20Z</time>
      </trkpt>
      <trkpt lat="43.98435" lon="6.19712">
        <ele>648.07</ele>
        <time>2016-06-13T15:21:21Z</time>
      </trkpt>
      <trkpt lat="43.98607" lon="6.19772">
        <ele>646.14</ele>
        <time>2016-06-13T15:21:28Z</time>
      </trkpt>
      <trkpt lat="43.98848" lon="6.19855">
        <ele>649.51</ele>
        <time>2016-06-13T15:21:38Z</time>
      </trkpt>
      <trkpt lat="43.98871" lon="6.19863">
        <ele>649.51</ele>
        <time>2016-06-13T15:21:39Z</time>
      </trkpt>
      <trkpt lat="43.98938" lon="6.19882">
        <ele>649.99</ele>
        <time>2016-06-13T15:21:42Z</time>
      </trkpt>
      <trkpt lat="43.99036" lon="6.19838">
        <ele>648.07</ele>
        <time>2016-06-13T15:21:47Z</time>
      </trkpt>
      <trkpt lat="43.99046" lon="6.19814">
        <ele>648.07</ele>
        <time>2016-06-13T15:21:48Z</time>
      </trkpt>
      <trkpt lat="43.99054" lon="6.19757">
        <ele>651.91</ele>
        <time>2016-06-13T15:21:50Z</time>
      </trkpt>
      <trkpt lat="43.99045" lon="6.19623">
        <ele>648.55</ele>
        <time>2016-06-13T15:21:55Z</time>
      </trkpt>
      <trkpt lat="43.99054" lon="6.19566">
        <ele>646.14</ele>
        <time>2016-06-13T15:21:58Z</time>
      </trkpt>
      <trkpt lat="43.99097" lon="6.1955">
        <ele>647.59</ele>
        <time>2016-06-13T15:22:01Z</time>
      </trkpt>
      <trkpt lat="43.99152" lon="6.19553">
        <ele>649.51</ele>
        <time>2016-06-13T15:22:04Z</time>
      </trkpt>
      <trkpt lat="43.9919" lon="6.19558">
        <ele>652.87</ele>
        <time>2016-06-13T15:22:06Z</time>
      </trkpt>
      <trkpt lat="43.99228" lon="6.19564">
        <ele>653.83</ele>
        <time>2016-06-13T15:22:08Z</time>
      </trkpt>
      <trkpt lat="43.99287" lon="6.1957">
        <ele>655.76</ele>
        <time>2016-06-13T15:22:11Z</time>
      </trkpt>
      <trkpt lat="43.99356" lon="6.19551">
        <ele>656.24</ele>
        <time>2016-06-13T15:22:15Z</time>
      </trkpt>
      <trkpt lat="43.99443" lon="6.1953">
        <ele>656.24</ele>
        <time>2016-06-13T15:22:22Z</time>
      </trkpt>
      <trkpt lat="43.99476" lon="6.19533">
        <ele>659.6</ele>
        <time>2016-06-13T15:22:25Z</time>
      </trkpt>
      <trkpt lat="43.99487" lon="6.19536">
        <ele>657.2</ele>
        <time>2016-06-13T15:22:26Z</time>
      </trkpt>
      <trkpt lat="43.99497" lon="6.19542">
        <ele>657.2</ele>
        <time>2016-06-13T15:22:27Z</time>
      </trkpt>
      <trkpt lat="43.99541" lon="6.19568">
        <ele>656.24</ele>
        <time>2016-06-13T15:22:32Z</time>
      </trkpt>
      <trkpt lat="43.99618" lon="6.19617">
        <ele>657.2</ele>
        <time>2016-06-13T15:22:43Z</time>
      </trkpt>
      <trkpt lat="43.99662" lon="6.19638">
        <ele>657.68</ele>
        <time>2016-06-13T15:22:52Z</time>
      </trkpt>
      <trkpt lat="43.9967" lon="6.19642">
        <ele>658.64</ele>
        <time>2016-06-13T15:22:57Z</time>
      </trkpt>
      <trkpt lat="43.9967" lon="6.19642">
        <ele>657.68</ele>
        <time>2016-06-13T15:22:59Z</time>
      </trkpt>
      <trkpt lat="43.9967" lon="6.19642">
        <ele>657.68</ele>
        <time>2016-06-13T15:23:05Z</time>
      </trkpt>
      <trkpt lat="43.9967" lon="6.19642">
        <ele>657.68</ele>
        <time>2016-06-13T15:23:25Z</time>
      </trkpt>
      <trkpt lat="43.99671" lon="6.19642">
        <ele>659.12</ele>
        <time>2016-06-13T15:23:40Z</time>
      </trkpt>
      <trkpt lat="43.99671" lon="6.19642">
        <ele>657.68</ele>
        <time>2016-06-13T15:23:42Z</time>
      </trkpt>
      <trkpt lat="43.99671" lon="6.19642">
        <ele>658.64</ele>
        <time>2016-06-13T15:23:47Z</time>
      </trkpt>
      <trkpt lat="43.99671" lon="6.19642">
        <ele>658.64</ele>
        <time>2016-06-13T15:23:51Z</time>
      </trkpt>
      <trkpt lat="43.99671" lon="6.19642">
        <ele>657.68</ele>
        <time>2016-06-13T15:23:53Z</time>
      </trkpt>
      <trkpt lat="43.9967" lon="6.19642">
        <ele>659.6</ele>
        <time>2016-06-13T15:24:25Z</time>
      </trkpt>
      <trkpt lat="43.9967" lon="6.19642">
        <ele>659.12</ele>
        <time>2016-06-13T15:24:39Z</time>
      </trkpt>
      <trkpt lat="43.9967" lon="6.19642">
        <ele>659.12</ele>
        <time>2016-06-13T15:25:15Z</time>
      </trkpt>
      <trkpt lat="43.9967" lon="6.19641">
        <ele>657.2</ele>
        <time>2016-06-13T15:26:06Z</time>
      </trkpt>
      <trkpt lat="43.9967" lon="6.19641">
        <ele>658.64</ele>
        <time>2016-06-13T15:27:07Z</time>
      </trkpt>
      <trkpt lat="43.9967" lon="6.19641">
        <ele>658.64</ele>
        <time>2016-06-13T15:27:24Z</time>
      </trkpt>
      <trkpt lat="43.9967" lon="6.19641">
        <ele>659.12</ele>
        <time>2016-06-13T15:28:32Z</time>
      </trkpt>
      <trkpt lat="43.99669" lon="6.19641">
        <ele>658.64</ele>
        <time>2016-06-13T15:32:18Z</time>
      </trkpt>
      <trkpt lat="43.99669" lon="6.19641">
        <ele>659.12</ele>
        <time>2016-06-13T15:32:36Z</time>
      </trkpt>
      <trkpt lat="43.99669" lon="6.19641">
        <ele>658.64</ele>
        <time>2016-06-13T15:33:30Z</time>
      </trkpt>
      <trkpt lat="43.99669" lon="6.19641">
        <ele>658.64</ele>
        <time>2016-06-13T15:33:37Z</time>
      </trkpt>
      <trkpt lat="43.99668" lon="6.19642">
        <ele>658.16</ele>
        <time>2016-06-13T15:38:08Z</time>
      </trkpt>
      <trkpt lat="43.99668" lon="6.19641">
        <ele>657.2</ele>
        <time>2016-06-13T15:39:27Z</time>
      </trkpt>
      <trkpt lat="43.99668" lon="6.19641">
        <ele>660.08</ele>
        <time>2016-06-13T15:39:35Z</time>
      </trkpt>
      <trkpt lat="43.99668" lon="6.19643">
        <ele>660.08</ele>
        <time>2016-06-13T15:41:38Z</time>
      </trkpt>
      <trkpt lat="43.99668" lon="6.19643">
        <ele>658.64</ele>
        <time>2016-06-13T15:41:40Z</time>
      </trkpt>
      <trkpt lat="43.99668" lon="6.19643">
        <ele>658.16</ele>
        <time>2016-06-13T15:41:57Z</time>
      </trkpt>
      <trkpt lat="43.99668" lon="6.19643">
        <ele>660.56</ele>
        <time>2016-06-13T15:42:27Z</time>
      </trkpt>
      <trkpt lat="43.99668" lon="6.19643">
        <ele>660.56</ele>
        <time>2016-06-13T15:42:31Z</time>
      </trkpt>
      <trkpt lat="43.99668" lon="6.19643">
        <ele>658.64</ele>
        <time>2016-06-13T15:42:48Z</time>
      </trkpt>
      <trkpt lat="43.99669" lon="6.19643">
        <ele>659.12</ele>
        <time>2016-06-13T15:43:54Z</time>
      </trkpt>
      <trkpt lat="43.99669" lon="6.19643">
        <ele>659.12</ele>
        <time>2016-06-13T15:45:04Z</time>
      </trkpt>
      <trkpt lat="43.99669" lon="6.19643">
        <ele>661.04</ele>
        <time>2016-06-13T15:45:20Z</time>
      </trkpt>
      <trkpt lat="43.99669" lon="6.19643">
        <ele>660.56</ele>
        <time>2016-06-13T15:46:33Z</time>
      </trkpt>
      <trkpt lat="43.99669" lon="6.19643">
        <ele>658.64</ele>
        <time>2016-06-13T15:47:19Z</time>
      </trkpt>
      <trkpt lat="43.99669" lon="6.19644">
        <ele>659.6</ele>
        <time>2016-06-13T15:49:20Z</time>
      </trkpt>
      <trkpt lat="43.99669" lon="6.19644">
        <ele>660.08</ele>
        <time>2016-06-13T15:49:47Z</time>
      </trkpt>
      <trkpt lat="43.99669" lon="6.19644">
        <ele>659.6</ele>
        <time>2016-06-13T15:50:43Z</time>
      </trkpt>
      <trkpt lat="43.99668" lon="6.19644">
        <ele>658.64</ele>
        <time>2016-06-13T15:51:27Z</time>
      </trkpt>
      <trkpt lat="43.99668" lon="6.19644">
        <ele>659.6</ele>
        <time>2016-06-13T15:52:00Z</time>
      </trkpt>
      <trkpt lat="43.99668" lon="6.19644">
        <ele>659.6</ele>
        <time>2016-06-13T15:52:04Z</time>
      </trkpt>
      <trkpt lat="43.99668" lon="6.19644">
        <ele>660.56</ele>
        <time>2016-06-13T15:52:21Z</time>
      </trkpt>
      <trkpt lat="43.99668" lon="6.19644">
        <ele>660.56</ele>
        <time>2016-06-13T15:53:10Z</time>
      </trkpt>
      <trkpt lat="43.99668" lon="6.19643">
        <ele>660.08</ele>
        <time>2016-06-13T15:54:28Z</time>
      </trkpt>
      <trkpt lat="43.99668" lon="6.19644">
        <ele>660.56</ele>
        <time>2016-06-13T15:55:12Z</time>
      </trkpt>
      <trkpt lat="43.99668" lon="6.19644">
        <ele>658.64</ele>
        <time>2016-06-13T15:55:27Z</time>
      </trkpt>
      <trkpt lat="43.99668" lon="6.19643">
        <ele>661.52</ele>
        <time>2016-06-13T15:56:28Z</time>
      </trkpt>
      <trkpt lat="43.99668" lon="6.19643">
        <ele>659.6</ele>
        <time>2016-06-13T15:56:31Z</time>
      </trkpt>
      <trkpt lat="43.99668" lon="6.19643">
        <ele>662.01</ele>
        <time>2016-06-13T15:56:40Z</time>
      </trkpt>
      <trkpt lat="43.99668" lon="6.19643">
        <ele>658.64</ele>
        <time>2016-06-13T15:56:56Z</time>
      </trkpt>
      <trkpt lat="43.99668" lon="6.19643">
        <ele>661.52</ele>
        <time>2016-06-13T15:56:59Z</time>
      </trkpt>
      <trkpt lat="43.99668" lon="6.19644">
        <ele>662.01</ele>
        <time>2016-06-13T15:57:40Z</time>
      </trkpt>
      <trkpt lat="43.99668" lon="6.19644">
        <ele>661.04</ele>
        <time>2016-06-13T15:58:56Z</time>
      </trkpt>
      <trkpt lat="43.99675" lon="6.19649">
        <ele>661.52</ele>
        <time>2016-06-13T15:59:07Z</time>
      </trkpt>
      <trkpt lat="43.99675" lon="6.19649">
        <ele>662.97</ele>
        <time>2016-06-13T15:59:44Z</time>
      </trkpt>
      <trkpt lat="43.99675" lon="6.19649">
        <ele>661.52</ele>
        <time>2016-06-13T15:59:57Z</time>
      </trkpt>
      <trkpt lat="43.99687" lon="6.19652">
        <ele>662.01</ele>
        <time>2016-06-13T16:00:07Z</time>
      </trkpt>
      <trkpt lat="43.99701" lon="6.1965">
        <ele>662.97</ele>
        <time>2016-06-13T16:00:11Z</time>
      </trkpt>
      <trkpt lat="43.99737" lon="6.19653">
        <ele>664.89</ele>
        <time>2016-06-13T16:00:17Z</time>
      </trkpt>
      <trkpt lat="43.99786" lon="6.19665">
        <ele>668.25</ele>
        <time>2016-06-13T16:00:22Z</time>
      </trkpt>
      <trkpt lat="43.99797" lon="6.19668">
        <ele>668.25</ele>
        <time>2016-06-13T16:00:23Z</time>
      </trkpt>
      <trkpt lat="43.99879" lon="6.19699">
        <ele>671.62</ele>
        <time>2016-06-13T16:00:31Z</time>
      </trkpt>
      <trkpt lat="43.99957" lon="6.19737">
        <ele>674.98</ele>
        <time>2016-06-13T16:00:37Z</time>
      </trkpt>
      <trkpt lat="44.00095" lon="6.19802">
        <ele>678.83</ele>
        <time>2016-06-13T16:00:46Z</time>
      </trkpt>
      <trkpt lat="44.00111" lon="6.1981">
        <ele>678.83</ele>
        <time>2016-06-13T16:00:47Z</time>
      </trkpt>
      <trkpt lat="44.00145" lon="6.19827">
        <ele>677.87</ele>
        <time>2016-06-13T16:00:49Z</time>
      </trkpt>
      <trkpt lat="44.00177" lon="6.19852">
        <ele>678.83</ele>
        <time>2016-06-13T16:00:51Z</time>
      </trkpt>
      <trkpt lat="44.00229" lon="6.19881">
        <ele>680.27</ele>
        <time>2016-06-13T16:00:54Z</time>
      </trkpt>
      <trkpt lat="44.00287" lon="6.19899">
        <ele>682.19</ele>
        <time>2016-06-13T16:00:57Z</time>
      </trkpt>
      <trkpt lat="44.00358" lon="6.19939">
        <ele>679.79</ele>
        <time>2016-06-13T16:01:01Z</time>
      </trkpt>
      <trkpt lat="44.00456" lon="6.20001">
        <ele>677.39</ele>
        <time>2016-06-13T16:01:07Z</time>
      </trkpt>
      <trkpt lat="44.00526" lon="6.20072">
        <ele>673.54</ele>
        <time>2016-06-13T16:01:13Z</time>
      </trkpt>
      <trkpt lat="44.00531" lon="6.20079">
        <ele>669.7</ele>
        <time>2016-06-13T16:01:14Z</time>
      </trkpt>
      <trkpt lat="44.0054" lon="6.20094">
        <ele>670.18</ele>
        <time>2016-06-13T16:01:17Z</time>
      </trkpt>
      <trkpt lat="44.00589" lon="6.20136">
        <ele>671.62</ele>
        <time>2016-06-13T16:01:23Z</time>
      </trkpt>
      <trkpt lat="44.00623" lon="6.20175">
        <ele>676.91</ele>
        <time>2016-06-13T16:01:26Z</time>
      </trkpt>
      <trkpt lat="44.00635" lon="6.20189">
        <ele>676.42</ele>
        <time>2016-06-13T16:01:27Z</time>
      </trkpt>
      <trkpt lat="44.00732" lon="6.20302">
        <ele>677.87</ele>
        <time>2016-06-13T16:01:34Z</time>
      </trkpt>
      <trkpt lat="44.00787" lon="6.20379">
        <ele>679.79</ele>
        <time>2016-06-13T16:01:38Z</time>
      </trkpt>
      <trkpt lat="44.0086" lon="6.20475">
        <ele>684.12</ele>
        <time>2016-06-13T16:01:43Z</time>
      </trkpt>
      <trkpt lat="44.00877" lon="6.20493">
        <ele>683.15</ele>
        <time>2016-06-13T16:01:44Z</time>
      </trkpt>
      <trkpt lat="44.00928" lon="6.20544">
        <ele>687</ele>
        <time>2016-06-13T16:01:47Z</time>
      </trkpt>
      <trkpt lat="44.00997" lon="6.20604">
        <ele>686.52</ele>
        <time>2016-06-13T16:01:51Z</time>
      </trkpt>
      <trkpt lat="44.01039" lon="6.2066">
        <ele>687.96</ele>
        <time>2016-06-13T16:01:54Z</time>
      </trkpt>
      <trkpt lat="44.01112" lon="6.20722">
        <ele>688.92</ele>
        <time>2016-06-13T16:01:59Z</time>
      </trkpt>
      <trkpt lat="44.01168" lon="6.20772">
        <ele>690.36</ele>
        <time>2016-06-13T16:02:04Z</time>
      </trkpt>
      <trkpt lat="44.01181" lon="6.20839">
        <ele>692.77</ele>
        <time>2016-06-13T16:02:07Z</time>
      </trkpt>
      <trkpt lat="44.01255" lon="6.20976">
        <ele>694.69</ele>
        <time>2016-06-13T16:02:14Z</time>
      </trkpt>
      <trkpt lat="44.01337" lon="6.21021">
        <ele>696.13</ele>
        <time>2016-06-13T16:02:19Z</time>
      </trkpt>
      <trkpt lat="44.01371" lon="6.21024">
        <ele>696.13</ele>
        <time>2016-06-13T16:02:21Z</time>
      </trkpt>
      <trkpt lat="44.01436" lon="6.21079">
        <ele>696.61</ele>
        <time>2016-06-13T16:02:26Z</time>
      </trkpt>
      <trkpt lat="44.0145" lon="6.21138">
        <ele>697.09</ele>
        <time>2016-06-13T16:02:29Z</time>
      </trkpt>
      <trkpt lat="44.01466" lon="6.21273">
        <ele>698.05</ele>
        <time>2016-06-13T16:02:38Z</time>
      </trkpt>
      <trkpt lat="44.01467" lon="6.21283">
        <ele>698.53</ele>
        <time>2016-06-13T16:02:39Z</time>
      </trkpt>
      <trkpt lat="44.01469" lon="6.21309">
        <ele>699.5</ele>
        <time>2016-06-13T16:02:42Z</time>
      </trkpt>
      <trkpt lat="44.01489" lon="6.21331">
        <ele>699.02</ele>
        <time>2016-06-13T16:02:49Z</time>
      </trkpt>
      <trkpt lat="44.01502" lon="6.21327">
        <ele>700.94</ele>
        <time>2016-06-13T16:02:51Z</time>
      </trkpt>
      <trkpt lat="44.01541" lon="6.21309">
        <ele>703.34</ele>
        <time>2016-06-13T16:02:56Z</time>
      </trkpt>
      <trkpt lat="44.01581" lon="6.21287">
        <ele>706.71</ele>
        <time>2016-06-13T16:03:00Z</time>
      </trkpt>
      <trkpt lat="44.01621" lon="6.2126">
        <ele>710.55</ele>
        <time>2016-06-13T16:03:03Z</time>
      </trkpt>
      <trkpt lat="44.01652" lon="6.21239">
        <ele>714.88</ele>
        <time>2016-06-13T16:03:05Z</time>
      </trkpt>
      <trkpt lat="44.01684" lon="6.21216">
        <ele>718.24</ele>
        <time>2016-06-13T16:03:07Z</time>
      </trkpt>
      <trkpt lat="44.01717" lon="6.2119">
        <ele>719.68</ele>
        <time>2016-06-13T16:03:09Z</time>
      </trkpt>
      <trkpt lat="44.0175" lon="6.21159">
        <ele>724.01</ele>
        <time>2016-06-13T16:03:11Z</time>
      </trkpt>
      <trkpt lat="44.01782" lon="6.21124">
        <ele>725.45</ele>
        <time>2016-06-13T16:03:13Z</time>
      </trkpt>
      <trkpt lat="44.01813" lon="6.21085">
        <ele>731.22</ele>
        <time>2016-06-13T16:03:15Z</time>
      </trkpt>
      <trkpt lat="44.01846" lon="6.21042">
        <ele>734.58</ele>
        <time>2016-06-13T16:03:17Z</time>
      </trkpt>
      <trkpt lat="44.01863" lon="6.21021">
        <ele>734.1</ele>
        <time>2016-06-13T16:03:18Z</time>
      </trkpt>
      <trkpt lat="44.01896" lon="6.20979">
        <ele>737.95</ele>
        <time>2016-06-13T16:03:20Z</time>
      </trkpt>
      <trkpt lat="44.01913" lon="6.20959">
        <ele>737.47</ele>
        <time>2016-06-13T16:03:21Z</time>
      </trkpt>
      <trkpt lat="44.01952" lon="6.20927">
        <ele>739.39</ele>
        <time>2016-06-13T16:03:23Z</time>
      </trkpt>
      <trkpt lat="44.02018" lon="6.20909">
        <ele>742.76</ele>
        <time>2016-06-13T16:03:26Z</time>
      </trkpt>
      <trkpt lat="44.02062" lon="6.20925">
        <ele>747.08</ele>
        <time>2016-06-13T16:03:28Z</time>
      </trkpt>
      <trkpt lat="44.02117" lon="6.20985">
        <ele>751.41</ele>
        <time>2016-06-13T16:03:31Z</time>
      </trkpt>
      <trkpt lat="44.02151" lon="6.21032">
        <ele>756.21</ele>
        <time>2016-06-13T16:03:33Z</time>
      </trkpt>
      <trkpt lat="44.02235" lon="6.21085">
        <ele>760.06</ele>
        <time>2016-06-13T16:03:37Z</time>
      </trkpt>
      <trkpt lat="44.02305" lon="6.21064">
        <ele>764.39</ele>
        <time>2016-06-13T16:03:40Z</time>
      </trkpt>
      <trkpt lat="44.02379" lon="6.20972">
        <ele>770.63</ele>
        <time>2016-06-13T16:03:44Z</time>
      </trkpt>
      <trkpt lat="44.02448" lon="6.20866">
        <ele>778.81</ele>
        <time>2016-06-13T16:03:48Z</time>
      </trkpt>
      <trkpt lat="44.02467" lon="6.20843">
        <ele>781.21</ele>
        <time>2016-06-13T16:03:49Z</time>
      </trkpt>
      <trkpt lat="44.02489" lon="6.20822">
        <ele>782.65</ele>
        <time>2016-06-13T16:03:50Z</time>
      </trkpt>
      <trkpt lat="44.02555" lon="6.2077">
        <ele>784.57</ele>
        <time>2016-06-13T16:03:53Z</time>
      </trkpt>
      <trkpt lat="44.02601" lon="6.20736">
        <ele>788.9</ele>
        <time>2016-06-13T16:03:55Z</time>
      </trkpt>
      <trkpt lat="44.02671" lon="6.20686">
        <ele>792.74</ele>
        <time>2016-06-13T16:03:58Z</time>
      </trkpt>
      <trkpt lat="44.02695" lon="6.20672">
        <ele>793.22</ele>
        <time>2016-06-13T16:03:59Z</time>
      </trkpt>
      <trkpt lat="44.02721" lon="6.20662">
        <ele>795.15</ele>
        <time>2016-06-13T16:04:00Z</time>
      </trkpt>
      <trkpt lat="44.02747" lon="6.20654">
        <ele>798.51</ele>
        <time>2016-06-13T16:04:01Z</time>
      </trkpt>
      <trkpt lat="44.02773" lon="6.20647">
        <ele>798.99</ele>
        <time>2016-06-13T16:04:02Z</time>
      </trkpt>
      <trkpt lat="44.02799" lon="6.20639">
        <ele>804.76</ele>
        <time>2016-06-13T16:04:03Z</time>
      </trkpt>
      <trkpt lat="44.02825" lon="6.2063">
        <ele>803.8</ele>
        <time>2016-06-13T16:04:04Z</time>
      </trkpt>
      <trkpt lat="44.0285" lon="6.20616">
        <ele>806.68</ele>
        <time>2016-06-13T16:04:05Z</time>
      </trkpt>
      <trkpt lat="44.02874" lon="6.206">
        <ele>810.05</ele>
        <time>2016-06-13T16:04:06Z</time>
      </trkpt>
      <trkpt lat="44.02897" lon="6.20581">
        <ele>810.05</ele>
        <time>2016-06-13T16:04:07Z</time>
      </trkpt>
      <trkpt lat="44.02943" lon="6.20545">
        <ele>810.05</ele>
        <time>2016-06-13T16:04:09Z</time>
      </trkpt>
      <trkpt lat="44.02967" lon="6.20531">
        <ele>811.49</ele>
        <time>2016-06-13T16:04:10Z</time>
      </trkpt>
      <trkpt lat="44.02993" lon="6.20522">
        <ele>811.97</ele>
        <time>2016-06-13T16:04:11Z</time>
      </trkpt>
      <trkpt lat="44.03018" lon="6.20517">
        <ele>815.82</ele>
        <time>2016-06-13T16:04:12Z</time>
      </trkpt>
      <trkpt lat="44.03045" lon="6.20516">
        <ele>818.22</ele>
        <time>2016-06-13T16:04:13Z</time>
      </trkpt>
      <trkpt lat="44.03071" lon="6.20519">
        <ele>817.74</ele>
        <time>2016-06-13T16:04:14Z</time>
      </trkpt>
      <trkpt lat="44.03097" lon="6.20524">
        <ele>819.66</ele>
        <time>2016-06-13T16:04:15Z</time>
      </trkpt>
      <trkpt lat="44.03122" lon="6.20532">
        <ele>820.62</ele>
        <time>2016-06-13T16:04:16Z</time>
      </trkpt>
      <trkpt lat="44.03147" lon="6.20543">
        <ele>822.06</ele>
        <time>2016-06-13T16:04:17Z</time>
      </trkpt>
      <trkpt lat="44.03171" lon="6.20554">
        <ele>824.95</ele>
        <time>2016-06-13T16:04:18Z</time>
      </trkpt>
      <trkpt lat="44.03195" lon="6.20567">
        <ele>823.51</ele>
        <time>2016-06-13T16:04:19Z</time>
      </trkpt>
      <trkpt lat="44.03291" lon="6.20609">
        <ele>826.87</ele>
        <time>2016-06-13T16:04:23Z</time>
      </trkpt>
      <trkpt lat="44.0342" lon="6.20634">
        <ele>822.55</ele>
        <time>2016-06-13T16:04:28Z</time>
      </trkpt>
      <trkpt lat="44.03447" lon="6.20636">
        <ele>823.51</ele>
        <time>2016-06-13T16:04:29Z</time>
      </trkpt>
      <trkpt lat="44.03499" lon="6.20639">
        <ele>819.66</ele>
        <time>2016-06-13T16:04:31Z</time>
      </trkpt>
      <trkpt lat="44.03576" lon="6.20649">
        <ele>815.82</ele>
        <time>2016-06-13T16:04:34Z</time>
      </trkpt>
      <trkpt lat="44.03599" lon="6.20656">
        <ele>814.85</ele>
        <time>2016-06-13T16:04:35Z</time>
      </trkpt>
      <trkpt lat="44.0362" lon="6.20667">
        <ele>815.82</ele>
        <time>2016-06-13T16:04:36Z</time>
      </trkpt>
      <trkpt lat="44.0364" lon="6.20683">
        <ele>814.37</ele>
        <time>2016-06-13T16:04:37Z</time>
      </trkpt>
      <trkpt lat="44.03688" lon="6.20754">
        <ele>814.85</ele>
        <time>2016-06-13T16:04:40Z</time>
      </trkpt>
      <trkpt lat="44.03717" lon="6.20808">
        <ele>815.34</ele>
        <time>2016-06-13T16:04:42Z</time>
      </trkpt>
      <trkpt lat="44.03749" lon="6.20859">
        <ele>814.85</ele>
        <time>2016-06-13T16:04:44Z</time>
      </trkpt>
      <trkpt lat="44.03811" lon="6.20915">
        <ele>811.97</ele>
        <time>2016-06-13T16:04:47Z</time>
      </trkpt>
      <trkpt lat="44.03912" lon="6.20923">
        <ele>810.05</ele>
        <time>2016-06-13T16:04:51Z</time>
      </trkpt>
      <trkpt lat="44.03997" lon="6.20848">
        <ele>809.57</ele>
        <time>2016-06-13T16:04:55Z</time>
      </trkpt>
      <trkpt lat="44.04038" lon="6.20718">
        <ele>809.09</ele>
        <time>2016-06-13T16:04:59Z</time>
      </trkpt>
      <trkpt lat="44.04048" lon="6.20614">
        <ele>809.09</ele>
        <time>2016-06-13T16:05:02Z</time>
      </trkpt>
      <trkpt lat="44.04062" lon="6.20554">
        <ele>807.16</ele>
        <time>2016-06-13T16:05:04Z</time>
      </trkpt>
      <trkpt lat="44.04111" lon="6.2049">
        <ele>807.64</ele>
        <time>2016-06-13T16:05:07Z</time>
      </trkpt>
      <trkpt lat="44.04133" lon="6.20478">
        <ele>808.13</ele>
        <time>2016-06-13T16:05:08Z</time>
      </trkpt>
      <trkpt lat="44.04157" lon="6.2047">
        <ele>807.64</ele>
        <time>2016-06-13T16:05:09Z</time>
      </trkpt>
      <trkpt lat="44.04181" lon="6.20463">
        <ele>807.64</ele>
        <time>2016-06-13T16:05:10Z</time>
      </trkpt>
      <trkpt lat="44.04229" lon="6.20442">
        <ele>808.13</ele>
        <time>2016-06-13T16:05:12Z</time>
      </trkpt>
      <trkpt lat="44.0425" lon="6.20424">
        <ele>809.57</ele>
        <time>2016-06-13T16:05:13Z</time>
      </trkpt>
      <trkpt lat="44.0427" lon="6.20401">
        <ele>810.53</ele>
        <time>2016-06-13T16:05:14Z</time>
      </trkpt>
      <trkpt lat="44.04289" lon="6.20377">
        <ele>810.53</ele>
        <time>2016-06-13T16:05:15Z</time>
      </trkpt>
      <trkpt lat="44.04367" lon="6.20282">
        <ele>806.68</ele>
        <time>2016-06-13T16:05:19Z</time>
      </trkpt>
      <trkpt lat="44.04428" lon="6.20216">
        <ele>808.13</ele>
        <time>2016-06-13T16:05:22Z</time>
      </trkpt>
      <trkpt lat="44.04546" lon="6.20086">
        <ele>807.64</ele>
        <time>2016-06-13T16:05:28Z</time>
      </trkpt>
      <trkpt lat="44.04596" lon="6.2002">
        <ele>803.8</ele>
        <time>2016-06-13T16:05:31Z</time>
      </trkpt>
      <trkpt lat="44.04612" lon="6.19999">
        <ele>803.8</ele>
        <time>2016-06-13T16:05:32Z</time>
      </trkpt>
      <trkpt lat="44.04642" lon="6.19961">
        <ele>800.44</ele>
        <time>2016-06-13T16:05:34Z</time>
      </trkpt>
      <trkpt lat="44.04739" lon="6.19935">
        <ele>799.47</ele>
        <time>2016-06-13T16:05:39Z</time>
      </trkpt>
      <trkpt lat="44.0479" lon="6.19994">
        <ele>800.92</ele>
        <time>2016-06-13T16:05:42Z</time>
      </trkpt>
      <trkpt lat="44.04797" lon="6.20112">
        <ele>798.99</ele>
        <time>2016-06-13T16:05:46Z</time>
      </trkpt>
      <trkpt lat="44.04787" lon="6.20139">
        <ele>798.03</ele>
        <time>2016-06-13T16:05:47Z</time>
      </trkpt>
      <trkpt lat="44.04763" lon="6.20193">
        <ele>798.03</ele>
        <time>2016-06-13T16:05:49Z</time>
      </trkpt>
      <trkpt lat="44.04757" lon="6.20276">
        <ele>794.67</ele>
        <time>2016-06-13T16:05:52Z</time>
      </trkpt>
      <trkpt lat="44.04766" lon="6.203">
        <ele>792.74</ele>
        <time>2016-06-13T16:05:53Z</time>
      </trkpt>
      <trkpt lat="44.04781" lon="6.20321">
        <ele>793.22</ele>
        <time>2016-06-13T16:05:54Z</time>
      </trkpt>
      <trkpt lat="44.04799" lon="6.20339">
        <ele>792.26</ele>
        <time>2016-06-13T16:05:55Z</time>
      </trkpt>
      <trkpt lat="44.0482" lon="6.20351">
        <ele>791.78</ele>
        <time>2016-06-13T16:05:56Z</time>
      </trkpt>
      <trkpt lat="44.04843" lon="6.20362">
        <ele>792.26</ele>
        <time>2016-06-13T16:05:57Z</time>
      </trkpt>
      <trkpt lat="44.04885" lon="6.20387">
        <ele>789.38</ele>
        <time>2016-06-13T16:05:59Z</time>
      </trkpt>
      <trkpt lat="44.04902" lon="6.20408">
        <ele>788.9</ele>
        <time>2016-06-13T16:06:00Z</time>
      </trkpt>
      <trkpt lat="44.04916" lon="6.20433">
        <ele>788.9</ele>
        <time>2016-06-13T16:06:01Z</time>
      </trkpt>
      <trkpt lat="44.04946" lon="6.20487">
        <ele>787.46</ele>
        <time>2016-06-13T16:06:03Z</time>
      </trkpt>
      <trkpt lat="44.04963" lon="6.2051">
        <ele>786.98</ele>
        <time>2016-06-13T16:06:04Z</time>
      </trkpt>
      <trkpt lat="44.04981" lon="6.20531">
        <ele>786.5</ele>
        <time>2016-06-13T16:06:05Z</time>
      </trkpt>
      <trkpt lat="44.05019" lon="6.2057">
        <ele>782.65</ele>
        <time>2016-06-13T16:06:07Z</time>
      </trkpt>
      <trkpt lat="44.05072" lon="6.20623">
        <ele>779.29</ele>
        <time>2016-06-13T16:06:10Z</time>
      </trkpt>
      <trkpt lat="44.05125" lon="6.20657">
        <ele>775.44</ele>
        <time>2016-06-13T16:06:13Z</time>
      </trkpt>
      <trkpt lat="44.05161" lon="6.20654">
        <ele>775.44</ele>
        <time>2016-06-13T16:06:15Z</time>
      </trkpt>
      <trkpt lat="44.05196" lon="6.20645">
        <ele>773.52</ele>
        <time>2016-06-13T16:06:17Z</time>
      </trkpt>
      <trkpt lat="44.05248" lon="6.20651">
        <ele>772.08</ele>
        <time>2016-06-13T16:06:20Z</time>
      </trkpt>
      <trkpt lat="44.05282" lon="6.20672">
        <ele>769.19</ele>
        <time>2016-06-13T16:06:22Z</time>
      </trkpt>
      <trkpt lat="44.05298" lon="6.20686">
        <ele>767.75</ele>
        <time>2016-06-13T16:06:23Z</time>
      </trkpt>
      <trkpt lat="44.05347" lon="6.20732">
        <ele>765.35</ele>
        <time>2016-06-13T16:06:26Z</time>
      </trkpt>
      <trkpt lat="44.05419" lon="6.20765">
        <ele>763.42</ele>
        <time>2016-06-13T16:06:30Z</time>
      </trkpt>
      <trkpt lat="44.05476" lon="6.20753">
        <ele>761.98</ele>
        <time>2016-06-13T16:06:33Z</time>
      </trkpt>
      <trkpt lat="44.05546" lon="6.20722">
        <ele>766.79</ele>
        <time>2016-06-13T16:06:36Z</time>
      </trkpt>
      <trkpt lat="44.05624" lon="6.20696">
        <ele>762.94</ele>
        <time>2016-06-13T16:06:39Z</time>
      </trkpt>
      <trkpt lat="44.0565" lon="6.20691">
        <ele>762.46</ele>
        <time>2016-06-13T16:06:40Z</time>
      </trkpt>
      <trkpt lat="44.05748" lon="6.20677">
        <ele>756.21</ele>
        <time>2016-06-13T16:06:44Z</time>
      </trkpt>
      <trkpt lat="44.05771" lon="6.20676">
        <ele>756.21</ele>
        <time>2016-06-13T16:06:45Z</time>
      </trkpt>
      <trkpt lat="44.05814" lon="6.20675">
        <ele>753.33</ele>
        <time>2016-06-13T16:06:47Z</time>
      </trkpt>
      <trkpt lat="44.05855" lon="6.20677">
        <ele>749</ele>
        <time>2016-06-13T16:06:49Z</time>
      </trkpt>
      <trkpt lat="44.05893" lon="6.20681">
        <ele>745.64</ele>
        <time>2016-06-13T16:06:51Z</time>
      </trkpt>
      <trkpt lat="44.05912" lon="6.20684">
        <ele>745.16</ele>
        <time>2016-06-13T16:06:52Z</time>
      </trkpt>
      <trkpt lat="44.05974" lon="6.2069">
        <ele>746.6</ele>
        <time>2016-06-13T16:06:55Z</time>
      </trkpt>
      <trkpt lat="44.06087" lon="6.20702">
        <ele>741.31</ele>
        <time>2016-06-13T16:07:00Z</time>
      </trkpt>
      <trkpt lat="44.06197" lon="6.20725">
        <ele>738.43</ele>
        <time>2016-06-13T16:07:05Z</time>
      </trkpt>
      <trkpt lat="44.06259" lon="6.20764">
        <ele>732.66</ele>
        <time>2016-06-13T16:07:08Z</time>
      </trkpt>
      <trkpt lat="44.06279" lon="6.2078">
        <ele>734.58</ele>
        <time>2016-06-13T16:07:09Z</time>
      </trkpt>
      <trkpt lat="44.06301" lon="6.20796">
        <ele>734.58</ele>
        <time>2016-06-13T16:07:10Z</time>
      </trkpt>
      <trkpt lat="44.06394" lon="6.20836">
        <ele>732.66</ele>
        <time>2016-06-13T16:07:14Z</time>
      </trkpt>
      <trkpt lat="44.06491" lon="6.20852">
        <ele>728.34</ele>
        <time>2016-06-13T16:07:18Z</time>
      </trkpt>
      <trkpt lat="44.0654" lon="6.20856">
        <ele>724.97</ele>
        <time>2016-06-13T16:07:20Z</time>
      </trkpt>
      <trkpt lat="44.06663" lon="6.20841">
        <ele>721.13</ele>
        <time>2016-06-13T16:07:25Z</time>
      </trkpt>
      <trkpt lat="44.06761" lon="6.20848">
        <ele>715.84</ele>
        <time>2016-06-13T16:07:29Z</time>
      </trkpt>
      <trkpt lat="44.06828" lon="6.20861">
        <ele>712.47</ele>
        <time>2016-06-13T16:07:32Z</time>
      </trkpt>
      <trkpt lat="44.06871" lon="6.20868">
        <ele>708.15</ele>
        <time>2016-06-13T16:07:34Z</time>
      </trkpt>
      <trkpt lat="44.06892" lon="6.20871">
        <ele>706.71</ele>
        <time>2016-06-13T16:07:35Z</time>
      </trkpt>
      <trkpt lat="44.06951" lon="6.20865">
        <ele>704.78</ele>
        <time>2016-06-13T16:07:38Z</time>
      </trkpt>
      <trkpt lat="44.07009" lon="6.20871">
        <ele>699.5</ele>
        <time>2016-06-13T16:07:41Z</time>
      </trkpt>
      <trkpt lat="44.07141" lon="6.20912">
        <ele>697.09</ele>
        <time>2016-06-13T16:07:48Z</time>
      </trkpt>
      <trkpt lat="44.07159" lon="6.20916">
        <ele>697.09</ele>
        <time>2016-06-13T16:07:49Z</time>
      </trkpt>
      <trkpt lat="44.07214" lon="6.2093">
        <ele>696.61</ele>
        <time>2016-06-13T16:07:52Z</time>
      </trkpt>
      <trkpt lat="44.07264" lon="6.20958">
        <ele>694.69</ele>
        <time>2016-06-13T16:07:55Z</time>
      </trkpt>
      <trkpt lat="44.07278" lon="6.20974">
        <ele>693.73</ele>
        <time>2016-06-13T16:07:56Z</time>
      </trkpt>
      <trkpt lat="44.07366" lon="6.21">
        <ele>692.77</ele>
        <time>2016-06-13T16:08:01Z</time>
      </trkpt>
      <trkpt lat="44.07441" lon="6.20968">
        <ele>691.81</ele>
        <time>2016-06-13T16:08:05Z</time>
      </trkpt>
      <trkpt lat="44.07476" lon="6.20961">
        <ele>690.84</ele>
        <time>2016-06-13T16:08:07Z</time>
      </trkpt>
      <trkpt lat="44.07512" lon="6.20978">
        <ele>689.4</ele>
        <time>2016-06-13T16:08:09Z</time>
      </trkpt>
      <trkpt lat="44.07615" lon="6.20984">
        <ele>690.36</ele>
        <time>2016-06-13T16:08:15Z</time>
      </trkpt>
      <trkpt lat="44.07646" lon="6.20958">
        <ele>688.44</ele>
        <time>2016-06-13T16:08:17Z</time>
      </trkpt>
      <trkpt lat="44.07662" lon="6.20952">
        <ele>687.48</ele>
        <time>2016-06-13T16:08:18Z</time>
      </trkpt>
      <trkpt lat="44.07679" lon="6.20952">
        <ele>685.08</ele>
        <time>2016-06-13T16:08:19Z</time>
      </trkpt>
      <trkpt lat="44.07694" lon="6.20957">
        <ele>683.15</ele>
        <time>2016-06-13T16:08:20Z</time>
      </trkpt>
      <trkpt lat="44.07708" lon="6.20967">
        <ele>682.67</ele>
        <time>2016-06-13T16:08:21Z</time>
      </trkpt>
      <trkpt lat="44.0772" lon="6.20982">
        <ele>682.19</ele>
        <time>2016-06-13T16:08:22Z</time>
      </trkpt>
      <trkpt lat="44.07729" lon="6.21">
        <ele>683.15</ele>
        <time>2016-06-13T16:08:23Z</time>
      </trkpt>
      <trkpt lat="44.07737" lon="6.2102">
        <ele>683.63</ele>
        <time>2016-06-13T16:08:24Z</time>
      </trkpt>
      <trkpt lat="44.07745" lon="6.2104">
        <ele>682.67</ele>
        <time>2016-06-13T16:08:25Z</time>
      </trkpt>
      <trkpt lat="44.07761" lon="6.21077">
        <ele>684.6</ele>
        <time>2016-06-13T16:08:27Z</time>
      </trkpt>
      <trkpt lat="44.07771" lon="6.21092">
        <ele>685.08</ele>
        <time>2016-06-13T16:08:28Z</time>
      </trkpt>
      <trkpt lat="44.0778" lon="6.21106">
        <ele>681.23</ele>
        <time>2016-06-13T16:08:29Z</time>
      </trkpt>
      <trkpt lat="44.07789" lon="6.21119">
        <ele>681.71</ele>
        <time>2016-06-13T16:08:30Z</time>
      </trkpt>
      <trkpt lat="44.07797" lon="6.2113">
        <ele>678.83</ele>
        <time>2016-06-13T16:08:31Z</time>
      </trkpt>
      <trkpt lat="44.07803" lon="6.21139">
        <ele>679.79</ele>
        <time>2016-06-13T16:08:32Z</time>
      </trkpt>
      <trkpt lat="44.07816" lon="6.21163">
        <ele>676.42</ele>
        <time>2016-06-13T16:08:36Z</time>
      </trkpt>
      <trkpt lat="44.07817" lon="6.21166">
        <ele>676.42</ele>
        <time>2016-06-13T16:08:37Z</time>
      </trkpt>
      <trkpt lat="44.07838" lon="6.21224">
        <ele>678.83</ele>
        <time>2016-06-13T16:08:47Z</time>
      </trkpt>
      <trkpt lat="44.07842" lon="6.21233">
        <ele>675.46</ele>
        <time>2016-06-13T16:08:48Z</time>
      </trkpt>
      <trkpt lat="44.07849" lon="6.2125">
        <ele>678.83</ele>
        <time>2016-06-13T16:08:50Z</time>
      </trkpt>
      <trkpt lat="44.0787" lon="6.2131">
        <ele>676.42</ele>
        <time>2016-06-13T16:08:55Z</time>
      </trkpt>
      <trkpt lat="44.07881" lon="6.21396">
        <ele>678.35</ele>
        <time>2016-06-13T16:09:00Z</time>
      </trkpt>
      <trkpt lat="44.07885" lon="6.21413">
        <ele>678.35</ele>
        <time>2016-06-13T16:09:01Z</time>
      </trkpt>
      <trkpt lat="44.07891" lon="6.21429">
        <ele>676.42</ele>
        <time>2016-06-13T16:09:02Z</time>
      </trkpt>
      <trkpt lat="44.07898" lon="6.21443">
        <ele>677.39</ele>
        <time>2016-06-13T16:09:03Z</time>
      </trkpt>
      <trkpt lat="44.07907" lon="6.21454">
        <ele>677.87</ele>
        <time>2016-06-13T16:09:04Z</time>
      </trkpt>
      <trkpt lat="44.07916" lon="6.21465">
        <ele>676.91</ele>
        <time>2016-06-13T16:09:05Z</time>
      </trkpt>
      <trkpt lat="44.07931" lon="6.21487">
        <ele>675.94</ele>
        <time>2016-06-13T16:09:07Z</time>
      </trkpt>
      <trkpt lat="44.07937" lon="6.21498">
        <ele>675.94</ele>
        <time>2016-06-13T16:09:08Z</time>
      </trkpt>
      <trkpt lat="44.0794" lon="6.21507">
        <ele>675.94</ele>
        <time>2016-06-13T16:09:09Z</time>
      </trkpt>
      <trkpt lat="44.07943" lon="6.21514">
        <ele>675.46</ele>
        <time>2016-06-13T16:09:10Z</time>
      </trkpt>
      <trkpt lat="44.07944" lon="6.2152">
        <ele>674.02</ele>
        <time>2016-06-13T16:09:11Z</time>
      </trkpt>
      <trkpt lat="44.07944" lon="6.21523">
        <ele>673.06</ele>
        <time>2016-06-13T16:09:12Z</time>
      </trkpt>
      <trkpt lat="44.07944" lon="6.21541">
        <ele>673.06</ele>
        <time>2016-06-13T16:09:21Z</time>
      </trkpt>
      <trkpt lat="44.07944" lon="6.21553">
        <ele>672.1</ele>
        <time>2016-06-13T16:09:23Z</time>
      </trkpt>
      <trkpt lat="44.07942" lon="6.2156">
        <ele>672.58</ele>
        <time>2016-06-13T16:09:24Z</time>
      </trkpt>
      <trkpt lat="44.07935" lon="6.21575">
        <ele>673.06</ele>
        <time>2016-06-13T16:09:26Z</time>
      </trkpt>
      <trkpt lat="44.07936" lon="6.21609">
        <ele>672.1</ele>
        <time>2016-06-13T16:09:30Z</time>
      </trkpt>
      <trkpt lat="44.07965" lon="6.21639">
        <ele>670.66</ele>
        <time>2016-06-13T16:09:36Z</time>
      </trkpt>
      <trkpt lat="44.07969" lon="6.21648">
        <ele>672.1</ele>
        <time>2016-06-13T16:09:47Z</time>
      </trkpt>
      <trkpt lat="44.07969" lon="6.21648">
        <ele>672.1</ele>
        <time>2016-06-13T16:09:56Z</time>
      </trkpt>
      <trkpt lat="44.07969" lon="6.21648">
        <ele>674.02</ele>
        <time>2016-06-13T16:09:59Z</time>
      </trkpt>
      <trkpt lat="44.07969" lon="6.21648">
        <ele>670.66</ele>
        <time>2016-06-13T16:10:10Z</time>
      </trkpt>
      <trkpt lat="44.07975" lon="6.21659">
        <ele>671.14</ele>
        <time>2016-06-13T16:10:26Z</time>
      </trkpt>
      <trkpt lat="44.07989" lon="6.21733">
        <ele>671.14</ele>
        <time>2016-06-13T16:10:33Z</time>
      </trkpt>
      <trkpt lat="44.07989" lon="6.21749">
        <ele>670.66</ele>
        <time>2016-06-13T16:10:34Z</time>
      </trkpt>
      <trkpt lat="44.07986" lon="6.21801">
        <ele>674.02</ele>
        <time>2016-06-13T16:10:37Z</time>
      </trkpt>
      <trkpt lat="44.07989" lon="6.21935">
        <ele>676.42</ele>
        <time>2016-06-13T16:10:44Z</time>
      </trkpt>
      <trkpt lat="44.08019" lon="6.22003">
        <ele>674.98</ele>
        <time>2016-06-13T16:10:48Z</time>
      </trkpt>
      <trkpt lat="44.08042" lon="6.2203">
        <ele>674.98</ele>
        <time>2016-06-13T16:10:50Z</time>
      </trkpt>
      <trkpt lat="44.08067" lon="6.2214">
        <ele>674.5</ele>
        <time>2016-06-13T16:10:56Z</time>
      </trkpt>
      <trkpt lat="44.08066" lon="6.22198">
        <ele>676.42</ele>
        <time>2016-06-13T16:10:59Z</time>
      </trkpt>
      <trkpt lat="44.08078" lon="6.22235">
        <ele>676.42</ele>
        <time>2016-06-13T16:11:01Z</time>
      </trkpt>
      <trkpt lat="44.08103" lon="6.22288">
        <ele>676.91</ele>
        <time>2016-06-13T16:11:04Z</time>
      </trkpt>
      <trkpt lat="44.08124" lon="6.22319">
        <ele>675.46</ele>
        <time>2016-06-13T16:11:06Z</time>
      </trkpt>
      <trkpt lat="44.0818" lon="6.22377">
        <ele>675.94</ele>
        <time>2016-06-13T16:11:11Z</time>
      </trkpt>
      <trkpt lat="44.08197" lon="6.22408">
        <ele>675.94</ele>
        <time>2016-06-13T16:11:13Z</time>
      </trkpt>
      <trkpt lat="44.08211" lon="6.22441">
        <ele>675.46</ele>
        <time>2016-06-13T16:11:15Z</time>
      </trkpt>
      <trkpt lat="44.08304" lon="6.22606">
        <ele>677.39</ele>
        <time>2016-06-13T16:11:26Z</time>
      </trkpt>
      <trkpt lat="44.08314" lon="6.22621">
        <ele>677.87</ele>
        <time>2016-06-13T16:11:27Z</time>
      </trkpt>
      <trkpt lat="44.08363" lon="6.22657">
        <ele>676.91</ele>
        <time>2016-06-13T16:11:31Z</time>
      </trkpt>
      <trkpt lat="44.08427" lon="6.22678">
        <ele>674.98</ele>
        <time>2016-06-13T16:11:36Z</time>
      </trkpt>
      <trkpt lat="44.08553" lon="6.2272">
        <ele>676.42</ele>
        <time>2016-06-13T16:11:47Z</time>
      </trkpt>
      <trkpt lat="44.08669" lon="6.22796">
        <ele>675.94</ele>
        <time>2016-06-13T16:11:57Z</time>
      </trkpt>
      <trkpt lat="44.08785" lon="6.22889">
        <ele>676.91</ele>
        <time>2016-06-13T16:12:07Z</time>
      </trkpt>
      <trkpt lat="44.08809" lon="6.22908">
        <ele>679.31</ele>
        <time>2016-06-13T16:12:09Z</time>
      </trkpt>
      <trkpt lat="44.08935" lon="6.23007">
        <ele>678.35</ele>
        <time>2016-06-13T16:12:21Z</time>
      </trkpt>
      <trkpt lat="44.09046" lon="6.2309">
        <ele>680.75</ele>
        <time>2016-06-13T16:12:33Z</time>
      </trkpt>
      <trkpt lat="44.09079" lon="6.23117">
        <ele>680.27</ele>
        <time>2016-06-13T16:12:38Z</time>
      </trkpt>
      <trkpt lat="44.09083" lon="6.23122">
        <ele>679.79</ele>
        <time>2016-06-13T16:12:39Z</time>
      </trkpt>
      <trkpt lat="44.09086" lon="6.23129">
        <ele>680.27</ele>
        <time>2016-06-13T16:12:40Z</time>
      </trkpt>
      <trkpt lat="44.09093" lon="6.23144">
        <ele>680.75</ele>
        <time>2016-06-13T16:12:42Z</time>
      </trkpt>
      <trkpt lat="44.09099" lon="6.23148">
        <ele>679.79</ele>
        <time>2016-06-13T16:12:43Z</time>
      </trkpt>
      <trkpt lat="44.09112" lon="6.23134">
        <ele>679.79</ele>
        <time>2016-06-13T16:12:46Z</time>
      </trkpt>
      <trkpt lat="44.09112" lon="6.23126">
        <ele>680.27</ele>
        <time>2016-06-13T16:12:47Z</time>
      </trkpt>
      <trkpt lat="44.0911" lon="6.23117">
        <ele>680.27</ele>
        <time>2016-06-13T16:12:48Z</time>
      </trkpt>
      <trkpt lat="44.09108" lon="6.23108">
        <ele>680.75</ele>
        <time>2016-06-13T16:12:49Z</time>
      </trkpt>
      <trkpt lat="44.09106" lon="6.23097">
        <ele>681.23</ele>
        <time>2016-06-13T16:12:50Z</time>
      </trkpt>
      <trkpt lat="44.09105" lon="6.23085">
        <ele>682.19</ele>
        <time>2016-06-13T16:12:51Z</time>
      </trkpt>
      <trkpt lat="44.09106" lon="6.23072">
        <ele>683.15</ele>
        <time>2016-06-13T16:12:52Z</time>
      </trkpt>
      <trkpt lat="44.09107" lon="6.23059">
        <ele>682.67</ele>
        <time>2016-06-13T16:12:53Z</time>
      </trkpt>
      <trkpt lat="44.09108" lon="6.23045">
        <ele>682.67</ele>
        <time>2016-06-13T16:12:54Z</time>
      </trkpt>
      <trkpt lat="44.09118" lon="6.22889">
        <ele>682.19</ele>
        <time>2016-06-13T16:13:05Z</time>
      </trkpt>
      <trkpt lat="44.09115" lon="6.22877">
        <ele>682.19</ele>
        <time>2016-06-13T16:13:06Z</time>
      </trkpt>
      <trkpt lat="44.0911" lon="6.22866">
        <ele>682.19</ele>
        <time>2016-06-13T16:13:07Z</time>
      </trkpt>
      <trkpt lat="44.09104" lon="6.22857">
        <ele>682.19</ele>
        <time>2016-06-13T16:13:08Z</time>
      </trkpt>
      <trkpt lat="44.09096" lon="6.2285">
        <ele>681.71</ele>
        <time>2016-06-13T16:13:09Z</time>
      </trkpt>
      <trkpt lat="44.09088" lon="6.22845">
        <ele>682.67</ele>
        <time>2016-06-13T16:13:10Z</time>
      </trkpt>
      <trkpt lat="44.09079" lon="6.22842">
        <ele>681.23</ele>
        <time>2016-06-13T16:13:11Z</time>
      </trkpt>
      <trkpt lat="44.0907" lon="6.22839">
        <ele>680.75</ele>
        <time>2016-06-13T16:13:12Z</time>
      </trkpt>
      <trkpt lat="44.09001" lon="6.22819">
        <ele>678.35</ele>
        <time>2016-06-13T16:13:19Z</time>
      </trkpt>
      <trkpt lat="44.08994" lon="6.22814">
        <ele>678.35</ele>
        <time>2016-06-13T16:13:20Z</time>
      </trkpt>
      <trkpt lat="44.08979" lon="6.22801">
        <ele>679.79</ele>
        <time>2016-06-13T16:13:23Z</time>
      </trkpt>
      <trkpt lat="44.08975" lon="6.22797">
        <ele>679.31</ele>
        <time>2016-06-13T16:13:24Z</time>
      </trkpt>
      <trkpt lat="44.08973" lon="6.22792">
        <ele>679.31</ele>
        <time>2016-06-13T16:13:25Z</time>
      </trkpt>
      <trkpt lat="44.08959" lon="6.22763">
        <ele>678.83</ele>
        <time>2016-06-13T16:13:29Z</time>
      </trkpt>
      <trkpt lat="44.08923" lon="6.22635">
        <ele>678.35</ele>
        <time>2016-06-13T16:13:41Z</time>
      </trkpt>
      <trkpt lat="44.089" lon="6.22572">
        <ele>677.87</ele>
        <time>2016-06-13T16:13:48Z</time>
      </trkpt>
      <trkpt lat="44.08899" lon="6.22565">
        <ele>677.87</ele>
        <time>2016-06-13T16:13:49Z</time>
      </trkpt>
      <trkpt lat="44.08899" lon="6.22559">
        <ele>677.39</ele>
        <time>2016-06-13T16:13:50Z</time>
      </trkpt>
      <trkpt lat="44.089" lon="6.22554">
        <ele>677.39</ele>
        <time>2016-06-13T16:13:51Z</time>
      </trkpt>
      <trkpt lat="44.08901" lon="6.22547">
        <ele>677.39</ele>
        <time>2016-06-13T16:13:52Z</time>
      </trkpt>
      <trkpt lat="44.08902" lon="6.2254">
        <ele>677.87</ele>
        <time>2016-06-13T16:13:53Z</time>
      </trkpt>
      <trkpt lat="44.08902" lon="6.22532">
        <ele>677.39</ele>
        <time>2016-06-13T16:13:54Z</time>
      </trkpt>
      <trkpt lat="44.08901" lon="6.22525">
        <ele>677.87</ele>
        <time>2016-06-13T16:13:55Z</time>
      </trkpt>
      <trkpt lat="44.08899" lon="6.22519">
        <ele>677.39</ele>
        <time>2016-06-13T16:13:56Z</time>
      </trkpt>
      <trkpt lat="44.08895" lon="6.22514">
        <ele>676.91</ele>
        <time>2016-06-13T16:13:57Z</time>
      </trkpt>
      <trkpt lat="44.08891" lon="6.22511">
        <ele>677.39</ele>
        <time>2016-06-13T16:13:58Z</time>
      </trkpt>
      <trkpt lat="44.08886" lon="6.22509">
        <ele>676.91</ele>
        <time>2016-06-13T16:13:59Z</time>
      </trkpt>
      <trkpt lat="44.0888" lon="6.22508">
        <ele>676.42</ele>
        <time>2016-06-13T16:14:00Z</time>
      </trkpt>
      <trkpt lat="44.08875" lon="6.22506">
        <ele>676.91</ele>
        <time>2016-06-13T16:14:01Z</time>
      </trkpt>
      <trkpt lat="44.08871" lon="6.22501">
        <ele>675.94</ele>
        <time>2016-06-13T16:14:02Z</time>
      </trkpt>
      <trkpt lat="44.08867" lon="6.22495">
        <ele>676.42</ele>
        <time>2016-06-13T16:14:03Z</time>
      </trkpt>
      <trkpt lat="44.08864" lon="6.22487">
        <ele>677.39</ele>
        <time>2016-06-13T16:14:04Z</time>
      </trkpt>
      <trkpt lat="44.08861" lon="6.22478">
        <ele>677.87</ele>
        <time>2016-06-13T16:14:05Z</time>
      </trkpt>
      <trkpt lat="44.08859" lon="6.2247">
        <ele>677.39</ele>
        <time>2016-06-13T16:14:06Z</time>
      </trkpt>
      <trkpt lat="44.08851" lon="6.22435">
        <ele>676.91</ele>
        <time>2016-06-13T16:14:14Z</time>
      </trkpt>
      <trkpt lat="44.08851" lon="6.22435">
        <ele>674.5</ele>
        <time>2016-06-13T16:14:21Z</time>
      </trkpt>
      <trkpt lat="44.08848" lon="6.22401">
        <ele>676.42</ele>
        <time>2016-06-13T16:14:37Z</time>
      </trkpt>
      <trkpt lat="44.08844" lon="6.22362">
        <ele>678.35</ele>
        <time>2016-06-13T16:14:40Z</time>
      </trkpt>
      <trkpt lat="44.08829" lon="6.22232">
        <ele>676.91</ele>
        <time>2016-06-13T16:14:48Z</time>
      </trkpt>
      <trkpt lat="44.08816" lon="6.22136">
        <ele>676.91</ele>
        <time>2016-06-13T16:14:54Z</time>
      </trkpt>
      <trkpt lat="44.08792" lon="6.21953">
        <ele>678.35</ele>
        <time>2016-06-13T16:15:04Z</time>
      </trkpt>
      <trkpt lat="44.08774" lon="6.21803">
        <ele>678.83</ele>
        <time>2016-06-13T16:15:13Z</time>
      </trkpt>
      <trkpt lat="44.08745" lon="6.21648">
        <ele>680.75</ele>
        <time>2016-06-13T16:15:23Z</time>
      </trkpt>
      <trkpt lat="44.08712" lon="6.21554">
        <ele>680.27</ele>
        <time>2016-06-13T16:15:32Z</time>
      </trkpt>
      <trkpt lat="44.08711" lon="6.21548">
        <ele>679.79</ele>
        <time>2016-06-13T16:15:33Z</time>
      </trkpt>
      <trkpt lat="44.08707" lon="6.21526">
        <ele>679.79</ele>
        <time>2016-06-13T16:15:36Z</time>
      </trkpt>
      <trkpt lat="44.08688" lon="6.21466">
        <ele>682.67</ele>
        <time>2016-06-13T16:15:42Z</time>
      </trkpt>
      <trkpt lat="44.08676" lon="6.21429">
        <ele>679.79</ele>
        <time>2016-06-13T16:15:45Z</time>
      </trkpt>
      <trkpt lat="44.08658" lon="6.21367">
        <ele>676.91</ele>
        <time>2016-06-13T16:15:50Z</time>
      </trkpt>
      <trkpt lat="44.08604" lon="6.212">
        <ele>674.98</ele>
        <time>2016-06-13T16:16:02Z</time>
      </trkpt>
      <trkpt lat="44.08574" lon="6.21106">
        <ele>672.1</ele>
        <time>2016-06-13T16:16:08Z</time>
      </trkpt>
      <trkpt lat="44.0853" lon="6.20951">
        <ele>673.06</ele>
        <time>2016-06-13T16:16:19Z</time>
      </trkpt>
      <trkpt lat="44.08522" lon="6.20913">
        <ele>672.58</ele>
        <time>2016-06-13T16:16:22Z</time>
      </trkpt>
      <trkpt lat="44.08517" lon="6.20901">
        <ele>672.58</ele>
        <time>2016-06-13T16:16:23Z</time>
      </trkpt>
      <trkpt lat="44.08499" lon="6.20865">
        <ele>671.14</ele>
        <time>2016-06-13T16:16:26Z</time>
      </trkpt>
      <trkpt lat="44.08446" lon="6.20697">
        <ele>667.77</ele>
        <time>2016-06-13T16:16:38Z</time>
      </trkpt>
      <trkpt lat="44.08418" lon="6.20608">
        <ele>665.37</ele>
        <time>2016-06-13T16:16:46Z</time>
      </trkpt>
      <trkpt lat="44.08417" lon="6.20602">
        <ele>664.89</ele>
        <time>2016-06-13T16:16:47Z</time>
      </trkpt>
      <trkpt lat="44.08417" lon="6.20597">
        <ele>664.89</ele>
        <time>2016-06-13T16:16:48Z</time>
      </trkpt>
      <trkpt lat="44.08418" lon="6.20594">
        <ele>663.93</ele>
        <time>2016-06-13T16:16:49Z</time>
      </trkpt>
      <trkpt lat="44.0842" lon="6.20593">
        <ele>664.89</ele>
        <time>2016-06-13T16:16:50Z</time>
      </trkpt>
      <trkpt lat="44.08421" lon="6.20593">
        <ele>663.93</ele>
        <time>2016-06-13T16:17:09Z</time>
      </trkpt>
      <trkpt lat="44.08437" lon="6.20587">
        <ele>664.89</ele>
        <time>2016-06-13T16:17:25Z</time>
      </trkpt>
      <trkpt lat="44.08442" lon="6.20589">
        <ele>665.37</ele>
        <time>2016-06-13T16:17:26Z</time>
      </trkpt>
      <trkpt lat="44.08445" lon="6.20593">
        <ele>664.89</ele>
        <time>2016-06-13T16:17:27Z</time>
      </trkpt>
      <trkpt lat="44.08447" lon="6.20598">
        <ele>664.41</ele>
        <time>2016-06-13T16:17:28Z</time>
      </trkpt>
      <trkpt lat="44.08448" lon="6.20602">
        <ele>665.37</ele>
        <time>2016-06-13T16:17:29Z</time>
      </trkpt>
      <trkpt lat="44.08447" lon="6.20606">
        <ele>665.37</ele>
        <time>2016-06-13T16:17:30Z</time>
      </trkpt>
      <trkpt lat="44.08445" lon="6.2061">
        <ele>664.41</ele>
        <time>2016-06-13T16:17:31Z</time>
      </trkpt>
      <trkpt lat="44.08443" lon="6.20613">
        <ele>664.41</ele>
        <time>2016-06-13T16:17:32Z</time>
      </trkpt>
      <trkpt lat="44.08441" lon="6.20617">
        <ele>663.93</ele>
        <time>2016-06-13T16:17:33Z</time>
      </trkpt>
      <trkpt lat="44.08442" lon="6.20621">
        <ele>664.41</ele>
        <time>2016-06-13T16:17:34Z</time>
      </trkpt>
      <trkpt lat="44.08445" lon="6.20624">
        <ele>663.93</ele>
        <time>2016-06-13T16:17:35Z</time>
      </trkpt>
      <trkpt lat="44.08449" lon="6.20615">
        <ele>664.41</ele>
        <time>2016-06-13T16:17:38Z</time>
      </trkpt>
      <trkpt lat="44.08447" lon="6.20607">
        <ele>664.41</ele>
        <time>2016-06-13T16:17:52Z</time>
      </trkpt>
      <trkpt lat="44.08447" lon="6.20607">
        <ele>664.41</ele>
        <time>2016-06-13T16:19:56Z</time>
      </trkpt>
      <trkpt lat="44.08447" lon="6.20607">
        <ele>665.37</ele>
        <time>2016-06-13T16:21:28Z</time>
      </trkpt>
      <trkpt lat="44.08447" lon="6.20607">
        <ele>663.45</ele>
        <time>2016-06-13T16:21:36Z</time>
      </trkpt>
      <trkpt lat="44.08447" lon="6.20607">
        <ele>664.89</ele>
        <time>2016-06-13T16:21:39Z</time>
      </trkpt>
      <trkpt lat="44.08448" lon="6.20607">
        <ele>665.37</ele>
        <time>2016-06-13T16:21:57Z</time>
      </trkpt>
      <trkpt lat="44.08447" lon="6.20607">
        <ele>663.93</ele>
        <time>2016-06-13T16:22:36Z</time>
      </trkpt>
      <trkpt lat="44.08447" lon="6.20607">
        <ele>665.37</ele>
        <time>2016-06-13T16:22:39Z</time>
      </trkpt>
      <trkpt lat="44.08447" lon="6.20607">
        <ele>665.37</ele>
        <time>2016-06-13T16:22:49Z</time>
      </trkpt>
      <trkpt lat="44.08447" lon="6.20607">
        <ele>664.89</ele>
        <time>2016-06-13T16:22:51Z</time>
      </trkpt>
      <trkpt lat="44.08448" lon="6.20607">
        <ele>663.45</ele>
        <time>2016-06-13T16:24:00Z</time>
      </trkpt>
      <trkpt lat="44.08448" lon="6.20607">
        <ele>663.93</ele>
        <time>2016-06-13T16:25:24Z</time>
      </trkpt>
      <trkpt lat="44.08448" lon="6.20607">
        <ele>665.37</ele>
        <time>2016-06-13T16:25:27Z</time>
      </trkpt>
      <trkpt lat="44.08448" lon="6.20608">
        <ele>663.93</ele>
        <time>2016-06-13T16:25:56Z</time>
      </trkpt>
      <trkpt lat="44.08448" lon="6.20608">
        <ele>663.93</ele>
        <time>2016-06-13T16:26:38Z</time>
      </trkpt>
      <trkpt lat="44.08448" lon="6.20608">
        <ele>666.33</ele>
        <time>2016-06-13T16:27:00Z</time>
      </trkpt>
      <trkpt lat="44.08448" lon="6.20608">
        <ele>662.97</ele>
        <time>2016-06-13T16:27:14Z</time>
      </trkpt>
      <trkpt lat="44.08448" lon="6.20608">
        <ele>663.93</ele>
        <time>2016-06-13T16:27:27Z</time>
      </trkpt>
      <trkpt lat="44.08448" lon="6.20609">
        <ele>662.49</ele>
        <time>2016-06-13T16:29:10Z</time>
      </trkpt>
      <trkpt lat="44.08448" lon="6.20609">
        <ele>662.97</ele>
        <time>2016-06-13T16:30:22Z</time>
      </trkpt>
      <trkpt lat="44.08448" lon="6.20609">
        <ele>664.89</ele>
        <time>2016-06-13T16:30:29Z</time>
      </trkpt>
      <trkpt lat="44.08448" lon="6.20609">
        <ele>663.93</ele>
        <time>2016-06-13T16:30:48Z</time>
      </trkpt>
      <trkpt lat="44.08448" lon="6.20609">
        <ele>661.52</ele>
        <time>2016-06-13T16:33:41Z</time>
      </trkpt>
      <trkpt lat="44.08448" lon="6.20611">
        <ele>662.49</ele>
        <time>2016-06-13T16:34:23Z</time>
      </trkpt>
      <trkpt lat="44.08448" lon="6.20611">
        <ele>662.49</ele>
        <time>2016-06-13T16:34:50Z</time>
      </trkpt>
      <trkpt lat="44.08448" lon="6.2061">
        <ele>662.97</ele>
        <time>2016-06-13T16:36:05Z</time>
      </trkpt>
      <trkpt lat="44.08448" lon="6.2061">
        <ele>663.93</ele>
        <time>2016-06-13T16:36:33Z</time>
      </trkpt>
      <trkpt lat="44.08448" lon="6.2061">
        <ele>662.01</ele>
        <time>2016-06-13T16:36:35Z</time>
      </trkpt>
      <trkpt lat="44.08448" lon="6.2061">
        <ele>663.45</ele>
        <time>2016-06-13T16:36:49Z</time>
      </trkpt>
      <trkpt lat="44.08448" lon="6.2061">
        <ele>661.04</ele>
        <time>2016-06-13T16:36:51Z</time>
      </trkpt>
      <trkpt lat="44.08448" lon="6.2061">
        <ele>662.97</ele>
        <time>2016-06-13T16:36:53Z</time>
      </trkpt>
      <trkpt lat="44.08447" lon="6.2061">
        <ele>661.52</ele>
        <time>2016-06-13T16:37:17Z</time>
      </trkpt>
      <trkpt lat="44.08447" lon="6.2061">
        <ele>664.41</ele>
        <time>2016-06-13T16:37:38Z</time>
      </trkpt>
      <trkpt lat="44.08448" lon="6.2061">
        <ele>661.52</ele>
        <time>2016-06-13T16:37:45Z</time>
      </trkpt>
      <trkpt lat="44.08448" lon="6.2061">
        <ele>662.49</ele>
        <time>2016-06-13T16:37:54Z</time>
      </trkpt>
      <trkpt lat="44.08448" lon="6.2061">
        <ele>662.01</ele>
        <time>2016-06-13T16:38:20Z</time>
      </trkpt>
      <trkpt lat="44.08448" lon="6.20609">
        <ele>663.93</ele>
        <time>2016-06-13T16:38:28Z</time>
      </trkpt>
      <trkpt lat="44.08448" lon="6.20609">
        <ele>662.01</ele>
        <time>2016-06-13T16:38:30Z</time>
      </trkpt>
      <trkpt lat="44.08448" lon="6.20609">
        <ele>662.97</ele>
        <time>2016-06-13T16:38:38Z</time>
      </trkpt>
      <trkpt lat="44.08448" lon="6.20609">
        <ele>661.52</ele>
        <time>2016-06-13T16:39:06Z</time>
      </trkpt>
      <trkpt lat="44.08448" lon="6.20609">
        <ele>662.49</ele>
        <time>2016-06-13T16:39:26Z</time>
      </trkpt>
      <trkpt lat="44.08447" lon="6.20609">
        <ele>661.04</ele>
        <time>2016-06-13T16:40:28Z</time>
      </trkpt>
      <trkpt lat="44.08447" lon="6.20609">
        <ele>662.01</ele>
        <time>2016-06-13T16:40:49Z</time>
      </trkpt>
      <trkpt lat="44.08447" lon="6.20609">
        <ele>663.45</ele>
        <time>2016-06-13T16:40:52Z</time>
      </trkpt>
      <trkpt lat="44.08447" lon="6.20609">
        <ele>662.49</ele>
        <time>2016-06-13T16:41:08Z</time>
      </trkpt>
      <trkpt lat="44.08447" lon="6.20609">
        <ele>663.45</ele>
        <time>2016-06-13T16:41:21Z</time>
      </trkpt>
      <trkpt lat="44.08447" lon="6.20609">
        <ele>662.97</ele>
        <time>2016-06-13T16:41:28Z</time>
      </trkpt>
      <trkpt lat="44.08447" lon="6.20609">
        <ele>663.45</ele>
        <time>2016-06-13T16:42:10Z</time>
      </trkpt>
      <trkpt lat="44.08447" lon="6.20609">
        <ele>663.45</ele>
        <time>2016-06-13T16:42:17Z</time>
      </trkpt>
      <trkpt lat="44.08446" lon="6.20597">
        <ele>663.45</ele>
        <time>2016-06-13T16:42:22Z</time>
      </trkpt>
      <trkpt lat="44.08444" lon="6.20591">
        <ele>663.45</ele>
        <time>2016-06-13T16:42:23Z</time>
      </trkpt>
      <trkpt lat="44.0844" lon="6.20589">
        <ele>663.93</ele>
        <time>2016-06-13T16:42:24Z</time>
      </trkpt>
      <trkpt lat="44.08436" lon="6.20588">
        <ele>662.01</ele>
        <time>2016-06-13T16:42:25Z</time>
      </trkpt>
      <trkpt lat="44.08414" lon="6.20594">
        <ele>662.97</ele>
        <time>2016-06-13T16:42:36Z</time>
      </trkpt>
      <trkpt lat="44.08412" lon="6.20603">
        <ele>662.97</ele>
        <time>2016-06-13T16:42:43Z</time>
      </trkpt>
      <trkpt lat="44.08414" lon="6.2061">
        <ele>662.49</ele>
        <time>2016-06-13T16:42:44Z</time>
      </trkpt>
      <trkpt lat="44.08446" lon="6.20715">
        <ele>665.37</ele>
        <time>2016-06-13T16:42:53Z</time>
      </trkpt>
      <trkpt lat="44.08481" lon="6.20825">
        <ele>663.93</ele>
        <time>2016-06-13T16:43:02Z</time>
      </trkpt>
      <trkpt lat="44.08493" lon="6.20859">
        <ele>665.85</ele>
        <time>2016-06-13T16:43:07Z</time>
      </trkpt>
      <trkpt lat="44.08506" lon="6.20886">
        <ele>666.33</ele>
        <time>2016-06-13T16:43:17Z</time>
      </trkpt>
      <trkpt lat="44.08513" lon="6.20899">
        <ele>665.37</ele>
        <time>2016-06-13T16:43:24Z</time>
      </trkpt>
      <trkpt lat="44.08516" lon="6.20908">
        <ele>667.29</ele>
        <time>2016-06-13T16:43:25Z</time>
      </trkpt>
      <trkpt lat="44.08519" lon="6.20918">
        <ele>666.33</ele>
        <time>2016-06-13T16:43:26Z</time>
      </trkpt>
      <trkpt lat="44.08522" lon="6.20929">
        <ele>666.81</ele>
        <time>2016-06-13T16:43:27Z</time>
      </trkpt>
      <trkpt lat="44.08524" lon="6.20942">
        <ele>667.29</ele>
        <time>2016-06-13T16:43:28Z</time>
      </trkpt>
      <trkpt lat="44.08531" lon="6.20983">
        <ele>666.81</ele>
        <time>2016-06-13T16:43:31Z</time>
      </trkpt>
      <trkpt lat="44.08582" lon="6.21154">
        <ele>669.7</ele>
        <time>2016-06-13T16:43:42Z</time>
      </trkpt>
      <trkpt lat="44.0863" lon="6.21305">
        <ele>673.54</ele>
        <time>2016-06-13T16:43:52Z</time>
      </trkpt>
      <trkpt lat="44.08639" lon="6.21334">
        <ele>674.02</ele>
        <time>2016-06-13T16:43:54Z</time>
      </trkpt>
      <trkpt lat="44.08659" lon="6.21402">
        <ele>674.02</ele>
        <time>2016-06-13T16:44:01Z</time>
      </trkpt>
      <trkpt lat="44.08667" lon="6.21425">
        <ele>674.98</ele>
        <time>2016-06-13T16:44:03Z</time>
      </trkpt>
      <trkpt lat="44.08675" lon="6.21451">
        <ele>676.42</ele>
        <time>2016-06-13T16:44:05Z</time>
      </trkpt>
      <trkpt lat="44.08689" lon="6.21508">
        <ele>675.94</ele>
        <time>2016-06-13T16:44:10Z</time>
      </trkpt>
      <trkpt lat="44.0869" lon="6.21517">
        <ele>676.42</ele>
        <time>2016-06-13T16:44:11Z</time>
      </trkpt>
      <trkpt lat="44.08691" lon="6.21535">
        <ele>677.39</ele>
        <time>2016-06-13T16:44:13Z</time>
      </trkpt>
      <trkpt lat="44.08695" lon="6.21543">
        <ele>677.39</ele>
        <time>2016-06-13T16:44:14Z</time>
      </trkpt>
      <trkpt lat="44.087" lon="6.21552">
        <ele>677.39</ele>
        <time>2016-06-13T16:44:15Z</time>
      </trkpt>
      <trkpt lat="44.08705" lon="6.21562">
        <ele>677.39</ele>
        <time>2016-06-13T16:44:16Z</time>
      </trkpt>
      <trkpt lat="44.0871" lon="6.21574">
        <ele>676.91</ele>
        <time>2016-06-13T16:44:17Z</time>
      </trkpt>
      <trkpt lat="44.08715" lon="6.21587">
        <ele>677.39</ele>
        <time>2016-06-13T16:44:18Z</time>
      </trkpt>
      <trkpt lat="44.08758" lon="6.21748">
        <ele>676.42</ele>
        <time>2016-06-13T16:44:28Z</time>
      </trkpt>
      <trkpt lat="44.08784" lon="6.21947">
        <ele>674.98</ele>
        <time>2016-06-13T16:44:39Z</time>
      </trkpt>
      <trkpt lat="44.08809" lon="6.22125">
        <ele>671.14</ele>
        <time>2016-06-13T16:44:50Z</time>
      </trkpt>
      <trkpt lat="44.08811" lon="6.22136">
        <ele>670.66</ele>
        <time>2016-06-13T16:44:51Z</time>
      </trkpt>
      <trkpt lat="44.08812" lon="6.22147">
        <ele>671.14</ele>
        <time>2016-06-13T16:44:52Z</time>
      </trkpt>
      <trkpt lat="44.08813" lon="6.22155">
        <ele>669.7</ele>
        <time>2016-06-13T16:44:53Z</time>
      </trkpt>
      <trkpt lat="44.08812" lon="6.22163">
        <ele>671.14</ele>
        <time>2016-06-13T16:44:54Z</time>
      </trkpt>
      <trkpt lat="44.0881" lon="6.22169">
        <ele>671.14</ele>
        <time>2016-06-13T16:44:55Z</time>
      </trkpt>
      <trkpt lat="44.08808" lon="6.22174">
        <ele>671.14</ele>
        <time>2016-06-13T16:44:56Z</time>
      </trkpt>
      <trkpt lat="44.08805" lon="6.22178">
        <ele>670.18</ele>
        <time>2016-06-13T16:44:57Z</time>
      </trkpt>
      <trkpt lat="44.08802" lon="6.22195">
        <ele>671.14</ele>
        <time>2016-06-13T16:45:07Z</time>
      </trkpt>
      <trkpt lat="44.08803" lon="6.22194">
        <ele>670.66</ele>
        <time>2016-06-13T16:47:31Z</time>
      </trkpt>
      <trkpt lat="44.08804" lon="6.22193">
        <ele>671.14</ele>
        <time>2016-06-13T16:51:15Z</time>
      </trkpt>
      <trkpt lat="44.08805" lon="6.22196">
        <ele>670.66</ele>
        <time>2016-06-13T16:51:16Z</time>
      </trkpt>
      <trkpt lat="44.08806" lon="6.22198">
        <ele>670.66</ele>
        <time>2016-06-13T16:51:17Z</time>
      </trkpt>
      <trkpt lat="44.08808" lon="6.22201">
        <ele>670.66</ele>
        <time>2016-06-13T16:51:18Z</time>
      </trkpt>
      <trkpt lat="44.08808" lon="6.22203">
        <ele>670.18</ele>
        <time>2016-06-13T16:51:19Z</time>
      </trkpt>
      <trkpt lat="44.08817" lon="6.22214">
        <ele>669.22</ele>
        <time>2016-06-13T16:51:26Z</time>
      </trkpt>
      <trkpt lat="44.08818" lon="6.22218">
        <ele>669.7</ele>
        <time>2016-06-13T16:51:27Z</time>
      </trkpt>
      <trkpt lat="44.08819" lon="6.22223">
        <ele>670.66</ele>
        <time>2016-06-13T16:51:28Z</time>
      </trkpt>
      <trkpt lat="44.0882" lon="6.2223">
        <ele>670.18</ele>
        <time>2016-06-13T16:51:29Z</time>
      </trkpt>
      <trkpt lat="44.08821" lon="6.22239">
        <ele>669.7</ele>
        <time>2016-06-13T16:51:30Z</time>
      </trkpt>
      <trkpt lat="44.08838" lon="6.2237">
        <ele>672.58</ele>
        <time>2016-06-13T16:51:41Z</time>
      </trkpt>
      <trkpt lat="44.08861" lon="6.22514">
        <ele>671.62</ele>
        <time>2016-06-13T16:51:52Z</time>
      </trkpt>
      <trkpt lat="44.08869" lon="6.22544">
        <ele>673.06</ele>
        <time>2016-06-13T16:51:55Z</time>
      </trkpt>
      <trkpt lat="44.08875" lon="6.22555">
        <ele>673.06</ele>
        <time>2016-06-13T16:51:56Z</time>
      </trkpt>
      <trkpt lat="44.08921" lon="6.22648">
        <ele>674.98</ele>
        <time>2016-06-13T16:52:05Z</time>
      </trkpt>
      <trkpt lat="44.08938" lon="6.22711">
        <ele>673.54</ele>
        <time>2016-06-13T16:52:10Z</time>
      </trkpt>
      <trkpt lat="44.08951" lon="6.2276">
        <ele>674.5</ele>
        <time>2016-06-13T16:52:15Z</time>
      </trkpt>
      <trkpt lat="44.08952" lon="6.22768">
        <ele>674.98</ele>
        <time>2016-06-13T16:52:16Z</time>
      </trkpt>
      <trkpt lat="44.08949" lon="6.22777">
        <ele>675.46</ele>
        <time>2016-06-13T16:52:17Z</time>
      </trkpt>
      <trkpt lat="44.08947" lon="6.22785">
        <ele>675.46</ele>
        <time>2016-06-13T16:52:18Z</time>
      </trkpt>
      <trkpt lat="44.08946" lon="6.22794">
        <ele>675.94</ele>
        <time>2016-06-13T16:52:19Z</time>
      </trkpt>
      <trkpt lat="44.08946" lon="6.22804">
        <ele>675.94</ele>
        <time>2016-06-13T16:52:20Z</time>
      </trkpt>
      <trkpt lat="44.08947" lon="6.22815">
        <ele>675.94</ele>
        <time>2016-06-13T16:52:21Z</time>
      </trkpt>
      <trkpt lat="44.08938" lon="6.2294">
        <ele>674.5</ele>
        <time>2016-06-13T16:52:32Z</time>
      </trkpt>
      <trkpt lat="44.08936" lon="6.22972">
        <ele>674.02</ele>
        <time>2016-06-13T16:52:35Z</time>
      </trkpt>
      <trkpt lat="44.08938" lon="6.22982">
        <ele>674.02</ele>
        <time>2016-06-13T16:52:36Z</time>
      </trkpt>
      <trkpt lat="44.08941" lon="6.22992">
        <ele>674.02</ele>
        <time>2016-06-13T16:52:37Z</time>
      </trkpt>
      <trkpt lat="44.08945" lon="6.23002">
        <ele>674.02</ele>
        <time>2016-06-13T16:52:38Z</time>
      </trkpt>
      <trkpt lat="44.0895" lon="6.2301">
        <ele>674.98</ele>
        <time>2016-06-13T16:52:39Z</time>
      </trkpt>
      <trkpt lat="44.08956" lon="6.23018">
        <ele>674.5</ele>
        <time>2016-06-13T16:52:40Z</time>
      </trkpt>
      <trkpt lat="44.08963" lon="6.23024">
        <ele>674.98</ele>
        <time>2016-06-13T16:52:41Z</time>
      </trkpt>
      <trkpt lat="44.0897" lon="6.23029">
        <ele>674.5</ele>
        <time>2016-06-13T16:52:42Z</time>
      </trkpt>
      <trkpt lat="44.08979" lon="6.23035">
        <ele>674.5</ele>
        <time>2016-06-13T16:52:43Z</time>
      </trkpt>
      <trkpt lat="44.08997" lon="6.23053">
        <ele>675.94</ele>
        <time>2016-06-13T16:52:45Z</time>
      </trkpt>
      <trkpt lat="44.09033" lon="6.23081">
        <ele>676.91</ele>
        <time>2016-06-13T16:52:49Z</time>
      </trkpt>
      <trkpt lat="44.09077" lon="6.23117">
        <ele>677.39</ele>
        <time>2016-06-13T16:52:55Z</time>
      </trkpt>
      <trkpt lat="44.09081" lon="6.23122">
        <ele>676.42</ele>
        <time>2016-06-13T16:52:56Z</time>
      </trkpt>
      <trkpt lat="44.09085" lon="6.23129">
        <ele>676.91</ele>
        <time>2016-06-13T16:52:57Z</time>
      </trkpt>
      <trkpt lat="44.09091" lon="6.23145">
        <ele>676.42</ele>
        <time>2016-06-13T16:52:59Z</time>
      </trkpt>
      <trkpt lat="44.09096" lon="6.2315">
        <ele>676.42</ele>
        <time>2016-06-13T16:53:00Z</time>
      </trkpt>
      <trkpt lat="44.09102" lon="6.23153">
        <ele>675.46</ele>
        <time>2016-06-13T16:53:01Z</time>
      </trkpt>
      <trkpt lat="44.09108" lon="6.23156">
        <ele>675.94</ele>
        <time>2016-06-13T16:53:02Z</time>
      </trkpt>
      <trkpt lat="44.09113" lon="6.2316">
        <ele>675.46</ele>
        <time>2016-06-13T16:53:03Z</time>
      </trkpt>
      <trkpt lat="44.09116" lon="6.23165">
        <ele>674.5</ele>
        <time>2016-06-13T16:53:04Z</time>
      </trkpt>
      <trkpt lat="44.09119" lon="6.23169">
        <ele>674.98</ele>
        <time>2016-06-13T16:53:05Z</time>
      </trkpt>
      <trkpt lat="44.09121" lon="6.23174">
        <ele>674.98</ele>
        <time>2016-06-13T16:53:06Z</time>
      </trkpt>
      <trkpt lat="44.09123" lon="6.23178">
        <ele>674.5</ele>
        <time>2016-06-13T16:53:07Z</time>
      </trkpt>
      <trkpt lat="44.09142" lon="6.23224">
        <ele>674.02</ele>
        <time>2016-06-13T16:53:21Z</time>
      </trkpt>
      <trkpt lat="44.09148" lon="6.23236">
        <ele>674.98</ele>
        <time>2016-06-13T16:53:30Z</time>
      </trkpt>
      <trkpt lat="44.09149" lon="6.23239">
        <ele>674.5</ele>
        <time>2016-06-13T16:53:31Z</time>
      </trkpt>
      <trkpt lat="44.0915" lon="6.23241">
        <ele>674.98</ele>
        <time>2016-06-13T16:53:32Z</time>
      </trkpt>
      <trkpt lat="44.09151" lon="6.23244">
        <ele>674.5</ele>
        <time>2016-06-13T16:53:33Z</time>
      </trkpt>
      <trkpt lat="44.09153" lon="6.23248">
        <ele>674.98</ele>
        <time>2016-06-13T16:53:34Z</time>
      </trkpt>
      <trkpt lat="44.09155" lon="6.23253">
        <ele>675.46</ele>
        <time>2016-06-13T16:53:35Z</time>
      </trkpt>
      <trkpt lat="44.0919" lon="6.23334">
        <ele>674.98</ele>
        <time>2016-06-13T16:53:44Z</time>
      </trkpt>
      <trkpt lat="44.0924" lon="6.23439">
        <ele>676.91</ele>
        <time>2016-06-13T16:53:57Z</time>
      </trkpt>
      <trkpt lat="44.09274" lon="6.23506">
        <ele>677.39</ele>
        <time>2016-06-13T16:54:08Z</time>
      </trkpt>
      <trkpt lat="44.09279" lon="6.23509">
        <ele>676.91</ele>
        <time>2016-06-13T16:54:09Z</time>
      </trkpt>
      <trkpt lat="44.09283" lon="6.23511">
        <ele>677.39</ele>
        <time>2016-06-13T16:54:10Z</time>
      </trkpt>
      <trkpt lat="44.09287" lon="6.23512">
        <ele>678.35</ele>
        <time>2016-06-13T16:54:11Z</time>
      </trkpt>
      <trkpt lat="44.09291" lon="6.2351">
        <ele>677.87</ele>
        <time>2016-06-13T16:54:12Z</time>
      </trkpt>
      <trkpt lat="44.09295" lon="6.23511">
        <ele>678.83</ele>
        <time>2016-06-13T16:54:13Z</time>
      </trkpt>
      <trkpt lat="44.09298" lon="6.23514">
        <ele>678.35</ele>
        <time>2016-06-13T16:54:14Z</time>
      </trkpt>
      <trkpt lat="44.09302" lon="6.23518">
        <ele>678.83</ele>
        <time>2016-06-13T16:54:15Z</time>
      </trkpt>
      <trkpt lat="44.09336" lon="6.23597">
        <ele>679.79</ele>
        <time>2016-06-13T16:54:26Z</time>
      </trkpt>
      <trkpt lat="44.09366" lon="6.23661">
        <ele>681.23</ele>
        <time>2016-06-13T16:54:36Z</time>
      </trkpt>
      <trkpt lat="44.09371" lon="6.2367">
        <ele>681.23</ele>
        <time>2016-06-13T16:54:38Z</time>
      </trkpt>
      <trkpt lat="44.09372" lon="6.23678">
        <ele>681.23</ele>
        <time>2016-06-13T16:54:39Z</time>
      </trkpt>
      <trkpt lat="44.09371" lon="6.23685">
        <ele>679.79</ele>
        <time>2016-06-13T16:54:40Z</time>
      </trkpt>
      <trkpt lat="44.09359" lon="6.23727">
        <ele>680.75</ele>
        <time>2016-06-13T16:54:46Z</time>
      </trkpt>
      <trkpt lat="44.09405" lon="6.23847">
        <ele>684.12</ele>
        <time>2016-06-13T16:54:56Z</time>
      </trkpt>
      <trkpt lat="44.0947" lon="6.24008">
        <ele>687</ele>
        <time>2016-06-13T16:55:07Z</time>
      </trkpt>
      <trkpt lat="44.09488" lon="6.24055">
        <ele>688.44</ele>
        <time>2016-06-13T16:55:10Z</time>
      </trkpt>
      <trkpt lat="44.095" lon="6.24086">
        <ele>690.36</ele>
        <time>2016-06-13T16:55:12Z</time>
      </trkpt>
      <trkpt lat="44.09545" lon="6.24142">
        <ele>690.84</ele>
        <time>2016-06-13T16:55:17Z</time>
      </trkpt>
      <trkpt lat="44.0967" lon="6.24232">
        <ele>691.33</ele>
        <time>2016-06-13T16:55:28Z</time>
      </trkpt>
      <trkpt lat="44.09703" lon="6.24272">
        <ele>691.33</ele>
        <time>2016-06-13T16:55:32Z</time>
      </trkpt>
      <trkpt lat="44.09716" lon="6.24303">
        <ele>691.81</ele>
        <time>2016-06-13T16:55:34Z</time>
      </trkpt>
      <trkpt lat="44.09744" lon="6.24374">
        <ele>696.13</ele>
        <time>2016-06-13T16:55:38Z</time>
      </trkpt>
      <trkpt lat="44.09751" lon="6.24394">
        <ele>696.13</ele>
        <time>2016-06-13T16:55:39Z</time>
      </trkpt>
      <trkpt lat="44.09832" lon="6.24609">
        <ele>697.57</ele>
        <time>2016-06-13T16:55:50Z</time>
      </trkpt>
      <trkpt lat="44.09863" lon="6.24666">
        <ele>701.9</ele>
        <time>2016-06-13T16:55:53Z</time>
      </trkpt>
      <trkpt lat="44.09889" lon="6.24705">
        <ele>705.26</ele>
        <time>2016-06-13T16:55:55Z</time>
      </trkpt>
      <trkpt lat="44.09953" lon="6.24803">
        <ele>711.51</ele>
        <time>2016-06-13T16:56:00Z</time>
      </trkpt>
      <trkpt lat="44.09996" lon="6.24892">
        <ele>711.51</ele>
        <time>2016-06-13T16:56:04Z</time>
      </trkpt>
      <trkpt lat="44.10049" lon="6.24972">
        <ele>711.03</ele>
        <time>2016-06-13T16:56:08Z</time>
      </trkpt>
      <trkpt lat="44.10092" lon="6.2503">
        <ele>712.95</ele>
        <time>2016-06-13T16:56:11Z</time>
      </trkpt>
      <trkpt lat="44.10177" lon="6.25185">
        <ele>711.03</ele>
        <time>2016-06-13T16:56:18Z</time>
      </trkpt>
      <trkpt lat="44.10266" lon="6.25279">
        <ele>711.99</ele>
        <time>2016-06-13T16:56:25Z</time>
      </trkpt>
      <trkpt lat="44.10286" lon="6.25293">
        <ele>710.55</ele>
        <time>2016-06-13T16:56:27Z</time>
      </trkpt>
      <trkpt lat="44.10302" lon="6.25308">
        <ele>709.59</ele>
        <time>2016-06-13T16:56:29Z</time>
      </trkpt>
      <trkpt lat="44.1031" lon="6.25317">
        <ele>710.55</ele>
        <time>2016-06-13T16:56:30Z</time>
      </trkpt>
      <trkpt lat="44.10329" lon="6.25332">
        <ele>711.51</ele>
        <time>2016-06-13T16:56:32Z</time>
      </trkpt>
      <trkpt lat="44.10389" lon="6.2545">
        <ele>713.44</ele>
        <time>2016-06-13T16:56:39Z</time>
      </trkpt>
      <trkpt lat="44.10417" lon="6.25508">
        <ele>714.88</ele>
        <time>2016-06-13T16:56:42Z</time>
      </trkpt>
      <trkpt lat="44.10441" lon="6.25547">
        <ele>719.68</ele>
        <time>2016-06-13T16:56:44Z</time>
      </trkpt>
      <trkpt lat="44.10497" lon="6.25611">
        <ele>722.57</ele>
        <time>2016-06-13T16:56:48Z</time>
      </trkpt>
      <trkpt lat="44.10511" lon="6.25623">
        <ele>723.05</ele>
        <time>2016-06-13T16:56:49Z</time>
      </trkpt>
      <trkpt lat="44.10563" lon="6.25654">
        <ele>726.89</ele>
        <time>2016-06-13T16:56:52Z</time>
      </trkpt>
      <trkpt lat="44.10606" lon="6.25673">
        <ele>730.74</ele>
        <time>2016-06-13T16:56:54Z</time>
      </trkpt>
      <trkpt lat="44.10628" lon="6.25685">
        <ele>731.7</ele>
        <time>2016-06-13T16:56:55Z</time>
      </trkpt>
      <trkpt lat="44.10716" lon="6.25791">
        <ele>733.14</ele>
        <time>2016-06-13T16:57:00Z</time>
      </trkpt>
      <trkpt lat="44.10742" lon="6.25909">
        <ele>735.55</ele>
        <time>2016-06-13T16:57:04Z</time>
      </trkpt>
      <trkpt lat="44.10744" lon="6.25972">
        <ele>736.99</ele>
        <time>2016-06-13T16:57:06Z</time>
      </trkpt>
      <trkpt lat="44.1077" lon="6.26093">
        <ele>738.91</ele>
        <time>2016-06-13T16:57:10Z</time>
      </trkpt>
      <trkpt lat="44.10796" lon="6.26147">
        <ele>742.28</ele>
        <time>2016-06-13T16:57:12Z</time>
      </trkpt>
      <trkpt lat="44.10977" lon="6.26387">
        <ele>741.79</ele>
        <time>2016-06-13T16:57:22Z</time>
      </trkpt>
      <trkpt lat="44.11128" lon="6.26567">
        <ele>744.68</ele>
        <time>2016-06-13T16:57:30Z</time>
      </trkpt>
      <trkpt lat="44.11165" lon="6.2661">
        <ele>746.12</ele>
        <time>2016-06-13T16:57:32Z</time>
      </trkpt>
      <trkpt lat="44.11203" lon="6.26654">
        <ele>748.52</ele>
        <time>2016-06-13T16:57:34Z</time>
      </trkpt>
      <trkpt lat="44.11298" lon="6.26765">
        <ele>751.89</ele>
        <time>2016-06-13T16:57:39Z</time>
      </trkpt>
      <trkpt lat="44.11434" lon="6.26973">
        <ele>754.29</ele>
        <time>2016-06-13T16:57:47Z</time>
      </trkpt>
      <trkpt lat="44.11518" lon="6.271">
        <ele>753.33</ele>
        <time>2016-06-13T16:57:52Z</time>
      </trkpt>
      <trkpt lat="44.11647" lon="6.27349">
        <ele>757.66</ele>
        <time>2016-06-13T16:58:01Z</time>
      </trkpt>
      <trkpt lat="44.11674" lon="6.27406">
        <ele>759.58</ele>
        <time>2016-06-13T16:58:03Z</time>
      </trkpt>
      <trkpt lat="44.11739" lon="6.27549">
        <ele>758.62</ele>
        <time>2016-06-13T16:58:08Z</time>
      </trkpt>
      <trkpt lat="44.11801" lon="6.27637">
        <ele>759.1</ele>
        <time>2016-06-13T16:58:12Z</time>
      </trkpt>
      <trkpt lat="44.11982" lon="6.27795">
        <ele>758.14</ele>
        <time>2016-06-13T16:58:23Z</time>
      </trkpt>
      <trkpt lat="44.12024" lon="6.27821">
        <ele>762.46</ele>
        <time>2016-06-13T16:58:25Z</time>
      </trkpt>
      <trkpt lat="44.12071" lon="6.27848">
        <ele>765.83</ele>
        <time>2016-06-13T16:58:27Z</time>
      </trkpt>
      <trkpt lat="44.12121" lon="6.27877">
        <ele>767.75</ele>
        <time>2016-06-13T16:58:29Z</time>
      </trkpt>
      <trkpt lat="44.12223" lon="6.27937">
        <ele>769.19</ele>
        <time>2016-06-13T16:58:33Z</time>
      </trkpt>
      <trkpt lat="44.12398" lon="6.28021">
        <ele>772.56</ele>
        <time>2016-06-13T16:58:40Z</time>
      </trkpt>
      <trkpt lat="44.12422" lon="6.28029">
        <ele>772.56</ele>
        <time>2016-06-13T16:58:41Z</time>
      </trkpt>
      <trkpt lat="44.12597" lon="6.28099">
        <ele>775.92</ele>
        <time>2016-06-13T16:58:48Z</time>
      </trkpt>
      <trkpt lat="44.12786" lon="6.28197">
        <ele>779.77</ele>
        <time>2016-06-13T16:58:56Z</time>
      </trkpt>
      <trkpt lat="44.12831" lon="6.28224">
        <ele>783.13</ele>
        <time>2016-06-13T16:58:58Z</time>
      </trkpt>
      <trkpt lat="44.12896" lon="6.28273">
        <ele>779.77</ele>
        <time>2016-06-13T16:59:01Z</time>
      </trkpt>
      <trkpt lat="44.12938" lon="6.28312">
        <ele>778.81</ele>
        <time>2016-06-13T16:59:03Z</time>
      </trkpt>
      <trkpt lat="44.13034" lon="6.28421">
        <ele>780.73</ele>
        <time>2016-06-13T16:59:08Z</time>
      </trkpt>
      <trkpt lat="44.13158" lon="6.28524">
        <ele>781.69</ele>
        <time>2016-06-13T16:59:14Z</time>
      </trkpt>
      <trkpt lat="44.13341" lon="6.28627">
        <ele>786.02</ele>
        <time>2016-06-13T16:59:22Z</time>
      </trkpt>
      <trkpt lat="44.13654" lon="6.28805">
        <ele>787.46</ele>
        <time>2016-06-13T16:59:35Z</time>
      </trkpt>
      <trkpt lat="44.13729" lon="6.28853">
        <ele>784.09</ele>
        <time>2016-06-13T16:59:38Z</time>
      </trkpt>
      <trkpt lat="44.13773" lon="6.28892">
        <ele>782.17</ele>
        <time>2016-06-13T16:59:40Z</time>
      </trkpt>
      <trkpt lat="44.1381" lon="6.28942">
        <ele>780.25</ele>
        <time>2016-06-13T16:59:42Z</time>
      </trkpt>
      <trkpt lat="44.1394" lon="6.29158">
        <ele>783.61</ele>
        <time>2016-06-13T16:59:50Z</time>
      </trkpt>
      <trkpt lat="44.14025" lon="6.29237">
        <ele>783.13</ele>
        <time>2016-06-13T16:59:54Z</time>
      </trkpt>
      <trkpt lat="44.1428" lon="6.294">
        <ele>786.5</ele>
        <time>2016-06-13T17:00:05Z</time>
      </trkpt>
      <trkpt lat="44.14303" lon="6.29414">
        <ele>786.02</ele>
        <time>2016-06-13T17:00:06Z</time>
      </trkpt>
      <trkpt lat="44.14371" lon="6.29457">
        <ele>787.46</ele>
        <time>2016-06-13T17:00:09Z</time>
      </trkpt>
      <trkpt lat="44.14615" lon="6.29613">
        <ele>789.86</ele>
        <time>2016-06-13T17:00:20Z</time>
      </trkpt>
      <trkpt lat="44.14705" lon="6.29631">
        <ele>792.26</ele>
        <time>2016-06-13T17:00:24Z</time>
      </trkpt>
      <trkpt lat="44.14728" lon="6.2963">
        <ele>792.26</ele>
        <time>2016-06-13T17:00:25Z</time>
      </trkpt>
      <trkpt lat="44.14938" lon="6.29633">
        <ele>794.19</ele>
        <time>2016-06-13T17:00:35Z</time>
      </trkpt>
      <trkpt lat="44.15032" lon="6.29618">
        <ele>794.67</ele>
        <time>2016-06-13T17:00:40Z</time>
      </trkpt>
      <trkpt lat="44.15149" lon="6.29623">
        <ele>798.03</ele>
        <time>2016-06-13T17:00:46Z</time>
      </trkpt>
      <trkpt lat="44.15276" lon="6.29678">
        <ele>797.55</ele>
        <time>2016-06-13T17:00:53Z</time>
      </trkpt>
      <trkpt lat="44.15365" lon="6.29724">
        <ele>797.07</ele>
        <time>2016-06-13T17:00:58Z</time>
      </trkpt>
      <trkpt lat="44.15419" lon="6.29755">
        <ele>801.4</ele>
        <time>2016-06-13T17:01:01Z</time>
      </trkpt>
      <trkpt lat="44.15474" lon="6.29794">
        <ele>804.76</ele>
        <time>2016-06-13T17:01:04Z</time>
      </trkpt>
      <trkpt lat="44.15533" lon="6.29832">
        <ele>810.05</ele>
        <time>2016-06-13T17:01:07Z</time>
      </trkpt>
      <trkpt lat="44.15573" lon="6.29857">
        <ele>812.93</ele>
        <time>2016-06-13T17:01:09Z</time>
      </trkpt>
      <trkpt lat="44.15611" lon="6.29889">
        <ele>815.34</ele>
        <time>2016-06-13T17:01:11Z</time>
      </trkpt>
      <trkpt lat="44.15646" lon="6.29927">
        <ele>817.74</ele>
        <time>2016-06-13T17:01:13Z</time>
      </trkpt>
      <trkpt lat="44.15686" lon="6.30001">
        <ele>822.55</ele>
        <time>2016-06-13T17:01:16Z</time>
      </trkpt>
      <trkpt lat="44.15705" lon="6.30055">
        <ele>823.99</ele>
        <time>2016-06-13T17:01:18Z</time>
      </trkpt>
      <trkpt lat="44.1575" lon="6.30119">
        <ele>829.27</ele>
        <time>2016-06-13T17:01:21Z</time>
      </trkpt>
      <trkpt lat="44.1577" lon="6.30132">
        <ele>828.79</ele>
        <time>2016-06-13T17:01:22Z</time>
      </trkpt>
      <trkpt lat="44.15791" lon="6.30139">
        <ele>829.76</ele>
        <time>2016-06-13T17:01:23Z</time>
      </trkpt>
      <trkpt lat="44.15813" lon="6.30144">
        <ele>829.76</ele>
        <time>2016-06-13T17:01:24Z</time>
      </trkpt>
      <trkpt lat="44.15833" lon="6.30153">
        <ele>829.76</ele>
        <time>2016-06-13T17:01:25Z</time>
      </trkpt>
      <trkpt lat="44.15853" lon="6.30168">
        <ele>831.2</ele>
        <time>2016-06-13T17:01:26Z</time>
      </trkpt>
      <trkpt lat="44.1587" lon="6.30188">
        <ele>833.6</ele>
        <time>2016-06-13T17:01:27Z</time>
      </trkpt>
      <trkpt lat="44.15884" lon="6.30212">
        <ele>834.56</ele>
        <time>2016-06-13T17:01:28Z</time>
      </trkpt>
      <trkpt lat="44.15894" lon="6.30239">
        <ele>836.48</ele>
        <time>2016-06-13T17:01:29Z</time>
      </trkpt>
      <trkpt lat="44.15903" lon="6.30268">
        <ele>838.89</ele>
        <time>2016-06-13T17:01:30Z</time>
      </trkpt>
      <trkpt lat="44.15912" lon="6.30298">
        <ele>837.93</ele>
        <time>2016-06-13T17:01:31Z</time>
      </trkpt>
      <trkpt lat="44.15923" lon="6.30327">
        <ele>840.33</ele>
        <time>2016-06-13T17:01:32Z</time>
      </trkpt>
      <trkpt lat="44.15937" lon="6.30353">
        <ele>842.73</ele>
        <time>2016-06-13T17:01:33Z</time>
      </trkpt>
      <trkpt lat="44.15952" lon="6.30377">
        <ele>842.25</ele>
        <time>2016-06-13T17:01:34Z</time>
      </trkpt>
      <trkpt lat="44.1597" lon="6.30398">
        <ele>845.62</ele>
        <time>2016-06-13T17:01:35Z</time>
      </trkpt>
      <trkpt lat="44.15989" lon="6.30419">
        <ele>847.06</ele>
        <time>2016-06-13T17:01:36Z</time>
      </trkpt>
      <trkpt lat="44.16007" lon="6.30441">
        <ele>847.06</ele>
        <time>2016-06-13T17:01:37Z</time>
      </trkpt>
      <trkpt lat="44.16023" lon="6.30465">
        <ele>848.5</ele>
        <time>2016-06-13T17:01:38Z</time>
      </trkpt>
      <trkpt lat="44.16037" lon="6.30491">
        <ele>848.98</ele>
        <time>2016-06-13T17:01:39Z</time>
      </trkpt>
      <trkpt lat="44.16049" lon="6.30519">
        <ele>851.38</ele>
        <time>2016-06-13T17:01:40Z</time>
      </trkpt>
      <trkpt lat="44.16059" lon="6.30548">
        <ele>851.38</ele>
        <time>2016-06-13T17:01:41Z</time>
      </trkpt>
      <trkpt lat="44.16106" lon="6.30687">
        <ele>855.23</ele>
        <time>2016-06-13T17:01:46Z</time>
      </trkpt>
      <trkpt lat="44.16132" lon="6.30762">
        <ele>856.19</ele>
        <time>2016-06-13T17:01:49Z</time>
      </trkpt>
      <trkpt lat="44.16163" lon="6.3086">
        <ele>858.59</ele>
        <time>2016-06-13T17:01:53Z</time>
      </trkpt>
      <trkpt lat="44.16179" lon="6.30993">
        <ele>861.96</ele>
        <time>2016-06-13T17:01:58Z</time>
      </trkpt>
      <trkpt lat="44.16169" lon="6.3116">
        <ele>861.48</ele>
        <time>2016-06-13T17:02:04Z</time>
      </trkpt>
      <trkpt lat="44.16169" lon="6.3132">
        <ele>862.44</ele>
        <time>2016-06-13T17:02:11Z</time>
      </trkpt>
      <trkpt lat="44.16193" lon="6.31449">
        <ele>863.4</ele>
        <time>2016-06-13T17:02:19Z</time>
      </trkpt>
      <trkpt lat="44.16204" lon="6.31489">
        <ele>864.84</ele>
        <time>2016-06-13T17:02:22Z</time>
      </trkpt>
      <trkpt lat="44.16208" lon="6.31503">
        <ele>864.84</ele>
        <time>2016-06-13T17:02:23Z</time>
      </trkpt>
      <trkpt lat="44.1621" lon="6.31519">
        <ele>865.32</ele>
        <time>2016-06-13T17:02:24Z</time>
      </trkpt>
      <trkpt lat="44.16225" lon="6.316">
        <ele>870.61</ele>
        <time>2016-06-13T17:02:28Z</time>
      </trkpt>
      <trkpt lat="44.16236" lon="6.31647">
        <ele>873.01</ele>
        <time>2016-06-13T17:02:30Z</time>
      </trkpt>
      <trkpt lat="44.16244" lon="6.3167">
        <ele>877.34</ele>
        <time>2016-06-13T17:02:31Z</time>
      </trkpt>
      <trkpt lat="44.16253" lon="6.31692">
        <ele>876.86</ele>
        <time>2016-06-13T17:02:32Z</time>
      </trkpt>
      <trkpt lat="44.16275" lon="6.31739">
        <ele>880.71</ele>
        <time>2016-06-13T17:02:34Z</time>
      </trkpt>
      <trkpt lat="44.16312" lon="6.31817">
        <ele>885.99</ele>
        <time>2016-06-13T17:02:37Z</time>
      </trkpt>
      <trkpt lat="44.16337" lon="6.3187">
        <ele>889.84</ele>
        <time>2016-06-13T17:02:39Z</time>
      </trkpt>
      <trkpt lat="44.16371" lon="6.31952">
        <ele>894.16</ele>
        <time>2016-06-13T17:02:42Z</time>
      </trkpt>
      <trkpt lat="44.16393" lon="6.32009">
        <ele>897.53</ele>
        <time>2016-06-13T17:02:44Z</time>
      </trkpt>
      <trkpt lat="44.16416" lon="6.32068">
        <ele>901.85</ele>
        <time>2016-06-13T17:02:46Z</time>
      </trkpt>
      <trkpt lat="44.16441" lon="6.32126">
        <ele>905.22</ele>
        <time>2016-06-13T17:02:48Z</time>
      </trkpt>
      <trkpt lat="44.16467" lon="6.32184">
        <ele>908.58</ele>
        <time>2016-06-13T17:02:50Z</time>
      </trkpt>
      <trkpt lat="44.16509" lon="6.32269">
        <ele>913.39</ele>
        <time>2016-06-13T17:02:53Z</time>
      </trkpt>
      <trkpt lat="44.16538" lon="6.32323">
        <ele>914.35</ele>
        <time>2016-06-13T17:02:55Z</time>
      </trkpt>
      <trkpt lat="44.16551" lon="6.3235">
        <ele>915.31</ele>
        <time>2016-06-13T17:02:56Z</time>
      </trkpt>
      <trkpt lat="44.16562" lon="6.32379">
        <ele>914.35</ele>
        <time>2016-06-13T17:02:57Z</time>
      </trkpt>
      <trkpt lat="44.16592" lon="6.32472">
        <ele>918.2</ele>
        <time>2016-06-13T17:03:00Z</time>
      </trkpt>
      <trkpt lat="44.16611" lon="6.32537">
        <ele>920.6</ele>
        <time>2016-06-13T17:03:02Z</time>
      </trkpt>
      <trkpt lat="44.16637" lon="6.32633">
        <ele>923.96</ele>
        <time>2016-06-13T17:03:05Z</time>
      </trkpt>
      <trkpt lat="44.16743" lon="6.33001">
        <ele>920.6</ele>
        <time>2016-06-13T17:03:17Z</time>
      </trkpt>
      <trkpt lat="44.1676" lon="6.33063">
        <ele>916.75</ele>
        <time>2016-06-13T17:03:19Z</time>
      </trkpt>
      <trkpt lat="44.16788" lon="6.33158">
        <ele>912.43</ele>
        <time>2016-06-13T17:03:22Z</time>
      </trkpt>
      <trkpt lat="44.16802" lon="6.33225">
        <ele>908.1</ele>
        <time>2016-06-13T17:03:24Z</time>
      </trkpt>
      <trkpt lat="44.16818" lon="6.33327">
        <ele>903.78</ele>
        <time>2016-06-13T17:03:27Z</time>
      </trkpt>
      <trkpt lat="44.16831" lon="6.33392">
        <ele>900.41</ele>
        <time>2016-06-13T17:03:29Z</time>
      </trkpt>
      <trkpt lat="44.1685" lon="6.33454">
        <ele>893.68</ele>
        <time>2016-06-13T17:03:31Z</time>
      </trkpt>
      <trkpt lat="44.16874" lon="6.33513">
        <ele>892.72</ele>
        <time>2016-06-13T17:03:33Z</time>
      </trkpt>
      <trkpt lat="44.16949" lon="6.33686">
        <ele>889.84</ele>
        <time>2016-06-13T17:03:39Z</time>
      </trkpt>
      <trkpt lat="44.17028" lon="6.3389">
        <ele>887.43</ele>
        <time>2016-06-13T17:03:46Z</time>
      </trkpt>
      <trkpt lat="44.17069" lon="6.34016">
        <ele>884.07</ele>
        <time>2016-06-13T17:03:50Z</time>
      </trkpt>
      <trkpt lat="44.17079" lon="6.34047">
        <ele>883.59</ele>
        <time>2016-06-13T17:03:51Z</time>
      </trkpt>
      <trkpt lat="44.17145" lon="6.34259">
        <ele>880.22</ele>
        <time>2016-06-13T17:03:58Z</time>
      </trkpt>
      <trkpt lat="44.1716" lon="6.34311">
        <ele>877.34</ele>
        <time>2016-06-13T17:04:00Z</time>
      </trkpt>
      <trkpt lat="44.17196" lon="6.34427">
        <ele>873.01</ele>
        <time>2016-06-13T17:04:05Z</time>
      </trkpt>
      <trkpt lat="44.17204" lon="6.34534">
        <ele>874.46</ele>
        <time>2016-06-13T17:04:10Z</time>
      </trkpt>
      <trkpt lat="44.17197" lon="6.34706">
        <ele>874.94</ele>
        <time>2016-06-13T17:04:19Z</time>
      </trkpt>
      <trkpt lat="44.17166" lon="6.34812">
        <ele>878.3</ele>
        <time>2016-06-13T17:04:25Z</time>
      </trkpt>
      <trkpt lat="44.17145" lon="6.34863">
        <ele>880.22</ele>
        <time>2016-06-13T17:04:28Z</time>
      </trkpt>
      <trkpt lat="44.17126" lon="6.34906">
        <ele>882.15</ele>
        <time>2016-06-13T17:04:31Z</time>
      </trkpt>
      <trkpt lat="44.17137" lon="6.3497">
        <ele>885.03</ele>
        <time>2016-06-13T17:04:36Z</time>
      </trkpt>
      <trkpt lat="44.17171" lon="6.34993">
        <ele>886.95</ele>
        <time>2016-06-13T17:04:39Z</time>
      </trkpt>
      <trkpt lat="44.1724" lon="6.35042">
        <ele>883.11</ele>
        <time>2016-06-13T17:04:45Z</time>
      </trkpt>
      <trkpt lat="44.17252" lon="6.3505">
        <ele>883.11</ele>
        <time>2016-06-13T17:04:46Z</time>
      </trkpt>
      <trkpt lat="44.17276" lon="6.35062">
        <ele>880.71</ele>
        <time>2016-06-13T17:04:48Z</time>
      </trkpt>
      <trkpt lat="44.17373" lon="6.35094">
        <ele>877.34</ele>
        <time>2016-06-13T17:04:56Z</time>
      </trkpt>
      <trkpt lat="44.17393" lon="6.351">
        <ele>876.86</ele>
        <time>2016-06-13T17:04:58Z</time>
      </trkpt>
      <trkpt lat="44.17427" lon="6.3509">
        <ele>875.42</ele>
        <time>2016-06-13T17:05:02Z</time>
      </trkpt>
      <trkpt lat="44.17456" lon="6.3508">
        <ele>876.86</ele>
        <time>2016-06-13T17:05:09Z</time>
      </trkpt>
      <trkpt lat="44.17493" lon="6.3515">
        <ele>880.22</ele>
        <time>2016-06-13T17:05:19Z</time>
      </trkpt>
      <trkpt lat="44.17504" lon="6.35178">
        <ele>881.19</ele>
        <time>2016-06-13T17:05:21Z</time>
      </trkpt>
      <trkpt lat="44.17516" lon="6.35229">
        <ele>884.07</ele>
        <time>2016-06-13T17:05:24Z</time>
      </trkpt>
      <trkpt lat="44.17526" lon="6.3527">
        <ele>886.47</ele>
        <time>2016-06-13T17:05:26Z</time>
      </trkpt>
      <trkpt lat="44.1754" lon="6.35323">
        <ele>886.95</ele>
        <time>2016-06-13T17:05:29Z</time>
      </trkpt>
      <trkpt lat="44.1758" lon="6.35358">
        <ele>888.88</ele>
        <time>2016-06-13T17:05:35Z</time>
      </trkpt>
      <trkpt lat="44.1763" lon="6.35379">
        <ele>888.4</ele>
        <time>2016-06-13T17:05:41Z</time>
      </trkpt>
      <trkpt lat="44.17677" lon="6.35478">
        <ele>889.84</ele>
        <time>2016-06-13T17:05:47Z</time>
      </trkpt>
      <trkpt lat="44.17725" lon="6.35528">
        <ele>894.16</ele>
        <time>2016-06-13T17:05:51Z</time>
      </trkpt>
      <trkpt lat="44.17789" lon="6.35563">
        <ele>897.53</ele>
        <time>2016-06-13T17:05:55Z</time>
      </trkpt>
      <trkpt lat="44.17805" lon="6.35572">
        <ele>897.53</ele>
        <time>2016-06-13T17:05:56Z</time>
      </trkpt>
      <trkpt lat="44.17822" lon="6.35582">
        <ele>898.01</ele>
        <time>2016-06-13T17:05:57Z</time>
      </trkpt>
      <trkpt lat="44.1788" lon="6.3565">
        <ele>901.85</ele>
        <time>2016-06-13T17:06:01Z</time>
      </trkpt>
      <trkpt lat="44.17922" lon="6.35709">
        <ele>906.18</ele>
        <time>2016-06-13T17:06:04Z</time>
      </trkpt>
      <trkpt lat="44.17936" lon="6.35729">
        <ele>904.74</ele>
        <time>2016-06-13T17:06:05Z</time>
      </trkpt>
      <trkpt lat="44.17964" lon="6.35767">
        <ele>907.14</ele>
        <time>2016-06-13T17:06:07Z</time>
      </trkpt>
      <trkpt lat="44.18026" lon="6.35815">
        <ele>905.7</ele>
        <time>2016-06-13T17:06:11Z</time>
      </trkpt>
      <trkpt lat="44.1807" lon="6.35822">
        <ele>903.3</ele>
        <time>2016-06-13T17:06:14Z</time>
      </trkpt>
      <trkpt lat="44.18142" lon="6.35836">
        <ele>904.74</ele>
        <time>2016-06-13T17:06:19Z</time>
      </trkpt>
      <trkpt lat="44.1822" lon="6.35821">
        <ele>908.1</ele>
        <time>2016-06-13T17:06:24Z</time>
      </trkpt>
      <trkpt lat="44.18306" lon="6.35837">
        <ele>911.95</ele>
        <time>2016-06-13T17:06:29Z</time>
      </trkpt>
      <trkpt lat="44.18346" lon="6.35885">
        <ele>911.47</ele>
        <time>2016-06-13T17:06:32Z</time>
      </trkpt>
      <trkpt lat="44.18401" lon="6.3599">
        <ele>913.39</ele>
        <time>2016-06-13T17:06:37Z</time>
      </trkpt>
      <trkpt lat="44.18455" lon="6.36039">
        <ele>914.35</ele>
        <time>2016-06-13T17:06:41Z</time>
      </trkpt>
      <trkpt lat="44.18547" lon="6.36065">
        <ele>918.68</ele>
        <time>2016-06-13T17:06:46Z</time>
      </trkpt>
      <trkpt lat="44.18564" lon="6.36073">
        <ele>917.72</ele>
        <time>2016-06-13T17:06:47Z</time>
      </trkpt>
      <trkpt lat="44.1861" lon="6.36104">
        <ele>914.35</ele>
        <time>2016-06-13T17:06:50Z</time>
      </trkpt>
      <trkpt lat="44.18625" lon="6.36115">
        <ele>914.35</ele>
        <time>2016-06-13T17:06:51Z</time>
      </trkpt>
      <trkpt lat="44.18669" lon="6.36149">
        <ele>917.72</ele>
        <time>2016-06-13T17:06:54Z</time>
      </trkpt>
      <trkpt lat="44.18732" lon="6.36199">
        <ele>920.6</ele>
        <time>2016-06-13T17:06:58Z</time>
      </trkpt>
      <trkpt lat="44.18779" lon="6.36239">
        <ele>923</ele>
        <time>2016-06-13T17:07:01Z</time>
      </trkpt>
      <trkpt lat="44.18809" lon="6.36273">
        <ele>924.45</ele>
        <time>2016-06-13T17:07:03Z</time>
      </trkpt>
      <trkpt lat="44.18824" lon="6.36291">
        <ele>924.45</ele>
        <time>2016-06-13T17:07:04Z</time>
      </trkpt>
      <trkpt lat="44.18868" lon="6.36348">
        <ele>929.25</ele>
        <time>2016-06-13T17:07:07Z</time>
      </trkpt>
      <trkpt lat="44.1896" lon="6.36472">
        <ele>931.17</ele>
        <time>2016-06-13T17:07:13Z</time>
      </trkpt>
      <trkpt lat="44.19074" lon="6.3662">
        <ele>934.06</ele>
        <time>2016-06-13T17:07:20Z</time>
      </trkpt>
      <trkpt lat="44.19109" lon="6.3665">
        <ele>935.02</ele>
        <time>2016-06-13T17:07:22Z</time>
      </trkpt>
      <trkpt lat="44.19191" lon="6.36681">
        <ele>937.9</ele>
        <time>2016-06-13T17:07:26Z</time>
      </trkpt>
      <trkpt lat="44.19278" lon="6.3671">
        <ele>941.75</ele>
        <time>2016-06-13T17:07:30Z</time>
      </trkpt>
      <trkpt lat="44.19338" lon="6.36729">
        <ele>940.31</ele>
        <time>2016-06-13T17:07:33Z</time>
      </trkpt>
      <trkpt lat="44.19414" lon="6.36709">
        <ele>943.67</ele>
        <time>2016-06-13T17:07:37Z</time>
      </trkpt>
      <trkpt lat="44.19452" lon="6.36703">
        <ele>945.59</ele>
        <time>2016-06-13T17:07:39Z</time>
      </trkpt>
      <trkpt lat="44.19523" lon="6.36759">
        <ele>945.59</ele>
        <time>2016-06-13T17:07:43Z</time>
      </trkpt>
      <trkpt lat="44.19565" lon="6.36828">
        <ele>948</ele>
        <time>2016-06-13T17:07:46Z</time>
      </trkpt>
      <trkpt lat="44.19606" lon="6.36929">
        <ele>947.52</ele>
        <time>2016-06-13T17:07:50Z</time>
      </trkpt>
      <trkpt lat="44.19661" lon="6.36997">
        <ele>948.96</ele>
        <time>2016-06-13T17:07:54Z</time>
      </trkpt>
      <trkpt lat="44.19697" lon="6.37019">
        <ele>953.77</ele>
        <time>2016-06-13T17:07:56Z</time>
      </trkpt>
      <trkpt lat="44.19757" lon="6.37043">
        <ele>954.73</ele>
        <time>2016-06-13T17:07:59Z</time>
      </trkpt>
      <trkpt lat="44.19836" lon="6.37042">
        <ele>956.65</ele>
        <time>2016-06-13T17:08:03Z</time>
      </trkpt>
      <trkpt lat="44.19959" lon="6.37059">
        <ele>959.53</ele>
        <time>2016-06-13T17:08:09Z</time>
      </trkpt>
      <trkpt lat="44.20043" lon="6.37105">
        <ele>960.98</ele>
        <time>2016-06-13T17:08:13Z</time>
      </trkpt>
      <trkpt lat="44.20145" lon="6.37146">
        <ele>961.94</ele>
        <time>2016-06-13T17:08:18Z</time>
      </trkpt>
      <trkpt lat="44.20245" lon="6.37135">
        <ele>966.74</ele>
        <time>2016-06-13T17:08:23Z</time>
      </trkpt>
      <trkpt lat="44.20305" lon="6.37077">
        <ele>968.67</ele>
        <time>2016-06-13T17:08:27Z</time>
      </trkpt>
      <trkpt lat="44.20334" lon="6.37046">
        <ele>970.59</ele>
        <time>2016-06-13T17:08:29Z</time>
      </trkpt>
      <trkpt lat="44.20369" lon="6.37041">
        <ele>973.95</ele>
        <time>2016-06-13T17:08:31Z</time>
      </trkpt>
      <trkpt lat="44.20401" lon="6.37038">
        <ele>976.84</ele>
        <time>2016-06-13T17:08:33Z</time>
      </trkpt>
      <trkpt lat="44.20427" lon="6.37015">
        <ele>980.2</ele>
        <time>2016-06-13T17:08:35Z</time>
      </trkpt>
      <trkpt lat="44.20462" lon="6.36976">
        <ele>984.05</ele>
        <time>2016-06-13T17:08:38Z</time>
      </trkpt>
      <trkpt lat="44.20492" lon="6.36976">
        <ele>985.97</ele>
        <time>2016-06-13T17:08:40Z</time>
      </trkpt>
      <trkpt lat="44.2056" lon="6.36944">
        <ele>990.3</ele>
        <time>2016-06-13T17:08:44Z</time>
      </trkpt>
      <trkpt lat="44.20576" lon="6.36931">
        <ele>990.78</ele>
        <time>2016-06-13T17:08:45Z</time>
      </trkpt>
      <trkpt lat="44.20625" lon="6.36886">
        <ele>991.74</ele>
        <time>2016-06-13T17:08:49Z</time>
      </trkpt>
      <trkpt lat="44.2066" lon="6.36893">
        <ele>996.54</ele>
        <time>2016-06-13T17:08:52Z</time>
      </trkpt>
      <trkpt lat="44.20726" lon="6.36895">
        <ele>999.91</ele>
        <time>2016-06-13T17:08:56Z</time>
      </trkpt>
      <trkpt lat="44.20805" lon="6.36875">
        <ele>1008.08</ele>
        <time>2016-06-13T17:09:00Z</time>
      </trkpt>
      <trkpt lat="44.20824" lon="6.36871">
        <ele>1007.6</ele>
        <time>2016-06-13T17:09:01Z</time>
      </trkpt>
      <trkpt lat="44.20902" lon="6.36838">
        <ele>1012.41</ele>
        <time>2016-06-13T17:09:05Z</time>
      </trkpt>
      <trkpt lat="44.20958" lon="6.36798">
        <ele>1010.96</ele>
        <time>2016-06-13T17:09:08Z</time>
      </trkpt>
      <trkpt lat="44.21013" lon="6.36749">
        <ele>1011.44</ele>
        <time>2016-06-13T17:09:11Z</time>
      </trkpt>
      <trkpt lat="44.21101" lon="6.36607">
        <ele>1015.77</ele>
        <time>2016-06-13T17:09:17Z</time>
      </trkpt>
      <trkpt lat="44.21113" lon="6.36582">
        <ele>1019.13</ele>
        <time>2016-06-13T17:09:18Z</time>
      </trkpt>
      <trkpt lat="44.21142" lon="6.36507">
        <ele>1017.69</ele>
        <time>2016-06-13T17:09:21Z</time>
      </trkpt>
      <trkpt lat="44.21185" lon="6.36407">
        <ele>1018.17</ele>
        <time>2016-06-13T17:09:26Z</time>
      </trkpt>
      <trkpt lat="44.21222" lon="6.36369">
        <ele>1020.58</ele>
        <time>2016-06-13T17:09:29Z</time>
      </trkpt>
      <trkpt lat="44.21239" lon="6.36359">
        <ele>1023.94</ele>
        <time>2016-06-13T17:09:30Z</time>
      </trkpt>
      <trkpt lat="44.21321" lon="6.36325">
        <ele>1025.86</ele>
        <time>2016-06-13T17:09:34Z</time>
      </trkpt>
      <trkpt lat="44.21342" lon="6.36318">
        <ele>1029.23</ele>
        <time>2016-06-13T17:09:35Z</time>
      </trkpt>
      <trkpt lat="44.21363" lon="6.36313">
        <ele>1028.27</ele>
        <time>2016-06-13T17:09:36Z</time>
      </trkpt>
      <trkpt lat="44.21404" lon="6.36305">
        <ele>1031.63</ele>
        <time>2016-06-13T17:09:38Z</time>
      </trkpt>
      <trkpt lat="44.21468" lon="6.36288">
        <ele>1032.59</ele>
        <time>2016-06-13T17:09:41Z</time>
      </trkpt>
      <trkpt lat="44.21543" lon="6.3622">
        <ele>1034.04</ele>
        <time>2016-06-13T17:09:45Z</time>
      </trkpt>
      <trkpt lat="44.21623" lon="6.36179">
        <ele>1037.88</ele>
        <time>2016-06-13T17:09:49Z</time>
      </trkpt>
      <trkpt lat="44.21688" lon="6.36165">
        <ele>1043.17</ele>
        <time>2016-06-13T17:09:52Z</time>
      </trkpt>
      <trkpt lat="44.21772" lon="6.36144">
        <ele>1047.97</ele>
        <time>2016-06-13T17:09:56Z</time>
      </trkpt>
      <trkpt lat="44.21811" lon="6.36121">
        <ele>1047.97</ele>
        <time>2016-06-13T17:09:58Z</time>
      </trkpt>
      <trkpt lat="44.21889" lon="6.36096">
        <ele>1050.86</ele>
        <time>2016-06-13T17:10:02Z</time>
      </trkpt>
      <trkpt lat="44.21976" lon="6.36065">
        <ele>1051.82</ele>
        <time>2016-06-13T17:10:06Z</time>
      </trkpt>
      <trkpt lat="44.2204" lon="6.36063">
        <ele>1057.59</ele>
        <time>2016-06-13T17:10:09Z</time>
      </trkpt>
      <trkpt lat="44.22062" lon="6.36067">
        <ele>1057.11</ele>
        <time>2016-06-13T17:10:10Z</time>
      </trkpt>
      <trkpt lat="44.22108" lon="6.36064">
        <ele>1052.78</ele>
        <time>2016-06-13T17:10:12Z</time>
      </trkpt>
      <trkpt lat="44.22196" lon="6.36034">
        <ele>1055.18</ele>
        <time>2016-06-13T17:10:16Z</time>
      </trkpt>
      <trkpt lat="44.22237" lon="6.36027">
        <ele>1058.55</ele>
        <time>2016-06-13T17:10:18Z</time>
      </trkpt>
      <trkpt lat="44.22257" lon="6.36031">
        <ele>1058.55</ele>
        <time>2016-06-13T17:10:19Z</time>
      </trkpt>
      <trkpt lat="44.22277" lon="6.3604">
        <ele>1058.55</ele>
        <time>2016-06-13T17:10:20Z</time>
      </trkpt>
      <trkpt lat="44.22359" lon="6.36087">
        <ele>1061.91</ele>
        <time>2016-06-13T17:10:24Z</time>
      </trkpt>
      <trkpt lat="44.22428" lon="6.36161">
        <ele>1068.16</ele>
        <time>2016-06-13T17:10:28Z</time>
      </trkpt>
      <trkpt lat="44.22444" lon="6.36184">
        <ele>1068.16</ele>
        <time>2016-06-13T17:10:29Z</time>
      </trkpt>
      <trkpt lat="44.22508" lon="6.36256">
        <ele>1068.64</ele>
        <time>2016-06-13T17:10:33Z</time>
      </trkpt>
      <trkpt lat="44.22597" lon="6.36273">
        <ele>1068.64</ele>
        <time>2016-06-13T17:10:38Z</time>
      </trkpt>
      <trkpt lat="44.22662" lon="6.36245">
        <ele>1073.45</ele>
        <time>2016-06-13T17:10:41Z</time>
      </trkpt>
      <trkpt lat="44.22705" lon="6.36225">
        <ele>1076.81</ele>
        <time>2016-06-13T17:10:43Z</time>
      </trkpt>
      <trkpt lat="44.22771" lon="6.36196">
        <ele>1082.1</ele>
        <time>2016-06-13T17:10:46Z</time>
      </trkpt>
      <trkpt lat="44.22794" lon="6.36187">
        <ele>1085.47</ele>
        <time>2016-06-13T17:10:47Z</time>
      </trkpt>
      <trkpt lat="44.22817" lon="6.36178">
        <ele>1082.1</ele>
        <time>2016-06-13T17:10:48Z</time>
      </trkpt>
      <trkpt lat="44.22908" lon="6.36139">
        <ele>1085.47</ele>
        <time>2016-06-13T17:10:52Z</time>
      </trkpt>
      <trkpt lat="44.22931" lon="6.36126">
        <ele>1085.95</ele>
        <time>2016-06-13T17:10:53Z</time>
      </trkpt>
      <trkpt lat="44.22997" lon="6.36082">
        <ele>1089.31</ele>
        <time>2016-06-13T17:10:56Z</time>
      </trkpt>
      <trkpt lat="44.23018" lon="6.36069">
        <ele>1093.64</ele>
        <time>2016-06-13T17:10:57Z</time>
      </trkpt>
      <trkpt lat="44.23157" lon="6.36038">
        <ele>1097</ele>
        <time>2016-06-13T17:11:03Z</time>
      </trkpt>
      <trkpt lat="44.23253" lon="6.36021">
        <ele>1095.56</ele>
        <time>2016-06-13T17:11:07Z</time>
      </trkpt>
      <trkpt lat="44.23338" lon="6.35966">
        <ele>1098.92</ele>
        <time>2016-06-13T17:11:11Z</time>
      </trkpt>
      <trkpt lat="44.23415" lon="6.35888">
        <ele>1104.21</ele>
        <time>2016-06-13T17:11:15Z</time>
      </trkpt>
      <trkpt lat="44.23508" lon="6.35816">
        <ele>1107.1</ele>
        <time>2016-06-13T17:11:20Z</time>
      </trkpt>
      <trkpt lat="44.23582" lon="6.358">
        <ele>1111.42</ele>
        <time>2016-06-13T17:11:24Z</time>
      </trkpt>
      <trkpt lat="44.23602" lon="6.35807">
        <ele>1112.38</ele>
        <time>2016-06-13T17:11:25Z</time>
      </trkpt>
      <trkpt lat="44.23642" lon="6.35821">
        <ele>1115.27</ele>
        <time>2016-06-13T17:11:27Z</time>
      </trkpt>
      <trkpt lat="44.237" lon="6.35826">
        <ele>1115.75</ele>
        <time>2016-06-13T17:11:30Z</time>
      </trkpt>
      <trkpt lat="44.23778" lon="6.35875">
        <ele>1118.63</ele>
        <time>2016-06-13T17:11:36Z</time>
      </trkpt>
      <trkpt lat="44.23804" lon="6.35927">
        <ele>1122</ele>
        <time>2016-06-13T17:11:39Z</time>
      </trkpt>
      <trkpt lat="44.23827" lon="6.35988">
        <ele>1124.88</ele>
        <time>2016-06-13T17:11:42Z</time>
      </trkpt>
      <trkpt lat="44.23843" lon="6.36053">
        <ele>1126.8</ele>
        <time>2016-06-13T17:11:45Z</time>
      </trkpt>
      <trkpt lat="44.23858" lon="6.36138">
        <ele>1128.24</ele>
        <time>2016-06-13T17:11:49Z</time>
      </trkpt>
      <trkpt lat="44.23906" lon="6.36186">
        <ele>1132.09</ele>
        <time>2016-06-13T17:11:54Z</time>
      </trkpt>
      <trkpt lat="44.23918" lon="6.36191">
        <ele>1132.09</ele>
        <time>2016-06-13T17:11:55Z</time>
      </trkpt>
      <trkpt lat="44.2396" lon="6.36229">
        <ele>1135.45</ele>
        <time>2016-06-13T17:11:59Z</time>
      </trkpt>
      <trkpt lat="44.23981" lon="6.36264">
        <ele>1137.86</ele>
        <time>2016-06-13T17:12:02Z</time>
      </trkpt>
      <trkpt lat="44.24013" lon="6.36252">
        <ele>1139.3</ele>
        <time>2016-06-13T17:12:06Z</time>
      </trkpt>
      <trkpt lat="44.24015" lon="6.36227">
        <ele>1140.26</ele>
        <time>2016-06-13T17:12:08Z</time>
      </trkpt>
      <trkpt lat="44.23983" lon="6.36181">
        <ele>1145.07</ele>
        <time>2016-06-13T17:12:11Z</time>
      </trkpt>
      <trkpt lat="44.2394" lon="6.36123">
        <ele>1148.91</ele>
        <time>2016-06-13T17:12:14Z</time>
      </trkpt>
      <trkpt lat="44.23904" lon="6.36059">
        <ele>1153.72</ele>
        <time>2016-06-13T17:12:17Z</time>
      </trkpt>
      <trkpt lat="44.23893" lon="6.3601">
        <ele>1154.68</ele>
        <time>2016-06-13T17:12:19Z</time>
      </trkpt>
      <trkpt lat="44.23893" lon="6.35984">
        <ele>1155.16</ele>
        <time>2016-06-13T17:12:20Z</time>
      </trkpt>
      <trkpt lat="44.23887" lon="6.35899">
        <ele>1158.05</ele>
        <time>2016-06-13T17:12:24Z</time>
      </trkpt>
      <trkpt lat="44.23899" lon="6.3585">
        <ele>1159.01</ele>
        <time>2016-06-13T17:12:28Z</time>
      </trkpt>
      <trkpt lat="44.23924" lon="6.35881">
        <ele>1161.89</ele>
        <time>2016-06-13T17:12:32Z</time>
      </trkpt>
      <trkpt lat="44.23925" lon="6.35922">
        <ele>1164.77</ele>
        <time>2016-06-13T17:12:34Z</time>
      </trkpt>
      <trkpt lat="44.23947" lon="6.35998">
        <ele>1168.62</ele>
        <time>2016-06-13T17:12:38Z</time>
      </trkpt>
      <trkpt lat="44.23958" lon="6.36008">
        <ele>1169.1</ele>
        <time>2016-06-13T17:12:39Z</time>
      </trkpt>
      <trkpt lat="44.24007" lon="6.36072">
        <ele>1172.47</ele>
        <time>2016-06-13T17:12:44Z</time>
      </trkpt>
      <trkpt lat="44.2402" lon="6.36106">
        <ele>1174.87</ele>
        <time>2016-06-13T17:12:46Z</time>
      </trkpt>
      <trkpt lat="44.2407" lon="6.36152">
        <ele>1182.08</ele>
        <time>2016-06-13T17:12:50Z</time>
      </trkpt>
      <trkpt lat="44.24097" lon="6.36178">
        <ele>1185.92</ele>
        <time>2016-06-13T17:12:52Z</time>
      </trkpt>
      <trkpt lat="44.24117" lon="6.36213">
        <ele>1188.81</ele>
        <time>2016-06-13T17:12:54Z</time>
      </trkpt>
      <trkpt lat="44.24143" lon="6.3627">
        <ele>1194.09</ele>
        <time>2016-06-13T17:12:57Z</time>
      </trkpt>
      <trkpt lat="44.2419" lon="6.36288">
        <ele>1198.42</ele>
        <time>2016-06-13T17:13:01Z</time>
      </trkpt>
      <trkpt lat="44.24235" lon="6.363">
        <ele>1203.23</ele>
        <time>2016-06-13T17:13:05Z</time>
      </trkpt>
      <trkpt lat="44.24255" lon="6.36329">
        <ele>1207.55</ele>
        <time>2016-06-13T17:13:07Z</time>
      </trkpt>
      <trkpt lat="44.24284" lon="6.36352">
        <ele>1213.32</ele>
        <time>2016-06-13T17:13:09Z</time>
      </trkpt>
      <trkpt lat="44.24313" lon="6.36383">
        <ele>1218.13</ele>
        <time>2016-06-13T17:13:11Z</time>
      </trkpt>
      <trkpt lat="44.24326" lon="6.364">
        <ele>1221.49</ele>
        <time>2016-06-13T17:13:12Z</time>
      </trkpt>
      <trkpt lat="44.24338" lon="6.36417">
        <ele>1220.53</ele>
        <time>2016-06-13T17:13:13Z</time>
      </trkpt>
      <trkpt lat="44.24382" lon="6.36474">
        <ele>1223.9</ele>
        <time>2016-06-13T17:13:17Z</time>
      </trkpt>
      <trkpt lat="44.24429" lon="6.36505">
        <ele>1228.7</ele>
        <time>2016-06-13T17:13:21Z</time>
      </trkpt>
      <trkpt lat="44.24441" lon="6.36506">
        <ele>1229.66</ele>
        <time>2016-06-13T17:13:22Z</time>
      </trkpt>
      <trkpt lat="44.2449" lon="6.36491">
        <ele>1235.91</ele>
        <time>2016-06-13T17:13:26Z</time>
      </trkpt>
      <trkpt lat="44.2451" lon="6.36475">
        <ele>1236.87</ele>
        <time>2016-06-13T17:13:28Z</time>
      </trkpt>
      <trkpt lat="44.2453" lon="6.36468">
        <ele>1238.32</ele>
        <time>2016-06-13T17:13:30Z</time>
      </trkpt>
      <trkpt lat="44.2456" lon="6.365">
        <ele>1242.64</ele>
        <time>2016-06-13T17:13:34Z</time>
      </trkpt>
      <trkpt lat="44.2456" lon="6.3653">
        <ele>1245.04</ele>
        <time>2016-06-13T17:13:36Z</time>
      </trkpt>
      <trkpt lat="44.24557" lon="6.36596">
        <ele>1250.33</ele>
        <time>2016-06-13T17:13:40Z</time>
      </trkpt>
      <trkpt lat="44.24569" lon="6.36642">
        <ele>1252.25</ele>
        <time>2016-06-13T17:13:43Z</time>
      </trkpt>
      <trkpt lat="44.24573" lon="6.36656">
        <ele>1254.18</ele>
        <time>2016-06-13T17:13:44Z</time>
      </trkpt>
      <trkpt lat="44.24603" lon="6.36687">
        <ele>1259.46</ele>
        <time>2016-06-13T17:13:47Z</time>
      </trkpt>
      <trkpt lat="44.24619" lon="6.36693">
        <ele>1262.35</ele>
        <time>2016-06-13T17:13:48Z</time>
      </trkpt>
      <trkpt lat="44.24653" lon="6.36709">
        <ele>1267.64</ele>
        <time>2016-06-13T17:13:50Z</time>
      </trkpt>
      <trkpt lat="44.24688" lon="6.36727">
        <ele>1273.4</ele>
        <time>2016-06-13T17:13:52Z</time>
      </trkpt>
      <trkpt lat="44.24736" lon="6.36788">
        <ele>1277.25</ele>
        <time>2016-06-13T17:13:56Z</time>
      </trkpt>
      <trkpt lat="44.24796" lon="6.36841">
        <ele>1283.98</ele>
        <time>2016-06-13T17:14:01Z</time>
      </trkpt>
      <trkpt lat="44.24821" lon="6.36865">
        <ele>1286.38</ele>
        <time>2016-06-13T17:14:03Z</time>
      </trkpt>
      <trkpt lat="44.24837" lon="6.36892">
        <ele>1289.27</ele>
        <time>2016-06-13T17:14:05Z</time>
      </trkpt>
      <trkpt lat="44.24839" lon="6.3691">
        <ele>1289.27</ele>
        <time>2016-06-13T17:14:06Z</time>
      </trkpt>
      <trkpt lat="44.24843" lon="6.36945">
        <ele>1292.63</ele>
        <time>2016-06-13T17:14:08Z</time>
      </trkpt>
      <trkpt lat="44.24861" lon="6.36978">
        <ele>1296.48</ele>
        <time>2016-06-13T17:14:10Z</time>
      </trkpt>
      <trkpt lat="44.24867" lon="6.36996">
        <ele>1295.99</ele>
        <time>2016-06-13T17:14:11Z</time>
      </trkpt>
      <trkpt lat="44.24882" lon="6.37045">
        <ele>1299.36</ele>
        <time>2016-06-13T17:14:14Z</time>
      </trkpt>
      <trkpt lat="44.24934" lon="6.37057">
        <ele>1301.76</ele>
        <time>2016-06-13T17:14:18Z</time>
      </trkpt>
      <trkpt lat="44.24996" lon="6.37072">
        <ele>1298.4</ele>
        <time>2016-06-13T17:14:23Z</time>
      </trkpt>
      <trkpt lat="44.25003" lon="6.37149">
        <ele>1296.48</ele>
        <time>2016-06-13T17:14:27Z</time>
      </trkpt>
      <trkpt lat="44.25007" lon="6.3725">
        <ele>1290.23</ele>
        <time>2016-06-13T17:14:32Z</time>
      </trkpt>
      <trkpt lat="44.25024" lon="6.3727">
        <ele>1288.78</ele>
        <time>2016-06-13T17:14:34Z</time>
      </trkpt>
      <trkpt lat="44.25049" lon="6.37246">
        <ele>1286.86</ele>
        <time>2016-06-13T17:14:37Z</time>
      </trkpt>
      <trkpt lat="44.25093" lon="6.37195">
        <ele>1283.98</ele>
        <time>2016-06-13T17:14:42Z</time>
      </trkpt>
      <trkpt lat="44.25104" lon="6.372">
        <ele>1283.5</ele>
        <time>2016-06-13T17:14:43Z</time>
      </trkpt>
      <trkpt lat="44.25114" lon="6.37208">
        <ele>1282.06</ele>
        <time>2016-06-13T17:14:44Z</time>
      </trkpt>
      <trkpt lat="44.25146" lon="6.37186">
        <ele>1278.69</ele>
        <time>2016-06-13T17:14:48Z</time>
      </trkpt>
      <trkpt lat="44.25165" lon="6.37128">
        <ele>1277.73</ele>
        <time>2016-06-13T17:14:51Z</time>
      </trkpt>
      <trkpt lat="44.25198" lon="6.37033">
        <ele>1274.36</ele>
        <time>2016-06-13T17:14:55Z</time>
      </trkpt>
      <trkpt lat="44.252" lon="6.37006">
        <ele>1274.36</ele>
        <time>2016-06-13T17:14:56Z</time>
      </trkpt>
      <trkpt lat="44.25205" lon="6.36923">
        <ele>1267.64</ele>
        <time>2016-06-13T17:14:59Z</time>
      </trkpt>
      <trkpt lat="44.25211" lon="6.36873">
        <ele>1264.75</ele>
        <time>2016-06-13T17:15:01Z</time>
      </trkpt>
      <trkpt lat="44.25269" lon="6.36781">
        <ele>1259.94</ele>
        <time>2016-06-13T17:15:06Z</time>
      </trkpt>
      <trkpt lat="44.25328" lon="6.36748">
        <ele>1259.94</ele>
        <time>2016-06-13T17:15:09Z</time>
      </trkpt>
      <trkpt lat="44.25372" lon="6.36734">
        <ele>1257.54</ele>
        <time>2016-06-13T17:15:11Z</time>
      </trkpt>
      <trkpt lat="44.25439" lon="6.36719">
        <ele>1254.18</ele>
        <time>2016-06-13T17:15:14Z</time>
      </trkpt>
      <trkpt lat="44.25482" lon="6.36699">
        <ele>1253.22</ele>
        <time>2016-06-13T17:15:16Z</time>
      </trkpt>
      <trkpt lat="44.25542" lon="6.36654">
        <ele>1249.85</ele>
        <time>2016-06-13T17:15:19Z</time>
      </trkpt>
      <trkpt lat="44.25664" lon="6.36577">
        <ele>1246.01</ele>
        <time>2016-06-13T17:15:25Z</time>
      </trkpt>
      <trkpt lat="44.25684" lon="6.36564">
        <ele>1244.08</ele>
        <time>2016-06-13T17:15:26Z</time>
      </trkpt>
      <trkpt lat="44.25788" lon="6.36449">
        <ele>1239.76</ele>
        <time>2016-06-13T17:15:32Z</time>
      </trkpt>
      <trkpt lat="44.25823" lon="6.36413">
        <ele>1239.28</ele>
        <time>2016-06-13T17:15:34Z</time>
      </trkpt>
      <trkpt lat="44.2586" lon="6.36383">
        <ele>1237.83</ele>
        <time>2016-06-13T17:15:36Z</time>
      </trkpt>
      <trkpt lat="44.25942" lon="6.36364">
        <ele>1235.91</ele>
        <time>2016-06-13T17:15:40Z</time>
      </trkpt>
      <trkpt lat="44.25964" lon="6.36364">
        <ele>1236.39</ele>
        <time>2016-06-13T17:15:41Z</time>
      </trkpt>
      <trkpt lat="44.26027" lon="6.36351">
        <ele>1233.03</ele>
        <time>2016-06-13T17:15:44Z</time>
      </trkpt>
      <trkpt lat="44.26063" lon="6.36329">
        <ele>1230.62</ele>
        <time>2016-06-13T17:15:46Z</time>
      </trkpt>
      <trkpt lat="44.2609" lon="6.36287">
        <ele>1229.18</ele>
        <time>2016-06-13T17:15:48Z</time>
      </trkpt>
      <trkpt lat="44.26147" lon="6.36157">
        <ele>1230.14</ele>
        <time>2016-06-13T17:15:53Z</time>
      </trkpt>
      <trkpt lat="44.2617" lon="6.36081">
        <ele>1224.38</ele>
        <time>2016-06-13T17:15:56Z</time>
      </trkpt>
      <trkpt lat="44.26173" lon="6.36055">
        <ele>1223.9</ele>
        <time>2016-06-13T17:15:57Z</time>
      </trkpt>
      <trkpt lat="44.26184" lon="6.36011">
        <ele>1220.05</ele>
        <time>2016-06-13T17:15:59Z</time>
      </trkpt>
      <trkpt lat="44.26211" lon="6.35985">
        <ele>1219.57</ele>
        <time>2016-06-13T17:16:01Z</time>
      </trkpt>
      <trkpt lat="44.26229" lon="6.35977">
        <ele>1220.53</ele>
        <time>2016-06-13T17:16:02Z</time>
      </trkpt>
      <trkpt lat="44.26317" lon="6.35952">
        <ele>1216.21</ele>
        <time>2016-06-13T17:16:08Z</time>
      </trkpt>
      <trkpt lat="44.26335" lon="6.3595">
        <ele>1215.24</ele>
        <time>2016-06-13T17:16:10Z</time>
      </trkpt>
      <trkpt lat="44.26346" lon="6.35955">
        <ele>1213.8</ele>
        <time>2016-06-13T17:16:12Z</time>
      </trkpt>
      <trkpt lat="44.26351" lon="6.35963">
        <ele>1212.84</ele>
        <time>2016-06-13T17:16:14Z</time>
      </trkpt>
      <trkpt lat="44.26354" lon="6.35968">
        <ele>1213.8</ele>
        <time>2016-06-13T17:16:29Z</time>
      </trkpt>
      <trkpt lat="44.26353" lon="6.35968">
        <ele>1212.36</ele>
        <time>2016-06-13T17:17:16Z</time>
      </trkpt>
      <trkpt lat="44.26371" lon="6.36006">
        <ele>1214.76</ele>
        <time>2016-06-13T17:18:19Z</time>
      </trkpt>
      <trkpt lat="44.26388" lon="6.3605">
        <ele>1216.69</ele>
        <time>2016-06-13T17:18:22Z</time>
      </trkpt>
      <trkpt lat="44.26402" lon="6.36084">
        <ele>1218.13</ele>
        <time>2016-06-13T17:18:24Z</time>
      </trkpt>
      <trkpt lat="44.26416" lon="6.36121">
        <ele>1219.57</ele>
        <time>2016-06-13T17:18:26Z</time>
      </trkpt>
      <trkpt lat="44.26446" lon="6.36204">
        <ele>1221.97</ele>
        <time>2016-06-13T17:18:30Z</time>
      </trkpt>
      <trkpt lat="44.26469" lon="6.36272">
        <ele>1223.42</ele>
        <time>2016-06-13T17:18:33Z</time>
      </trkpt>
      <trkpt lat="44.26477" lon="6.36294">
        <ele>1223.42</ele>
        <time>2016-06-13T17:18:34Z</time>
      </trkpt>
      <trkpt lat="44.26492" lon="6.36367">
        <ele>1225.34</ele>
        <time>2016-06-13T17:18:37Z</time>
      </trkpt>
      <trkpt lat="44.26513" lon="6.36442">
        <ele>1226.78</ele>
        <time>2016-06-13T17:18:40Z</time>
      </trkpt>
      <trkpt lat="44.2652" lon="6.36467">
        <ele>1228.22</ele>
        <time>2016-06-13T17:18:41Z</time>
      </trkpt>
      <trkpt lat="44.26542" lon="6.3663">
        <ele>1231.59</ele>
        <time>2016-06-13T17:18:47Z</time>
      </trkpt>
      <trkpt lat="44.26585" lon="6.36715">
        <ele>1231.59</ele>
        <time>2016-06-13T17:18:51Z</time>
      </trkpt>
      <trkpt lat="44.26678" lon="6.36829">
        <ele>1235.91</ele>
        <time>2016-06-13T17:18:57Z</time>
      </trkpt>
      <trkpt lat="44.26738" lon="6.36966">
        <ele>1238.8</ele>
        <time>2016-06-13T17:19:02Z</time>
      </trkpt>
      <trkpt lat="44.26748" lon="6.36994">
        <ele>1238.8</ele>
        <time>2016-06-13T17:19:03Z</time>
      </trkpt>
      <trkpt lat="44.26775" lon="6.3713">
        <ele>1239.28</ele>
        <time>2016-06-13T17:19:08Z</time>
      </trkpt>
      <trkpt lat="44.26824" lon="6.37234">
        <ele>1243.6</ele>
        <time>2016-06-13T17:19:12Z</time>
      </trkpt>
      <trkpt lat="44.26898" lon="6.37356">
        <ele>1246.49</ele>
        <time>2016-06-13T17:19:17Z</time>
      </trkpt>
      <trkpt lat="44.26977" lon="6.37455">
        <ele>1246.01</ele>
        <time>2016-06-13T17:19:22Z</time>
      </trkpt>
      <trkpt lat="44.26992" lon="6.37512">
        <ele>1248.89</ele>
        <time>2016-06-13T17:19:24Z</time>
      </trkpt>
      <trkpt lat="44.27012" lon="6.37699">
        <ele>1249.37</ele>
        <time>2016-06-13T17:19:30Z</time>
      </trkpt>
      <trkpt lat="44.27039" lon="6.37781">
        <ele>1251.77</ele>
        <time>2016-06-13T17:19:33Z</time>
      </trkpt>
      <trkpt lat="44.27063" lon="6.37869">
        <ele>1255.14</ele>
        <time>2016-06-13T17:19:36Z</time>
      </trkpt>
      <trkpt lat="44.27069" lon="6.379">
        <ele>1255.14</ele>
        <time>2016-06-13T17:19:37Z</time>
      </trkpt>
      <trkpt lat="44.27098" lon="6.38022">
        <ele>1257.06</ele>
        <time>2016-06-13T17:19:41Z</time>
      </trkpt>
      <trkpt lat="44.27116" lon="6.38078">
        <ele>1257.06</ele>
        <time>2016-06-13T17:19:43Z</time>
      </trkpt>
      <trkpt lat="44.272" lon="6.38167">
        <ele>1257.54</ele>
        <time>2016-06-13T17:19:48Z</time>
      </trkpt>
      <trkpt lat="44.27248" lon="6.38228">
        <ele>1259.94</ele>
        <time>2016-06-13T17:19:51Z</time>
      </trkpt>
      <trkpt lat="44.2728" lon="6.38312">
        <ele>1261.87</ele>
        <time>2016-06-13T17:19:54Z</time>
      </trkpt>
      <trkpt lat="44.27286" lon="6.38342">
        <ele>1262.35</ele>
        <time>2016-06-13T17:19:55Z</time>
      </trkpt>
      <trkpt lat="44.27331" lon="6.38488">
        <ele>1263.31</ele>
        <time>2016-06-13T17:20:00Z</time>
      </trkpt>
      <trkpt lat="44.2741" lon="6.38591">
        <ele>1263.79</ele>
        <time>2016-06-13T17:20:05Z</time>
      </trkpt>
      <trkpt lat="44.27439" lon="6.3862">
        <ele>1263.31</ele>
        <time>2016-06-13T17:20:07Z</time>
      </trkpt>
      <trkpt lat="44.27483" lon="6.38684">
        <ele>1262.35</ele>
        <time>2016-06-13T17:20:11Z</time>
      </trkpt>
      <trkpt lat="44.27505" lon="6.38737">
        <ele>1264.27</ele>
        <time>2016-06-13T17:20:14Z</time>
      </trkpt>
      <trkpt lat="44.27573" lon="6.38813">
        <ele>1267.16</ele>
        <time>2016-06-13T17:20:20Z</time>
      </trkpt>
      <trkpt lat="44.27624" lon="6.38833">
        <ele>1270.04</ele>
        <time>2016-06-13T17:20:23Z</time>
      </trkpt>
      <trkpt lat="44.27641" lon="6.38837">
        <ele>1270.04</ele>
        <time>2016-06-13T17:20:24Z</time>
      </trkpt>
      <trkpt lat="44.277" lon="6.38882">
        <ele>1271</ele>
        <time>2016-06-13T17:20:28Z</time>
      </trkpt>
      <trkpt lat="44.27789" lon="6.3896">
        <ele>1274.85</ele>
        <time>2016-06-13T17:20:34Z</time>
      </trkpt>
      <trkpt lat="44.27881" lon="6.38962">
        <ele>1277.25</ele>
        <time>2016-06-13T17:20:39Z</time>
      </trkpt>
      <trkpt lat="44.27982" lon="6.38931">
        <ele>1280.61</ele>
        <time>2016-06-13T17:20:44Z</time>
      </trkpt>
      <trkpt lat="44.28089" lon="6.38945">
        <ele>1283.5</ele>
        <time>2016-06-13T17:20:49Z</time>
      </trkpt>
      <trkpt lat="44.2811" lon="6.38951">
        <ele>1284.46</ele>
        <time>2016-06-13T17:20:50Z</time>
      </trkpt>
      <trkpt lat="44.28197" lon="6.38949">
        <ele>1286.38</ele>
        <time>2016-06-13T17:20:54Z</time>
      </trkpt>
      <trkpt lat="44.28266" lon="6.38956">
        <ele>1288.3</ele>
        <time>2016-06-13T17:20:57Z</time>
      </trkpt>
      <trkpt lat="44.28384" lon="6.38959">
        <ele>1292.63</ele>
        <time>2016-06-13T17:21:02Z</time>
      </trkpt>
      <trkpt lat="44.28458" lon="6.38956">
        <ele>1295.51</ele>
        <time>2016-06-13T17:21:05Z</time>
      </trkpt>
      <trkpt lat="44.28579" lon="6.38952">
        <ele>1295.03</ele>
        <time>2016-06-13T17:21:10Z</time>
      </trkpt>
      <trkpt lat="44.28769" lon="6.39008">
        <ele>1299.84</ele>
        <time>2016-06-13T17:21:18Z</time>
      </trkpt>
      <trkpt lat="44.28863" lon="6.3904">
        <ele>1303.2</ele>
        <time>2016-06-13T17:21:22Z</time>
      </trkpt>
      <trkpt lat="44.28957" lon="6.39071">
        <ele>1306.57</ele>
        <time>2016-06-13T17:21:26Z</time>
      </trkpt>
      <trkpt lat="44.29026" lon="6.39098">
        <ele>1309.45</ele>
        <time>2016-06-13T17:21:29Z</time>
      </trkpt>
      <trkpt lat="44.29113" lon="6.39157">
        <ele>1311.38</ele>
        <time>2016-06-13T17:21:33Z</time>
      </trkpt>
      <trkpt lat="44.29193" lon="6.39232">
        <ele>1315.22</ele>
        <time>2016-06-13T17:21:37Z</time>
      </trkpt>
      <trkpt lat="44.29271" lon="6.39319">
        <ele>1318.59</ele>
        <time>2016-06-13T17:21:41Z</time>
      </trkpt>
      <trkpt lat="44.29323" lon="6.39392">
        <ele>1319.07</ele>
        <time>2016-06-13T17:21:44Z</time>
      </trkpt>
      <trkpt lat="44.29358" lon="6.39436">
        <ele>1320.51</ele>
        <time>2016-06-13T17:21:46Z</time>
      </trkpt>
      <trkpt lat="44.29401" lon="6.39465">
        <ele>1323.87</ele>
        <time>2016-06-13T17:21:48Z</time>
      </trkpt>
      <trkpt lat="44.29445" lon="6.39493">
        <ele>1327.72</ele>
        <time>2016-06-13T17:21:50Z</time>
      </trkpt>
      <trkpt lat="44.29613" lon="6.39637">
        <ele>1331.08</ele>
        <time>2016-06-13T17:21:58Z</time>
      </trkpt>
      <trkpt lat="44.29653" lon="6.39676">
        <ele>1332.52</ele>
        <time>2016-06-13T17:22:00Z</time>
      </trkpt>
      <trkpt lat="44.29689" lon="6.39723">
        <ele>1333.49</ele>
        <time>2016-06-13T17:22:02Z</time>
      </trkpt>
      <trkpt lat="44.29723" lon="6.39769">
        <ele>1335.41</ele>
        <time>2016-06-13T17:22:04Z</time>
      </trkpt>
      <trkpt lat="44.29763" lon="6.39807">
        <ele>1336.37</ele>
        <time>2016-06-13T17:22:06Z</time>
      </trkpt>
      <trkpt lat="44.29868" lon="6.39882">
        <ele>1340.22</ele>
        <time>2016-06-13T17:22:11Z</time>
      </trkpt>
      <trkpt lat="44.2995" lon="6.39941">
        <ele>1344.06</ele>
        <time>2016-06-13T17:22:15Z</time>
      </trkpt>
      <trkpt lat="44.30013" lon="6.39985">
        <ele>1347.43</ele>
        <time>2016-06-13T17:22:18Z</time>
      </trkpt>
      <trkpt lat="44.301" lon="6.40045">
        <ele>1350.79</ele>
        <time>2016-06-13T17:22:22Z</time>
      </trkpt>
      <trkpt lat="44.30121" lon="6.4006">
        <ele>1350.79</ele>
        <time>2016-06-13T17:22:23Z</time>
      </trkpt>
      <trkpt lat="44.30187" lon="6.40106">
        <ele>1354.15</ele>
        <time>2016-06-13T17:22:26Z</time>
      </trkpt>
      <trkpt lat="44.30252" lon="6.40151">
        <ele>1357.04</ele>
        <time>2016-06-13T17:22:29Z</time>
      </trkpt>
      <trkpt lat="44.30382" lon="6.40217">
        <ele>1360.88</ele>
        <time>2016-06-13T17:22:35Z</time>
      </trkpt>
      <trkpt lat="44.30487" lon="6.40266">
        <ele>1365.21</ele>
        <time>2016-06-13T17:22:40Z</time>
      </trkpt>
      <trkpt lat="44.30546" lon="6.4029">
        <ele>1367.13</ele>
        <time>2016-06-13T17:22:43Z</time>
      </trkpt>
      <trkpt lat="44.30625" lon="6.40286">
        <ele>1371.46</ele>
        <time>2016-06-13T17:22:47Z</time>
      </trkpt>
      <trkpt lat="44.3071" lon="6.40257">
        <ele>1376.26</ele>
        <time>2016-06-13T17:22:51Z</time>
      </trkpt>
      <trkpt lat="44.30754" lon="6.40244">
        <ele>1377.23</ele>
        <time>2016-06-13T17:22:53Z</time>
      </trkpt>
      <trkpt lat="44.30844" lon="6.40231">
        <ele>1381.07</ele>
        <time>2016-06-13T17:22:57Z</time>
      </trkpt>
      <trkpt lat="44.30914" lon="6.40231">
        <ele>1382.99</ele>
        <time>2016-06-13T17:23:00Z</time>
      </trkpt>
      <trkpt lat="44.31005" lon="6.40255">
        <ele>1385.88</ele>
        <time>2016-06-13T17:23:04Z</time>
      </trkpt>
      <trkpt lat="44.31073" lon="6.40264">
        <ele>1389.24</ele>
        <time>2016-06-13T17:23:07Z</time>
      </trkpt>
      <trkpt lat="44.31096" lon="6.40259">
        <ele>1390.2</ele>
        <time>2016-06-13T17:23:08Z</time>
      </trkpt>
      <trkpt lat="44.31163" lon="6.40237">
        <ele>1393.57</ele>
        <time>2016-06-13T17:23:11Z</time>
      </trkpt>
      <trkpt lat="44.31275" lon="6.40251">
        <ele>1397.41</ele>
        <time>2016-06-13T17:23:16Z</time>
      </trkpt>
      <trkpt lat="44.31443" lon="6.40269">
        <ele>1399.34</ele>
        <time>2016-06-13T17:23:23Z</time>
      </trkpt>
      <trkpt lat="44.31544" lon="6.40276">
        <ele>1400.78</ele>
        <time>2016-06-13T17:23:27Z</time>
      </trkpt>
      <trkpt lat="44.31594" lon="6.40278">
        <ele>1402.22</ele>
        <time>2016-06-13T17:23:29Z</time>
      </trkpt>
      <trkpt lat="44.31718" lon="6.40271">
        <ele>1405.58</ele>
        <time>2016-06-13T17:23:34Z</time>
      </trkpt>
      <trkpt lat="44.31766" lon="6.40263">
        <ele>1406.55</ele>
        <time>2016-06-13T17:23:36Z</time>
      </trkpt>
      <trkpt lat="44.3186" lon="6.40249">
        <ele>1407.51</ele>
        <time>2016-06-13T17:23:40Z</time>
      </trkpt>
      <trkpt lat="44.31962" lon="6.40181">
        <ele>1411.35</ele>
        <time>2016-06-13T17:23:45Z</time>
      </trkpt>
      <trkpt lat="44.31983" lon="6.40162">
        <ele>1411.35</ele>
        <time>2016-06-13T17:23:46Z</time>
      </trkpt>
      <trkpt lat="44.32045" lon="6.40105">
        <ele>1407.99</ele>
        <time>2016-06-13T17:23:49Z</time>
      </trkpt>
      <trkpt lat="44.32086" lon="6.4007">
        <ele>1405.1</ele>
        <time>2016-06-13T17:23:51Z</time>
      </trkpt>
      <trkpt lat="44.32107" lon="6.40052">
        <ele>1405.58</ele>
        <time>2016-06-13T17:23:52Z</time>
      </trkpt>
      <trkpt lat="44.32128" lon="6.40033">
        <ele>1403.66</ele>
        <time>2016-06-13T17:23:53Z</time>
      </trkpt>
      <trkpt lat="44.322" lon="6.39935">
        <ele>1396.93</ele>
        <time>2016-06-13T17:23:57Z</time>
      </trkpt>
      <trkpt lat="44.32218" lon="6.3991">
        <ele>1396.93</ele>
        <time>2016-06-13T17:23:58Z</time>
      </trkpt>
      <trkpt lat="44.32254" lon="6.39865">
        <ele>1391.65</ele>
        <time>2016-06-13T17:24:00Z</time>
      </trkpt>
      <trkpt lat="44.32294" lon="6.39828">
        <ele>1387.32</ele>
        <time>2016-06-13T17:24:02Z</time>
      </trkpt>
      <trkpt lat="44.32315" lon="6.39811">
        <ele>1388.28</ele>
        <time>2016-06-13T17:24:03Z</time>
      </trkpt>
      <trkpt lat="44.32354" lon="6.39777">
        <ele>1383.47</ele>
        <time>2016-06-13T17:24:05Z</time>
      </trkpt>
      <trkpt lat="44.3239" lon="6.3974">
        <ele>1380.11</ele>
        <time>2016-06-13T17:24:07Z</time>
      </trkpt>
      <trkpt lat="44.32422" lon="6.39704">
        <ele>1376.75</ele>
        <time>2016-06-13T17:24:09Z</time>
      </trkpt>
      <trkpt lat="44.32466" lon="6.39612">
        <ele>1369.54</ele>
        <time>2016-06-13T17:24:13Z</time>
      </trkpt>
      <trkpt lat="44.32484" lon="6.39564">
        <ele>1367.61</ele>
        <time>2016-06-13T17:24:15Z</time>
      </trkpt>
      <trkpt lat="44.32526" lon="6.39502">
        <ele>1364.25</ele>
        <time>2016-06-13T17:24:18Z</time>
      </trkpt>
      <trkpt lat="44.32546" lon="6.39485">
        <ele>1364.25</ele>
        <time>2016-06-13T17:24:19Z</time>
      </trkpt>
      <trkpt lat="44.32667" lon="6.39359">
        <ele>1360.4</ele>
        <time>2016-06-13T17:24:25Z</time>
      </trkpt>
      <trkpt lat="44.32729" lon="6.39286">
        <ele>1357.04</ele>
        <time>2016-06-13T17:24:28Z</time>
      </trkpt>
      <trkpt lat="44.32749" lon="6.39263">
        <ele>1356.56</ele>
        <time>2016-06-13T17:24:29Z</time>
      </trkpt>
      <trkpt lat="44.32813" lon="6.39201">
        <ele>1352.23</ele>
        <time>2016-06-13T17:24:32Z</time>
      </trkpt>
      <trkpt lat="44.32857" lon="6.39167">
        <ele>1348.87</ele>
        <time>2016-06-13T17:24:34Z</time>
      </trkpt>
      <trkpt lat="44.32903" lon="6.39139">
        <ele>1346.94</ele>
        <time>2016-06-13T17:24:36Z</time>
      </trkpt>
      <trkpt lat="44.32948" lon="6.39116">
        <ele>1343.1</ele>
        <time>2016-06-13T17:24:38Z</time>
      </trkpt>
      <trkpt lat="44.32992" lon="6.39099">
        <ele>1342.14</ele>
        <time>2016-06-13T17:24:40Z</time>
      </trkpt>
      <trkpt lat="44.33039" lon="6.39089">
        <ele>1339.73</ele>
        <time>2016-06-13T17:24:42Z</time>
      </trkpt>
      <trkpt lat="44.3314" lon="6.39084">
        <ele>1336.85</ele>
        <time>2016-06-13T17:24:46Z</time>
      </trkpt>
      <trkpt lat="44.33214" lon="6.39074">
        <ele>1333.49</ele>
        <time>2016-06-13T17:24:49Z</time>
      </trkpt>
      <trkpt lat="44.33261" lon="6.39054">
        <ele>1332.04</ele>
        <time>2016-06-13T17:24:51Z</time>
      </trkpt>
      <trkpt lat="44.33305" lon="6.39023">
        <ele>1329.16</ele>
        <time>2016-06-13T17:24:53Z</time>
      </trkpt>
      <trkpt lat="44.33345" lon="6.38987">
        <ele>1326.76</ele>
        <time>2016-06-13T17:24:55Z</time>
      </trkpt>
      <trkpt lat="44.33402" lon="6.38878">
        <ele>1322.43</ele>
        <time>2016-06-13T17:24:59Z</time>
      </trkpt>
      <trkpt lat="44.33425" lon="6.38818">
        <ele>1319.07</ele>
        <time>2016-06-13T17:25:01Z</time>
      </trkpt>
      <trkpt lat="44.33459" lon="6.38735">
        <ele>1314.74</ele>
        <time>2016-06-13T17:25:04Z</time>
      </trkpt>
      <trkpt lat="44.33548" lon="6.38644">
        <ele>1311.38</ele>
        <time>2016-06-13T17:25:09Z</time>
      </trkpt>
      <trkpt lat="44.33595" lon="6.38624">
        <ele>1310.9</ele>
        <time>2016-06-13T17:25:11Z</time>
      </trkpt>
      <trkpt lat="44.33681" lon="6.38554">
        <ele>1305.13</ele>
        <time>2016-06-13T17:25:15Z</time>
      </trkpt>
      <trkpt lat="44.33727" lon="6.38477">
        <ele>1301.28</ele>
        <time>2016-06-13T17:25:18Z</time>
      </trkpt>
      <trkpt lat="44.33755" lon="6.38387">
        <ele>1297.44</ele>
        <time>2016-06-13T17:25:21Z</time>
      </trkpt>
      <trkpt lat="44.33807" lon="6.38272">
        <ele>1294.07</ele>
        <time>2016-06-13T17:25:25Z</time>
      </trkpt>
      <trkpt lat="44.3384" lon="6.38221">
        <ele>1290.23</ele>
        <time>2016-06-13T17:25:27Z</time>
      </trkpt>
      <trkpt lat="44.33874" lon="6.38174">
        <ele>1286.38</ele>
        <time>2016-06-13T17:25:29Z</time>
      </trkpt>
      <trkpt lat="44.33903" lon="6.3813">
        <ele>1283.02</ele>
        <time>2016-06-13T17:25:31Z</time>
      </trkpt>
      <trkpt lat="44.33915" lon="6.38111">
        <ele>1281.57</ele>
        <time>2016-06-13T17:25:32Z</time>
      </trkpt>
      <trkpt lat="44.33974" lon="6.3806">
        <ele>1279.17</ele>
        <time>2016-06-13T17:25:36Z</time>
      </trkpt>
      <trkpt lat="44.34107" lon="6.38007">
        <ele>1279.65</ele>
        <time>2016-06-13T17:25:43Z</time>
      </trkpt>
      <trkpt lat="44.34148" lon="6.37993">
        <ele>1278.21</ele>
        <time>2016-06-13T17:25:45Z</time>
      </trkpt>
      <trkpt lat="44.3421" lon="6.37928">
        <ele>1275.81</ele>
        <time>2016-06-13T17:25:49Z</time>
      </trkpt>
      <trkpt lat="44.34215" lon="6.37902">
        <ele>1275.33</ele>
        <time>2016-06-13T17:25:50Z</time>
      </trkpt>
      <trkpt lat="44.34275" lon="6.3776">
        <ele>1277.25</ele>
        <time>2016-06-13T17:25:56Z</time>
      </trkpt>
      <trkpt lat="44.34307" lon="6.37717">
        <ele>1279.17</ele>
        <time>2016-06-13T17:25:58Z</time>
      </trkpt>
      <trkpt lat="44.34334" lon="6.37663">
        <ele>1279.17</ele>
        <time>2016-06-13T17:26:00Z</time>
      </trkpt>
      <trkpt lat="44.34427" lon="6.37397">
        <ele>1279.65</ele>
        <time>2016-06-13T17:26:09Z</time>
      </trkpt>
      <trkpt lat="44.34449" lon="6.37347">
        <ele>1279.65</ele>
        <time>2016-06-13T17:26:11Z</time>
      </trkpt>
      <trkpt lat="44.34497" lon="6.37285">
        <ele>1280.61</ele>
        <time>2016-06-13T17:26:14Z</time>
      </trkpt>
      <trkpt lat="44.34547" lon="6.37195">
        <ele>1275.33</ele>
        <time>2016-06-13T17:26:18Z</time>
      </trkpt>
      <trkpt lat="44.34617" lon="6.37057">
        <ele>1275.81</ele>
        <time>2016-06-13T17:26:24Z</time>
      </trkpt>
      <trkpt lat="44.3474" lon="6.36822">
        <ele>1273.4</ele>
        <time>2016-06-13T17:26:33Z</time>
      </trkpt>
      <trkpt lat="44.34801" lon="6.36701">
        <ele>1273.4</ele>
        <time>2016-06-13T17:26:38Z</time>
      </trkpt>
      <trkpt lat="44.34852" lon="6.36619">
        <ele>1271.96</ele>
        <time>2016-06-13T17:26:42Z</time>
      </trkpt>
      <trkpt lat="44.34906" lon="6.36536">
        <ele>1272.44</ele>
        <time>2016-06-13T17:26:46Z</time>
      </trkpt>
      <trkpt lat="44.34957" lon="6.36458">
        <ele>1271.48</ele>
        <time>2016-06-13T17:26:50Z</time>
      </trkpt>
      <trkpt lat="44.3498" lon="6.36427">
        <ele>1268.6</ele>
        <time>2016-06-13T17:26:52Z</time>
      </trkpt>
      <trkpt lat="44.35034" lon="6.36398">
        <ele>1266.67</ele>
        <time>2016-06-13T17:26:56Z</time>
      </trkpt>
      <trkpt lat="44.35063" lon="6.36396">
        <ele>1264.75</ele>
        <time>2016-06-13T17:26:58Z</time>
      </trkpt>
      <trkpt lat="44.35101" lon="6.36343">
        <ele>1262.35</ele>
        <time>2016-06-13T17:27:03Z</time>
      </trkpt>
      <trkpt lat="44.351" lon="6.36328">
        <ele>1262.83</ele>
        <time>2016-06-13T17:27:04Z</time>
      </trkpt>
      <trkpt lat="44.35088" lon="6.36238">
        <ele>1261.87</ele>
        <time>2016-06-13T17:27:10Z</time>
      </trkpt>
      <trkpt lat="44.35105" lon="6.36165">
        <ele>1261.39</ele>
        <time>2016-06-13T17:27:16Z</time>
      </trkpt>
      <trkpt lat="44.35117" lon="6.36147">
        <ele>1260.43</ele>
        <time>2016-06-13T17:27:18Z</time>
      </trkpt>
      <trkpt lat="44.35128" lon="6.36102">
        <ele>1258.98</ele>
        <time>2016-06-13T17:27:23Z</time>
      </trkpt>
      <trkpt lat="44.35127" lon="6.36094">
        <ele>1259.46</ele>
        <time>2016-06-13T17:27:24Z</time>
      </trkpt>
      <trkpt lat="44.35109" lon="6.36001">
        <ele>1260.43</ele>
        <time>2016-06-13T17:27:33Z</time>
      </trkpt>
      <trkpt lat="44.35128" lon="6.35925">
        <ele>1260.91</ele>
        <time>2016-06-13T17:27:39Z</time>
      </trkpt>
      <trkpt lat="44.35141" lon="6.359">
        <ele>1261.87</ele>
        <time>2016-06-13T17:27:41Z</time>
      </trkpt>
      <trkpt lat="44.35218" lon="6.35757">
        <ele>1259.46</ele>
        <time>2016-06-13T17:27:53Z</time>
      </trkpt>
      <trkpt lat="44.35238" lon="6.35716">
        <ele>1258.02</ele>
        <time>2016-06-13T17:27:58Z</time>
      </trkpt>
      <trkpt lat="44.35243" lon="6.35674">
        <ele>1258.5</ele>
        <time>2016-06-13T17:28:06Z</time>
      </trkpt>
      <trkpt lat="44.35242" lon="6.35672">
        <ele>1258.5</ele>
        <time>2016-06-13T17:28:25Z</time>
      </trkpt>
      <trkpt lat="44.35226" lon="6.35644">
        <ele>1258.5</ele>
        <time>2016-06-13T17:29:02Z</time>
      </trkpt>
      <trkpt lat="44.35213" lon="6.35621">
        <ele>1258.02</ele>
        <time>2016-06-13T17:29:06Z</time>
      </trkpt>
      <trkpt lat="44.35194" lon="6.35606">
        <ele>1258.02</ele>
        <time>2016-06-13T17:29:10Z</time>
      </trkpt>
      <trkpt lat="44.35139" lon="6.35593">
        <ele>1259.94</ele>
        <time>2016-06-13T17:29:17Z</time>
      </trkpt>
      <trkpt lat="44.35105" lon="6.35591">
        <ele>1260.91</ele>
        <time>2016-06-13T17:29:21Z</time>
      </trkpt>
      <trkpt lat="44.35063" lon="6.35597">
        <ele>1258.98</ele>
        <time>2016-06-13T17:29:27Z</time>
      </trkpt>
      <trkpt lat="44.35038" lon="6.35557">
        <ele>1259.46</ele>
        <time>2016-06-13T17:29:34Z</time>
      </trkpt>
      <trkpt lat="44.35042" lon="6.35535">
        <ele>1258.98</ele>
        <time>2016-06-13T17:29:36Z</time>
      </trkpt>
      <trkpt lat="44.35065" lon="6.35429">
        <ele>1258.5</ele>
        <time>2016-06-13T17:29:45Z</time>
      </trkpt>
      <trkpt lat="44.35043" lon="6.35363">
        <ele>1258.5</ele>
        <time>2016-06-13T17:29:51Z</time>
      </trkpt>
      <trkpt lat="44.35034" lon="6.35355">
        <ele>1259.94</ele>
        <time>2016-06-13T17:29:52Z</time>
      </trkpt>
      <trkpt lat="44.35" lon="6.35328">
        <ele>1257.06</ele>
        <time>2016-06-13T17:29:56Z</time>
      </trkpt>
      <trkpt lat="44.34998" lon="6.35275">
        <ele>1255.14</ele>
        <time>2016-06-13T17:30:02Z</time>
      </trkpt>
      <trkpt lat="44.35037" lon="6.35255">
        <ele>1253.7</ele>
        <time>2016-06-13T17:30:05Z</time>
      </trkpt>
      <trkpt lat="44.35104" lon="6.35238">
        <ele>1251.77</ele>
        <time>2016-06-13T17:30:10Z</time>
      </trkpt>
      <trkpt lat="44.3513" lon="6.35232">
        <ele>1249.85</ele>
        <time>2016-06-13T17:30:12Z</time>
      </trkpt>
      <trkpt lat="44.35143" lon="6.35229">
        <ele>1249.85</ele>
        <time>2016-06-13T17:30:13Z</time>
      </trkpt>
      <trkpt lat="44.35176" lon="6.35204">
        <ele>1246.49</ele>
        <time>2016-06-13T17:30:16Z</time>
      </trkpt>
      <trkpt lat="44.35218" lon="6.35132">
        <ele>1242.16</ele>
        <time>2016-06-13T17:30:21Z</time>
      </trkpt>
      <trkpt lat="44.35248" lon="6.3506">
        <ele>1241.2</ele>
        <time>2016-06-13T17:30:26Z</time>
      </trkpt>
      <trkpt lat="44.35248" lon="6.35004">
        <ele>1239.76</ele>
        <time>2016-06-13T17:30:29Z</time>
      </trkpt>
      <trkpt lat="44.35291" lon="6.34943">
        <ele>1236.39</ele>
        <time>2016-06-13T17:30:34Z</time>
      </trkpt>
      <trkpt lat="44.3532" lon="6.34913">
        <ele>1232.55</ele>
        <time>2016-06-13T17:30:37Z</time>
      </trkpt>
      <trkpt lat="44.35322" lon="6.34895">
        <ele>1233.51</ele>
        <time>2016-06-13T17:30:38Z</time>
      </trkpt>
      <trkpt lat="44.35331" lon="6.34825">
        <ele>1231.59</ele>
        <time>2016-06-13T17:30:42Z</time>
      </trkpt>
      <trkpt lat="44.35342" lon="6.34813">
        <ele>1231.59</ele>
        <time>2016-06-13T17:30:43Z</time>
      </trkpt>
      <trkpt lat="44.35382" lon="6.34785">
        <ele>1229.66</ele>
        <time>2016-06-13T17:30:46Z</time>
      </trkpt>
      <trkpt lat="44.3544" lon="6.34753">
        <ele>1227.26</ele>
        <time>2016-06-13T17:30:50Z</time>
      </trkpt>
      <trkpt lat="44.35477" lon="6.34723">
        <ele>1224.86</ele>
        <time>2016-06-13T17:30:53Z</time>
      </trkpt>
      <trkpt lat="44.35494" lon="6.34687">
        <ele>1224.38</ele>
        <time>2016-06-13T17:30:55Z</time>
      </trkpt>
      <trkpt lat="44.35519" lon="6.34636">
        <ele>1222.45</ele>
        <time>2016-06-13T17:30:58Z</time>
      </trkpt>
      <trkpt lat="44.35515" lon="6.34579">
        <ele>1219.57</ele>
        <time>2016-06-13T17:31:01Z</time>
      </trkpt>
      <trkpt lat="44.35502" lon="6.34541">
        <ele>1220.05</ele>
        <time>2016-06-13T17:31:03Z</time>
      </trkpt>
      <trkpt lat="44.35486" lon="6.34416">
        <ele>1215.24</ele>
        <time>2016-06-13T17:31:09Z</time>
      </trkpt>
      <trkpt lat="44.35508" lon="6.34308">
        <ele>1214.28</ele>
        <time>2016-06-13T17:31:14Z</time>
      </trkpt>
      <trkpt lat="44.35537" lon="6.34247">
        <ele>1212.84</ele>
        <time>2016-06-13T17:31:17Z</time>
      </trkpt>
      <trkpt lat="44.35555" lon="6.34204">
        <ele>1209.96</ele>
        <time>2016-06-13T17:31:19Z</time>
      </trkpt>
      <trkpt lat="44.35572" lon="6.34106">
        <ele>1205.15</ele>
        <time>2016-06-13T17:31:23Z</time>
      </trkpt>
      <trkpt lat="44.35573" lon="6.34079">
        <ele>1205.15</ele>
        <time>2016-06-13T17:31:24Z</time>
      </trkpt>
      <trkpt lat="44.3558" lon="6.3397">
        <ele>1202.75</ele>
        <time>2016-06-13T17:31:28Z</time>
      </trkpt>
      <trkpt lat="44.35593" lon="6.33782">
        <ele>1199.38</ele>
        <time>2016-06-13T17:31:35Z</time>
      </trkpt>
      <trkpt lat="44.35636" lon="6.33659">
        <ele>1198.42</ele>
        <time>2016-06-13T17:31:40Z</time>
      </trkpt>
      <trkpt lat="44.35689" lon="6.33565">
        <ele>1193.61</ele>
        <time>2016-06-13T17:31:44Z</time>
      </trkpt>
      <trkpt lat="44.35732" lon="6.33453">
        <ele>1190.25</ele>
        <time>2016-06-13T17:31:48Z</time>
      </trkpt>
      <trkpt lat="44.35744" lon="6.33424">
        <ele>1190.25</ele>
        <time>2016-06-13T17:31:49Z</time>
      </trkpt>
      <trkpt lat="44.35782" lon="6.3334">
        <ele>1185.92</ele>
        <time>2016-06-13T17:31:52Z</time>
      </trkpt>
      <trkpt lat="44.35797" lon="6.33314">
        <ele>1186.4</ele>
        <time>2016-06-13T17:31:53Z</time>
      </trkpt>
      <trkpt lat="44.35827" lon="6.33263">
        <ele>1181.6</ele>
        <time>2016-06-13T17:31:55Z</time>
      </trkpt>
      <trkpt lat="44.35842" lon="6.33238">
        <ele>1182.08</ele>
        <time>2016-06-13T17:31:56Z</time>
      </trkpt>
      <trkpt lat="44.359" lon="6.33138">
        <ele>1179.19</ele>
        <time>2016-06-13T17:32:00Z</time>
      </trkpt>
      <trkpt lat="44.35914" lon="6.33115">
        <ele>1176.31</ele>
        <time>2016-06-13T17:32:01Z</time>
      </trkpt>
      <trkpt lat="44.35947" lon="6.33076">
        <ele>1175.83</ele>
        <time>2016-06-13T17:32:03Z</time>
      </trkpt>
      <trkpt lat="44.35988" lon="6.33056">
        <ele>1173.91</ele>
        <time>2016-06-13T17:32:05Z</time>
      </trkpt>
      <trkpt lat="44.36032" lon="6.33045">
        <ele>1172.47</ele>
        <time>2016-06-13T17:32:07Z</time>
      </trkpt>
      <trkpt lat="44.36105" lon="6.32985">
        <ele>1171.5</ele>
        <time>2016-06-13T17:32:11Z</time>
      </trkpt>
      <trkpt lat="44.36152" lon="6.32913">
        <ele>1169.1</ele>
        <time>2016-06-13T17:32:14Z</time>
      </trkpt>
      <trkpt lat="44.3623" lon="6.3279">
        <ele>1164.77</ele>
        <time>2016-06-13T17:32:19Z</time>
      </trkpt>
      <trkpt lat="44.36306" lon="6.32661">
        <ele>1161.41</ele>
        <time>2016-06-13T17:32:24Z</time>
      </trkpt>
      <trkpt lat="44.3634" lon="6.32614">
        <ele>1158.05</ele>
        <time>2016-06-13T17:32:26Z</time>
      </trkpt>
      <trkpt lat="44.36374" lon="6.32567">
        <ele>1157.08</ele>
        <time>2016-06-13T17:32:28Z</time>
      </trkpt>
      <trkpt lat="44.36416" lon="6.32488">
        <ele>1154.2</ele>
        <time>2016-06-13T17:32:31Z</time>
      </trkpt>
      <trkpt lat="44.36532" lon="6.32244">
        <ele>1149.87</ele>
        <time>2016-06-13T17:32:40Z</time>
      </trkpt>
      <trkpt lat="44.36576" lon="6.32171">
        <ele>1148.91</ele>
        <time>2016-06-13T17:32:43Z</time>
      </trkpt>
      <trkpt lat="44.36622" lon="6.32069">
        <ele>1144.11</ele>
        <time>2016-06-13T17:32:47Z</time>
      </trkpt>
      <trkpt lat="44.36658" lon="6.32003">
        <ele>1142.66</ele>
        <time>2016-06-13T17:32:50Z</time>
      </trkpt>
      <trkpt lat="44.36767" lon="6.31889">
        <ele>1142.66</ele>
        <time>2016-06-13T17:32:57Z</time>
      </trkpt>
      <trkpt lat="44.36801" lon="6.31858">
        <ele>1141.7</ele>
        <time>2016-06-13T17:32:59Z</time>
      </trkpt>
      <trkpt lat="44.3691" lon="6.3177">
        <ele>1142.66</ele>
        <time>2016-06-13T17:33:05Z</time>
      </trkpt>
      <trkpt lat="44.36946" lon="6.31702">
        <ele>1139.3</ele>
        <time>2016-06-13T17:33:08Z</time>
      </trkpt>
      <trkpt lat="44.36964" lon="6.31657">
        <ele>1138.82</ele>
        <time>2016-06-13T17:33:10Z</time>
      </trkpt>
      <trkpt lat="44.37038" lon="6.31537">
        <ele>1139.3</ele>
        <time>2016-06-13T17:33:16Z</time>
      </trkpt>
      <trkpt lat="44.37063" lon="6.31508">
        <ele>1138.34</ele>
        <time>2016-06-13T17:33:18Z</time>
      </trkpt>
      <trkpt lat="44.37114" lon="6.31521">
        <ele>1139.78</ele>
        <time>2016-06-13T17:33:22Z</time>
      </trkpt>
      <trkpt lat="44.37128" lon="6.31558">
        <ele>1141.22</ele>
        <time>2016-06-13T17:33:24Z</time>
      </trkpt>
      <trkpt lat="44.37152" lon="6.31654">
        <ele>1145.07</ele>
        <time>2016-06-13T17:33:28Z</time>
      </trkpt>
      <trkpt lat="44.37211" lon="6.31771">
        <ele>1151.32</ele>
        <time>2016-06-13T17:33:33Z</time>
      </trkpt>
      <trkpt lat="44.37237" lon="6.31818">
        <ele>1152.28</ele>
        <time>2016-06-13T17:33:35Z</time>
      </trkpt>
      <trkpt lat="44.37279" lon="6.31893">
        <ele>1152.76</ele>
        <time>2016-06-13T17:33:38Z</time>
      </trkpt>
      <trkpt lat="44.3735" lon="6.31979">
        <ele>1156.12</ele>
        <time>2016-06-13T17:33:42Z</time>
      </trkpt>
      <trkpt lat="44.37425" lon="6.3206">
        <ele>1160.45</ele>
        <time>2016-06-13T17:33:46Z</time>
      </trkpt>
      <trkpt lat="44.37443" lon="6.32081">
        <ele>1159.01</ele>
        <time>2016-06-13T17:33:47Z</time>
      </trkpt>
      <trkpt lat="44.37477" lon="6.32124">
        <ele>1157.56</ele>
        <time>2016-06-13T17:33:49Z</time>
      </trkpt>
      <trkpt lat="44.37572" lon="6.32343">
        <ele>1158.53</ele>
        <time>2016-06-13T17:33:57Z</time>
      </trkpt>
      <trkpt lat="44.37677" lon="6.32512">
        <ele>1160.45</ele>
        <time>2016-06-13T17:34:04Z</time>
      </trkpt>
      <trkpt lat="44.37772" lon="6.32646">
        <ele>1159.01</ele>
        <time>2016-06-13T17:34:10Z</time>
      </trkpt>
      <trkpt lat="44.37848" lon="6.32699">
        <ele>1162.85</ele>
        <time>2016-06-13T17:34:14Z</time>
      </trkpt>
      <trkpt lat="44.3787" lon="6.32704">
        <ele>1162.85</ele>
        <time>2016-06-13T17:34:15Z</time>
      </trkpt>
      <trkpt lat="44.37939" lon="6.32699">
        <ele>1164.77</ele>
        <time>2016-06-13T17:34:18Z</time>
      </trkpt>
      <trkpt lat="44.38031" lon="6.32674">
        <ele>1165.74</ele>
        <time>2016-06-13T17:34:22Z</time>
      </trkpt>
      <trkpt lat="44.38078" lon="6.32675">
        <ele>1167.18</ele>
        <time>2016-06-13T17:34:24Z</time>
      </trkpt>
      <trkpt lat="44.38147" lon="6.32693">
        <ele>1169.1</ele>
        <time>2016-06-13T17:34:27Z</time>
      </trkpt>
      <trkpt lat="44.3824" lon="6.32701">
        <ele>1174.87</ele>
        <time>2016-06-13T17:34:31Z</time>
      </trkpt>
      <trkpt lat="44.38263" lon="6.32699">
        <ele>1174.87</ele>
        <time>2016-06-13T17:34:32Z</time>
      </trkpt>
      <trkpt lat="44.38309" lon="6.32698">
        <ele>1177.27</ele>
        <time>2016-06-13T17:34:34Z</time>
      </trkpt>
      <trkpt lat="44.38376" lon="6.32714">
        <ele>1183.04</ele>
        <time>2016-06-13T17:34:37Z</time>
      </trkpt>
      <trkpt lat="44.38397" lon="6.32726">
        <ele>1182.56</ele>
        <time>2016-06-13T17:34:38Z</time>
      </trkpt>
      <trkpt lat="44.38457" lon="6.3277">
        <ele>1189.29</ele>
        <time>2016-06-13T17:34:41Z</time>
      </trkpt>
      <trkpt lat="44.38497" lon="6.32801">
        <ele>1192.65</ele>
        <time>2016-06-13T17:34:43Z</time>
      </trkpt>
      <trkpt lat="44.38534" lon="6.32835">
        <ele>1194.09</ele>
        <time>2016-06-13T17:34:45Z</time>
      </trkpt>
      <trkpt lat="44.38569" lon="6.3287">
        <ele>1195.06</ele>
        <time>2016-06-13T17:34:47Z</time>
      </trkpt>
      <trkpt lat="44.38673" lon="6.32898">
        <ele>1200.34</ele>
        <time>2016-06-13T17:34:52Z</time>
      </trkpt>
      <trkpt lat="44.38696" lon="6.32899">
        <ele>1202.27</ele>
        <time>2016-06-13T17:34:53Z</time>
      </trkpt>
      <trkpt lat="44.38763" lon="6.32887">
        <ele>1206.11</ele>
        <time>2016-06-13T17:34:56Z</time>
      </trkpt>
      <trkpt lat="44.3883" lon="6.32884">
        <ele>1209.48</ele>
        <time>2016-06-13T17:34:59Z</time>
      </trkpt>
      <trkpt lat="44.38874" lon="6.32897">
        <ele>1212.84</ele>
        <time>2016-06-13T17:35:01Z</time>
      </trkpt>
      <trkpt lat="44.38981" lon="6.32945">
        <ele>1215.24</ele>
        <time>2016-06-13T17:35:06Z</time>
      </trkpt>
      <trkpt lat="44.39044" lon="6.33044">
        <ele>1219.09</ele>
        <time>2016-06-13T17:35:11Z</time>
      </trkpt>
      <trkpt lat="44.39047" lon="6.33073">
        <ele>1221.49</ele>
        <time>2016-06-13T17:35:12Z</time>
      </trkpt>
      <trkpt lat="44.39052" lon="6.33131">
        <ele>1222.45</ele>
        <time>2016-06-13T17:35:14Z</time>
      </trkpt>
      <trkpt lat="44.3909" lon="6.33239">
        <ele>1227.26</ele>
        <time>2016-06-13T17:35:18Z</time>
      </trkpt>
      <trkpt lat="44.39134" lon="6.333">
        <ele>1229.66</ele>
        <time>2016-06-13T17:35:21Z</time>
      </trkpt>
      <trkpt lat="44.39172" lon="6.33321">
        <ele>1234.47</ele>
        <time>2016-06-13T17:35:23Z</time>
      </trkpt>
      <trkpt lat="44.39257" lon="6.3332">
        <ele>1238.8</ele>
        <time>2016-06-13T17:35:27Z</time>
      </trkpt>
      <trkpt lat="44.39344" lon="6.33285">
        <ele>1241.2</ele>
        <time>2016-06-13T17:35:31Z</time>
      </trkpt>
      <trkpt lat="44.39431" lon="6.33295">
        <ele>1242.64</ele>
        <time>2016-06-13T17:35:36Z</time>
      </trkpt>
      <trkpt lat="44.39444" lon="6.33316">
        <ele>1245.53</ele>
        <time>2016-06-13T17:35:37Z</time>
      </trkpt>
      <trkpt lat="44.39517" lon="6.33381">
        <ele>1249.37</ele>
        <time>2016-06-13T17:35:42Z</time>
      </trkpt>
      <trkpt lat="44.39571" lon="6.33412">
        <ele>1253.7</ele>
        <time>2016-06-13T17:35:45Z</time>
      </trkpt>
      <trkpt lat="44.39657" lon="6.33416">
        <ele>1259.46</ele>
        <time>2016-06-13T17:35:50Z</time>
      </trkpt>
      <trkpt lat="44.39731" lon="6.33409">
        <ele>1261.39</ele>
        <time>2016-06-13T17:35:54Z</time>
      </trkpt>
      <trkpt lat="44.39806" lon="6.33428">
        <ele>1268.6</ele>
        <time>2016-06-13T17:35:58Z</time>
      </trkpt>
      <trkpt lat="44.39849" lon="6.3343">
        <ele>1271.96</ele>
        <time>2016-06-13T17:36:00Z</time>
      </trkpt>
      <trkpt lat="44.39915" lon="6.33411">
        <ele>1276.77</ele>
        <time>2016-06-13T17:36:03Z</time>
      </trkpt>
      <trkpt lat="44.39961" lon="6.33395">
        <ele>1279.65</ele>
        <time>2016-06-13T17:36:05Z</time>
      </trkpt>
      <trkpt lat="44.40008" lon="6.33381">
        <ele>1283.5</ele>
        <time>2016-06-13T17:36:07Z</time>
      </trkpt>
      <trkpt lat="44.40056" lon="6.33365">
        <ele>1287.82</ele>
        <time>2016-06-13T17:36:09Z</time>
      </trkpt>
      <trkpt lat="44.40128" lon="6.33336">
        <ele>1291.67</ele>
        <time>2016-06-13T17:36:12Z</time>
      </trkpt>
      <trkpt lat="44.40152" lon="6.33326">
        <ele>1291.67</ele>
        <time>2016-06-13T17:36:13Z</time>
      </trkpt>
      <trkpt lat="44.40241" lon="6.33286">
        <ele>1294.55</ele>
        <time>2016-06-13T17:36:17Z</time>
      </trkpt>
      <trkpt lat="44.40308" lon="6.33218">
        <ele>1295.99</ele>
        <time>2016-06-13T17:36:21Z</time>
      </trkpt>
      <trkpt lat="44.40323" lon="6.33203">
        <ele>1296.48</ele>
        <time>2016-06-13T17:36:22Z</time>
      </trkpt>
      <trkpt lat="44.40367" lon="6.33184">
        <ele>1293.11</ele>
        <time>2016-06-13T17:36:25Z</time>
      </trkpt>
      <trkpt lat="44.40404" lon="6.33235">
        <ele>1294.55</ele>
        <time>2016-06-13T17:36:29Z</time>
      </trkpt>
      <trkpt lat="44.40391" lon="6.33319">
        <ele>1297.92</ele>
        <time>2016-06-13T17:36:33Z</time>
      </trkpt>
      <trkpt lat="44.40396" lon="6.33367">
        <ele>1301.28</ele>
        <time>2016-06-13T17:36:35Z</time>
      </trkpt>
      <trkpt lat="44.40437" lon="6.33424">
        <ele>1302.72</ele>
        <time>2016-06-13T17:36:39Z</time>
      </trkpt>
      <trkpt lat="44.40471" lon="6.33425">
        <ele>1304.65</ele>
        <time>2016-06-13T17:36:41Z</time>
      </trkpt>
      <trkpt lat="44.40554" lon="6.33413">
        <ele>1310.41</ele>
        <time>2016-06-13T17:36:45Z</time>
      </trkpt>
      <trkpt lat="44.40574" lon="6.33412">
        <ele>1308.97</ele>
        <time>2016-06-13T17:36:46Z</time>
      </trkpt>
      <trkpt lat="44.40593" lon="6.33412">
        <ele>1308.97</ele>
        <time>2016-06-13T17:36:47Z</time>
      </trkpt>
      <trkpt lat="44.40654" lon="6.33444">
        <ele>1309.45</ele>
        <time>2016-06-13T17:36:51Z</time>
      </trkpt>
      <trkpt lat="44.40714" lon="6.33516">
        <ele>1315.22</ele>
        <time>2016-06-13T17:36:55Z</time>
      </trkpt>
      <trkpt lat="44.4073" lon="6.33535">
        <ele>1315.7</ele>
        <time>2016-06-13T17:36:56Z</time>
      </trkpt>
      <trkpt lat="44.40789" lon="6.33623">
        <ele>1318.1</ele>
        <time>2016-06-13T17:37:00Z</time>
      </trkpt>
      <trkpt lat="44.40833" lon="6.33693">
        <ele>1319.55</ele>
        <time>2016-06-13T17:37:03Z</time>
      </trkpt>
      <trkpt lat="44.40901" lon="6.33751">
        <ele>1320.03</ele>
        <time>2016-06-13T17:37:07Z</time>
      </trkpt>
      <trkpt lat="44.40966" lon="6.33775">
        <ele>1324.83</ele>
        <time>2016-06-13T17:37:10Z</time>
      </trkpt>
      <trkpt lat="44.40988" lon="6.33783">
        <ele>1324.35</ele>
        <time>2016-06-13T17:37:11Z</time>
      </trkpt>
      <trkpt lat="44.41031" lon="6.33798">
        <ele>1324.35</ele>
        <time>2016-06-13T17:37:13Z</time>
      </trkpt>
      <trkpt lat="44.41117" lon="6.33793">
        <ele>1327.72</ele>
        <time>2016-06-13T17:37:17Z</time>
      </trkpt>
      <trkpt lat="44.41185" lon="6.33774">
        <ele>1330.12</ele>
        <time>2016-06-13T17:37:20Z</time>
      </trkpt>
      <trkpt lat="44.41265" lon="6.3375">
        <ele>1329.16</ele>
        <time>2016-06-13T17:37:24Z</time>
      </trkpt>
      <trkpt lat="44.41333" lon="6.33782">
        <ele>1327.24</ele>
        <time>2016-06-13T17:37:29Z</time>
      </trkpt>
      <trkpt lat="44.41327" lon="6.33843">
        <ele>1328.68</ele>
        <time>2016-06-13T17:37:32Z</time>
      </trkpt>
      <trkpt lat="44.41299" lon="6.33908">
        <ele>1333.97</ele>
        <time>2016-06-13T17:37:35Z</time>
      </trkpt>
      <trkpt lat="44.41274" lon="6.34014">
        <ele>1338.29</ele>
        <time>2016-06-13T17:37:39Z</time>
      </trkpt>
      <trkpt lat="44.41257" lon="6.34061">
        <ele>1339.25</ele>
        <time>2016-06-13T17:37:41Z</time>
      </trkpt>
      <trkpt lat="44.41234" lon="6.341">
        <ele>1342.62</ele>
        <time>2016-06-13T17:37:43Z</time>
      </trkpt>
      <trkpt lat="44.41226" lon="6.3412">
        <ele>1342.14</ele>
        <time>2016-06-13T17:37:44Z</time>
      </trkpt>
      <trkpt lat="44.41226" lon="6.34161">
        <ele>1342.14</ele>
        <time>2016-06-13T17:37:46Z</time>
      </trkpt>
      <trkpt lat="44.41233" lon="6.3425">
        <ele>1346.46</ele>
        <time>2016-06-13T17:37:50Z</time>
      </trkpt>
      <trkpt lat="44.41225" lon="6.34274">
        <ele>1348.87</ele>
        <time>2016-06-13T17:37:51Z</time>
      </trkpt>
      <trkpt lat="44.41196" lon="6.34351">
        <ele>1356.56</ele>
        <time>2016-06-13T17:37:54Z</time>
      </trkpt>
      <trkpt lat="44.41165" lon="6.34433">
        <ele>1358.48</ele>
        <time>2016-06-13T17:37:57Z</time>
      </trkpt>
      <trkpt lat="44.41149" lon="6.34489">
        <ele>1361.84</ele>
        <time>2016-06-13T17:37:59Z</time>
      </trkpt>
      <trkpt lat="44.41142" lon="6.34517">
        <ele>1361.84</ele>
        <time>2016-06-13T17:38:00Z</time>
      </trkpt>
      <trkpt lat="44.41127" lon="6.34595">
        <ele>1362.33</ele>
        <time>2016-06-13T17:38:03Z</time>
      </trkpt>
      <trkpt lat="44.41157" lon="6.34687">
        <ele>1365.21</ele>
        <time>2016-06-13T17:38:08Z</time>
      </trkpt>
      <trkpt lat="44.41173" lon="6.34695">
        <ele>1367.13</ele>
        <time>2016-06-13T17:38:09Z</time>
      </trkpt>
      <trkpt lat="44.41231" lon="6.34715">
        <ele>1374.82</ele>
        <time>2016-06-13T17:38:12Z</time>
      </trkpt>
      <trkpt lat="44.41294" lon="6.34731">
        <ele>1377.71</ele>
        <time>2016-06-13T17:38:15Z</time>
      </trkpt>
      <trkpt lat="44.41356" lon="6.3476">
        <ele>1381.07</ele>
        <time>2016-06-13T17:38:18Z</time>
      </trkpt>
      <trkpt lat="44.41413" lon="6.34803">
        <ele>1384.44</ele>
        <time>2016-06-13T17:38:21Z</time>
      </trkpt>
      <trkpt lat="44.41431" lon="6.34817">
        <ele>1384.92</ele>
        <time>2016-06-13T17:38:22Z</time>
      </trkpt>
      <trkpt lat="44.41449" lon="6.34831">
        <ele>1385.4</ele>
        <time>2016-06-13T17:38:23Z</time>
      </trkpt>
      <trkpt lat="44.41492" lon="6.34912">
        <ele>1386.84</ele>
        <time>2016-06-13T17:38:27Z</time>
      </trkpt>
      <trkpt lat="44.41488" lon="6.34961">
        <ele>1388.28</ele>
        <time>2016-06-13T17:38:29Z</time>
      </trkpt>
      <trkpt lat="44.415" lon="6.35077">
        <ele>1388.76</ele>
        <time>2016-06-13T17:38:36Z</time>
      </trkpt>
      <trkpt lat="44.41506" lon="6.35086">
        <ele>1389.72</ele>
        <time>2016-06-13T17:38:37Z</time>
      </trkpt>
      <trkpt lat="44.41547" lon="6.35137">
        <ele>1386.84</ele>
        <time>2016-06-13T17:38:46Z</time>
      </trkpt>
      <trkpt lat="44.41552" lon="6.35137">
        <ele>1387.32</ele>
        <time>2016-06-13T17:38:54Z</time>
      </trkpt>
      <trkpt lat="44.41554" lon="6.35138">
        <ele>1385.88</ele>
        <time>2016-06-13T17:39:47Z</time>
      </trkpt>
      <trkpt lat="44.41563" lon="6.35143">
        <ele>1386.84</ele>
        <time>2016-06-13T17:39:49Z</time>
      </trkpt>
      <trkpt lat="44.41584" lon="6.35164">
        <ele>1388.28</ele>
        <time>2016-06-13T17:39:52Z</time>
      </trkpt>
      <trkpt lat="44.41628" lon="6.35185">
        <ele>1389.24</ele>
        <time>2016-06-13T17:39:56Z</time>
      </trkpt>
      <trkpt lat="44.41686" lon="6.35187">
        <ele>1391.17</ele>
        <time>2016-06-13T17:40:00Z</time>
      </trkpt>
      <trkpt lat="44.41702" lon="6.35189">
        <ele>1392.61</ele>
        <time>2016-06-13T17:40:01Z</time>
      </trkpt>
      <trkpt lat="44.41841" lon="6.35259">
        <ele>1390.68</ele>
        <time>2016-06-13T17:40:09Z</time>
      </trkpt>
      <trkpt lat="44.41874" lon="6.3528">
        <ele>1390.68</ele>
        <time>2016-06-13T17:40:11Z</time>
      </trkpt>
      <trkpt lat="44.4193" lon="6.35345">
        <ele>1388.28</ele>
        <time>2016-06-13T17:40:15Z</time>
      </trkpt>
      <trkpt lat="44.41992" lon="6.35398">
        <ele>1383.96</ele>
        <time>2016-06-13T17:40:19Z</time>
      </trkpt>
      <trkpt lat="44.42059" lon="6.35418">
        <ele>1379.63</ele>
        <time>2016-06-13T17:40:23Z</time>
      </trkpt>
      <trkpt lat="44.42075" lon="6.35431">
        <ele>1379.15</ele>
        <time>2016-06-13T17:40:24Z</time>
      </trkpt>
      <trkpt lat="44.42161" lon="6.35485">
        <ele>1375.3</ele>
        <time>2016-06-13T17:40:29Z</time>
      </trkpt>
      <trkpt lat="44.42224" lon="6.35533">
        <ele>1371.46</ele>
        <time>2016-06-13T17:40:33Z</time>
      </trkpt>
      <trkpt lat="44.42256" lon="6.35554">
        <ele>1370.5</ele>
        <time>2016-06-13T17:40:35Z</time>
      </trkpt>
      <trkpt lat="44.42292" lon="6.35559">
        <ele>1367.61</ele>
        <time>2016-06-13T17:40:37Z</time>
      </trkpt>
      <trkpt lat="44.42346" lon="6.35584">
        <ele>1366.65</ele>
        <time>2016-06-13T17:40:40Z</time>
      </trkpt>
      <trkpt lat="44.42447" lon="6.35592">
        <ele>1361.84</ele>
        <time>2016-06-13T17:40:45Z</time>
      </trkpt>
      <trkpt lat="44.42533" lon="6.35592">
        <ele>1358</ele>
        <time>2016-06-13T17:40:49Z</time>
      </trkpt>
      <trkpt lat="44.42615" lon="6.356">
        <ele>1351.75</ele>
        <time>2016-06-13T17:40:53Z</time>
      </trkpt>
      <trkpt lat="44.42634" lon="6.35602">
        <ele>1351.27</ele>
        <time>2016-06-13T17:40:54Z</time>
      </trkpt>
      <trkpt lat="44.42671" lon="6.35613">
        <ele>1349.83</ele>
        <time>2016-06-13T17:40:56Z</time>
      </trkpt>
      <trkpt lat="44.42707" lon="6.35637">
        <ele>1348.87</ele>
        <time>2016-06-13T17:40:58Z</time>
      </trkpt>
      <trkpt lat="44.42835" lon="6.35679">
        <ele>1343.1</ele>
        <time>2016-06-13T17:41:04Z</time>
      </trkpt>
      <trkpt lat="44.42875" lon="6.35691">
        <ele>1339.73</ele>
        <time>2016-06-13T17:41:06Z</time>
      </trkpt>
      <trkpt lat="44.42952" lon="6.35747">
        <ele>1336.37</ele>
        <time>2016-06-13T17:41:10Z</time>
      </trkpt>
      <trkpt lat="44.43017" lon="6.35778">
        <ele>1333.01</ele>
        <time>2016-06-13T17:41:13Z</time>
      </trkpt>
      <trkpt lat="44.4306" lon="6.358">
        <ele>1330.12</ele>
        <time>2016-06-13T17:41:15Z</time>
      </trkpt>
      <trkpt lat="44.43146" lon="6.35827">
        <ele>1325.8</ele>
        <time>2016-06-13T17:41:19Z</time>
      </trkpt>
      <trkpt lat="44.43202" lon="6.35878">
        <ele>1322.43</ele>
        <time>2016-06-13T17:41:22Z</time>
      </trkpt>
      <trkpt lat="44.43248" lon="6.35941">
        <ele>1320.03</ele>
        <time>2016-06-13T17:41:25Z</time>
      </trkpt>
      <trkpt lat="44.43274" lon="6.35988">
        <ele>1318.1</ele>
        <time>2016-06-13T17:41:27Z</time>
      </trkpt>
      <trkpt lat="44.43285" lon="6.36013">
        <ele>1314.74</ele>
        <time>2016-06-13T17:41:28Z</time>
      </trkpt>
      <trkpt lat="44.43307" lon="6.36063">
        <ele>1313.78</ele>
        <time>2016-06-13T17:41:30Z</time>
      </trkpt>
      <trkpt lat="44.43317" lon="6.36086">
        <ele>1312.34</ele>
        <time>2016-06-13T17:41:31Z</time>
      </trkpt>
      <trkpt lat="44.43332" lon="6.36216">
        <ele>1308.49</ele>
        <time>2016-06-13T17:41:36Z</time>
      </trkpt>
      <trkpt lat="44.43357" lon="6.36289">
        <ele>1305.13</ele>
        <time>2016-06-13T17:41:39Z</time>
      </trkpt>
      <trkpt lat="44.4337" lon="6.36311">
        <ele>1305.13</ele>
        <time>2016-06-13T17:41:40Z</time>
      </trkpt>
      <trkpt lat="44.43399" lon="6.36353">
        <ele>1303.69</ele>
        <time>2016-06-13T17:41:42Z</time>
      </trkpt>
      <trkpt lat="44.43481" lon="6.36461">
        <ele>1299.84</ele>
        <time>2016-06-13T17:41:47Z</time>
      </trkpt>
      <trkpt lat="44.43497" lon="6.36482">
        <ele>1299.36</ele>
        <time>2016-06-13T17:41:48Z</time>
      </trkpt>
      <trkpt lat="44.43543" lon="6.36543">
        <ele>1295.03</ele>
        <time>2016-06-13T17:41:51Z</time>
      </trkpt>
      <trkpt lat="44.43558" lon="6.36563">
        <ele>1294.07</ele>
        <time>2016-06-13T17:41:52Z</time>
      </trkpt>
      <trkpt lat="44.43656" lon="6.36609">
        <ele>1289.27</ele>
        <time>2016-06-13T17:41:57Z</time>
      </trkpt>
      <trkpt lat="44.43743" lon="6.36603">
        <ele>1284.94</ele>
        <time>2016-06-13T17:42:01Z</time>
      </trkpt>
      <trkpt lat="44.43763" lon="6.36603">
        <ele>1282.06</ele>
        <time>2016-06-13T17:42:02Z</time>
      </trkpt>
      <trkpt lat="44.43822" lon="6.3662">
        <ele>1279.17</ele>
        <time>2016-06-13T17:42:05Z</time>
      </trkpt>
      <trkpt lat="44.43859" lon="6.36649">
        <ele>1278.21</ele>
        <time>2016-06-13T17:42:07Z</time>
      </trkpt>
      <trkpt lat="44.43901" lon="6.36715">
        <ele>1274.85</ele>
        <time>2016-06-13T17:42:10Z</time>
      </trkpt>
      <trkpt lat="44.43922" lon="6.36853">
        <ele>1269.08</ele>
        <time>2016-06-13T17:42:15Z</time>
      </trkpt>
      <trkpt lat="44.43921" lon="6.36901">
        <ele>1265.23</ele>
        <time>2016-06-13T17:42:17Z</time>
      </trkpt>
      <trkpt lat="44.43946" lon="6.36969">
        <ele>1258.5</ele>
        <time>2016-06-13T17:42:21Z</time>
      </trkpt>
      <trkpt lat="44.4396" lon="6.36974">
        <ele>1259.46</ele>
        <time>2016-06-13T17:42:22Z</time>
      </trkpt>
      <trkpt lat="44.44023" lon="6.3695">
        <ele>1257.06</ele>
        <time>2016-06-13T17:42:26Z</time>
      </trkpt>
      <trkpt lat="44.44076" lon="6.36934">
        <ele>1255.62</ele>
        <time>2016-06-13T17:42:29Z</time>
      </trkpt>
      <trkpt lat="44.44115" lon="6.3693">
        <ele>1254.18</ele>
        <time>2016-06-13T17:42:31Z</time>
      </trkpt>
      <trkpt lat="44.44215" lon="6.36905">
        <ele>1249.85</ele>
        <time>2016-06-13T17:42:36Z</time>
      </trkpt>
      <trkpt lat="44.44249" lon="6.36889">
        <ele>1246.49</ele>
        <time>2016-06-13T17:42:38Z</time>
      </trkpt>
      <trkpt lat="44.44282" lon="6.36872">
        <ele>1243.12</ele>
        <time>2016-06-13T17:42:40Z</time>
      </trkpt>
      <trkpt lat="44.44298" lon="6.36865">
        <ele>1243.12</ele>
        <time>2016-06-13T17:42:41Z</time>
      </trkpt>
      <trkpt lat="44.44363" lon="6.36875">
        <ele>1238.8</ele>
        <time>2016-06-13T17:42:45Z</time>
      </trkpt>
      <trkpt lat="44.44379" lon="6.36889">
        <ele>1238.32</ele>
        <time>2016-06-13T17:42:46Z</time>
      </trkpt>
      <trkpt lat="44.44435" lon="6.36948">
        <ele>1235.91</ele>
        <time>2016-06-13T17:42:50Z</time>
      </trkpt>
      <trkpt lat="44.44512" lon="6.37027">
        <ele>1233.03</ele>
        <time>2016-06-13T17:42:55Z</time>
      </trkpt>
      <trkpt lat="44.44584" lon="6.37059">
        <ele>1228.22</ele>
        <time>2016-06-13T17:42:59Z</time>
      </trkpt>
      <trkpt lat="44.44619" lon="6.37063">
        <ele>1224.86</ele>
        <time>2016-06-13T17:43:01Z</time>
      </trkpt>
      <trkpt lat="44.44664" lon="6.37083">
        <ele>1222.45</ele>
        <time>2016-06-13T17:43:04Z</time>
      </trkpt>
      <trkpt lat="44.44725" lon="6.37083">
        <ele>1219.09</ele>
        <time>2016-06-13T17:43:08Z</time>
      </trkpt>
      <trkpt lat="44.44741" lon="6.37084">
        <ele>1218.61</ele>
        <time>2016-06-13T17:43:09Z</time>
      </trkpt>
      <trkpt lat="44.44825" lon="6.37097">
        <ele>1213.32</ele>
        <time>2016-06-13T17:43:14Z</time>
      </trkpt>
      <trkpt lat="44.44888" lon="6.37106">
        <ele>1209.48</ele>
        <time>2016-06-13T17:43:18Z</time>
      </trkpt>
      <trkpt lat="44.44929" lon="6.37114">
        <ele>1207.07</ele>
        <time>2016-06-13T17:43:21Z</time>
      </trkpt>
      <trkpt lat="44.44964" lon="6.37124">
        <ele>1203.71</ele>
        <time>2016-06-13T17:43:24Z</time>
      </trkpt>
      <trkpt lat="44.4498" lon="6.37129">
        <ele>1200.34</ele>
        <time>2016-06-13T17:43:26Z</time>
      </trkpt>
      <trkpt lat="44.44987" lon="6.3713">
        <ele>1200.82</ele>
        <time>2016-06-13T17:43:27Z</time>
      </trkpt>
      <trkpt lat="44.45003" lon="6.37124">
        <ele>1197.94</ele>
        <time>2016-06-13T17:43:32Z</time>
      </trkpt>
      <trkpt lat="44.45004" lon="6.37121">
        <ele>1197.94</ele>
        <time>2016-06-13T17:43:45Z</time>
      </trkpt>
      <trkpt lat="44.44985" lon="6.37108">
        <ele>1198.9</ele>
        <time>2016-06-13T17:43:51Z</time>
      </trkpt>
      <trkpt lat="44.44973" lon="6.37113">
        <ele>1199.38</ele>
        <time>2016-06-13T17:43:56Z</time>
      </trkpt>
      <trkpt lat="44.44973" lon="6.3711">
        <ele>1198.9</ele>
        <time>2016-06-13T17:44:12Z</time>
      </trkpt>
      <trkpt lat="44.44972" lon="6.37108">
        <ele>1197.94</ele>
        <time>2016-06-13T17:54:22Z</time>
      </trkpt>
      <trkpt lat="44.44992" lon="6.37106">
        <ele>1197.94</ele>
        <time>2016-06-13T17:54:28Z</time>
      </trkpt>
      <trkpt lat="44.45026" lon="6.37132">
        <ele>1196.5</ele>
        <time>2016-06-13T17:54:42Z</time>
      </trkpt>
      <trkpt lat="44.45062" lon="6.37151">
        <ele>1196.98</ele>
        <time>2016-06-13T17:54:50Z</time>
      </trkpt>
      <trkpt lat="44.45161" lon="6.37187">
        <ele>1194.09</ele>
        <time>2016-06-13T17:54:58Z</time>
      </trkpt>
      <trkpt lat="44.45203" lon="6.37259">
        <ele>1189.77</ele>
        <time>2016-06-13T17:55:03Z</time>
      </trkpt>
      <trkpt lat="44.45216" lon="6.37361">
        <ele>1188.33</ele>
        <time>2016-06-13T17:55:08Z</time>
      </trkpt>
      <trkpt lat="44.45223" lon="6.3738">
        <ele>1186.88</ele>
        <time>2016-06-13T17:55:09Z</time>
      </trkpt>
      <trkpt lat="44.45225" lon="6.37434">
        <ele>1183.52</ele>
        <time>2016-06-13T17:55:12Z</time>
      </trkpt>
      <trkpt lat="44.45219" lon="6.37452">
        <ele>1183.52</ele>
        <time>2016-06-13T17:55:13Z</time>
      </trkpt>
      <trkpt lat="44.45211" lon="6.37469">
        <ele>1183.52</ele>
        <time>2016-06-13T17:55:14Z</time>
      </trkpt>
      <trkpt lat="44.45195" lon="6.37505">
        <ele>1183.52</ele>
        <time>2016-06-13T17:55:16Z</time>
      </trkpt>
      <trkpt lat="44.45128" lon="6.37569">
        <ele>1181.12</ele>
        <time>2016-06-13T17:55:21Z</time>
      </trkpt>
      <trkpt lat="44.45043" lon="6.37604">
        <ele>1177.27</ele>
        <time>2016-06-13T17:55:26Z</time>
      </trkpt>
      <trkpt lat="44.44974" lon="6.37641">
        <ele>1175.35</ele>
        <time>2016-06-13T17:55:30Z</time>
      </trkpt>
      <trkpt lat="44.449" lon="6.37671">
        <ele>1171.98</ele>
        <time>2016-06-13T17:55:34Z</time>
      </trkpt>
      <trkpt lat="44.44823" lon="6.37695">
        <ele>1169.1</ele>
        <time>2016-06-13T17:55:38Z</time>
      </trkpt>
      <trkpt lat="44.44765" lon="6.37711">
        <ele>1164.77</ele>
        <time>2016-06-13T17:55:41Z</time>
      </trkpt>
      <trkpt lat="44.44695" lon="6.3775">
        <ele>1160.93</ele>
        <time>2016-06-13T17:55:45Z</time>
      </trkpt>
      <trkpt lat="44.44679" lon="6.37765">
        <ele>1160.45</ele>
        <time>2016-06-13T17:55:46Z</time>
      </trkpt>
      <trkpt lat="44.44613" lon="6.37824">
        <ele>1157.56</ele>
        <time>2016-06-13T17:55:50Z</time>
      </trkpt>
      <trkpt lat="44.44595" lon="6.37835">
        <ele>1157.56</ele>
        <time>2016-06-13T17:55:51Z</time>
      </trkpt>
      <trkpt lat="44.44558" lon="6.37857">
        <ele>1155.64</ele>
        <time>2016-06-13T17:55:53Z</time>
      </trkpt>
      <trkpt lat="44.44505" lon="6.379">
        <ele>1152.28</ele>
        <time>2016-06-13T17:55:56Z</time>
      </trkpt>
      <trkpt lat="44.44457" lon="6.3796">
        <ele>1150.84</ele>
        <time>2016-06-13T17:55:59Z</time>
      </trkpt>
      <trkpt lat="44.44416" lon="6.3803">
        <ele>1147.47</ele>
        <time>2016-06-13T17:56:02Z</time>
      </trkpt>
      <trkpt lat="44.44377" lon="6.38095">
        <ele>1144.11</ele>
        <time>2016-06-13T17:56:05Z</time>
      </trkpt>
      <trkpt lat="44.44352" lon="6.38192">
        <ele>1137.86</ele>
        <time>2016-06-13T17:56:09Z</time>
      </trkpt>
      <trkpt lat="44.44355" lon="6.38219">
        <ele>1137.86</ele>
        <time>2016-06-13T17:56:10Z</time>
      </trkpt>
      <trkpt lat="44.44382" lon="6.38365">
        <ele>1134.97</ele>
        <time>2016-06-13T17:56:15Z</time>
      </trkpt>
      <trkpt lat="44.44398" lon="6.38453">
        <ele>1131.13</ele>
        <time>2016-06-13T17:56:18Z</time>
      </trkpt>
      <trkpt lat="44.44413" lon="6.38539">
        <ele>1127.76</ele>
        <time>2016-06-13T17:56:21Z</time>
      </trkpt>
      <trkpt lat="44.44428" lon="6.38624">
        <ele>1124.4</ele>
        <time>2016-06-13T17:56:24Z</time>
      </trkpt>
      <trkpt lat="44.44446" lon="6.38726">
        <ele>1119.59</ele>
        <time>2016-06-13T17:56:28Z</time>
      </trkpt>
      <trkpt lat="44.4445" lon="6.38748">
        <ele>1116.71</ele>
        <time>2016-06-13T17:56:29Z</time>
      </trkpt>
      <trkpt lat="44.44431" lon="6.38814">
        <ele>1111.42</ele>
        <time>2016-06-13T17:56:33Z</time>
      </trkpt>
      <trkpt lat="44.44417" lon="6.38821">
        <ele>1109.98</ele>
        <time>2016-06-13T17:56:34Z</time>
      </trkpt>
      <trkpt lat="44.44386" lon="6.38831">
        <ele>1109.5</ele>
        <time>2016-06-13T17:56:36Z</time>
      </trkpt>
      <trkpt lat="44.44333" lon="6.38881">
        <ele>1109.02</ele>
        <time>2016-06-13T17:56:40Z</time>
      </trkpt>
      <trkpt lat="44.4431" lon="6.38946">
        <ele>1102.29</ele>
        <time>2016-06-13T17:56:44Z</time>
      </trkpt>
      <trkpt lat="44.44316" lon="6.3896">
        <ele>1103.73</ele>
        <time>2016-06-13T17:56:45Z</time>
      </trkpt>
      <trkpt lat="44.44326" lon="6.38971">
        <ele>1101.81</ele>
        <time>2016-06-13T17:56:46Z</time>
      </trkpt>
      <trkpt lat="44.44356" lon="6.39022">
        <ele>1098.44</ele>
        <time>2016-06-13T17:56:50Z</time>
      </trkpt>
      <trkpt lat="44.44346" lon="6.39056">
        <ele>1097</ele>
        <time>2016-06-13T17:56:52Z</time>
      </trkpt>
      <trkpt lat="44.4433" lon="6.3909">
        <ele>1095.08</ele>
        <time>2016-06-13T17:56:54Z</time>
      </trkpt>
      <trkpt lat="44.44333" lon="6.39154">
        <ele>1090.75</ele>
        <time>2016-06-13T17:56:58Z</time>
      </trkpt>
      <trkpt lat="44.44357" lon="6.39163">
        <ele>1090.27</ele>
        <time>2016-06-13T17:57:00Z</time>
      </trkpt>
      <trkpt lat="44.44406" lon="6.39165">
        <ele>1089.31</ele>
        <time>2016-06-13T17:57:03Z</time>
      </trkpt>
      <trkpt lat="44.44479" lon="6.39194">
        <ele>1084.99</ele>
        <time>2016-06-13T17:57:07Z</time>
      </trkpt>
      <trkpt lat="44.44516" lon="6.39216">
        <ele>1083.06</ele>
        <time>2016-06-13T17:57:09Z</time>
      </trkpt>
      <trkpt lat="44.4457" lon="6.39249">
        <ele>1079.7</ele>
        <time>2016-06-13T17:57:12Z</time>
      </trkpt>
      <trkpt lat="44.446" lon="6.39268">
        <ele>1075.85</ele>
        <time>2016-06-13T17:57:14Z</time>
      </trkpt>
      <trkpt lat="44.44635" lon="6.39358">
        <ele>1071.53</ele>
        <time>2016-06-13T17:57:19Z</time>
      </trkpt>
      <trkpt lat="44.44629" lon="6.39382">
        <ele>1070.57</ele>
        <time>2016-06-13T17:57:20Z</time>
      </trkpt>
      <trkpt lat="44.44611" lon="6.39539">
        <ele>1066.24</ele>
        <time>2016-06-13T17:57:26Z</time>
      </trkpt>
      <trkpt lat="44.44612" lon="6.39565">
        <ele>1064.32</ele>
        <time>2016-06-13T17:57:27Z</time>
      </trkpt>
      <trkpt lat="44.44618" lon="6.39615">
        <ele>1063.36</ele>
        <time>2016-06-13T17:57:29Z</time>
      </trkpt>
      <trkpt lat="44.44634" lon="6.3966">
        <ele>1060.95</ele>
        <time>2016-06-13T17:57:31Z</time>
      </trkpt>
      <trkpt lat="44.44657" lon="6.39813">
        <ele>1055.18</ele>
        <time>2016-06-13T17:57:37Z</time>
      </trkpt>
      <trkpt lat="44.44662" lon="6.39864">
        <ele>1052.78</ele>
        <time>2016-06-13T17:57:39Z</time>
      </trkpt>
      <trkpt lat="44.44691" lon="6.39959">
        <ele>1049.42</ele>
        <time>2016-06-13T17:57:43Z</time>
      </trkpt>
      <trkpt lat="44.44699" lon="6.39981">
        <ele>1047.97</ele>
        <time>2016-06-13T17:57:44Z</time>
      </trkpt>
      <trkpt lat="44.44712" lon="6.40053">
        <ele>1044.13</ele>
        <time>2016-06-13T17:57:47Z</time>
      </trkpt>
      <trkpt lat="44.44709" lon="6.40106">
        <ele>1041.73</ele>
        <time>2016-06-13T17:57:49Z</time>
      </trkpt>
      <trkpt lat="44.44685" lon="6.40205">
        <ele>1037.4</ele>
        <time>2016-06-13T17:57:53Z</time>
      </trkpt>
      <trkpt lat="44.44654" lon="6.40277">
        <ele>1035.96</ele>
        <time>2016-06-13T17:57:56Z</time>
      </trkpt>
      <trkpt lat="44.44645" lon="6.40303">
        <ele>1036.44</ele>
        <time>2016-06-13T17:57:57Z</time>
      </trkpt>
      <trkpt lat="44.44625" lon="6.40383">
        <ele>1032.59</ele>
        <time>2016-06-13T17:58:00Z</time>
      </trkpt>
      <trkpt lat="44.44615" lon="6.40437">
        <ele>1029.23</ele>
        <time>2016-06-13T17:58:02Z</time>
      </trkpt>
      <trkpt lat="44.44613" lon="6.40464">
        <ele>1028.75</ele>
        <time>2016-06-13T17:58:03Z</time>
      </trkpt>
      <trkpt lat="44.44609" lon="6.40518">
        <ele>1025.86</ele>
        <time>2016-06-13T17:58:05Z</time>
      </trkpt>
      <trkpt lat="44.44604" lon="6.40545">
        <ele>1023.94</ele>
        <time>2016-06-13T17:58:06Z</time>
      </trkpt>
      <trkpt lat="44.44598" lon="6.4057">
        <ele>1022.5</ele>
        <time>2016-06-13T17:58:07Z</time>
      </trkpt>
      <trkpt lat="44.44565" lon="6.40699">
        <ele>1018.65</ele>
        <time>2016-06-13T17:58:12Z</time>
      </trkpt>
      <trkpt lat="44.44562" lon="6.40727">
        <ele>1018.17</ele>
        <time>2016-06-13T17:58:13Z</time>
      </trkpt>
      <trkpt lat="44.44556" lon="6.40817">
        <ele>1013.37</ele>
        <time>2016-06-13T17:58:16Z</time>
      </trkpt>
      <trkpt lat="44.44549" lon="6.40877">
        <ele>1012.41</ele>
        <time>2016-06-13T17:58:18Z</time>
      </trkpt>
      <trkpt lat="44.44531" lon="6.41009">
        <ele>1008.56</ele>
        <time>2016-06-13T17:58:23Z</time>
      </trkpt>
      <trkpt lat="44.44526" lon="6.41031">
        <ele>1008.08</ele>
        <time>2016-06-13T17:58:24Z</time>
      </trkpt>
      <trkpt lat="44.44518" lon="6.41051">
        <ele>1008.08</ele>
        <time>2016-06-13T17:58:25Z</time>
      </trkpt>
      <trkpt lat="44.44506" lon="6.41067">
        <ele>1008.56</ele>
        <time>2016-06-13T17:58:26Z</time>
      </trkpt>
      <trkpt lat="44.4449" lon="6.41081">
        <ele>1009.52</ele>
        <time>2016-06-13T17:58:27Z</time>
      </trkpt>
      <trkpt lat="44.44473" lon="6.41095">
        <ele>1009.04</ele>
        <time>2016-06-13T17:58:28Z</time>
      </trkpt>
      <trkpt lat="44.44418" lon="6.41141">
        <ele>1010.96</ele>
        <time>2016-06-13T17:58:31Z</time>
      </trkpt>
      <trkpt lat="44.44358" lon="6.41182">
        <ele>1009.52</ele>
        <time>2016-06-13T17:58:34Z</time>
      </trkpt>
      <trkpt lat="44.44338" lon="6.41199">
        <ele>1007.12</ele>
        <time>2016-06-13T17:58:35Z</time>
      </trkpt>
      <trkpt lat="44.4432" lon="6.41219">
        <ele>1007.6</ele>
        <time>2016-06-13T17:58:36Z</time>
      </trkpt>
      <trkpt lat="44.44281" lon="6.41255">
        <ele>1004.23</ele>
        <time>2016-06-13T17:58:38Z</time>
      </trkpt>
      <trkpt lat="44.44164" lon="6.41362">
        <ele>1000.39</ele>
        <time>2016-06-13T17:58:44Z</time>
      </trkpt>
      <trkpt lat="44.44111" lon="6.41429">
        <ele>997.02</ele>
        <time>2016-06-13T17:58:47Z</time>
      </trkpt>
      <trkpt lat="44.44092" lon="6.41448">
        <ele>996.54</ele>
        <time>2016-06-13T17:58:48Z</time>
      </trkpt>
      <trkpt lat="44.43979" lon="6.4156">
        <ele>992.7</ele>
        <time>2016-06-13T17:58:54Z</time>
      </trkpt>
      <trkpt lat="44.43943" lon="6.41596">
        <ele>988.85</ele>
        <time>2016-06-13T17:58:56Z</time>
      </trkpt>
      <trkpt lat="44.43909" lon="6.41628">
        <ele>985.49</ele>
        <time>2016-06-13T17:58:58Z</time>
      </trkpt>
      <trkpt lat="44.43865" lon="6.41672">
        <ele>981.64</ele>
        <time>2016-06-13T17:59:01Z</time>
      </trkpt>
      <trkpt lat="44.43832" lon="6.41711">
        <ele>977.8</ele>
        <time>2016-06-13T17:59:04Z</time>
      </trkpt>
      <trkpt lat="44.43814" lon="6.41731">
        <ele>975.39</ele>
        <time>2016-06-13T17:59:06Z</time>
      </trkpt>
      <trkpt lat="44.43805" lon="6.41737">
        <ele>974.91</ele>
        <time>2016-06-13T17:59:07Z</time>
      </trkpt>
      <trkpt lat="44.43798" lon="6.41741">
        <ele>974.43</ele>
        <time>2016-06-13T17:59:08Z</time>
      </trkpt>
      <trkpt lat="44.43793" lon="6.41745">
        <ele>974.43</ele>
        <time>2016-06-13T17:59:09Z</time>
      </trkpt>
      <trkpt lat="44.43791" lon="6.41749">
        <ele>973.95</ele>
        <time>2016-06-13T17:59:10Z</time>
      </trkpt>
      <trkpt lat="44.43791" lon="6.41752">
        <ele>972.99</ele>
        <time>2016-06-13T17:59:11Z</time>
      </trkpt>
      <trkpt lat="44.43792" lon="6.41754">
        <ele>972.99</ele>
        <time>2016-06-13T17:59:12Z</time>
      </trkpt>
      <trkpt lat="44.43793" lon="6.41755">
        <ele>972.51</ele>
        <time>2016-06-13T17:59:28Z</time>
      </trkpt>
      <trkpt lat="44.43793" lon="6.41755">
        <ele>973.47</ele>
        <time>2016-06-13T17:59:58Z</time>
      </trkpt>
      <trkpt lat="44.43805" lon="6.41765">
        <ele>973.95</ele>
        <time>2016-06-13T18:00:01Z</time>
      </trkpt>
      <trkpt lat="44.43811" lon="6.41764">
        <ele>973.47</ele>
        <time>2016-06-13T18:00:02Z</time>
      </trkpt>
      <trkpt lat="44.43816" lon="6.41759">
        <ele>973.47</ele>
        <time>2016-06-13T18:00:03Z</time>
      </trkpt>
      <trkpt lat="44.43822" lon="6.4175">
        <ele>974.43</ele>
        <time>2016-06-13T18:00:04Z</time>
      </trkpt>
      <trkpt lat="44.43828" lon="6.41739">
        <ele>973.95</ele>
        <time>2016-06-13T18:00:05Z</time>
      </trkpt>
      <trkpt lat="44.43861" lon="6.41688">
        <ele>977.32</ele>
        <time>2016-06-13T18:00:09Z</time>
      </trkpt>
      <trkpt lat="44.43872" lon="6.41676">
        <ele>977.32</ele>
        <time>2016-06-13T18:00:10Z</time>
      </trkpt>
      <trkpt lat="44.43885" lon="6.41665">
        <ele>976.36</ele>
        <time>2016-06-13T18:00:11Z</time>
      </trkpt>
      <trkpt lat="44.43898" lon="6.41654">
        <ele>978.28</ele>
        <time>2016-06-13T18:00:12Z</time>
      </trkpt>
      <trkpt lat="44.43912" lon="6.41644">
        <ele>978.28</ele>
        <time>2016-06-13T18:00:13Z</time>
      </trkpt>
      <trkpt lat="44.43928" lon="6.41635">
        <ele>978.28</ele>
        <time>2016-06-13T18:00:14Z</time>
      </trkpt>
      <trkpt lat="44.4396" lon="6.41613">
        <ele>978.76</ele>
        <time>2016-06-13T18:00:16Z</time>
      </trkpt>
      <trkpt lat="44.44032" lon="6.41537">
        <ele>977.8</ele>
        <time>2016-06-13T18:00:21Z</time>
      </trkpt>
      <trkpt lat="44.44042" lon="6.41519">
        <ele>976.84</ele>
        <time>2016-06-13T18:00:22Z</time>
      </trkpt>
      <trkpt lat="44.44053" lon="6.41502">
        <ele>975.88</ele>
        <time>2016-06-13T18:00:23Z</time>
      </trkpt>
      <trkpt lat="44.44065" lon="6.41488">
        <ele>975.88</ele>
        <time>2016-06-13T18:00:24Z</time>
      </trkpt>
      <trkpt lat="44.44078" lon="6.41475">
        <ele>975.39</ele>
        <time>2016-06-13T18:00:25Z</time>
      </trkpt>
      <trkpt lat="44.44092" lon="6.41464">
        <ele>975.39</ele>
        <time>2016-06-13T18:00:26Z</time>
      </trkpt>
      <trkpt lat="44.44108" lon="6.41455">
        <ele>975.88</ele>
        <time>2016-06-13T18:00:27Z</time>
      </trkpt>
      <trkpt lat="44.44123" lon="6.41445">
        <ele>975.88</ele>
        <time>2016-06-13T18:00:28Z</time>
      </trkpt>
      <trkpt lat="44.44138" lon="6.41432">
        <ele>974.91</ele>
        <time>2016-06-13T18:00:29Z</time>
      </trkpt>
      <trkpt lat="44.44152" lon="6.41416">
        <ele>975.88</ele>
        <time>2016-06-13T18:00:30Z</time>
      </trkpt>
      <trkpt lat="44.44198" lon="6.41372">
        <ele>974.91</ele>
        <time>2016-06-13T18:00:33Z</time>
      </trkpt>
      <trkpt lat="44.44354" lon="6.41256">
        <ele>973.47</ele>
        <time>2016-06-13T18:00:42Z</time>
      </trkpt>
      <trkpt lat="44.44479" lon="6.41171">
        <ele>972.03</ele>
        <time>2016-06-13T18:00:49Z</time>
      </trkpt>
      <trkpt lat="44.44557" lon="6.41105">
        <ele>971.55</ele>
        <time>2016-06-13T18:00:54Z</time>
      </trkpt>
      <trkpt lat="44.44569" lon="6.41086">
        <ele>970.59</ele>
        <time>2016-06-13T18:00:55Z</time>
      </trkpt>
      <trkpt lat="44.44578" lon="6.41065">
        <ele>970.11</ele>
        <time>2016-06-13T18:00:56Z</time>
      </trkpt>
      <trkpt lat="44.44585" lon="6.41041">
        <ele>969.15</ele>
        <time>2016-06-13T18:00:57Z</time>
      </trkpt>
      <trkpt lat="44.44591" lon="6.41016">
        <ele>969.15</ele>
        <time>2016-06-13T18:00:58Z</time>
      </trkpt>
      <trkpt lat="44.44596" lon="6.4099">
        <ele>968.18</ele>
        <time>2016-06-13T18:00:59Z</time>
      </trkpt>
      <trkpt lat="44.446" lon="6.40965">
        <ele>967.22</ele>
        <time>2016-06-13T18:01:00Z</time>
      </trkpt>
      <trkpt lat="44.44605" lon="6.40916">
        <ele>963.38</ele>
        <time>2016-06-13T18:01:02Z</time>
      </trkpt>
      <trkpt lat="44.44612" lon="6.40895">
        <ele>962.42</ele>
        <time>2016-06-13T18:01:03Z</time>
      </trkpt>
      <trkpt lat="44.44626" lon="6.40853">
        <ele>960.49</ele>
        <time>2016-06-13T18:01:05Z</time>
      </trkpt>
      <trkpt lat="44.44629" lon="6.4083">
        <ele>959.05</ele>
        <time>2016-06-13T18:01:06Z</time>
      </trkpt>
      <trkpt lat="44.4463" lon="6.40805">
        <ele>958.57</ele>
        <time>2016-06-13T18:01:07Z</time>
      </trkpt>
      <trkpt lat="44.44633" lon="6.4078">
        <ele>957.61</ele>
        <time>2016-06-13T18:01:08Z</time>
      </trkpt>
      <trkpt lat="44.44646" lon="6.40731">
        <ele>955.69</ele>
        <time>2016-06-13T18:01:10Z</time>
      </trkpt>
      <trkpt lat="44.44666" lon="6.40685">
        <ele>953.77</ele>
        <time>2016-06-13T18:01:12Z</time>
      </trkpt>
      <trkpt lat="44.4468" lon="6.40664">
        <ele>953.77</ele>
        <time>2016-06-13T18:01:13Z</time>
      </trkpt>
      <trkpt lat="44.44722" lon="6.40609">
        <ele>950.4</ele>
        <time>2016-06-13T18:01:16Z</time>
      </trkpt>
      <trkpt lat="44.44756" lon="6.40555">
        <ele>948</ele>
        <time>2016-06-13T18:01:19Z</time>
      </trkpt>
      <trkpt lat="44.44765" lon="6.40535">
        <ele>948.96</ele>
        <time>2016-06-13T18:01:20Z</time>
      </trkpt>
      <trkpt lat="44.44771" lon="6.40512">
        <ele>948.96</ele>
        <time>2016-06-13T18:01:21Z</time>
      </trkpt>
      <trkpt lat="44.44775" lon="6.40488">
        <ele>948</ele>
        <time>2016-06-13T18:01:22Z</time>
      </trkpt>
      <trkpt lat="44.44777" lon="6.40462">
        <ele>947.04</ele>
        <time>2016-06-13T18:01:23Z</time>
      </trkpt>
      <trkpt lat="44.44785" lon="6.40384">
        <ele>942.23</ele>
        <time>2016-06-13T18:01:26Z</time>
      </trkpt>
      <trkpt lat="44.44789" lon="6.40359">
        <ele>941.75</ele>
        <time>2016-06-13T18:01:27Z</time>
      </trkpt>
      <trkpt lat="44.44802" lon="6.40311">
        <ele>939.83</ele>
        <time>2016-06-13T18:01:29Z</time>
      </trkpt>
      <trkpt lat="44.44813" lon="6.40291">
        <ele>939.35</ele>
        <time>2016-06-13T18:01:30Z</time>
      </trkpt>
      <trkpt lat="44.44828" lon="6.40273">
        <ele>939.35</ele>
        <time>2016-06-13T18:01:31Z</time>
      </trkpt>
      <trkpt lat="44.44862" lon="6.40243">
        <ele>937.42</ele>
        <time>2016-06-13T18:01:33Z</time>
      </trkpt>
      <trkpt lat="44.44875" lon="6.40225">
        <ele>937.42</ele>
        <time>2016-06-13T18:01:34Z</time>
      </trkpt>
      <trkpt lat="44.44885" lon="6.40205">
        <ele>935.98</ele>
        <time>2016-06-13T18:01:35Z</time>
      </trkpt>
      <trkpt lat="44.44893" lon="6.40183">
        <ele>935.98</ele>
        <time>2016-06-13T18:01:36Z</time>
      </trkpt>
      <trkpt lat="44.44894" lon="6.40158">
        <ele>934.54</ele>
        <time>2016-06-13T18:01:37Z</time>
      </trkpt>
      <trkpt lat="44.44893" lon="6.40131">
        <ele>933.58</ele>
        <time>2016-06-13T18:01:38Z</time>
      </trkpt>
      <trkpt lat="44.44891" lon="6.40103">
        <ele>933.1</ele>
        <time>2016-06-13T18:01:39Z</time>
      </trkpt>
      <trkpt lat="44.44875" lon="6.39993">
        <ele>930.69</ele>
        <time>2016-06-13T18:01:43Z</time>
      </trkpt>
      <trkpt lat="44.44867" lon="6.39967">
        <ele>930.21</ele>
        <time>2016-06-13T18:01:44Z</time>
      </trkpt>
      <trkpt lat="44.44853" lon="6.39919">
        <ele>926.85</ele>
        <time>2016-06-13T18:01:46Z</time>
      </trkpt>
      <trkpt lat="44.44837" lon="6.39846">
        <ele>923.48</ele>
        <time>2016-06-13T18:01:49Z</time>
      </trkpt>
      <trkpt lat="44.44837" lon="6.3982">
        <ele>922.52</ele>
        <time>2016-06-13T18:01:50Z</time>
      </trkpt>
      <trkpt lat="44.44838" lon="6.39794">
        <ele>920.6</ele>
        <time>2016-06-13T18:01:51Z</time>
      </trkpt>
      <trkpt lat="44.44841" lon="6.39768">
        <ele>920.6</ele>
        <time>2016-06-13T18:01:52Z</time>
      </trkpt>
      <trkpt lat="44.44848" lon="6.39742">
        <ele>919.64</ele>
        <time>2016-06-13T18:01:53Z</time>
      </trkpt>
      <trkpt lat="44.44858" lon="6.39719">
        <ele>918.2</ele>
        <time>2016-06-13T18:01:54Z</time>
      </trkpt>
      <trkpt lat="44.4487" lon="6.39697">
        <ele>917.24</ele>
        <time>2016-06-13T18:01:55Z</time>
      </trkpt>
      <trkpt lat="44.44882" lon="6.39677">
        <ele>915.79</ele>
        <time>2016-06-13T18:01:56Z</time>
      </trkpt>
      <trkpt lat="44.44913" lon="6.3961">
        <ele>913.87</ele>
        <time>2016-06-13T18:01:59Z</time>
      </trkpt>
      <trkpt lat="44.4492" lon="6.39587">
        <ele>912.43</ele>
        <time>2016-06-13T18:02:00Z</time>
      </trkpt>
      <trkpt lat="44.4493" lon="6.39543">
        <ele>908.58</ele>
        <time>2016-06-13T18:02:02Z</time>
      </trkpt>
      <trkpt lat="44.44935" lon="6.39524">
        <ele>907.62</ele>
        <time>2016-06-13T18:02:03Z</time>
      </trkpt>
      <trkpt lat="44.44941" lon="6.39491">
        <ele>904.74</ele>
        <time>2016-06-13T18:02:05Z</time>
      </trkpt>
      <trkpt lat="44.44934" lon="6.39448">
        <ele>903.3</ele>
        <time>2016-06-13T18:02:08Z</time>
      </trkpt>
      <trkpt lat="44.4493" lon="6.39381">
        <ele>901.37</ele>
        <time>2016-06-13T18:02:12Z</time>
      </trkpt>
      <trkpt lat="44.44967" lon="6.39332">
        <ele>897.53</ele>
        <time>2016-06-13T18:02:16Z</time>
      </trkpt>
      <trkpt lat="44.44977" lon="6.39328">
        <ele>896.09</ele>
        <time>2016-06-13T18:02:17Z</time>
      </trkpt>
      <trkpt lat="44.45017" lon="6.39269">
        <ele>893.2</ele>
        <time>2016-06-13T18:02:23Z</time>
      </trkpt>
      <trkpt lat="44.45017" lon="6.39207">
        <ele>889.84</ele>
        <time>2016-06-13T18:02:27Z</time>
      </trkpt>
      <trkpt lat="44.45022" lon="6.39193">
        <ele>888.88</ele>
        <time>2016-06-13T18:02:28Z</time>
      </trkpt>
      <trkpt lat="44.45028" lon="6.39179">
        <ele>888.88</ele>
        <time>2016-06-13T18:02:29Z</time>
      </trkpt>
      <trkpt lat="44.45099" lon="6.39155">
        <ele>885.99</ele>
        <time>2016-06-13T18:02:34Z</time>
      </trkpt>
      <trkpt lat="44.45162" lon="6.39097">
        <ele>882.63</ele>
        <time>2016-06-13T18:02:39Z</time>
      </trkpt>
      <trkpt lat="44.45206" lon="6.39047">
        <ele>879.74</ele>
        <time>2016-06-13T18:02:43Z</time>
      </trkpt>
      <trkpt lat="44.45223" lon="6.39021">
        <ele>878.3</ele>
        <time>2016-06-13T18:02:45Z</time>
      </trkpt>
      <trkpt lat="44.45242" lon="6.3896">
        <ele>875.42</ele>
        <time>2016-06-13T18:02:49Z</time>
      </trkpt>
      <trkpt lat="44.45238" lon="6.38941">
        <ele>875.42</ele>
        <time>2016-06-13T18:02:50Z</time>
      </trkpt>
      <trkpt lat="44.45224" lon="6.38897">
        <ele>876.86</ele>
        <time>2016-06-13T18:02:52Z</time>
      </trkpt>
      <trkpt lat="44.45211" lon="6.38807">
        <ele>872.53</ele>
        <time>2016-06-13T18:02:56Z</time>
      </trkpt>
      <trkpt lat="44.45213" lon="6.38784">
        <ele>872.05</ele>
        <time>2016-06-13T18:02:57Z</time>
      </trkpt>
      <trkpt lat="44.45223" lon="6.38721">
        <ele>868.69</ele>
        <time>2016-06-13T18:03:00Z</time>
      </trkpt>
      <trkpt lat="44.45237" lon="6.38673">
        <ele>864.36</ele>
        <time>2016-06-13T18:03:03Z</time>
      </trkpt>
      <trkpt lat="44.45257" lon="6.38643">
        <ele>862.92</ele>
        <time>2016-06-13T18:03:06Z</time>
      </trkpt>
      <trkpt lat="44.45295" lon="6.38643">
        <ele>867.25</ele>
        <time>2016-06-13T18:03:09Z</time>
      </trkpt>
      <trkpt lat="44.45382" lon="6.3867">
        <ele>872.05</ele>
        <time>2016-06-13T18:03:14Z</time>
      </trkpt>
      <trkpt lat="44.45419" lon="6.3868">
        <ele>873.01</ele>
        <time>2016-06-13T18:03:16Z</time>
      </trkpt>
      <trkpt lat="44.45457" lon="6.38691">
        <ele>874.46</ele>
        <time>2016-06-13T18:03:18Z</time>
      </trkpt>
      <trkpt lat="44.45512" lon="6.38694">
        <ele>876.38</ele>
        <time>2016-06-13T18:03:21Z</time>
      </trkpt>
      <trkpt lat="44.45547" lon="6.38679">
        <ele>879.26</ele>
        <time>2016-06-13T18:03:23Z</time>
      </trkpt>
      <trkpt lat="44.45564" lon="6.38667">
        <ele>881.19</ele>
        <time>2016-06-13T18:03:24Z</time>
      </trkpt>
      <trkpt lat="44.45614" lon="6.38628">
        <ele>882.63</ele>
        <time>2016-06-13T18:03:27Z</time>
      </trkpt>
      <trkpt lat="44.45644" lon="6.38599">
        <ele>883.59</ele>
        <time>2016-06-13T18:03:29Z</time>
      </trkpt>
      <trkpt lat="44.45708" lon="6.38461">
        <ele>882.63</ele>
        <time>2016-06-13T18:03:35Z</time>
      </trkpt>
      <trkpt lat="44.45717" lon="6.38405">
        <ele>883.11</ele>
        <time>2016-06-13T18:03:37Z</time>
      </trkpt>
      <trkpt lat="44.45726" lon="6.38295">
        <ele>878.78</ele>
        <time>2016-06-13T18:03:41Z</time>
      </trkpt>
      <trkpt lat="44.45731" lon="6.38222">
        <ele>876.86</ele>
        <time>2016-06-13T18:03:44Z</time>
      </trkpt>
      <trkpt lat="44.4574" lon="6.38177">
        <ele>875.9</ele>
        <time>2016-06-13T18:03:46Z</time>
      </trkpt>
      <trkpt lat="44.45759" lon="6.38135">
        <ele>877.82</ele>
        <time>2016-06-13T18:03:48Z</time>
      </trkpt>
      <trkpt lat="44.45792" lon="6.3807">
        <ele>883.11</ele>
        <time>2016-06-13T18:03:51Z</time>
      </trkpt>
      <trkpt lat="44.45825" lon="6.38003">
        <ele>884.55</ele>
        <time>2016-06-13T18:03:54Z</time>
      </trkpt>
      <trkpt lat="44.45858" lon="6.37937">
        <ele>885.99</ele>
        <time>2016-06-13T18:03:57Z</time>
      </trkpt>
      <trkpt lat="44.45913" lon="6.37826">
        <ele>883.59</ele>
        <time>2016-06-13T18:04:02Z</time>
      </trkpt>
      <trkpt lat="44.45935" lon="6.37782">
        <ele>880.71</ele>
        <time>2016-06-13T18:04:04Z</time>
      </trkpt>
      <trkpt lat="44.45945" lon="6.37754">
        <ele>875.9</ele>
        <time>2016-06-13T18:04:06Z</time>
      </trkpt>
      <trkpt lat="44.45955" lon="6.37732">
        <ele>874.46</ele>
        <time>2016-06-13T18:04:07Z</time>
      </trkpt>
      <trkpt lat="44.45974" lon="6.37662">
        <ele>868.69</ele>
        <time>2016-06-13T18:04:10Z</time>
      </trkpt>
      <trkpt lat="44.45977" lon="6.37636">
        <ele>866.77</ele>
        <time>2016-06-13T18:04:11Z</time>
      </trkpt>
      <trkpt lat="44.45983" lon="6.37584">
        <ele>865.32</ele>
        <time>2016-06-13T18:04:13Z</time>
      </trkpt>
      <trkpt lat="44.4601" lon="6.3748">
        <ele>864.84</ele>
        <time>2016-06-13T18:04:17Z</time>
      </trkpt>
      <trkpt lat="44.46085" lon="6.37338">
        <ele>866.77</ele>
        <time>2016-06-13T18:04:23Z</time>
      </trkpt>
      <trkpt lat="44.46142" lon="6.37247">
        <ele>866.77</ele>
        <time>2016-06-13T18:04:27Z</time>
      </trkpt>
      <trkpt lat="44.46177" lon="6.37146">
        <ele>867.25</ele>
        <time>2016-06-13T18:04:31Z</time>
      </trkpt>
      <trkpt lat="44.46189" lon="6.37061">
        <ele>868.21</ele>
        <time>2016-06-13T18:04:34Z</time>
      </trkpt>
      <trkpt lat="44.46224" lon="6.36969">
        <ele>864.84</ele>
        <time>2016-06-13T18:04:38Z</time>
      </trkpt>
      <trkpt lat="44.4637" lon="6.36762">
        <ele>861.96</ele>
        <time>2016-06-13T18:04:48Z</time>
      </trkpt>
      <trkpt lat="44.46387" lon="6.36654">
        <ele>863.88</ele>
        <time>2016-06-13T18:04:53Z</time>
      </trkpt>
      <trkpt lat="44.46368" lon="6.36614">
        <ele>865.8</ele>
        <time>2016-06-13T18:04:55Z</time>
      </trkpt>
      <trkpt lat="44.46346" lon="6.36577">
        <ele>867.73</ele>
        <time>2016-06-13T18:04:57Z</time>
      </trkpt>
      <trkpt lat="44.46336" lon="6.36557">
        <ele>868.21</ele>
        <time>2016-06-13T18:04:58Z</time>
      </trkpt>
      <trkpt lat="44.46319" lon="6.36517">
        <ele>868.69</ele>
        <time>2016-06-13T18:05:00Z</time>
      </trkpt>
      <trkpt lat="44.46307" lon="6.36471">
        <ele>867.73</ele>
        <time>2016-06-13T18:05:02Z</time>
      </trkpt>
      <trkpt lat="44.4629" lon="6.3634">
        <ele>865.8</ele>
        <time>2016-06-13T18:05:07Z</time>
      </trkpt>
      <trkpt lat="44.46294" lon="6.36277">
        <ele>863.4</ele>
        <time>2016-06-13T18:05:10Z</time>
      </trkpt>
      <trkpt lat="44.46309" lon="6.36249">
        <ele>861.48</ele>
        <time>2016-06-13T18:05:12Z</time>
      </trkpt>
      <trkpt lat="44.46331" lon="6.36232">
        <ele>861.48</ele>
        <time>2016-06-13T18:05:14Z</time>
      </trkpt>
      <trkpt lat="44.46445" lon="6.36173">
        <ele>863.4</ele>
        <time>2016-06-13T18:05:22Z</time>
      </trkpt>
      <trkpt lat="44.46476" lon="6.36155">
        <ele>862.92</ele>
        <time>2016-06-13T18:05:24Z</time>
      </trkpt>
      <trkpt lat="44.46528" lon="6.36081">
        <ele>861.96</ele>
        <time>2016-06-13T18:05:29Z</time>
      </trkpt>
      <trkpt lat="44.46529" lon="6.36038">
        <ele>861.48</ele>
        <time>2016-06-13T18:05:31Z</time>
      </trkpt>
      <trkpt lat="44.4652" lon="6.35969">
        <ele>865.32</ele>
        <time>2016-06-13T18:05:34Z</time>
      </trkpt>
      <trkpt lat="44.4651" lon="6.35894">
        <ele>868.69</ele>
        <time>2016-06-13T18:05:37Z</time>
      </trkpt>
      <trkpt lat="44.46499" lon="6.35817">
        <ele>871.57</ele>
        <time>2016-06-13T18:05:40Z</time>
      </trkpt>
      <trkpt lat="44.46496" lon="6.35793">
        <ele>873.5</ele>
        <time>2016-06-13T18:05:41Z</time>
      </trkpt>
      <trkpt lat="44.46507" lon="6.35672">
        <ele>876.86</ele>
        <time>2016-06-13T18:05:46Z</time>
      </trkpt>
      <trkpt lat="44.46537" lon="6.3554">
        <ele>875.9</ele>
        <time>2016-06-13T18:05:51Z</time>
      </trkpt>
      <trkpt lat="44.46562" lon="6.35431">
        <ele>874.94</ele>
        <time>2016-06-13T18:05:55Z</time>
      </trkpt>
      <trkpt lat="44.46598" lon="6.3535">
        <ele>876.86</ele>
        <time>2016-06-13T18:05:59Z</time>
      </trkpt>
      <trkpt lat="44.4664" lon="6.35313">
        <ele>874.46</ele>
        <time>2016-06-13T18:06:02Z</time>
      </trkpt>
      <trkpt lat="44.46657" lon="6.35305">
        <ele>874.94</ele>
        <time>2016-06-13T18:06:03Z</time>
      </trkpt>
      <trkpt lat="44.4671" lon="6.35266">
        <ele>867.25</ele>
        <time>2016-06-13T18:06:07Z</time>
      </trkpt>
      <trkpt lat="44.46722" lon="6.35226">
        <ele>865.8</ele>
        <time>2016-06-13T18:06:09Z</time>
      </trkpt>
      <trkpt lat="44.46739" lon="6.35128">
        <ele>868.21</ele>
        <time>2016-06-13T18:06:13Z</time>
      </trkpt>
      <trkpt lat="44.46744" lon="6.35104">
        <ele>868.69</ele>
        <time>2016-06-13T18:06:14Z</time>
      </trkpt>
      <trkpt lat="44.46737" lon="6.34991">
        <ele>868.21</ele>
        <time>2016-06-13T18:06:19Z</time>
      </trkpt>
      <trkpt lat="44.46733" lon="6.34873">
        <ele>870.61</ele>
        <time>2016-06-13T18:06:25Z</time>
      </trkpt>
      <trkpt lat="44.46755" lon="6.34812">
        <ele>869.17</ele>
        <time>2016-06-13T18:06:28Z</time>
      </trkpt>
      <trkpt lat="44.4677" lon="6.34721">
        <ele>866.77</ele>
        <time>2016-06-13T18:06:32Z</time>
      </trkpt>
      <trkpt lat="44.46803" lon="6.34673">
        <ele>863.4</ele>
        <time>2016-06-13T18:06:36Z</time>
      </trkpt>
      <trkpt lat="44.46844" lon="6.3464">
        <ele>861</ele>
        <time>2016-06-13T18:06:40Z</time>
      </trkpt>
      <trkpt lat="44.46848" lon="6.34611">
        <ele>860.04</ele>
        <time>2016-06-13T18:06:42Z</time>
      </trkpt>
      <trkpt lat="44.46813" lon="6.34573">
        <ele>861.48</ele>
        <time>2016-06-13T18:06:46Z</time>
      </trkpt>
      <trkpt lat="44.46728" lon="6.34548">
        <ele>864.36</ele>
        <time>2016-06-13T18:06:52Z</time>
      </trkpt>
      <trkpt lat="44.46692" lon="6.34493">
        <ele>865.8</ele>
        <time>2016-06-13T18:06:57Z</time>
      </trkpt>
      <trkpt lat="44.46696" lon="6.34458">
        <ele>865.8</ele>
        <time>2016-06-13T18:06:59Z</time>
      </trkpt>
      <trkpt lat="44.46723" lon="6.3433">
        <ele>868.21</ele>
        <time>2016-06-13T18:07:05Z</time>
      </trkpt>
      <trkpt lat="44.46715" lon="6.34245">
        <ele>867.25</ele>
        <time>2016-06-13T18:07:09Z</time>
      </trkpt>
      <trkpt lat="44.46692" lon="6.34186">
        <ele>866.77</ele>
        <time>2016-06-13T18:07:12Z</time>
      </trkpt>
      <trkpt lat="44.46693" lon="6.34084">
        <ele>869.17</ele>
        <time>2016-06-13T18:07:17Z</time>
      </trkpt>
      <trkpt lat="44.46705" lon="6.34041">
        <ele>867.25</ele>
        <time>2016-06-13T18:07:19Z</time>
      </trkpt>
      <trkpt lat="44.46742" lon="6.33905">
        <ele>870.13</ele>
        <time>2016-06-13T18:07:25Z</time>
      </trkpt>
      <trkpt lat="44.46767" lon="6.33812">
        <ele>872.05</ele>
        <time>2016-06-13T18:07:29Z</time>
      </trkpt>
      <trkpt lat="44.4678" lon="6.33767">
        <ele>870.61</ele>
        <time>2016-06-13T18:07:31Z</time>
      </trkpt>
      <trkpt lat="44.46785" lon="6.33694">
        <ele>871.09</ele>
        <time>2016-06-13T18:07:34Z</time>
      </trkpt>
      <trkpt lat="44.46791" lon="6.33624">
        <ele>875.42</ele>
        <time>2016-06-13T18:07:37Z</time>
      </trkpt>
      <trkpt lat="44.46808" lon="6.33583">
        <ele>879.74</ele>
        <time>2016-06-13T18:07:39Z</time>
      </trkpt>
      <trkpt lat="44.46818" lon="6.33565">
        <ele>880.71</ele>
        <time>2016-06-13T18:07:40Z</time>
      </trkpt>
      <trkpt lat="44.4685" lon="6.33517">
        <ele>882.63</ele>
        <time>2016-06-13T18:07:43Z</time>
      </trkpt>
      <trkpt lat="44.46878" lon="6.33472">
        <ele>885.51</ele>
        <time>2016-06-13T18:07:46Z</time>
      </trkpt>
      <trkpt lat="44.46887" lon="6.33457">
        <ele>885.99</ele>
        <time>2016-06-13T18:07:47Z</time>
      </trkpt>
      <trkpt lat="44.46932" lon="6.33364">
        <ele>889.36</ele>
        <time>2016-06-13T18:07:54Z</time>
      </trkpt>
      <trkpt lat="44.46942" lon="6.33338">
        <ele>892.24</ele>
        <time>2016-06-13T18:07:56Z</time>
      </trkpt>
      <trkpt lat="44.46945" lon="6.33327">
        <ele>891.76</ele>
        <time>2016-06-13T18:07:57Z</time>
      </trkpt>
      <trkpt lat="44.46962" lon="6.33275">
        <ele>892.24</ele>
        <time>2016-06-13T18:08:05Z</time>
      </trkpt>
      <trkpt lat="44.46962" lon="6.33275">
        <ele>891.76</ele>
        <time>2016-06-13T18:08:37Z</time>
      </trkpt>
      <trkpt lat="44.46969" lon="6.33247">
        <ele>893.2</ele>
        <time>2016-06-13T18:08:51Z</time>
      </trkpt>
      <trkpt lat="44.4697" lon="6.3324">
        <ele>893.68</ele>
        <time>2016-06-13T18:09:00Z</time>
      </trkpt>
      <trkpt lat="44.46976" lon="6.33208">
        <ele>897.05</ele>
        <time>2016-06-13T18:09:23Z</time>
      </trkpt>
      <trkpt lat="44.46986" lon="6.33164">
        <ele>899.93</ele>
        <time>2016-06-13T18:09:26Z</time>
      </trkpt>
      <trkpt lat="44.46994" lon="6.33128">
        <ele>904.74</ele>
        <time>2016-06-13T18:09:28Z</time>
      </trkpt>
      <trkpt lat="44.47004" lon="6.33089">
        <ele>907.62</ele>
        <time>2016-06-13T18:09:30Z</time>
      </trkpt>
      <trkpt lat="44.4701" lon="6.33">
        <ele>913.39</ele>
        <time>2016-06-13T18:09:34Z</time>
      </trkpt>
      <trkpt lat="44.4701" lon="6.32978">
        <ele>913.39</ele>
        <time>2016-06-13T18:09:35Z</time>
      </trkpt>
      <trkpt lat="44.47029" lon="6.32897">
        <ele>916.27</ele>
        <time>2016-06-13T18:09:39Z</time>
      </trkpt>
      <trkpt lat="44.47029" lon="6.32827">
        <ele>920.6</ele>
        <time>2016-06-13T18:09:43Z</time>
      </trkpt>
      <trkpt lat="44.47013" lon="6.32793">
        <ele>922.52</ele>
        <time>2016-06-13T18:09:45Z</time>
      </trkpt>
      <trkpt lat="44.46984" lon="6.32722">
        <ele>929.25</ele>
        <time>2016-06-13T18:09:49Z</time>
      </trkpt>
      <trkpt lat="44.46985" lon="6.32681">
        <ele>933.1</ele>
        <time>2016-06-13T18:09:51Z</time>
      </trkpt>
      <trkpt lat="44.4699" lon="6.32639">
        <ele>935.98</ele>
        <time>2016-06-13T18:09:53Z</time>
      </trkpt>
      <trkpt lat="44.46999" lon="6.32602">
        <ele>936.94</ele>
        <time>2016-06-13T18:09:55Z</time>
      </trkpt>
      <trkpt lat="44.47018" lon="6.32578">
        <ele>938.38</ele>
        <time>2016-06-13T18:09:57Z</time>
      </trkpt>
      <trkpt lat="44.47056" lon="6.32571">
        <ele>939.83</ele>
        <time>2016-06-13T18:10:00Z</time>
      </trkpt>
      <trkpt lat="44.47101" lon="6.32588">
        <ele>944.15</ele>
        <time>2016-06-13T18:10:03Z</time>
      </trkpt>
      <trkpt lat="44.47116" lon="6.32593">
        <ele>946.07</ele>
        <time>2016-06-13T18:10:04Z</time>
      </trkpt>
      <trkpt lat="44.47156" lon="6.32638">
        <ele>948.96</ele>
        <time>2016-06-13T18:10:08Z</time>
      </trkpt>
      <trkpt lat="44.47174" lon="6.32691">
        <ele>952.32</ele>
        <time>2016-06-13T18:10:11Z</time>
      </trkpt>
      <trkpt lat="44.47227" lon="6.32736">
        <ele>952.32</ele>
        <time>2016-06-13T18:10:16Z</time>
      </trkpt>
      <trkpt lat="44.47269" lon="6.32697">
        <ele>952.32</ele>
        <time>2016-06-13T18:10:20Z</time>
      </trkpt>
      <trkpt lat="44.47272" lon="6.32639">
        <ele>953.28</ele>
        <time>2016-06-13T18:10:23Z</time>
      </trkpt>
      <trkpt lat="44.47262" lon="6.32571">
        <ele>956.17</ele>
        <time>2016-06-13T18:10:26Z</time>
      </trkpt>
      <trkpt lat="44.47272" lon="6.32494">
        <ele>957.13</ele>
        <time>2016-06-13T18:10:30Z</time>
      </trkpt>
      <trkpt lat="44.47299" lon="6.32412">
        <ele>961.46</ele>
        <time>2016-06-13T18:10:34Z</time>
      </trkpt>
      <trkpt lat="44.47305" lon="6.32393">
        <ele>960.98</ele>
        <time>2016-06-13T18:10:35Z</time>
      </trkpt>
      <trkpt lat="44.47292" lon="6.32307">
        <ele>961.46</ele>
        <time>2016-06-13T18:10:40Z</time>
      </trkpt>
      <trkpt lat="44.47249" lon="6.32288">
        <ele>964.34</ele>
        <time>2016-06-13T18:10:43Z</time>
      </trkpt>
      <trkpt lat="44.47174" lon="6.32249">
        <ele>965.3</ele>
        <time>2016-06-13T18:10:49Z</time>
      </trkpt>
      <trkpt lat="44.47158" lon="6.32219">
        <ele>966.26</ele>
        <time>2016-06-13T18:10:51Z</time>
      </trkpt>
      <trkpt lat="44.47138" lon="6.32168">
        <ele>970.11</ele>
        <time>2016-06-13T18:10:54Z</time>
      </trkpt>
      <trkpt lat="44.47128" lon="6.3209">
        <ele>976.36</ele>
        <time>2016-06-13T18:10:58Z</time>
      </trkpt>
      <trkpt lat="44.47109" lon="6.3198">
        <ele>982.6</ele>
        <time>2016-06-13T18:11:04Z</time>
      </trkpt>
      <trkpt lat="44.47099" lon="6.31926">
        <ele>986.45</ele>
        <time>2016-06-13T18:11:07Z</time>
      </trkpt>
      <trkpt lat="44.47114" lon="6.31873">
        <ele>991.26</ele>
        <time>2016-06-13T18:11:10Z</time>
      </trkpt>
      <trkpt lat="44.47124" lon="6.31858">
        <ele>993.18</ele>
        <time>2016-06-13T18:11:11Z</time>
      </trkpt>
      <trkpt lat="44.47147" lon="6.31827">
        <ele>996.06</ele>
        <time>2016-06-13T18:11:13Z</time>
      </trkpt>
      <trkpt lat="44.47165" lon="6.3179">
        <ele>998.95</ele>
        <time>2016-06-13T18:11:15Z</time>
      </trkpt>
      <trkpt lat="44.47202" lon="6.31749">
        <ele>1003.27</ele>
        <time>2016-06-13T18:11:18Z</time>
      </trkpt>
      <trkpt lat="44.47246" lon="6.31742">
        <ele>1006.16</ele>
        <time>2016-06-13T18:11:21Z</time>
      </trkpt>
      <trkpt lat="44.47276" lon="6.31753">
        <ele>1010</ele>
        <time>2016-06-13T18:11:23Z</time>
      </trkpt>
      <trkpt lat="44.47333" lon="6.31721">
        <ele>1015.77</ele>
        <time>2016-06-13T18:11:28Z</time>
      </trkpt>
      <trkpt lat="44.47342" lon="6.31685">
        <ele>1020.1</ele>
        <time>2016-06-13T18:11:30Z</time>
      </trkpt>
      <trkpt lat="44.47369" lon="6.3164">
        <ele>1024.42</ele>
        <time>2016-06-13T18:11:33Z</time>
      </trkpt>
      <trkpt lat="44.47433" lon="6.31601">
        <ele>1029.23</ele>
        <time>2016-06-13T18:11:38Z</time>
      </trkpt>
      <trkpt lat="44.47464" lon="6.31586">
        <ele>1030.19</ele>
        <time>2016-06-13T18:11:41Z</time>
      </trkpt>
      <trkpt lat="44.47489" lon="6.31602">
        <ele>1032.11</ele>
        <time>2016-06-13T18:11:46Z</time>
      </trkpt>
      <trkpt lat="44.4749" lon="6.31618">
        <ele>1033.07</ele>
        <time>2016-06-13T18:11:48Z</time>
      </trkpt>
      <trkpt lat="44.47457" lon="6.31623">
        <ele>1034.52</ele>
        <time>2016-06-13T18:11:52Z</time>
      </trkpt>
      <trkpt lat="44.4744" lon="6.31628">
        <ele>1035.96</ele>
        <time>2016-06-13T18:11:54Z</time>
      </trkpt>
      <trkpt lat="44.47412" lon="6.31647">
        <ele>1040.76</ele>
        <time>2016-06-13T18:11:57Z</time>
      </trkpt>
      <trkpt lat="44.47405" lon="6.31673">
        <ele>1042.21</ele>
        <time>2016-06-13T18:11:59Z</time>
      </trkpt>
      <trkpt lat="44.47411" lon="6.31697">
        <ele>1044.61</ele>
        <time>2016-06-13T18:12:01Z</time>
      </trkpt>
      <trkpt lat="44.47423" lon="6.31722">
        <ele>1045.09</ele>
        <time>2016-06-13T18:12:04Z</time>
      </trkpt>
      <trkpt lat="44.47433" lon="6.31767">
        <ele>1050.38</ele>
        <time>2016-06-13T18:12:08Z</time>
      </trkpt>
      <trkpt lat="44.47435" lon="6.3178">
        <ele>1050.38</ele>
        <time>2016-06-13T18:12:09Z</time>
      </trkpt>
      <trkpt lat="44.47423" lon="6.31827">
        <ele>1052.78</ele>
        <time>2016-06-13T18:12:13Z</time>
      </trkpt>
      <trkpt lat="44.47409" lon="6.31847">
        <ele>1053.26</ele>
        <time>2016-06-13T18:12:15Z</time>
      </trkpt>
      <trkpt lat="44.47403" lon="6.31858">
        <ele>1055.18</ele>
        <time>2016-06-13T18:12:16Z</time>
      </trkpt>
      <trkpt lat="44.47385" lon="6.31905">
        <ele>1059.51</ele>
        <time>2016-06-13T18:12:20Z</time>
      </trkpt>
      <trkpt lat="44.47386" lon="6.31915">
        <ele>1059.51</ele>
        <time>2016-06-13T18:12:21Z</time>
      </trkpt>
      <trkpt lat="44.47407" lon="6.3192">
        <ele>1059.99</ele>
        <time>2016-06-13T18:12:25Z</time>
      </trkpt>
      <trkpt lat="44.47411" lon="6.31896">
        <ele>1063.36</ele>
        <time>2016-06-13T18:12:27Z</time>
      </trkpt>
      <trkpt lat="44.47412" lon="6.31882">
        <ele>1062.39</ele>
        <time>2016-06-13T18:12:28Z</time>
      </trkpt>
      <trkpt lat="44.47432" lon="6.31847">
        <ele>1063.84</ele>
        <time>2016-06-13T18:12:31Z</time>
      </trkpt>
      <trkpt lat="44.47452" lon="6.31823">
        <ele>1065.28</ele>
        <time>2016-06-13T18:12:33Z</time>
      </trkpt>
      <trkpt lat="44.4747" lon="6.31795">
        <ele>1066.24</ele>
        <time>2016-06-13T18:12:35Z</time>
      </trkpt>
      <trkpt lat="44.47504" lon="6.31763">
        <ele>1069.12</ele>
        <time>2016-06-13T18:12:38Z</time>
      </trkpt>
      <trkpt lat="44.47518" lon="6.31758">
        <ele>1070.57</ele>
        <time>2016-06-13T18:12:39Z</time>
      </trkpt>
      <trkpt lat="44.47555" lon="6.31747">
        <ele>1072.49</ele>
        <time>2016-06-13T18:12:42Z</time>
      </trkpt>
      <trkpt lat="44.47594" lon="6.31732">
        <ele>1075.85</ele>
        <time>2016-06-13T18:12:46Z</time>
      </trkpt>
      <trkpt lat="44.47633" lon="6.3171">
        <ele>1080.18</ele>
        <time>2016-06-13T18:12:50Z</time>
      </trkpt>
      <trkpt lat="44.47642" lon="6.31704">
        <ele>1080.66</ele>
        <time>2016-06-13T18:12:51Z</time>
      </trkpt>
      <trkpt lat="44.47659" lon="6.31691">
        <ele>1082.1</ele>
        <time>2016-06-13T18:12:53Z</time>
      </trkpt>
      <trkpt lat="44.47708" lon="6.31647">
        <ele>1085.47</ele>
        <time>2016-06-13T18:13:02Z</time>
      </trkpt>
      <trkpt lat="44.47714" lon="6.31642">
        <ele>1085.47</ele>
        <time>2016-06-13T18:13:03Z</time>
      </trkpt>
      <trkpt lat="44.47728" lon="6.3163">
        <ele>1086.91</ele>
        <time>2016-06-13T18:13:05Z</time>
      </trkpt>
      <trkpt lat="44.4777" lon="6.31614">
        <ele>1091.23</ele>
        <time>2016-06-13T18:13:09Z</time>
      </trkpt>
      <trkpt lat="44.4779" lon="6.31609">
        <ele>1092.2</ele>
        <time>2016-06-13T18:13:11Z</time>
      </trkpt>
      <trkpt lat="44.47801" lon="6.31606">
        <ele>1093.64</ele>
        <time>2016-06-13T18:13:12Z</time>
      </trkpt>
      <trkpt lat="44.47819" lon="6.31595">
        <ele>1095.08</ele>
        <time>2016-06-13T18:13:14Z</time>
      </trkpt>
      <trkpt lat="44.47839" lon="6.31569">
        <ele>1097.96</ele>
        <time>2016-06-13T18:13:17Z</time>
      </trkpt>
      <trkpt lat="44.47866" lon="6.31522">
        <ele>1100.37</ele>
        <time>2016-06-13T18:13:22Z</time>
      </trkpt>
      <trkpt lat="44.47872" lon="6.31518">
        <ele>1101.33</ele>
        <time>2016-06-13T18:13:23Z</time>
      </trkpt>
      <trkpt lat="44.4788" lon="6.31515">
        <ele>1101.81</ele>
        <time>2016-06-13T18:13:24Z</time>
      </trkpt>
      <trkpt lat="44.47893" lon="6.31514">
        <ele>1102.77</ele>
        <time>2016-06-13T18:13:26Z</time>
      </trkpt>
      <trkpt lat="44.47951" lon="6.3151">
        <ele>1102.77</ele>
        <time>2016-06-13T18:13:38Z</time>
      </trkpt>
      <trkpt lat="44.4796" lon="6.31509">
        <ele>1103.25</ele>
        <time>2016-06-13T18:13:39Z</time>
      </trkpt>
      <trkpt lat="44.48" lon="6.31518">
        <ele>1106.13</ele>
        <time>2016-06-13T18:13:42Z</time>
      </trkpt>
      <trkpt lat="44.48028" lon="6.31529">
        <ele>1105.65</ele>
        <time>2016-06-13T18:13:44Z</time>
      </trkpt>
      <trkpt lat="44.48067" lon="6.3156">
        <ele>1105.17</ele>
        <time>2016-06-13T18:13:47Z</time>
      </trkpt>
      <trkpt lat="44.48077" lon="6.31575">
        <ele>1101.81</ele>
        <time>2016-06-13T18:13:48Z</time>
      </trkpt>
      <trkpt lat="44.48085" lon="6.31592">
        <ele>1100.85</ele>
        <time>2016-06-13T18:13:49Z</time>
      </trkpt>
      <trkpt lat="44.48089" lon="6.31611">
        <ele>1100.37</ele>
        <time>2016-06-13T18:13:50Z</time>
      </trkpt>
      <trkpt lat="44.48091" lon="6.31632">
        <ele>1100.37</ele>
        <time>2016-06-13T18:13:51Z</time>
      </trkpt>
      <trkpt lat="44.4809" lon="6.31654">
        <ele>1100.37</ele>
        <time>2016-06-13T18:13:52Z</time>
      </trkpt>
      <trkpt lat="44.48087" lon="6.31677">
        <ele>1100.85</ele>
        <time>2016-06-13T18:13:53Z</time>
      </trkpt>
      <trkpt lat="44.48081" lon="6.31699">
        <ele>1101.33</ele>
        <time>2016-06-13T18:13:54Z</time>
      </trkpt>
      <trkpt lat="44.48075" lon="6.31721">
        <ele>1101.81</ele>
        <time>2016-06-13T18:13:55Z</time>
      </trkpt>
      <trkpt lat="44.48071" lon="6.31743">
        <ele>1100.37</ele>
        <time>2016-06-13T18:13:56Z</time>
      </trkpt>
      <trkpt lat="44.48069" lon="6.31767">
        <ele>1099.4</ele>
        <time>2016-06-13T18:13:57Z</time>
      </trkpt>
      <trkpt lat="44.48071" lon="6.31792">
        <ele>1098.44</ele>
        <time>2016-06-13T18:13:58Z</time>
      </trkpt>
      <trkpt lat="44.48076" lon="6.31816">
        <ele>1097</ele>
        <time>2016-06-13T18:13:59Z</time>
      </trkpt>
      <trkpt lat="44.48085" lon="6.3184">
        <ele>1096.04</ele>
        <time>2016-06-13T18:14:00Z</time>
      </trkpt>
      <trkpt lat="44.48096" lon="6.31861">
        <ele>1096.04</ele>
        <time>2016-06-13T18:14:01Z</time>
      </trkpt>
      <trkpt lat="44.48108" lon="6.31881">
        <ele>1095.56</ele>
        <time>2016-06-13T18:14:02Z</time>
      </trkpt>
      <trkpt lat="44.48121" lon="6.319">
        <ele>1096.52</ele>
        <time>2016-06-13T18:14:03Z</time>
      </trkpt>
      <trkpt lat="44.48134" lon="6.31918">
        <ele>1096.52</ele>
        <time>2016-06-13T18:14:04Z</time>
      </trkpt>
      <trkpt lat="44.48211" lon="6.31942">
        <ele>1092.68</ele>
        <time>2016-06-13T18:14:09Z</time>
      </trkpt>
      <trkpt lat="44.48278" lon="6.31886">
        <ele>1089.31</ele>
        <time>2016-06-13T18:14:14Z</time>
      </trkpt>
      <trkpt lat="44.48293" lon="6.31886">
        <ele>1088.83</ele>
        <time>2016-06-13T18:14:15Z</time>
      </trkpt>
      <trkpt lat="44.4836" lon="6.31892">
        <ele>1089.79</ele>
        <time>2016-06-13T18:14:19Z</time>
      </trkpt>
      <trkpt lat="44.48377" lon="6.31895">
        <ele>1088.35</ele>
        <time>2016-06-13T18:14:20Z</time>
      </trkpt>
      <trkpt lat="44.48411" lon="6.31906">
        <ele>1087.39</ele>
        <time>2016-06-13T18:14:22Z</time>
      </trkpt>
      <trkpt lat="44.48452" lon="6.31947">
        <ele>1084.99</ele>
        <time>2016-06-13T18:14:25Z</time>
      </trkpt>
      <trkpt lat="44.48516" lon="6.3204">
        <ele>1083.54</ele>
        <time>2016-06-13T18:14:30Z</time>
      </trkpt>
      <trkpt lat="44.4858" lon="6.32213">
        <ele>1078.26</ele>
        <time>2016-06-13T18:14:37Z</time>
      </trkpt>
      <trkpt lat="44.48597" lon="6.32267">
        <ele>1075.85</ele>
        <time>2016-06-13T18:14:39Z</time>
      </trkpt>
      <trkpt lat="44.48619" lon="6.32314">
        <ele>1074.89</ele>
        <time>2016-06-13T18:14:41Z</time>
      </trkpt>
      <trkpt lat="44.48647" lon="6.32359">
        <ele>1072.01</ele>
        <time>2016-06-13T18:14:43Z</time>
      </trkpt>
      <trkpt lat="44.4867" lon="6.32409">
        <ele>1071.53</ele>
        <time>2016-06-13T18:14:45Z</time>
      </trkpt>
      <trkpt lat="44.48726" lon="6.32538">
        <ele>1069.6</ele>
        <time>2016-06-13T18:14:50Z</time>
      </trkpt>
      <trkpt lat="44.48749" lon="6.32617">
        <ele>1068.64</ele>
        <time>2016-06-13T18:14:53Z</time>
      </trkpt>
      <trkpt lat="44.48799" lon="6.327">
        <ele>1069.12</ele>
        <time>2016-06-13T18:14:57Z</time>
      </trkpt>
      <trkpt lat="44.48814" lon="6.32719">
        <ele>1071.05</ele>
        <time>2016-06-13T18:14:58Z</time>
      </trkpt>
      <trkpt lat="44.4889" lon="6.32769">
        <ele>1075.85</ele>
        <time>2016-06-13T18:15:02Z</time>
      </trkpt>
      <trkpt lat="44.48965" lon="6.328">
        <ele>1077.29</ele>
        <time>2016-06-13T18:15:06Z</time>
      </trkpt>
      <trkpt lat="44.49026" lon="6.32883">
        <ele>1081.62</ele>
        <time>2016-06-13T18:15:11Z</time>
      </trkpt>
      <trkpt lat="44.49029" lon="6.32936">
        <ele>1084.02</ele>
        <time>2016-06-13T18:15:13Z</time>
      </trkpt>
      <trkpt lat="44.49026" lon="6.32993">
        <ele>1084.99</ele>
        <time>2016-06-13T18:15:15Z</time>
      </trkpt>
      <trkpt lat="44.4904" lon="6.33108">
        <ele>1083.06</ele>
        <time>2016-06-13T18:15:19Z</time>
      </trkpt>
      <trkpt lat="44.49044" lon="6.33194">
        <ele>1078.26</ele>
        <time>2016-06-13T18:15:22Z</time>
      </trkpt>
      <trkpt lat="44.49041" lon="6.33223">
        <ele>1078.26</ele>
        <time>2016-06-13T18:15:23Z</time>
      </trkpt>
      <trkpt lat="44.49028" lon="6.33278">
        <ele>1077.29</ele>
        <time>2016-06-13T18:15:25Z</time>
      </trkpt>
      <trkpt lat="44.48997" lon="6.33376">
        <ele>1072.97</ele>
        <time>2016-06-13T18:15:29Z</time>
      </trkpt>
      <trkpt lat="44.4899" lon="6.33419">
        <ele>1071.53</ele>
        <time>2016-06-13T18:15:31Z</time>
      </trkpt>
      <trkpt lat="44.49005" lon="6.33455">
        <ele>1069.6</ele>
        <time>2016-06-13T18:15:33Z</time>
      </trkpt>
      <trkpt lat="44.49019" lon="6.33469">
        <ele>1069.6</ele>
        <time>2016-06-13T18:15:34Z</time>
      </trkpt>
      <trkpt lat="44.49063" lon="6.33509">
        <ele>1070.57</ele>
        <time>2016-06-13T18:15:37Z</time>
      </trkpt>
      <trkpt lat="44.49109" lon="6.33518">
        <ele>1066.72</ele>
        <time>2016-06-13T18:15:40Z</time>
      </trkpt>
      <trkpt lat="44.49125" lon="6.33509">
        <ele>1067.2</ele>
        <time>2016-06-13T18:15:41Z</time>
      </trkpt>
      <trkpt lat="44.49209" lon="6.33448">
        <ele>1063.84</ele>
        <time>2016-06-13T18:15:46Z</time>
      </trkpt>
      <trkpt lat="44.49318" lon="6.33443">
        <ele>1060.47</ele>
        <time>2016-06-13T18:15:52Z</time>
      </trkpt>
      <trkpt lat="44.49337" lon="6.33457">
        <ele>1059.99</ele>
        <time>2016-06-13T18:15:53Z</time>
      </trkpt>
      <trkpt lat="44.49401" lon="6.33515">
        <ele>1058.55</ele>
        <time>2016-06-13T18:15:57Z</time>
      </trkpt>
      <trkpt lat="44.49445" lon="6.336">
        <ele>1062.87</ele>
        <time>2016-06-13T18:16:01Z</time>
      </trkpt>
      <trkpt lat="44.49449" lon="6.33627">
        <ele>1063.84</ele>
        <time>2016-06-13T18:16:02Z</time>
      </trkpt>
      <trkpt lat="44.49458" lon="6.33705">
        <ele>1063.84</ele>
        <time>2016-06-13T18:16:05Z</time>
      </trkpt>
      <trkpt lat="44.4951" lon="6.338">
        <ele>1065.76</ele>
        <time>2016-06-13T18:16:10Z</time>
      </trkpt>
      <trkpt lat="44.49542" lon="6.33889">
        <ele>1066.24</ele>
        <time>2016-06-13T18:16:15Z</time>
      </trkpt>
      <trkpt lat="44.49538" lon="6.33947">
        <ele>1067.2</ele>
        <time>2016-06-13T18:16:18Z</time>
      </trkpt>
      <trkpt lat="44.4951" lon="6.34024">
        <ele>1070.08</ele>
        <time>2016-06-13T18:16:22Z</time>
      </trkpt>
      <trkpt lat="44.49468" lon="6.34089">
        <ele>1069.6</ele>
        <time>2016-06-13T18:16:26Z</time>
      </trkpt>
      <trkpt lat="44.49449" lon="6.34119">
        <ele>1069.12</ele>
        <time>2016-06-13T18:16:28Z</time>
      </trkpt>
      <trkpt lat="44.49449" lon="6.34205">
        <ele>1069.12</ele>
        <time>2016-06-13T18:16:33Z</time>
      </trkpt>
      <trkpt lat="44.49468" lon="6.34231">
        <ele>1070.57</ele>
        <time>2016-06-13T18:16:35Z</time>
      </trkpt>
      <trkpt lat="44.49489" lon="6.34253">
        <ele>1070.08</ele>
        <time>2016-06-13T18:16:37Z</time>
      </trkpt>
      <trkpt lat="44.4954" lon="6.34276">
        <ele>1070.08</ele>
        <time>2016-06-13T18:16:41Z</time>
      </trkpt>
      <trkpt lat="44.49591" lon="6.34329">
        <ele>1071.05</ele>
        <time>2016-06-13T18:16:46Z</time>
      </trkpt>
      <trkpt lat="44.49631" lon="6.34398">
        <ele>1071.53</ele>
        <time>2016-06-13T18:16:51Z</time>
      </trkpt>
      <trkpt lat="44.49665" lon="6.34452">
        <ele>1073.93</ele>
        <time>2016-06-13T18:16:55Z</time>
      </trkpt>
      <trkpt lat="44.49717" lon="6.34498">
        <ele>1076.33</ele>
        <time>2016-06-13T18:17:01Z</time>
      </trkpt>
      <trkpt lat="44.49736" lon="6.34472">
        <ele>1076.33</ele>
        <time>2016-06-13T18:17:03Z</time>
      </trkpt>
      <trkpt lat="44.49771" lon="6.34402">
        <ele>1080.18</ele>
        <time>2016-06-13T18:17:07Z</time>
      </trkpt>
      <trkpt lat="44.49839" lon="6.3436">
        <ele>1082.1</ele>
        <time>2016-06-13T18:17:12Z</time>
      </trkpt>
      <trkpt lat="44.49901" lon="6.3441">
        <ele>1084.02</ele>
        <time>2016-06-13T18:17:17Z</time>
      </trkpt>
      <trkpt lat="44.49911" lon="6.3445">
        <ele>1084.99</ele>
        <time>2016-06-13T18:17:19Z</time>
      </trkpt>
      <trkpt lat="44.4992" lon="6.34516">
        <ele>1087.39</ele>
        <time>2016-06-13T18:17:22Z</time>
      </trkpt>
      <trkpt lat="44.49964" lon="6.34564">
        <ele>1086.91</ele>
        <time>2016-06-13T18:17:26Z</time>
      </trkpt>
      <trkpt lat="44.4999" lon="6.34559">
        <ele>1086.91</ele>
        <time>2016-06-13T18:17:28Z</time>
      </trkpt>
      <trkpt lat="44.50024" lon="6.34546">
        <ele>1085.47</ele>
        <time>2016-06-13T18:17:32Z</time>
      </trkpt>
      <trkpt lat="44.50039" lon="6.34544">
        <ele>1085.47</ele>
        <time>2016-06-13T18:17:35Z</time>
      </trkpt>
      <trkpt lat="44.50076" lon="6.34553">
        <ele>1086.43</ele>
        <time>2016-06-13T18:17:39Z</time>
      </trkpt>
      <trkpt lat="44.50143" lon="6.34587">
        <ele>1084.99</ele>
        <time>2016-06-13T18:17:46Z</time>
      </trkpt>
      <trkpt lat="44.50147" lon="6.34576">
        <ele>1083.54</ele>
        <time>2016-06-13T18:17:52Z</time>
      </trkpt>
      <trkpt lat="44.50142" lon="6.34575">
        <ele>1082.58</ele>
        <time>2016-06-13T18:17:53Z</time>
      </trkpt>
      <trkpt lat="44.5013" lon="6.34575">
        <ele>1083.54</ele>
        <time>2016-06-13T18:17:55Z</time>
      </trkpt>
      <trkpt lat="44.50113" lon="6.3457">
        <ele>1084.99</ele>
        <time>2016-06-13T18:17:57Z</time>
      </trkpt>
      <trkpt lat="44.5009" lon="6.34557">
        <ele>1088.35</ele>
        <time>2016-06-13T18:17:59Z</time>
      </trkpt>
      <trkpt lat="44.50077" lon="6.3455">
        <ele>1089.79</ele>
        <time>2016-06-13T18:18:00Z</time>
      </trkpt>
      <trkpt lat="44.50048" lon="6.34541">
        <ele>1090.27</ele>
        <time>2016-06-13T18:18:02Z</time>
      </trkpt>
      <trkpt lat="44.49974" lon="6.34559">
        <ele>1089.79</ele>
        <time>2016-06-13T18:18:07Z</time>
      </trkpt>
      <trkpt lat="44.49943" lon="6.34553">
        <ele>1087.39</ele>
        <time>2016-06-13T18:18:10Z</time>
      </trkpt>
      <trkpt lat="44.49921" lon="6.34547">
        <ele>1084.99</ele>
        <time>2016-06-13T18:18:19Z</time>
      </trkpt>
      <trkpt lat="44.49921" lon="6.34546">
        <ele>1084.02</ele>
        <time>2016-06-13T18:19:50Z</time>
      </trkpt>
      <trkpt lat="44.49895" lon="6.34532">
        <ele>1087.87</ele>
        <time>2016-06-13T18:19:55Z</time>
      </trkpt>
      <trkpt lat="44.4989" lon="6.34527">
        <ele>1088.83</ele>
        <time>2016-06-13T18:19:56Z</time>
      </trkpt>
      <trkpt lat="44.49856" lon="6.34488">
        <ele>1090.75</ele>
        <time>2016-06-13T18:20:07Z</time>
      </trkpt>
      <trkpt lat="44.49852" lon="6.34485">
        <ele>1090.75</ele>
        <time>2016-06-13T18:20:16Z</time>
      </trkpt>
      <trkpt lat="44.49833" lon="6.3448">
        <ele>1094.12</ele>
        <time>2016-06-13T18:20:20Z</time>
      </trkpt>
      <trkpt lat="44.49819" lon="6.34482">
        <ele>1094.12</ele>
        <time>2016-06-13T18:20:23Z</time>
      </trkpt>
      <trkpt lat="44.49806" lon="6.34497">
        <ele>1095.56</ele>
        <time>2016-06-13T18:20:32Z</time>
      </trkpt>
      <trkpt lat="44.49806" lon="6.34496">
        <ele>1095.08</ele>
        <time>2016-06-13T18:21:16Z</time>
      </trkpt>
      <trkpt lat="44.49806" lon="6.34496">
        <ele>1096.04</ele>
        <time>2016-06-13T18:28:24Z</time>
      </trkpt>
      <trkpt lat="44.49807" lon="6.34495">
        <ele>1095.08</ele>
        <time>2016-06-13T18:28:50Z</time>
      </trkpt>
      <trkpt lat="44.4981" lon="6.34493">
        <ele>1095.56</ele>
        <time>2016-06-13T18:29:08Z</time>
      </trkpt>
      <trkpt lat="44.49808" lon="6.34514">
        <ele>1096.52</ele>
        <time>2016-06-13T18:29:14Z</time>
      </trkpt>
      <trkpt lat="44.4982" lon="6.34531">
        <ele>1098.44</ele>
        <time>2016-06-13T18:29:19Z</time>
      </trkpt>
      <trkpt lat="44.49844" lon="6.34579">
        <ele>1100.85</ele>
        <time>2016-06-13T18:29:31Z</time>
      </trkpt>
      <trkpt lat="44.49859" lon="6.34605">
        <ele>1100.85</ele>
        <time>2016-06-13T18:29:42Z</time>
      </trkpt>
      <trkpt lat="44.49875" lon="6.34595">
        <ele>1098.44</ele>
        <time>2016-06-13T18:29:53Z</time>
      </trkpt>
      <trkpt lat="44.49874" lon="6.3459">
        <ele>1097.48</ele>
        <time>2016-06-13T18:29:55Z</time>
      </trkpt>
      <trkpt lat="44.49862" lon="6.34593">
        <ele>1097.48</ele>
        <time>2016-06-13T18:30:04Z</time>
      </trkpt>
      <trkpt lat="44.49862" lon="6.34593">
        <ele>1097.96</ele>
        <time>2016-06-13T18:30:07Z</time>
      </trkpt>
      <trkpt lat="44.4986" lon="6.34586">
        <ele>1097.96</ele>
        <time>2016-06-13T18:30:17Z</time>
      </trkpt>
      <trkpt lat="44.4986" lon="6.34585">
        <ele>1097.96</ele>
        <time>2016-06-13T18:31:58Z</time>
      </trkpt>
      <trkpt lat="44.49863" lon="6.34586">
        <ele>1098.44</ele>
        <time>2016-06-13T18:40:25Z</time>
      </trkpt>
      <trkpt lat="44.49872" lon="6.34589">
        <ele>1097.96</ele>
        <time>2016-06-13T18:40:31Z</time>
      </trkpt>
      <trkpt lat="44.49871" lon="6.34593">
        <ele>1097.96</ele>
        <time>2016-06-13T18:40:33Z</time>
      </trkpt>
      <trkpt lat="44.49872" lon="6.34597">
        <ele>1098.44</ele>
        <time>2016-06-13T18:40:52Z</time>
      </trkpt>
      <trkpt lat="44.49872" lon="6.34597">
        <ele>1098.92</ele>
        <time>2016-06-13T18:41:36Z</time>
      </trkpt>
    </trkseg>
  </trk>
</gpx>